<
# Wetter Temperatur Luftdruck Luftfeuchtigkeit Sichtweite Windgeschwindigkeit Windrichtung Zeit
1 Clouds 24 1021 60 10000 5.66 110 13:27 22.04.2021
2 Clouds 24 1021 60 10000 5.14 130 12:56 22.04.2021
3 Clouds 23 1021 60 10000 5.66 100 12:38 22.04.2021
4 Clouds 23 1021 60 10000 5.66 100 12:19 22.04.2021
5 Clouds 23 1022 64 10000 5.66 130 11:45 22.04.2021
6 Clouds 23 1022 64 10000 5.66 130 11:45 22.04.2021
7 Clouds 23 1022 64 10000 5.14 160 11:22 22.04.2021
8 Clouds 22 1022 68 10000 4.63 120 10:44 22.04.2021
9 Clouds 22 1022 68 10000 4.63 120 10:21 22.04.2021
10 Clouds 21 1023 68 10000 2.57 150 09:42 22.04.2021
11 Clouds 20 1023 73 10000 3.09 160 09:19 22.04.2021
12 Clouds 20 1023 73 10000 3.09 160 08:38 22.04.2021
13 Clouds 18 1023 82 10000 2.57 160 08:18 22.04.2021
14 Clouds 18 1023 82 10000 2.57 160 07:38 22.04.2021
15 Clouds 18 1023 82 10000 2.57 160 07:19 22.04.2021
16 Clouds 16 1022 94 10000 2.57 160 06:23 22.04.2021
17 Clouds 15 1022 94 10000 1.54 0 05:25 22.04.2021
18 Clouds 14 1021 100 10000 2.06 120 03:31 22.04.2021
19 Clouds 16 1022 88 10000 1.03 0 00:52 22.04.2021
20 Clouds 16 1022 94 10000 2.06 150 23:47 21.04.2021
21 Clouds 16 1022 94 10000 2.06 150 23:25 21.04.2021
22 Clouds 15 1023 94 10000 0.51 0 22:42 21.04.2021
23 Clouds 15 1023 94 10000 0.51 0 22:23 21.04.2021
24 Clouds 15 1023 94 10000 1.54 0 21:42 21.04.2021
25 Clouds 16 1023 94 10000 2.06 120 21:23 21.04.2021
26 Clouds 16 1023 94 10000 2.06 120 21:23 21.04.2021
27 Clouds 16 1023 94 10000 2.57 130 20:42 21.04.2021
28 Clouds 16 1023 94 10000 1.54 140 20:19 21.04.2021
29 Clouds 16 1023 94 10000 2.57 90 19:42 21.04.2021
30 Clouds 17 1023 88 10000 2.57 90 19:23 21.04.2021
31 Clouds 17 1023 88 10000 2.57 100 18:45 21.04.2021
32 Clouds 18 1022 82 10000 3.6 100 18:26 21.04.2021
33 Clouds 19 1022 77 10000 4.12 110 17:47 21.04.2021
34 Clouds 19 1022 77 10000 4.12 110 17:24 21.04.2021
35 Clouds 20 1021 73 10000 4.63 110 16:48 21.04.2021
36 Clouds 21 1021 68 10000 4.63 100 15:57 21.04.2021
37 Clouds 22 1021 64 10000 4.63 90 15:39 21.04.2021
38 Clouds 22 1020 68 10000 5.14 90 14:48 21.04.2021
39 Clouds 23 1020 64 10000 3.6 80 14:30 21.04.2021
40 Clouds 23 1021 60 10000 4.63 90 13:51 21.04.2021
41 Clouds 24 1021 57 10000 4.12 110 13:24 21.04.2021
42 Clouds 23 1021 60 10000 5.14 120 12:58 21.04.2021
43 Clouds 24 1022 57 10000 4.12 120 12:29 21.04.2021
44 Clouds 24 1022 57 10000 4.12 120 12:29 21.04.2021
45 Clouds 23 1022 60 10000 4.12 110 11:49 21.04.2021
46 Clouds 22 1022 60 10000 5.14 110 11:29 21.04.2021
47 Clouds 22 1022 60 10000 4.12 140 10:48 21.04.2021
48 Clouds 22 1023 60 10000 4.63 140 10:18 21.04.2021
49 Clouds 21 1023 64 10000 4.63 160 09:41 21.04.2021
50 Clouds 20 1023 68 10000 4.63 160 08:56 21.04.2021
51 Clouds 20 1023 68 10000 4.63 160 08:56 21.04.2021
52 Clouds 19 1024 72 10000 5.14 160 08:37 21.04.2021
53 Clouds 19 1024 72 10000 5.14 160 08:18 21.04.2021
54 Clouds 17 1023 82 10000 4.63 180 07:29 21.04.2021
55 Clouds 16 1023 88 10000 3.6 160 06:25 21.04.2021
56 Clouds 16 1022 88 10000 3.6 160 04:46 21.04.2021
57 Clouds 17 1022 88 10000 2.06 160 00:51 21.04.2021
58 Clouds 17 1022 88 10000 3.09 140 23:48 20.04.2021
59 Clouds 18 1022 82 10000 3.6 150 22:59 20.04.2021
60 Clouds 18 1022 82 10000 3.6 150 22:38 20.04.2021
61 Clouds 18 1022 82 10000 3.6 150 22:18 20.04.2021
62 Clouds 18 1023 82 10000 3.09 140 21:45 20.04.2021
63 Clouds 18 1023 82 10000 3.09 140 21:24 20.04.2021
64 Clouds 17 1023 88 10000 2.57 150 20:42 20.04.2021
65 Clouds 17 1023 88 10000 2.06 100 20:23 20.04.2021
66 Clouds 17 1023 88 10000 3.09 100 19:52 20.04.2021
67 Clouds 18 1023 82 10000 4.12 110 19:34 20.04.2021
68 Clouds 19 1023 77 10000 5.14 110 18:54 20.04.2021
69 Clouds 19 1022 77 10000 5.14 110 18:35 20.04.2021
70 Clouds 19 1022 77 10000 4.63 120 17:43 20.04.2021
71 Clouds 19 1022 77 10000 5.14 110 17:18 20.04.2021
72 Clouds 20 1021 73 10000 5.14 110 16:43 20.04.2021
73 Clouds 22 1021 64 10000 5.66 110 15:43 20.04.2021
74 Clouds 22 1021 60 10000 5.14 120 15:25 20.04.2021
75 Clouds 22 1021 64 10000 5.14 110 14:52 20.04.2021
76 Clouds 22 1021 64 10000 4.63 150 14:27 20.04.2021
77 Clouds 22 1021 64 10000 4.63 150 13:32 20.04.2021
78 Clouds 22 1021 60 10000 4.63 150 12:55 20.04.2021
79 Clouds 23 1021 56 10000 4.63 140 12:34 20.04.2021
80 Clouds 23 1022 56 10000 4.63 130 11:58 20.04.2021
81 Clouds 23 1022 56 10000 5.66 110 11:38 20.04.2021
82 Clouds 23 1022 56 10000 5.66 110 11:19 20.04.2021
83 Clouds 22 1022 56 10000 5.66 140 10:42 20.04.2021
84 Clouds 22 1023 60 10000 5.66 130 10:20 20.04.2021
85 Clouds 23 1023 60 10000 6.17 110 09:20 20.04.2021
86 Clouds 21 1023 68 10000 4.12 170 08:53 20.04.2021
87 Clouds 19 1023 77 10000 3.6 180 07:59 20.04.2021
88 Clouds 18 1022 82 10000 3.09 170 07:35 20.04.2021
89 Clouds 16 1022 94 10000 3.09 120 05:56 20.04.2021
90 Clouds 16 1021 94 10000 3.6 120 05:31 20.04.2021
91 Clouds 16 1022 94 10000 3.09 110 04:40 20.04.2021
92 Clouds 16 1023 94 10000 3.6 120 00:52 20.04.2021
93 Clouds 16 1023 94 10000 2.57 130 00:27 20.04.2021
94 Clouds 16 1023 88 10000 2.57 140 23:32 19.04.2021
95 Clouds 17 1024 88 10000 3.09 120 22:46 19.04.2021
96 Clouds 17 1024 88 10000 3.09 140 22:26 19.04.2021
97 Clouds 17 1024 88 10000 3.6 140 21:46 19.04.2021
98 Clouds 17 1024 88 10000 3.09 150 21:20 19.04.2021
99 Clouds 17 1024 88 10000 3.09 150 20:41 19.04.2021
100 Clouds 17 1024 88 10000 4.12 120 20:21 19.04.2021
101 Clouds 17 1023 88 10000 4.63 110 19:50 19.04.2021
102 Clouds 17 1023 88 10000 4.12 120 19:27 19.04.2021
103 Clouds 17 1023 88 10000 3.09 140 18:59 19.04.2021
104 Clouds 17 1023 88 10000 2.57 150 18:40 19.04.2021
105 Clouds 17 1023 88 10000 2.57 150 18:19 19.04.2021
106 Clouds 17 1023 88 10000 2.57 150 18:19 19.04.2021
107 Clouds 17 1022 88 10000 3.6 110 17:43 19.04.2021
108 Clouds 18 1022 82 10000 3.6 140 17:23 19.04.2021
109 Clouds 19 1022 77 10000 5.66 110 16:43 19.04.2021
110 Clouds 20 1022 73 10000 5.66 120 16:24 19.04.2021
111 Clouds 20 1022 73 10000 4.63 140 15:42 19.04.2021
112 Clouds 21 1022 68 10000 4.12 140 15:23 19.04.2021
113 Clouds 21 1022 68 10000 3.09 140 14:51 19.04.2021
114 Clouds 22 1021 64 10000 4.63 170 14:30 19.04.2021
115 Clouds 21 1022 68 10000 4.63 160 13:50 19.04.2021
116 Clouds 21 1022 68 10000 3.6 150 13:27 19.04.2021
117 Clouds 20 1022 68 10000 4.63 160 12:47 19.04.2021
118 Clouds 20 1022 68 10000 4.63 150 12:27 19.04.2021
119 Clouds 20 1023 68 10000 5.66 120 11:58 19.04.2021
120 Clouds 19 1023 72 10000 5.14 140 11:27 19.04.2021
121 Clouds 19 1023 72 10000 5.14 140 11:27 19.04.2021
122 Clouds 19 1023 72 10000 4.63 140 10:55 19.04.2021
123 Clouds 19 1023 72 10000 5.14 160 10:36 19.04.2021
124 Clouds 19 1023 72 10000 5.14 160 10:18 19.04.2021
125 Clouds 19 1023 72 10000 5.14 160 10:18 19.04.2021
126 Clouds 18 1024 72 10000 5.14 150 09:38 19.04.2021
127 Clouds 18 1024 72 10000 5.14 150 09:20 19.04.2021
128 Clouds 16 1024 82 10000 5.14 160 08:32 19.04.2021
129 Clouds 16 1024 82 10000 4.63 140 07:49 19.04.2021
130 Clouds 16 1024 82 10000 4.12 150 07:20 19.04.2021
131 Clouds 16 1024 82 10000 4.12 150 06:44 19.04.2021
132 Clouds 15 1024 88 10000 3.6 160 02:38 19.04.2021
133 Clouds 15 1024 82 10000 3.09 140 01:30 19.04.2021
134 Clouds 15 1024 88 10000 3.09 140 00:30 19.04.2021
135 Clouds 15 1024 82 10000 3.09 140 23:19 18.04.2021
136 Clouds 15 1025 82 10000 4.63 160 22:52 18.04.2021
137 Clouds 15 1025 88 10000 4.63 170 22:31 18.04.2021
138 Clouds 15 1025 88 10000 3.09 150 21:45 18.04.2021
139 Clouds 15 1025 88 10000 4.12 110 21:23 18.04.2021
140 Clouds 15 1025 88 10000 4.12 110 21:23 18.04.2021
141 Clouds 16 1025 82 10000 5.14 130 20:40 18.04.2021
142 Clouds 16 1025 82 10000 5.14 130 20:21 18.04.2021
143 Clouds 16 1025 82 10000 7.2 110 19:49 18.04.2021
144 Clouds 16 1025 82 10000 5.66 110 19:30 18.04.2021
145 Clouds 16 1024 88 10000 5.14 110 18:54 18.04.2021
146 Clouds 17 1024 77 10000 6.17 110 18:31 18.04.2021
147 Clouds 17 1024 77 10000 6.17 110 18:31 18.04.2021
148 Clouds 17 1024 77 10000 6.17 100 17:57 18.04.2021
149 Clouds 17 1023 77 10000 5.66 110 17:38 18.04.2021
150 Clouds 17 1023 77 10000 5.66 110 17:19 18.04.2021
151 Clouds 18 1023 72 10000 4.63 100 16:41 18.04.2021
152 Clouds 20 1023 68 10000 5.14 110 15:59 18.04.2021
153 Clouds 21 1022 64 10000 4.63 130 15:39 18.04.2021
154 Clouds 21 1022 64 10000 4.63 130 15:19 18.04.2021
155 Clouds 21 1022 64 10000 4.63 100 14:42 18.04.2021
156 Clouds 20 1022 68 10000 5.14 140 14:19 18.04.2021
157 Clouds 22 1022 60 10000 5.14 150 13:50 18.04.2021
158 Clouds 21 1023 64 10000 4.63 150 13:30 18.04.2021
159 Clouds 21 1023 64 10000 4.12 150 12:39 18.04.2021
160 Clouds 20 1023 64 10000 5.66 140 11:59 18.04.2021
161 Clouds 20 1024 68 10000 4.63 130 11:40 18.04.2021
162 Clouds 20 1024 68 10000 4.63 130 11:20 18.04.2021
163 Clouds 20 1024 64 10000 5.14 130 10:44 18.04.2021
164 Clouds 19 1024 72 10000 5.14 160 10:19 18.04.2021
165 Clouds 19 1025 72 10000 4.63 150 09:39 18.04.2021
166 Clouds 19 1025 72 10000 4.63 150 09:21 18.04.2021
167 Clouds 18 1025 72 10000 5.66 160 08:46 18.04.2021
168 Clouds 18 1025 72 10000 5.66 160 08:26 18.04.2021
169 Clouds 16 1024 82 10000 4.63 160 07:40 18.04.2021
170 Clouds 17 1024 77 10000 5.66 150 06:54 18.04.2021
171 Clouds 15 1024 82 10000 4.63 150 05:26 18.04.2021
172 Clouds 15 1022 82 10000 5.14 150 04:31 18.04.2021
173 Clouds 16 1022 82 10000 4.12 140 02:23 18.04.2021
174 Clouds 16 1022 88 10000 4.12 140 00:56 18.04.2021
175 Clouds 16 1023 88 10000 3.6 150 23:52 17.04.2021
176 Clouds 16 1023 88 10000 3.6 150 23:22 17.04.2021
177 Clouds 16 1022 94 10000 4.12 150 22:43 17.04.2021
178 Drizzle 16 1023 94 10000 4.12 140 22:21 17.04.2021
179 Drizzle 17 1023 88 10000 3.09 130 21:41 17.04.2021
180 Rain 17 1022 94 10000 5.66 120 21:21 17.04.2021
181 Rain 18 1022 94 10000 6.17 150 20:29 17.04.2021
182 Rain 19 1022 94 10000 4.63 110 19:46 17.04.2021
183 Rain 19 1022 94 10000 4.63 110 19:46 17.04.2021
184 Rain 19 1021 88 10000 5.66 110 19:23 17.04.2021
185 Clouds 20 1021 83 10000 4.63 100 18:59 17.04.2021
186 Clouds 20 1021 83 10000 4.63 100 18:40 17.04.2021
187 Rain 20 1020 83 10000 6.17 100 18:20 17.04.2021
188 Rain 20 1020 77 10000 6.69 110 17:41 17.04.2021
189 Rain 22 1018 73 10000 6.17 100 16:56 17.04.2021
190 Rain 24 1018 64 10000 5.14 100 16:29 17.04.2021
191 Rain 24 1018 64 10000 5.66 80 15:56 17.04.2021
192 Rain 24 1018 64 10000 4.12 70 14:51 17.04.2021
193 Rain 27 1017 50 10000 5.14 60 14:33 17.04.2021
194 Rain 28 1017 47 10000 3.6 60 13:50 17.04.2021
195 Rain 27 1018 50 10000 2.57 0 13:25 17.04.2021
196 Rain 27 1018 47 10000 3.09 70 12:42 17.04.2021
197 Rain 26 1018 57 10000 3.09 110 12:21 17.04.2021
198 Rain 26 1018 53 10000 3.6 120 11:50 17.04.2021
199 Rain 27 1018 50 10000 2.57 120 11:30 17.04.2021
200 Clouds 26 1019 57 10000 3.09 0 10:46 17.04.2021
201 Clouds 25 1019 61 10000 2.57 110 10:27 17.04.2021
202 Clouds 24 1020 64 10000 2.06 130 09:39 17.04.2021
203 Clouds 22 1020 73 10000 1.54 0 08:41 17.04.2021
204 Clouds 21 1020 83 9000 1.54 190 08:21 17.04.2021
205 Clouds 17 1019 100 8000 0.51 0 06:47 17.04.2021
206 Clouds 16 1017 94 10000 1.54 290 03:55 17.04.2021
207 Clouds 16 1017 94 10000 1.54 20 03:37 17.04.2021
208 Clouds 17 1018 100 10000 4.12 310 00:48 17.04.2021
209 Clouds 17 1018 100 10000 4.12 310 00:27 17.04.2021
210 Clouds 18 1018 94 10000 4.12 300 23:46 16.04.2021
211 Clouds 18 1018 94 10000 4.12 300 23:24 16.04.2021
212 Clouds 18 1019 94 10000 3.6 310 22:44 16.04.2021
213 Clouds 18 1019 94 10000 3.09 310 22:20 16.04.2021
214 Clouds 18 1019 94 10000 3.09 310 21:50 16.04.2021
215 Clouds 18 1019 94 10000 3.09 310 21:29 16.04.2021
216 Clouds 18 1019 94 10000 2.06 310 20:50 16.04.2021
217 Clouds 18 1019 94 10000 2.06 320 20:24 16.04.2021
218 Clouds 19 1019 88 10000 3.09 320 19:50 16.04.2021
219 Rain 19 1018 88 10000 4.12 300 19:28 16.04.2021
220 Rain 19 1018 88 10000 2.57 310 18:36 16.04.2021
221 Rain 19 1018 88 10000 2.57 310 18:18 16.04.2021
222 Rain 19 1017 94 10000 3.09 300 17:37 16.04.2021
223 Rain 19 1017 94 10000 3.09 300 17:18 16.04.2021
224 Rain 19 1017 88 10000 5.66 280 16:41 16.04.2021
225 Rain 20 1017 88 10000 3.09 310 16:22 16.04.2021
226 Rain 19 1016 94 10000 3.09 300 15:43 16.04.2021
227 Rain 20 1016 88 10000 3.09 340 15:18 16.04.2021
228 Rain 21 1016 78 10000 2.06 320 14:41 16.04.2021
229 Rain 23 1016 64 10000 4.63 280 13:59 16.04.2021
230 Rain 23 1016 64 10000 4.63 280 13:41 16.04.2021
231 Rain 25 1016 61 10000 5.66 310 13:19 16.04.2021
232 Rain 27 1016 50 10000 4.12 270 12:46 16.04.2021
233 Rain 28 1016 51 10000 3.09 310 12:25 16.04.2021
234 Rain 28 1017 51 10000 3.09 320 11:43 16.04.2021
235 Rain 27 1017 54 10000 3.09 320 11:25 16.04.2021
236 Rain 27 1018 54 10000 2.06 0 10:46 16.04.2021
237 Clouds 25 1018 61 10000 2.57 290 10:25 16.04.2021
238 Clouds 25 1019 61 10000 3.6 300 09:52 16.04.2021
239 Clouds 24 1019 69 10000 3.09 290 09:24 16.04.2021
240 Clouds 23 1019 68 10000 3.09 290 08:46 16.04.2021
241 Clouds 22 1019 73 10000 3.09 290 08:27 16.04.2021
242 Clouds 22 1019 68 10000 2.06 300 07:47 16.04.2021
243 Clouds 20 1019 77 10000 2.06 360 07:28 16.04.2021
244 Clouds 17 1019 100 10000 1.03 340 06:47 16.04.2021
245 Clouds 16 1018 100 10000 0.64 267 05:33 16.04.2021
246 Clouds 16 1018 100 10000 0.64 267 05:33 16.04.2021
247 Clouds 17 1017 94 7000 0.84 343 03:59 16.04.2021
248 Rain 17 1019 94 10000 1.54 310 00:49 16.04.2021
249 Rain 17 1019 94 10000 2.06 290 00:22 16.04.2021
250 Rain 17 1019 94 10000 0.51 0 23:58 15.04.2021
251 Rain 17 1020 94 10000 1.08 180 23:35 15.04.2021
252 Rain 17 1021 94 10000 1.54 0 22:52 15.04.2021
253 Rain 17 1021 94 10000 1.54 0 22:26 15.04.2021
254 Rain 17 1020 94 10000 1.03 0 21:56 15.04.2021
255 Rain 17 1021 94 10000 2.57 60 21:37 15.04.2021
256 Rain 17 1021 94 10000 2.57 60 21:19 15.04.2021
257 Rain 17 1020 94 6000 1.03 0 20:38 15.04.2021
258 Rain 17 1020 94 6000 1.03 0 20:20 15.04.2021
259 Rain 17 1021 94 5000 1.54 120 19:42 15.04.2021
260 Rain 17 1021 94 5000 1.54 120 19:23 15.04.2021
261 Rain 18 1020 88 6000 2.57 190 18:41 15.04.2021
262 Rain 19 1020 94 4000 1.03 0 18:20 15.04.2021
263 Rain 19 1019 88 10000 3.09 80 17:54 15.04.2021
264 Rain 20 1019 83 10000 3.09 50 17:36 15.04.2021
265 Rain 20 1018 77 10000 3.6 30 16:47 15.04.2021
266 Rain 21 1018 73 10000 4.63 50 16:25 15.04.2021
267 Rain 22 1018 73 10000 5.14 40 15:51 15.04.2021
268 Rain 23 1017 64 10000 6.17 40 15:31 15.04.2021
269 Rain 24 1017 60 10000 4.12 80 14:57 15.04.2021
270 Rain 25 1017 57 10000 3.6 90 14:38 15.04.2021
271 Rain 25 1017 57 10000 3.6 90 14:19 15.04.2021
272 Rain 26 1017 50 10000 1.54 0 13:41 15.04.2021
273 Rain 28 1018 44 10000 2.57 0 12:59 15.04.2021
274 Rain 27 1018 47 10000 2.57 190 12:38 15.04.2021
275 Rain 27 1018 47 10000 2.57 190 12:20 15.04.2021
276 Rain 26 1019 53 10000 2.06 200 11:42 15.04.2021
277 Clouds 25 1019 57 10000 2.06 0 11:22 15.04.2021
278 Clouds 25 1020 57 10000 1.54 0 10:46 15.04.2021
279 Clouds 25 1020 57 10000 2.57 170 10:26 15.04.2021
280 Clouds 22 1020 68 10000 2.57 130 09:35 15.04.2021
281 Clouds 23 1021 68 10000 2.06 130 08:54 15.04.2021
282 Clouds 23 1021 68 10000 2.06 130 08:54 15.04.2021
283 Rain 21 1021 78 10000 2.06 140 08:36 15.04.2021
284 Rain 20 1020 88 8000 2.06 140 07:48 15.04.2021
285 Rain 19 1020 94 5000 2.57 130 07:22 15.04.2021
286 Rain 17 1019 100 10000 0.3 253 06:37 15.04.2021
287 Rain 17 1019 100 10000 0.16 105 06:19 15.04.2021
288 Rain 17 1019 100 8000 0.76 94 04:23 15.04.2021
289 Rain 18 1021 94 10000 1.03 190 00:23 15.04.2021
290 Rain 18 1022 94 10000 1.03 10 23:36 14.04.2021
291 Rain 18 1022 94 10000 1.03 40 22:59 14.04.2021
292 Rain 18 1022 94 10000 1.03 40 22:41 14.04.2021
293 Rain 19 1022 88 10000 2.06 80 22:21 14.04.2021
294 Rain 19 1022 88 10000 2.06 90 21:42 14.04.2021
295 Rain 19 1022 82 10000 2.06 140 21:22 14.04.2021
296 Rain 19 1022 82 10000 3.09 110 20:48 14.04.2021
297 Rain 19 1021 82 10000 4.12 110 20:29 14.04.2021
298 Rain 19 1021 88 10000 2.57 120 19:48 14.04.2021
299 Rain 19 1021 88 10000 3.09 110 19:19 14.04.2021
300 Rain 19 1021 88 10000 3.09 110 19:19 14.04.2021
301 Rain 19 1020 88 10000 4.12 100 18:55 14.04.2021
302 Rain 20 1020 77 10000 4.12 100 18:21 14.04.2021
303 Rain 20 1020 83 10000 3.6 100 17:57 14.04.2021
304 Rain 21 1019 78 10000 5.14 90 17:24 14.04.2021
305 Rain 22 1019 73 10000 4.12 90 16:52 14.04.2021
306 Rain 24 1019 60 10000 4.12 100 16:24 14.04.2021
307 Rain 24 1018 57 10000 3.09 150 15:42 14.04.2021
308 Rain 25 1019 53 10000 2.06 140 15:22 14.04.2021
309 Rain 25 1019 53 10000 3.09 150 14:44 14.04.2021
310 Rain 25 1019 53 10000 2.57 120 14:23 14.04.2021
311 Rain 25 1019 53 10000 2.06 70 13:54 14.04.2021
312 Rain 25 1019 53 10000 3.6 110 13:19 14.04.2021
313 Rain 25 1020 57 10000 3.09 120 12:37 14.04.2021
314 Rain 24 1020 57 10000 4.12 100 11:43 14.04.2021
315 Rain 24 1021 57 10000 3.09 110 11:25 14.04.2021
316 Rain 24 1021 57 10000 2.06 100 10:38 14.04.2021
317 Clouds 24 1021 60 10000 3.6 110 09:59 14.04.2021
318 Clouds 24 1021 60 10000 3.6 110 09:41 14.04.2021
319 Clouds 22 1022 68 10000 3.09 150 09:20 14.04.2021
320 Clouds 20 1022 77 10000 3.09 160 08:34 14.04.2021
321 Clouds 20 1022 83 10000 3.6 180 07:58 14.04.2021
322 Clouds 18 1021 88 10000 3.6 170 06:55 14.04.2021
323 Clouds 18 1021 88 10000 1.54 160 06:24 14.04.2021
324 Clouds 17 1020 94 10000 2.57 80 04:34 14.04.2021
325 Clouds 17 1021 94 10000 2.06 130 01:42 14.04.2021
326 Clouds 17 1021 94 10000 2.06 130 01:42 14.04.2021
327 Clouds 17 1021 94 10000 2.06 130 01:42 14.04.2021
328 Clouds 18 1022 88 10000 2.06 180 00:37 14.04.2021
329 Clouds 18 1022 88 10000 2.06 130 23:46 13.04.2021
330 Clouds 18 1022 88 10000 2.57 140 23:21 13.04.2021
331 Clouds 18 1022 88 10000 3.09 140 22:41 13.04.2021
332 Clouds 18 1022 88 10000 2.57 130 22:19 13.04.2021
333 Clouds 18 1023 88 10000 2.06 160 21:45 13.04.2021
334 Clouds 18 1023 94 10000 1.03 0 21:27 13.04.2021
335 Clouds 18 1023 94 10000 2.06 80 20:42 13.04.2021
336 Rain 18 1023 94 10000 2.57 70 20:21 13.04.2021
337 Rain 19 1023 82 10000 4.12 100 19:43 13.04.2021
338 Rain 19 1023 82 10000 4.12 100 19:23 13.04.2021
339 Rain 19 1022 82 10000 3.09 120 18:37 13.04.2021
340 Rain 20 1021 73 10000 4.12 130 17:54 13.04.2021
341 Rain 20 1021 73 10000 4.12 130 17:36 13.04.2021
342 Clouds 20 1021 73 10000 4.12 130 17:18 13.04.2021
343 Clouds 21 1020 68 10000 5.66 110 16:42 13.04.2021
344 Clouds 21 1020 68 10000 5.66 110 16:20 13.04.2021
345 Clouds 22 1020 64 10000 6.17 140 15:41 13.04.2021
346 Clouds 23 1020 60 10000 5.66 140 15:18 13.04.2021
347 Clouds 23 1020 64 10000 5.14 160 14:41 13.04.2021
348 Clouds 23 1020 64 10000 5.14 160 14:41 13.04.2021
349 Clouds 22 1021 68 10000 6.17 150 14:18 13.04.2021
350 Clouds 23 1021 68 10000 5.66 150 13:45 13.04.2021
351 Clouds 22 1021 73 10000 7.72 120 13:23 13.04.2021
352 Clouds 23 1021 64 10000 4.12 150 12:53 13.04.2021
353 Clouds 25 1021 57 10000 6.17 110 12:24 13.04.2021
354 Clouds 25 1021 57 10000 6.17 110 12:24 13.04.2021
355 Clouds 25 1021 57 10000 5.14 130 11:50 13.04.2021
356 Clouds 23 1022 64 10000 6.69 140 11:29 13.04.2021
357 Clouds 23 1022 64 10000 5.14 140 10:45 13.04.2021
358 Clouds 23 1023 64 10000 6.69 120 10:20 13.04.2021
359 Clouds 23 1023 64 10000 6.69 120 10:20 13.04.2021
360 Clouds 22 1023 68 10000 6.17 140 09:53 13.04.2021
361 Clouds 21 1023 73 10000 5.66 140 09:34 13.04.2021
362 Clouds 21 1023 78 10000 4.63 150 08:51 13.04.2021
363 Clouds 20 1023 77 10000 4.63 160 08:25 13.04.2021
364 Clouds 20 1023 77 10000 4.63 170 07:52 13.04.2021
365 Clouds 19 1023 82 10000 4.12 160 07:32 13.04.2021
366 Clouds 18 1022 88 10000 2.57 120 06:28 13.04.2021
367 Clouds 17 1022 88 10000 3.6 150 03:55 13.04.2021
368 Clouds 18 1022 88 10000 2.57 120 01:35 13.04.2021
369 Clouds 18 1023 88 10000 2.57 160 23:58 12.04.2021
370 Clouds 18 1023 88 10000 2.57 160 23:33 12.04.2021
371 Clouds 19 1023 82 10000 2.57 150 22:59 12.04.2021
372 Clouds 19 1024 82 10000 2.06 140 22:37 12.04.2021
373 Clouds 18 1024 88 10000 2.06 130 21:55 12.04.2021
374 Clouds 17 1024 94 10000 2.06 110 21:36 12.04.2021
375 Clouds 17 1024 94 10000 2.06 110 21:18 12.04.2021
376 Clouds 18 1023 88 10000 2.06 90 20:36 12.04.2021
377 Clouds 18 1023 88 10000 2.06 90 20:18 12.04.2021
378 Clouds 18 1023 88 10000 2.57 80 19:41 12.04.2021
379 Clouds 18 1023 88 10000 2.57 60 19:21 12.04.2021
380 Clouds 19 1023 82 10000 3.09 80 18:52 12.04.2021
381 Clouds 20 1022 77 10000 2.57 130 18:34 12.04.2021
382 Clouds 20 1022 77 10000 4.63 110 17:59 12.04.2021
383 Clouds 20 1022 77 10000 4.63 110 17:41 12.04.2021
384 Clouds 21 1022 73 10000 4.12 140 17:19 12.04.2021
385 Clouds 22 1022 68 10000 4.63 110 16:41 12.04.2021
386 Clouds 23 1021 60 10000 3.6 150 16:23 12.04.2021
387 Clouds 23 1021 64 10000 4.63 130 15:45 12.04.2021
388 Clouds 25 1021 53 10000 5.66 120 14:59 12.04.2021
389 Clouds 25 1021 53 10000 6.17 130 14:40 12.04.2021
390 Clouds 25 1021 53 10000 6.17 130 14:22 12.04.2021
391 Clouds 25 1021 53 10000 5.14 150 13:41 12.04.2021
392 Clouds 25 1021 53 10000 5.66 130 13:20 12.04.2021
393 Clouds 26 1021 47 10000 5.14 130 12:44 12.04.2021
394 Clouds 26 1022 50 10000 5.66 120 12:23 12.04.2021
395 Clouds 24 1022 53 10000 5.14 140 11:43 12.04.2021
396 Clouds 25 1023 50 10000 4.63 160 10:52 12.04.2021
397 Clouds 24 1023 53 10000 4.63 130 10:28 12.04.2021
398 Clouds 23 1023 56 10000 5.14 140 09:53 12.04.2021
399 Clouds 22 1024 60 10000 5.66 170 09:31 12.04.2021
400 Clouds 21 1024 68 10000 4.63 170 08:58 12.04.2021
401 Clouds 20 1024 73 10000 4.63 140 08:22 12.04.2021
402 Clouds 19 1024 77 10000 3.09 140 07:30 12.04.2021
403 Clouds 18 1023 82 10000 2.57 150 06:47 12.04.2021
404 Clouds 17 1022 88 10000 2.06 170 05:48 12.04.2021
405 Clouds 16 1022 94 10000 1.03 0 03:33 12.04.2021
406 Clouds 17 1023 88 10000 2.06 180 00:43 12.04.2021
407 Clouds 17 1023 88 10000 2.06 180 00:22 12.04.2021
408 Clouds 18 1023 82 10000 3.6 160 23:44 11.04.2021
409 Clouds 18 1023 88 10000 3.09 170 23:22 11.04.2021
410 Clouds 18 1023 88 10000 2.06 160 22:39 11.04.2021
411 Clouds 18 1023 88 10000 2.06 160 22:19 11.04.2021
412 Clouds 18 1023 88 10000 2.57 150 21:44 11.04.2021
413 Clouds 18 1024 88 10000 2.06 130 21:24 11.04.2021
414 Clouds 18 1023 88 10000 2.06 100 20:46 11.04.2021
415 Clouds 18 1023 88 10000 2.06 120 20:25 11.04.2021
416 Clouds 18 1023 88 10000 3.09 100 19:43 11.04.2021
417 Clouds 19 1023 82 10000 3.6 110 19:21 11.04.2021
418 Clouds 19 1023 82 10000 3.6 100 18:58 11.04.2021
419 Clouds 19 1022 82 10000 5.14 110 18:40 11.04.2021
420 Clouds 19 1022 82 10000 5.14 110 18:20 11.04.2021
421 Clouds 20 1022 73 10000 4.12 100 17:40 11.04.2021
422 Clouds 20 1022 73 10000 4.12 100 17:40 11.04.2021
423 Clouds 20 1022 73 10000 4.12 100 17:19 11.04.2021
424 Clouds 22 1021 64 10000 4.63 110 16:42 11.04.2021
425 Clouds 22 1021 64 10000 4.63 140 16:20 11.04.2021
426 Clouds 23 1021 60 10000 3.6 140 15:45 11.04.2021
427 Clouds 23 1021 60 10000 4.12 150 15:24 11.04.2021
428 Clouds 23 1020 56 10000 4.63 170 14:51 11.04.2021
429 Clouds 23 1020 56 10000 4.63 170 14:51 11.04.2021
430 Clouds 24 1021 57 10000 5.14 150 14:22 11.04.2021
431 Clouds 24 1021 53 10000 5.14 160 13:42 11.04.2021
432 Clouds 24 1021 53 10000 5.66 130 13:23 11.04.2021
433 Clouds 23 1021 60 10000 5.14 160 12:26 11.04.2021
434 Clouds 23 1022 60 10000 4.63 130 11:57 11.04.2021
435 Clouds 24 1022 57 10000 4.12 130 11:38 11.04.2021
436 Clouds 24 1022 57 10000 4.12 130 11:19 11.04.2021
437 Clouds 24 1022 57 10000 6.17 120 10:44 11.04.2021
438 Clouds 23 1022 60 10000 5.66 120 10:22 11.04.2021
439 Clouds 23 1023 64 10000 3.6 130 09:49 11.04.2021
440 Clouds 23 1023 64 10000 4.12 100 09:26 11.04.2021
441 Clouds 21 1023 68 10000 4.12 160 08:40 11.04.2021
442 Clouds 19 1023 77 10000 4.12 180 07:41 11.04.2021
443 Clouds 19 1022 77 10000 3.09 150 07:19 11.04.2021
444 Clouds 16 1021 94 10000 2.06 160 05:47 11.04.2021
445 Clouds 16 1021 94 10000 1.54 0 05:23 11.04.2021
446 Clouds 16 1020 94 10000 1.54 180 04:36 11.04.2021
447 Clouds 16 1020 94 10000 2.57 120 03:35 11.04.2021
448 Clouds 17 1021 94 10000 2.06 140 00:55 11.04.2021
449 Clouds 18 1021 88 10000 2.57 120 00:32 11.04.2021
450 Clouds 18 1021 88 10000 2.57 140 23:45 10.04.2021
451 Clouds 18 1022 88 10000 2.57 130 22:55 10.04.2021
452 Clouds 19 1022 82 10000 3.09 120 22:28 10.04.2021
453 Clouds 19 1021 88 10000 2.57 120 21:54 10.04.2021
454 Clouds 19 1021 88 10000 2.57 150 21:25 10.04.2021
455 Clouds 19 1021 88 10000 2.57 140 20:56 10.04.2021
456 Clouds 19 1021 88 10000 3.6 120 20:36 10.04.2021
457 Clouds 20 1021 83 10000 2.57 130 19:59 10.04.2021
458 Clouds 20 1021 83 10000 2.57 130 19:41 10.04.2021
459 Clouds 20 1021 77 10000 4.12 110 19:23 10.04.2021
460 Clouds 20 1021 83 10000 4.12 110 18:41 10.04.2021
461 Rain 21 1020 78 10000 4.63 120 18:23 10.04.2021
462 Rain 21 1020 78 10000 4.63 120 18:23 10.04.2021
463 Rain 21 1019 73 10000 5.14 110 17:35 10.04.2021
464 Rain 22 1019 68 10000 5.14 120 16:42 10.04.2021
465 Rain 23 1019 60 10000 5.14 120 16:21 10.04.2021
466 Rain 24 1018 57 10000 5.14 120 15:44 10.04.2021
467 Clouds 25 1018 53 10000 3.09 170 14:54 10.04.2021
468 Clouds 26 1018 50 10000 3.09 120 14:33 10.04.2021
469 Rain 26 1018 50 10000 3.6 140 13:55 10.04.2021
470 Rain 25 1018 50 10000 3.09 150 13:36 10.04.2021
471 Clouds 26 1018 47 10000 4.12 90 12:41 10.04.2021
472 Clouds 26 1019 50 10000 4.12 130 12:20 10.04.2021
473 Clouds 24 1019 53 10000 4.63 140 11:45 10.04.2021
474 Clouds 25 1019 53 10000 4.63 110 11:21 10.04.2021
475 Clouds 25 1020 53 10000 4.63 180 10:50 10.04.2021
476 Clouds 24 1020 57 10000 4.63 130 10:30 10.04.2021
477 Clouds 22 1021 64 10000 3.6 130 09:37 10.04.2021
478 Clouds 22 1021 64 10000 3.6 130 09:18 10.04.2021
479 Clouds 21 1021 73 10000 3.6 150 08:34 10.04.2021
480 Clouds 19 1021 82 10000 3.6 150 07:55 10.04.2021
481 Clouds 18 1020 88 10000 2.57 140 07:25 10.04.2021
482 Clouds 17 1019 94 10000 2.06 140 06:27 10.04.2021
483 Clouds 16 1018 94 10000 1.03 0 04:49 10.04.2021
484 Clouds 17 1018 94 10000 2.06 130 03:19 10.04.2021
485 Clouds 17 1018 100 10000 1.54 80 02:42 10.04.2021
486 Clouds 17 1019 94 10000 2.06 100 00:59 10.04.2021
487 Clouds 18 1019 88 10000 3.6 110 00:30 10.04.2021
488 Clouds 18 1019 94 10000 1.54 150 23:49 09.04.2021
489 Rain 18 1020 88 10000 2.06 90 23:27 09.04.2021
490 Rain 18 1019 94 10000 2.57 100 22:44 09.04.2021
491 Rain 18 1019 94 10000 2.57 100 22:44 09.04.2021
492 Rain 18 1020 94 10000 2.06 100 22:26 09.04.2021
493 Rain 19 1019 88 10000 2.57 100 21:39 09.04.2021
494 Rain 19 1019 88 10000 2.57 100 21:39 09.04.2021
495 Clouds 19 1019 88 10000 2.57 100 21:20 09.04.2021
496 Clouds 19 1020 88 10000 2.57 70 20:46 09.04.2021
497 Rain 19 1020 88 10000 2.57 70 20:23 09.04.2021
498 Rain 20 1020 83 10000 3.09 110 19:58 09.04.2021
499 Rain 20 1020 77 10000 2.57 150 19:39 09.04.2021
500 Rain 20 1020 77 10000 2.57 150 19:20 09.04.2021
501 Rain 20 1019 77 10000 2.06 150 18:41 09.04.2021
502 Rain 20 1019 77 10000 3.6 100 18:22 09.04.2021
503 Rain 21 1018 73 10000 4.12 100 17:44 09.04.2021
504 Rain 21 1018 73 10000 4.12 100 17:22 09.04.2021
505 Rain 22 1018 64 10000 5.14 90 16:41 09.04.2021
506 Rain 24 1017 57 10000 5.66 100 16:19 09.04.2021
507 Rain 25 1017 50 10000 6.17 110 15:40 09.04.2021
508 Clouds 25 1017 50 10000 6.17 110 15:20 09.04.2021
509 Clouds 26 1017 50 10000 5.14 110 14:46 09.04.2021
510 Clouds 26 1017 47 10000 5.66 110 13:57 09.04.2021
511 Clouds 26 1017 50 10000 4.63 120 13:39 09.04.2021
512 Clouds 26 1017 50 10000 4.63 120 13:21 09.04.2021
513 Clouds 26 1017 47 10000 5.14 120 12:46 09.04.2021
514 Clouds 26 1018 47 10000 5.66 120 11:52 09.04.2021
515 Clouds 26 1018 44 10000 5.14 120 11:23 09.04.2021
516 Clouds 26 1019 41 10000 5.66 120 10:50 09.04.2021
517 Clouds 25 1019 47 10000 4.12 130 10:30 09.04.2021
518 Clouds 25 1019 47 10000 2.57 140 09:51 09.04.2021
519 Clouds 24 1020 53 10000 3.09 160 09:26 09.04.2021
520 Clouds 23 1020 53 10000 3.6 170 08:54 09.04.2021
521 Clouds 21 1020 68 10000 2.57 150 08:22 09.04.2021
522 Clouds 20 1020 73 10000 2.57 130 07:21 09.04.2021
523 Clouds 18 1020 82 10000 1.03 0 06:21 09.04.2021
524 Clouds 15 1019 94 10000 2.06 90 03:54 09.04.2021
525 Clouds 16 1020 94 10000 2.06 130 02:27 09.04.2021
526 Clouds 17 1020 94 10000 1.03 0 00:38 09.04.2021
527 Clouds 17 1020 94 10000 1.03 0 00:19 09.04.2021
528 Clouds 17 1021 94 10000 1.54 160 23:30 08.04.2021
529 Clouds 17 1022 94 10000 3.09 170 22:46 08.04.2021
530 Clouds 18 1022 88 10000 3.09 170 22:26 08.04.2021
531 Clouds 17 1022 94 10000 3.6 110 21:57 08.04.2021
532 Clouds 18 1022 88 10000 2.57 140 21:37 08.04.2021
533 Clouds 18 1022 88 10000 2.57 140 21:19 08.04.2021
534 Clouds 17 1022 94 10000 1.54 140 20:52 08.04.2021
535 Clouds 17 1021 94 10000 2.57 110 20:31 08.04.2021
536 Clouds 18 1021 88 10000 3.6 100 19:49 08.04.2021
537 Clouds 18 1021 88 10000 3.6 80 19:20 08.04.2021
538 Clouds 18 1021 88 10000 4.63 80 18:51 08.04.2021
539 Clouds 18 1021 88 10000 3.09 90 18:21 08.04.2021
540 Clouds 19 1021 82 10000 3.6 90 17:50 08.04.2021
541 Clouds 20 1020 77 10000 4.63 100 17:26 08.04.2021
542 Clouds 22 1020 68 10000 5.14 110 16:54 08.04.2021
543 Clouds 22 1020 64 10000 4.63 140 16:34 08.04.2021
544 Clouds 22 1019 64 10000 4.12 120 15:49 08.04.2021
545 Clouds 23 1019 60 10000 3.6 100 15:31 08.04.2021
546 Clouds 24 1019 57 10000 6.17 100 14:58 08.04.2021
547 Clouds 25 1019 57 10000 6.17 110 14:36 08.04.2021
548 Clouds 25 1019 57 10000 6.17 110 14:18 08.04.2021
549 Clouds 26 1019 50 10000 6.17 90 13:43 08.04.2021
550 Clouds 26 1020 53 10000 5.14 100 13:22 08.04.2021
551 Clouds 26 1020 50 10000 4.12 110 12:43 08.04.2021
552 Clouds 25 1021 53 10000 4.12 160 12:24 08.04.2021
553 Clouds 25 1021 57 10000 5.14 160 11:43 08.04.2021
554 Clouds 23 1023 68 10000 4.63 140 10:59 08.04.2021
555 Clouds 23 1023 68 10000 4.63 140 10:40 08.04.2021
556 Clouds 21 1023 73 10000 5.14 160 10:18 08.04.2021
557 Clouds 21 1023 73 10000 4.12 140 09:43 08.04.2021
558 Clouds 19 1024 77 10000 4.63 170 08:47 08.04.2021
559 Clouds 19 1023 77 10000 3.6 150 08:28 08.04.2021
560 Clouds 19 1023 77 10000 4.63 150 07:58 08.04.2021
561 Clouds 19 1023 77 10000 4.63 140 07:35 08.04.2021
562 Clouds 18 1022 82 10000 2.57 150 03:54 08.04.2021
563 Clouds 18 1022 88 10000 3.09 150 01:20 08.04.2021
564 Clouds 18 1023 88 10000 3.6 170 00:19 08.04.2021
565 Clouds 18 1023 88 10000 2.06 150 23:41 07.04.2021
566 Clouds 18 1023 88 10000 2.06 150 23:21 07.04.2021
567 Clouds 18 1023 88 10000 2.57 140 22:47 07.04.2021
568 Rain 18 1023 88 10000 3.09 130 22:29 07.04.2021
569 Rain 18 1024 88 10000 4.12 110 21:46 07.04.2021
570 Clouds 18 1024 88 10000 4.12 110 21:24 07.04.2021
571 Clouds 18 1024 82 10000 4.63 130 20:45 07.04.2021
572 Clouds 18 1024 82 10000 3.09 140 20:21 07.04.2021
573 Clouds 18 1024 82 10000 3.09 140 20:21 07.04.2021
574 Clouds 18 1023 82 10000 3.6 150 19:44 07.04.2021
575 Clouds 19 1024 77 10000 4.63 140 19:26 07.04.2021
576 Clouds 19 1023 82 10000 4.63 120 18:47 07.04.2021
577 Clouds 19 1023 82 10000 5.66 120 18:20 07.04.2021
578 Clouds 19 1023 77 10000 5.66 120 17:55 07.04.2021
579 Clouds 20 1022 77 10000 5.66 130 17:36 07.04.2021
580 Rain 21 1022 73 10000 5.14 140 16:49 07.04.2021
581 Rain 22 1021 68 10000 7.2 120 16:24 07.04.2021
582 Rain 22 1021 64 10000 4.63 130 15:59 07.04.2021
583 Rain 22 1021 64 10000 5.14 100 15:38 07.04.2021
584 Rain 22 1021 64 10000 5.14 100 15:38 07.04.2021
585 Rain 22 1021 68 10000 8.23 110 14:57 07.04.2021
586 Clouds 24 1022 64 10000 6.17 120 14:31 07.04.2021
587 Clouds 26 1022 57 10000 7.2 120 13:52 07.04.2021
588 Clouds 26 1022 57 10000 7.2 120 13:23 07.04.2021
589 Clouds 25 1022 61 10000 5.66 120 12:51 07.04.2021
590 Clouds 24 1021 60 10000 5.66 150 12:24 07.04.2021
591 Clouds 24 1021 60 10000 5.14 140 11:54 07.04.2021
592 Clouds 24 1022 64 10000 5.14 140 11:26 07.04.2021
593 Clouds 24 1022 64 10000 5.14 140 11:26 07.04.2021
594 Clouds 25 1022 61 10000 5.14 130 10:52 07.04.2021
595 Clouds 24 1023 64 10000 5.14 160 10:20 07.04.2021
596 Clouds 23 1023 64 10000 5.66 140 09:42 07.04.2021
597 Clouds 24 1023 64 10000 6.17 130 09:23 07.04.2021
598 Clouds 22 1024 68 10000 5.14 150 08:41 07.04.2021
599 Clouds 22 1023 73 10000 4.63 160 08:18 07.04.2021
600 Clouds 21 1023 78 10000 4.63 170 07:42 07.04.2021
601 Clouds 20 1022 77 10000 5.14 140 07:21 07.04.2021
602 Clouds 19 1022 82 10000 3.09 140 06:24 07.04.2021
603 Clouds 18 1021 88 10000 3.6 160 04:23 07.04.2021
604 Clouds 19 1022 88 10000 5.14 120 00:20 07.04.2021
605 Clouds 19 1022 88 10000 4.63 120 23:46 06.04.2021
606 Clouds 19 1022 88 10000 4.12 100 23:18 06.04.2021
607 Clouds 19 1022 88 10000 4.12 90 22:39 06.04.2021
608 Rain 19 1022 88 10000 4.12 80 22:19 06.04.2021
609 Rain 19 1021 88 10000 1.54 360 21:40 06.04.2021
610 Rain 19 1021 88 10000 1.54 360 21:21 06.04.2021
611 Rain 19 1021 88 10000 2.06 70 20:53 06.04.2021
612 Rain 20 1022 88 10000 3.6 110 20:24 06.04.2021
613 Rain 20 1021 88 10000 3.09 110 19:52 06.04.2021
614 Rain 20 1021 83 10000 4.12 100 19:34 06.04.2021
615 Rain 21 1020 83 10000 4.63 100 18:52 06.04.2021
616 Rain 22 1019 78 10000 3.6 100 18:33 06.04.2021
617 Rain 22 1019 78 10000 4.63 90 17:57 06.04.2021
618 Rain 24 1019 69 10000 6.17 110 17:38 06.04.2021
619 Rain 24 1019 69 10000 6.17 110 17:18 06.04.2021
620 Rain 27 1018 47 10000 2.06 200 16:41 06.04.2021
621 Rain 29 1017 37 10000 2.57 260 15:49 06.04.2021
622 Clouds 30 1017 39 10000 2.57 260 15:24 06.04.2021
623 Clouds 29 1017 42 10000 3.6 250 14:40 06.04.2021
624 Clouds 30 1017 39 10000 3.09 270 14:21 06.04.2021
625 Clouds 30 1017 39 10000 2.57 0 13:46 06.04.2021
626 Clouds 29 1017 45 10000 2.06 220 13:25 06.04.2021
627 Clouds 29 1017 45 10000 2.06 230 12:42 06.04.2021
628 Clouds 29 1018 48 10000 2.57 0 12:22 06.04.2021
629 Clouds 29 1018 48 10000 1.54 0 11:52 06.04.2021
630 Clouds 28 1018 54 10000 3.09 280 11:22 06.04.2021
631 Clouds 28 1019 47 10000 2.06 310 10:51 06.04.2021
632 Clouds 28 1019 51 10000 3.09 360 10:32 06.04.2021
633 Clouds 26 1019 61 10000 2.06 0 09:58 06.04.2021
634 Clouds 26 1020 61 10000 1.03 0 09:38 06.04.2021
635 Clouds 24 1020 69 10000 1.03 0 08:48 06.04.2021
636 Clouds 23 1020 73 10000 0.51 0 08:19 06.04.2021
637 Fog 18 1019 94 8000 1.03 0 06:56 06.04.2021
638 Fog 17 1019 100 8000 1.03 0 06:23 06.04.2021
639 Clouds 15 1017 100 10000 1.03 0 03:43 06.04.2021
640 Clouds 17 1018 94 10000 2.06 290 00:47 06.04.2021
641 Clouds 17 1018 94 10000 3.6 310 00:21 06.04.2021
642 Clouds 17 1018 94 10000 3.09 310 23:48 05.04.2021
643 Clouds 17 1018 94 10000 2.57 290 23:24 05.04.2021
644 Clouds 17 1019 94 10000 1.03 0 22:53 05.04.2021
645 Clouds 18 1019 88 10000 2.06 40 22:32 05.04.2021
646 Clouds 18 1019 88 10000 1.03 0 21:45 05.04.2021
647 Clouds 18 1019 88 10000 2.06 320 21:23 05.04.2021
648 Clouds 19 1018 82 10000 2.06 300 20:48 05.04.2021
649 Clouds 19 1018 82 10000 2.06 280 20:30 05.04.2021
650 Clouds 20 1018 77 10000 1.03 280 19:44 05.04.2021
651 Clouds 20 1018 83 10000 1.54 0 19:24 05.04.2021
652 Clouds 21 1018 73 10000 3.09 270 18:55 05.04.2021
653 Clouds 22 1017 68 10000 2.57 260 18:36 05.04.2021
654 Clouds 22 1017 68 10000 2.57 260 18:18 05.04.2021
655 Clouds 22 1017 68 10000 2.06 250 17:43 05.04.2021
656 Clouds 23 1017 68 10000 2.06 250 17:20 05.04.2021
657 Clouds 25 1017 57 10000 3.6 260 16:44 05.04.2021
658 Clouds 26 1016 53 10000 4.12 250 16:21 05.04.2021
659 Clouds 27 1016 54 10000 4.12 250 15:52 05.04.2021
660 Clouds 27 1016 54 10000 4.12 250 15:52 05.04.2021
661 Clouds 27 1016 50 10000 4.63 270 15:29 05.04.2021
662 Clouds 28 1016 51 10000 4.12 270 14:50 05.04.2021
663 Clouds 28 1016 47 10000 4.12 280 14:28 05.04.2021
664 Clouds 28 1016 54 10000 4.63 320 13:31 05.04.2021
665 Clouds 27 1017 57 10000 4.63 310 12:50 05.04.2021
666 Clouds 27 1017 57 10000 4.12 310 12:27 05.04.2021
667 Clouds 27 1017 57 10000 5.66 300 11:56 05.04.2021
668 Clouds 26 1018 65 10000 5.14 300 11:33 05.04.2021
669 Clouds 26 1018 65 10000 4.63 290 10:59 05.04.2021
670 Clouds 26 1018 65 10000 4.63 290 10:59 05.04.2021
671 Clouds 26 1018 65 10000 4.63 290 10:59 05.04.2021
672 Clouds 26 1018 65 10000 4.63 290 10:40 05.04.2021
673 Clouds 25 1019 65 10000 3.6 300 10:22 05.04.2021
674 Clouds 24 1019 69 10000 4.12 280 09:47 05.04.2021
675 Clouds 24 1019 73 10000 4.12 290 09:22 05.04.2021
676 Clouds 23 1019 78 10000 4.12 310 08:42 05.04.2021
677 Clouds 23 1019 73 10000 3.09 310 08:24 05.04.2021
678 Clouds 20 1019 88 10000 4.12 310 07:35 05.04.2021
679 Fog 17 1018 100 800 1.03 0 04:25 05.04.2021
680 Clouds 18 1019 94 10000 2.57 300 01:35 05.04.2021
681 Clouds 18 1020 100 10000 3.09 290 00:36 05.04.2021
682 Clouds 19 1020 94 10000 2.06 320 23:43 04.04.2021
683 Clouds 19 1020 94 10000 2.06 320 23:23 04.04.2021
684 Drizzle 19 1020 94 10000 0.51 0 22:50 04.04.2021
685 Drizzle 19 1020 94 10000 0.51 0 22:28 04.04.2021
686 Clouds 19 1021 94 10000 2.06 300 21:26 04.04.2021
687 Clouds 20 1020 88 10000 3.6 80 20:56 04.04.2021
688 Clouds 20 1020 88 10000 3.6 80 20:29 04.04.2021
689 Clouds 20 1020 83 10000 1.54 140 19:44 04.04.2021
690 Clouds 20 1020 83 10000 1.54 140 19:23 04.04.2021
691 Clouds 20 1019 83 10000 1.54 60 18:59 04.04.2021
692 Clouds 20 1019 83 10000 1.54 60 18:40 04.04.2021
693 Clouds 20 1019 83 10000 1.54 60 18:40 04.04.2021
694 Rain 21 1019 83 10000 1.03 0 18:20 04.04.2021
695 Rain 21 1019 83 10000 1.03 0 17:37 04.04.2021
696 Rain 21 1019 83 10000 1.03 0 17:19 04.04.2021
697 Rain 21 1019 83 10000 2.57 110 16:41 04.04.2021
698 Rain 22 1018 78 10000 2.06 100 15:58 04.04.2021
699 Rain 19 1018 88 10000 4.12 180 15:33 04.04.2021
700 Rain 19 1018 82 8000 4.12 210 14:45 04.04.2021
701 Rain 21 1018 88 10000 5.66 220 14:26 04.04.2021
702 Rain 28 1018 51 10000 5.66 90 13:30 04.04.2021
703 Rain 28 1018 47 10000 4.12 90 12:55 04.04.2021
704 Rain 26 1019 57 10000 4.12 70 12:33 04.04.2021
705 Clouds 27 1019 50 10000 1.54 0 11:53 04.04.2021
706 Clouds 28 1019 47 10000 1.54 0 11:31 04.04.2021
707 Clouds 27 1020 57 10000 1.54 0 10:56 04.04.2021
708 Clouds 27 1020 54 10000 1.54 0 10:33 04.04.2021
709 Clouds 26 1021 57 10000 1.54 0 09:52 04.04.2021
710 Clouds 25 1021 61 10000 2.06 30 09:24 04.04.2021
711 Clouds 24 1021 60 10000 2.06 80 08:51 04.04.2021
712 Clouds 24 1021 60 10000 1.03 0 08:32 04.04.2021
713 Clouds 22 1021 73 10000 1.03 0 07:24 04.04.2021
714 Clouds 19 1021 88 10000 1.03 0 06:36 04.04.2021
715 Clouds 18 1020 88 10000 2.06 170 04:56 04.04.2021
716 Clouds 17 1021 100 10000 2.57 90 01:28 04.04.2021
717 Clouds 17 1021 100 10000 2.06 90 00:19 04.04.2021
718 Clouds 17 1021 100 10000 2.06 100 23:47 03.04.2021
719 Clouds 18 1021 94 10000 2.06 360 23:23 03.04.2021
720 Clouds 18 1022 94 10000 0.51 0 22:50 03.04.2021
721 Clouds 18 1021 94 10000 0.51 0 22:20 03.04.2021
722 Clouds 18 1021 94 10000 0.51 0 22:20 03.04.2021
723 Clouds 18 1021 94 10000 1.03 60 21:47 03.04.2021
724 Clouds 19 1021 88 10000 3.6 70 21:23 03.04.2021
725 Clouds 19 1022 88 10000 1.54 60 20:49 03.04.2021
726 Clouds 19 1022 88 10000 2.57 70 20:27 03.04.2021
727 Clouds 19 1022 88 10000 3.09 90 19:50 03.04.2021
728 Clouds 20 1021 88 10000 3.6 90 19:24 03.04.2021
729 Clouds 20 1021 88 10000 3.09 90 18:47 03.04.2021
730 Clouds 20 1021 83 10000 4.12 110 18:24 03.04.2021
731 Clouds 21 1020 78 10000 4.63 80 17:51 03.04.2021
732 Clouds 22 1020 73 10000 3.6 70 17:21 03.04.2021
733 Clouds 23 1020 68 10000 4.12 100 16:49 03.04.2021
734 Rain 24 1020 64 10000 5.66 90 16:21 03.04.2021
735 Rain 25 1019 65 10000 5.14 80 15:48 03.04.2021
736 Rain 26 1019 53 10000 2.57 60 15:22 03.04.2021
737 Rain 28 1019 47 10000 3.6 110 14:44 03.04.2021
738 Clouds 27 1019 50 10000 1.03 0 14:23 03.04.2021
739 Clouds 29 1019 45 10000 1.54 0 13:50 03.04.2021
740 Clouds 27 1019 50 10000 1.54 90 13:24 03.04.2021
741 Clouds 27 1020 50 10000 3.09 100 12:56 03.04.2021
742 Clouds 27 1020 50 10000 3.09 130 12:31 03.04.2021
743 Clouds 26 1021 53 10000 2.06 0 11:39 03.04.2021
744 Clouds 24 1022 57 10000 2.06 0 10:56 03.04.2021
745 Clouds 24 1022 57 10000 2.06 0 10:36 03.04.2021
746 Clouds 24 1022 57 10000 2.06 0 10:18 03.04.2021
747 Clouds 23 1023 60 10000 2.57 120 09:28 03.04.2021
748 Clouds 21 1023 64 10000 3.09 170 08:54 03.04.2021
749 Clouds 19 1023 72 10000 3.6 120 08:28 03.04.2021
750 Clouds 18 1023 77 10000 3.09 120 07:29 03.04.2021
751 Clouds 16 1023 82 10000 1.54 150 06:39 03.04.2021
752 Clouds 13 1022 94 10000 2.06 110 03:53 03.04.2021
753 Clouds 13 1021 94 10000 1.03 0 02:51 03.04.2021
754 Clouds 13 1021 94 10000 2.06 110 02:25 03.04.2021
755 Clouds 14 1023 94 10000 2.06 150 00:21 03.04.2021
756 Clouds 15 1023 88 10000 1.54 0 23:49 02.04.2021
757 Clouds 15 1023 88 10000 2.57 140 23:24 02.04.2021
758 Clouds 15 1023 88 10000 2.06 140 22:53 02.04.2021
759 Clouds 15 1023 94 10000 2.57 140 22:34 02.04.2021
760 Clouds 15 1023 94 10000 2.57 130 21:46 02.04.2021
761 Clouds 16 1023 88 10000 3.09 120 21:24 02.04.2021
762 Clouds 16 1023 88 10000 3.6 130 20:52 02.04.2021
763 Clouds 17 1023 82 10000 4.12 140 20:33 02.04.2021
764 Clouds 17 1023 82 10000 4.12 150 19:58 02.04.2021
765 Clouds 17 1023 88 10000 4.12 130 19:39 02.04.2021
766 Clouds 17 1023 88 10000 4.12 130 19:20 02.04.2021
767 Clouds 18 1022 82 10000 6.17 110 18:39 02.04.2021
768 Clouds 18 1022 82 10000 6.17 110 18:20 02.04.2021
769 Clouds 19 1021 77 10000 5.66 120 17:37 02.04.2021
770 Clouds 21 1021 68 10000 5.66 120 16:48 02.04.2021
771 Clouds 22 1021 64 10000 6.17 110 16:22 02.04.2021
772 Clouds 23 1021 60 10000 5.66 140 15:33 02.04.2021
773 Clouds 23 1021 60 10000 5.66 130 14:55 02.04.2021
774 Clouds 23 1021 60 10000 5.66 150 14:29 02.04.2021
775 Clouds 24 1021 53 10000 6.17 140 13:42 02.04.2021
776 Clouds 23 1021 56 10000 6.17 150 13:20 02.04.2021
777 Clouds 22 1021 68 10000 5.66 150 12:41 02.04.2021
778 Clouds 22 1021 68 10000 5.66 150 12:41 02.04.2021
779 Clouds 23 1021 68 10000 6.17 150 12:20 02.04.2021
780 Clouds 25 1022 61 10000 6.69 120 11:54 02.04.2021
781 Clouds 23 1022 64 10000 5.66 130 11:20 02.04.2021
782 Clouds 23 1022 64 10000 5.66 130 11:20 02.04.2021
783 Clouds 23 1022 68 10000 6.17 150 10:45 02.04.2021
784 Clouds 24 1023 64 10000 6.69 140 10:27 02.04.2021
785 Clouds 22 1023 68 10000 7.2 120 09:52 02.04.2021
786 Clouds 22 1023 68 10000 5.66 150 09:26 02.04.2021
787 Clouds 21 1023 73 10000 6.17 150 08:49 02.04.2021
788 Clouds 21 1024 73 10000 6.17 160 08:28 02.04.2021
789 Clouds 19 1023 82 10000 5.14 150 07:23 02.04.2021
790 Drizzle 19 1023 88 10000 3.6 140 06:46 02.04.2021
791 Clouds 18 1022 88 10000 2.57 100 04:18 02.04.2021
792 Clouds 18 1023 82 10000 5.14 120 02:20 02.04.2021
793 Clouds 18 1022 88 10000 4.63 140 00:47 02.04.2021
794 Clouds 18 1023 88 10000 4.12 160 23:58 01.04.2021
795 Clouds 19 1023 82 10000 4.12 170 23:27 01.04.2021
796 Clouds 19 1023 82 10000 4.63 160 22:51 01.04.2021
797 Clouds 18 1023 88 10000 3.6 140 22:18 01.04.2021
798 Clouds 18 1023 88 10000 4.12 150 21:45 01.04.2021
799 Clouds 19 1023 88 10000 4.63 160 21:24 01.04.2021
800 Drizzle 19 1024 88 10000 5.14 170 20:42 01.04.2021
801 Clouds 19 1023 88 10000 3.6 140 20:22 01.04.2021
802 Clouds 20 1023 77 10000 3.6 130 19:46 01.04.2021
803 Clouds 20 1023 83 10000 4.12 110 19:27 01.04.2021
804 Clouds 19 1022 88 10000 4.63 110 18:45 01.04.2021
805 Clouds 19 1022 88 10000 4.63 110 18:18 01.04.2021
806 Clouds 20 1022 77 10000 4.63 130 17:47 01.04.2021
807 Rain 20 1022 77 10000 5.66 110 17:29 01.04.2021
808 Rain 21 1022 73 10000 5.66 110 16:51 01.04.2021
809 Rain 21 1022 73 10000 5.66 110 16:24 01.04.2021
810 Rain 23 1021 64 10000 6.69 110 15:43 01.04.2021
811 Rain 23 1021 64 10000 6.69 110 15:19 01.04.2021
812 Rain 24 1021 64 10000 4.63 120 14:42 01.04.2021
813 Clouds 24 1021 64 10000 4.63 120 14:23 01.04.2021
814 Clouds 24 1021 64 10000 7.2 130 13:52 01.04.2021
815 Clouds 24 1021 64 10000 5.14 130 13:30 01.04.2021
816 Clouds 25 1021 61 10000 5.14 140 12:49 01.04.2021
817 Clouds 24 1022 64 10000 4.63 150 12:30 01.04.2021
818 Clouds 25 1022 65 10000 5.66 140 11:47 01.04.2021
819 Clouds 24 1022 64 10000 4.63 140 11:24 01.04.2021
820 Clouds 23 1022 64 10000 5.66 150 10:53 01.04.2021
821 Clouds 23 1023 68 10000 4.12 160 10:35 01.04.2021
822 Clouds 23 1023 64 10000 4.63 160 09:54 01.04.2021
823 Clouds 21 1023 73 10000 6.17 170 09:24 01.04.2021
824 Clouds 21 1023 73 10000 4.63 170 08:33 01.04.2021
825 Clouds 20 1023 77 10000 5.14 170 07:57 01.04.2021
826 Clouds 20 1023 77 10000 4.63 170 07:19 01.04.2021
827 Clouds 20 1022 77 10000 4.12 140 06:42 01.04.2021
828 Clouds 18 1021 88 10000 4.08 128 03:30 01.04.2021
829 Clouds 18 1021 94 10000 2.57 100 00:49 01.04.2021
830 Clouds 16 1018 91 10000 2.36 122 23:44 31.03.2021
831 Clouds 18 1021 88 10000 3.09 130 23:18 31.03.2021
832 Clouds 16 1018 93 10000 2.18 122 22:41 31.03.2021
833 Clouds 19 1021 88 10000 4.63 110 22:20 31.03.2021
834 Clouds 19 1021 88 10000 4.63 110 21:45 31.03.2021
835 Clouds 19 1021 88 10000 4.63 110 21:23 31.03.2021
836 Clouds 19 1021 88 10000 2.57 120 20:44 31.03.2021
837 Clouds 19 1021 88 10000 3.6 100 20:24 31.03.2021
838 Clouds 19 1021 88 10000 3.6 110 19:59 31.03.2021
839 Clouds 20 1021 83 10000 4.63 130 19:36 31.03.2021
840 Clouds 20 1021 83 10000 4.63 130 19:18 31.03.2021
841 Clouds 20 1020 83 10000 5.14 110 18:43 31.03.2021
842 Clouds 21 1019 78 10000 5.14 100 17:57 31.03.2021
843 Clouds 22 1019 68 10000 5.14 100 17:36 31.03.2021
844 Rain 23 1019 64 10000 5.14 120 16:58 31.03.2021
845 Rain 25 1018 53 10000 4.12 130 16:38 31.03.2021
846 Rain 25 1018 53 10000 4.12 130 16:20 31.03.2021
847 Rain 26 1018 50 10000 3.6 110 15:50 31.03.2021
848 Rain 26 1018 50 10000 2.06 100 15:19 31.03.2021
849 Rain 26 1018 53 10000 2.57 150 14:44 31.03.2021
850 Clouds 26 1018 50 10000 3.09 140 14:22 31.03.2021
851 Rain 26 1019 57 10000 3.09 140 13:41 31.03.2021
852 Rain 26 1019 57 10000 4.12 110 12:42 31.03.2021
853 Clouds 25 1019 57 10000 3.6 110 12:21 31.03.2021
854 Clouds 25 1019 57 10000 4.12 90 11:56 31.03.2021
855 Clouds 24 1020 64 10000 4.12 110 11:21 31.03.2021
856 Clouds 24 1020 60 10000 3.6 100 10:47 31.03.2021
857 Clouds 23 1020 68 10000 4.12 90 10:25 31.03.2021
858 Clouds 23 1020 68 10000 4.12 90 10:25 31.03.2021
859 Clouds 22 1021 73 10000 3.6 90 09:42 31.03.2021
860 Clouds 21 1021 78 10000 3.6 120 08:55 31.03.2021
861 Clouds 21 1021 78 10000 3.6 140 08:37 31.03.2021
862 Clouds 20 1020 83 10000 3.6 120 07:52 31.03.2021
863 Clouds 19 1019 88 10000 4.12 110 06:46 31.03.2021
864 Clouds 19 1018 88 10000 2.57 100 03:51 31.03.2021
865 Clouds 19 1018 94 10000 1.54 0 01:43 31.03.2021
866 Clouds 19 1018 94 10000 1.03 0 00:49 31.03.2021
867 Clouds 19 1018 94 10000 1.54 60 00:20 31.03.2021
868 Clouds 19 1019 94 10000 2.06 80 23:39 30.03.2021
869 Rain 19 1019 94 10000 2.06 80 22:59 30.03.2021
870 Rain 19 1018 94 10000 2.06 100 22:40 30.03.2021
871 Rain 19 1018 94 10000 2.06 100 22:21 30.03.2021
872 Rain 19 1018 88 10000 1.54 50 21:48 30.03.2021
873 Clouds 19 1018 88 10000 2.06 40 21:20 30.03.2021
874 Drizzle 19 1018 88 10000 3.6 20 20:52 30.03.2021
875 Drizzle 20 1018 88 10000 3.6 20 20:28 30.03.2021
876 Clouds 21 1018 83 10000 3.6 60 19:51 30.03.2021
877 Rain 21 1017 83 10000 3.09 80 19:27 30.03.2021
878 Rain 22 1017 68 10000 1.54 0 18:39 30.03.2021
879 Rain 22 1016 68 10000 2.57 50 17:56 30.03.2021
880 Rain 23 1016 64 10000 2.57 40 17:38 30.03.2021
881 Rain 23 1016 64 10000 2.57 40 17:20 30.03.2021
882 Rain 24 1016 64 10000 2.57 70 16:44 30.03.2021
883 Rain 24 1015 60 10000 3.6 30 16:23 30.03.2021
884 Rain 27 1015 47 10000 3.09 340 15:20 30.03.2021
885 Rain 28 1015 47 10000 1.03 0 14:56 30.03.2021
886 Rain 29 1015 45 10000 1.03 0 14:22 30.03.2021
887 Rain 28 1015 47 10000 1.54 0 13:58 30.03.2021
888 Rain 27 1015 50 10000 1.54 0 13:36 30.03.2021
889 Rain 26 1016 53 10000 0.51 0 12:49 30.03.2021
890 Rain 26 1016 53 10000 0.51 0 12:49 30.03.2021
891 Rain 26 1016 53 10000 1.54 0 12:27 30.03.2021
892 Rain 28 1017 47 10000 2.06 70 11:53 30.03.2021
893 Clouds 26 1017 53 10000 2.57 10 11:23 30.03.2021
894 Clouds 25 1018 57 10000 2.57 90 10:46 30.03.2021
895 Clouds 26 1018 57 10000 2.57 80 10:25 30.03.2021
896 Clouds 25 1018 65 10000 2.57 70 09:44 30.03.2021
897 Clouds 24 1018 64 10000 2.57 100 09:26 30.03.2021
898 Clouds 24 1018 64 10000 2.06 0 08:54 30.03.2021
899 Clouds 22 1018 73 10000 2.57 120 08:36 30.03.2021
900 Clouds 20 1018 83 10000 4.12 110 07:51 30.03.2021
901 Clouds 20 1018 83 10000 3.09 110 07:22 30.03.2021
902 Clouds 18 1017 100 10000 1.54 80 05:25 30.03.2021
903 Clouds 18 1016 94 10000 2.06 110 04:57 30.03.2021
904 Clouds 18 1017 94 10000 1.03 0 00:28 30.03.2021
905 Clouds 17 1017 94 10000 2.06 50 23:31 29.03.2021
906 Clouds 17 1017 88 10000 2.06 340 22:44 29.03.2021
907 Clouds 17 1017 94 10000 2.06 320 22:18 29.03.2021
908 Clouds 18 1018 88 10000 0.51 0 21:43 29.03.2021
909 Clouds 19 1018 82 10000 1.19 154 21:23 29.03.2021
910 Clouds 19 1018 82 10000 1.19 154 20:44 29.03.2021
911 Clouds 19 1018 82 10000 2.06 320 20:26 29.03.2021
912 Clouds 20 1017 77 10000 3.6 290 19:46 29.03.2021
913 Clouds 21 1017 73 10000 3.09 280 19:20 29.03.2021
914 Clouds 21 1017 68 10000 3.09 280 18:40 29.03.2021
915 Clouds 22 1016 64 10000 2.57 280 18:21 29.03.2021
916 Clouds 23 1016 60 10000 2.57 270 17:45 29.03.2021
917 Rain 26 1015 50 10000 3.09 270 16:59 29.03.2021
918 Rain 27 1015 47 10000 4.12 290 16:36 29.03.2021
919 Rain 27 1015 50 10000 3.6 280 15:57 29.03.2021
920 Rain 28 1015 47 10000 3.09 270 15:34 29.03.2021
921 Clouds 28 1015 44 10000 4.12 280 14:55 29.03.2021
922 Clouds 29 1015 42 10000 4.12 290 14:34 29.03.2021
923 Clouds 29 1015 45 10000 3.6 0 13:52 29.03.2021
924 Clouds 29 1016 42 10000 3.09 290 13:26 29.03.2021
925 Clouds 28 1016 47 10000 2.57 300 12:50 29.03.2021
926 Clouds 28 1016 47 10000 2.06 0 12:21 29.03.2021
927 Clouds 27 1017 54 10000 2.06 0 11:40 29.03.2021
928 Clouds 27 1017 54 10000 2.06 260 11:22 29.03.2021
929 Clouds 26 1018 57 10000 1.03 0 10:36 29.03.2021
930 Clouds 25 1019 61 10000 1.54 0 09:44 29.03.2021
931 Clouds 24 1019 69 10000 2.57 200 08:58 29.03.2021
932 Clouds 23 1019 73 10000 1.03 0 08:28 29.03.2021
933 Clouds 21 1019 83 10000 1.54 0 07:41 29.03.2021
934 Clouds 18 1019 100 10000 2.57 300 06:42 29.03.2021
935 Clouds 17 1017 100 10000 2.06 330 03:59 29.03.2021
936 Clouds 17 1017 100 10000 2.06 330 03:59 29.03.2021
937 Clouds 18 1017 94 10000 3.09 300 01:54 29.03.2021
938 Clouds 19 1017 94 10000 1.54 300 00:23 29.03.2021
939 Clouds 19 1018 94 10000 3.09 300 23:44 28.03.2021
940 Clouds 19 1018 94 10000 3.09 300 23:19 28.03.2021
941 Clouds 19 1018 88 10000 4.12 320 22:41 28.03.2021
942 Clouds 19 1018 88 10000 3.6 320 22:21 28.03.2021
943 Clouds 19 1019 88 10000 2.57 330 21:41 28.03.2021
944 Clouds 19 1019 88 10000 3.09 320 21:22 28.03.2021
945 Clouds 19 1018 88 10000 2.06 320 20:49 28.03.2021
946 Clouds 19 1018 88 10000 2.06 320 20:31 28.03.2021
947 Clouds 20 1018 83 10000 1.03 10 19:45 28.03.2021
948 Clouds 21 1017 73 10000 3.09 280 19:23 28.03.2021
949 Clouds 21 1017 73 10000 3.6 290 18:58 28.03.2021
950 Clouds 21 1017 73 10000 3.09 290 18:28 28.03.2021
951 Clouds 22 1016 64 10000 2.57 280 17:50 28.03.2021
952 Rain 24 1016 57 10000 3.6 280 17:27 28.03.2021
953 Rain 25 1015 53 10000 5.14 280 16:46 28.03.2021
954 Clouds 27 1015 50 10000 4.63 260 16:23 28.03.2021
955 Clouds 27 1015 47 10000 4.63 270 15:42 28.03.2021
956 Clouds 28 1015 47 10000 5.66 290 15:18 28.03.2021
957 Clouds 28 1015 44 10000 5.14 280 14:31 28.03.2021
958 Clouds 28 1015 47 10000 5.14 290 13:48 28.03.2021
959 Clouds 28 1015 47 10000 5.14 290 13:22 28.03.2021
960 Clouds 28 1015 51 10000 4.12 250 12:51 28.03.2021
961 Clouds 28 1016 51 10000 3.6 280 12:32 28.03.2021
962 Clouds 27 1016 54 10000 4.12 290 11:45 28.03.2021
963 Clouds 27 1016 50 10000 4.63 300 11:25 28.03.2021
964 Clouds 26 1017 57 10000 3.6 300 10:44 28.03.2021
965 Clouds 25 1017 65 10000 3.6 290 10:25 28.03.2021
966 Clouds 24 1017 73 10000 3.6 290 09:47 28.03.2021
967 Clouds 24 1017 73 10000 2.57 270 09:24 28.03.2021
968 Clouds 23 1018 73 10000 2.57 270 08:46 28.03.2021
969 Clouds 22 1018 78 10000 2.06 300 07:50 28.03.2021
970 Clouds 18 1017 94 10000 0.51 0 06:40 28.03.2021
971 Clouds 16 1016 94 10000 1.54 360 04:18 28.03.2021
972 Clouds 17 1016 94 10000 3.09 300 01:22 28.03.2021
973 Clouds 17 1016 94 10000 2.57 300 00:20 28.03.2021
974 Clouds 18 1016 88 10000 2.57 290 23:43 27.03.2021
975 Clouds 18 1017 94 10000 2.06 320 22:58 27.03.2021
976 Clouds 18 1017 94 10000 2.06 330 22:36 27.03.2021
977 Clouds 19 1017 88 10000 2.57 320 21:58 27.03.2021
978 Clouds 19 1017 88 10000 2.57 300 21:37 27.03.2021
979 Clouds 19 1017 88 10000 2.57 300 21:19 27.03.2021
980 Clouds 19 1017 88 10000 2.57 320 20:38 27.03.2021
981 Clouds 19 1017 88 10000 2.57 320 20:19 27.03.2021
982 Clouds 19 1017 88 10000 2.06 320 19:42 27.03.2021
983 Clouds 20 1017 83 10000 2.06 320 19:23 27.03.2021
984 Clouds 21 1016 83 10000 2.57 310 18:48 27.03.2021
985 Clouds 21 1016 83 10000 2.57 310 18:28 27.03.2021
986 Clouds 22 1016 73 10000 1.54 330 17:50 27.03.2021
987 Clouds 22 1016 73 10000 2.57 300 17:23 27.03.2021
988 Clouds 23 1015 64 10000 2.57 270 16:49 27.03.2021
989 Clouds 24 1015 60 10000 3.6 260 16:28 27.03.2021
990 Clouds 26 1014 50 10000 3.6 270 15:48 27.03.2021
991 Clouds 26 1014 50 10000 4.63 280 15:22 27.03.2021
992 Clouds 27 1014 50 10000 5.66 290 14:45 27.03.2021
993 Clouds 26 1014 57 10000 4.63 260 13:44 27.03.2021
994 Clouds 27 1014 50 10000 5.66 270 13:24 27.03.2021
995 Clouds 28 1014 47 10000 6.69 280 12:53 27.03.2021
996 Clouds 28 1015 51 10000 6.69 290 11:59 27.03.2021
997 Clouds 28 1015 51 10000 6.69 290 11:41 27.03.2021
998 Clouds 28 1015 51 10000 6.69 300 11:19 27.03.2021
999 Clouds 28 1016 54 10000 4.63 320 10:43 27.03.2021
1000 Clouds 27 1016 57 10000 5.14 290 10:22 27.03.2021
1001 Clouds 26 1017 61 10000 4.12 300 09:28 27.03.2021
1002 Clouds 25 1017 69 10000 5.14 300 08:43 27.03.2021
1003 Clouds 24 1017 69 10000 4.63 300 08:20 27.03.2021
1004 Clouds 22 1017 83 10000 2.57 280 07:32 27.03.2021
1005 Clouds 21 1017 88 10000 3.09 300 06:43 27.03.2021
1006 Clouds 19 1016 94 10000 2.06 290 04:57 27.03.2021
1007 Clouds 19 1016 94 10000 1.54 330 04:39 27.03.2021
1008 Clouds 18 1015 100 10000 2.57 320 00:48 27.03.2021
1009 Clouds 18 1015 100 10000 2.57 320 00:48 27.03.2021
1010 Clouds 19 1015 88 10000 2.06 20 00:27 27.03.2021
1011 Clouds 19 1016 94 10000 1.54 70 23:43 26.03.2021
1012 Clouds 19 1016 88 10000 1.03 0 22:53 26.03.2021
1013 Clouds 19 1017 88 10000 1.54 0 22:34 26.03.2021
1014 Clouds 19 1017 88 10000 1.54 0 21:25 26.03.2021
1015 Clouds 19 1017 88 10000 1.54 50 20:58 26.03.2021
1016 Clouds 19 1017 94 10000 1.03 180 20:32 26.03.2021
1017 Clouds 19 1017 88 10000 1.54 50 19:54 26.03.2021
1018 Clouds 19 1016 88 10000 1.54 0 19:35 26.03.2021
1019 Clouds 19 1016 94 10000 3.09 80 18:59 26.03.2021
1020 Clouds 19 1016 94 10000 3.09 80 18:41 26.03.2021
1021 Rain 19 1016 94 10000 2.57 50 18:18 26.03.2021
1022 Rain 20 1015 88 10000 4.63 50 17:44 26.03.2021
1023 Rain 22 1015 78 10000 2.57 20 16:54 26.03.2021
1024 Rain 23 1014 68 10000 3.6 40 16:31 26.03.2021
1025 Rain 24 1014 69 10000 3.6 20 15:51 26.03.2021
1026 Rain 27 1013 57 10000 4.63 320 14:58 26.03.2021
1027 Rain 26 1013 61 10000 4.12 280 14:23 26.03.2021
1028 Rain 29 1013 51 10000 5.14 300 13:34 26.03.2021
1029 Rain 28 1013 54 10000 4.12 300 12:49 26.03.2021
1030 Rain 28 1014 54 10000 3.09 0 11:50 26.03.2021
1031 Rain 28 1015 54 10000 3.09 280 11:31 26.03.2021
1032 Rain 28 1015 54 10000 3.09 280 11:31 26.03.2021
1033 Rain 26 1015 61 10000 3.6 290 10:46 26.03.2021
1034 Rain 26 1016 65 10000 3.6 300 10:27 26.03.2021
1035 Rain 25 1016 65 10000 3.09 300 09:42 26.03.2021
1036 Clouds 25 1017 73 10000 3.09 290 09:00 26.03.2021
1037 Clouds 23 1017 73 10000 2.06 270 08:35 26.03.2021
1038 Clouds 23 1017 78 10000 3.09 290 07:58 26.03.2021
1039 Clouds 23 1017 78 10000 1.54 0 07:22 26.03.2021
1040 Clouds 23 1017 78 10000 2.57 320 06:57 26.03.2021
1041 Clouds 22 1017 83 10000 1.03 0 06:26 26.03.2021
1042 Clouds 19 1016 94 10000 1.03 0 05:21 26.03.2021
1043 Clouds 18 1015 100 10000 1.54 40 01:50 26.03.2021
1044 Clouds 18 1016 100 10000 1.54 0 00:23 26.03.2021
1045 Clouds 19 1016 94 10000 2.06 70 23:44 25.03.2021
1046 Clouds 19 1017 94 10000 1.54 0 22:50 25.03.2021
1047 Clouds 19 1017 94 10000 1.54 0 22:27 25.03.2021
1048 Clouds 19 1017 94 10000 1.54 0 21:49 25.03.2021
1049 Clouds 19 1017 94 10000 1.54 0 21:49 25.03.2021
1050 Clouds 19 1017 88 10000 1.54 120 21:31 25.03.2021
1051 Rain 19 1017 94 10000 2.06 180 20:42 25.03.2021
1052 Rain 19 1017 94 9000 1.1 96 20:24 25.03.2021
1053 Rain 19 1017 100 9000 1.03 0 19:43 25.03.2021
1054 Rain 19 1017 100 9000 2.57 40 19:25 25.03.2021
1055 Rain 20 1016 94 10000 4.63 120 18:46 25.03.2021
1056 Rain 20 1016 94 10000 1.03 0 18:26 25.03.2021
1057 Rain 20 1015 94 10000 3.09 110 17:43 25.03.2021
1058 Rain 20 1015 94 10000 3.09 110 17:43 25.03.2021
1059 Rain 21 1015 88 7000 2.57 0 17:24 25.03.2021
1060 Rain 21 1014 83 10000 3.09 40 16:47 25.03.2021
1061 Rain 21 1014 83 10000 3.09 50 16:28 25.03.2021
1062 Rain 22 1013 78 10000 4.63 50 15:43 25.03.2021
1063 Rain 23 1013 73 10000 5.14 50 15:19 25.03.2021
1064 Rain 24 1013 69 10000 5.66 40 14:43 25.03.2021
1065 Rain 25 1013 69 10000 5.14 50 13:49 25.03.2021
1066 Rain 25 1013 69 10000 4.12 360 13:23 25.03.2021
1067 Rain 26 1013 61 10000 2.06 350 12:42 25.03.2021
1068 Rain 27 1013 57 10000 1.54 120 12:20 25.03.2021
1069 Rain 28 1014 54 10000 2.06 0 11:52 25.03.2021
1070 Rain 27 1014 57 10000 1.54 60 11:30 25.03.2021
1071 Rain 26 1015 61 10000 2.06 60 10:54 25.03.2021
1072 Rain 26 1015 61 10000 2.57 50 10:25 25.03.2021
1073 Rain 24 1015 69 10000 1.54 50 09:56 25.03.2021
1074 Rain 25 1016 69 10000 2.06 60 09:38 25.03.2021
1075 Rain 23 1016 73 10000 2.06 80 08:54 25.03.2021
1076 Rain 22 1016 83 10000 2.06 90 08:21 25.03.2021
1077 Drizzle 21 1017 83 10000 1.54 180 07:19 25.03.2021
1078 Clouds 20 1016 94 10000 1.54 0 06:25 25.03.2021
1079 Clouds 20 1016 94 10000 1.54 320 05:49 25.03.2021
1080 Clouds 19 1015 100 10000 0.73 154 02:48 25.03.2021
1081 Clouds 18 1015 94 10000 2.57 290 00:24 25.03.2021
1082 Drizzle 19 1016 94 10000 4.63 50 23:53 24.03.2021
1083 Drizzle 19 1016 94 10000 4.63 50 23:29 24.03.2021
1084 Clouds 20 1017 94 10000 1.03 0 22:49 24.03.2021
1085 Clouds 20 1017 94 10000 1.03 0 22:28 24.03.2021
1086 Clouds 20 1017 94 10000 1.03 0 21:44 24.03.2021
1087 Clouds 20 1017 94 10000 1.03 0 21:24 24.03.2021
1088 Clouds 20 1018 94 10000 1.54 280 20:43 24.03.2021
1089 Clouds 20 1018 94 10000 1.54 280 20:20 24.03.2021
1090 Clouds 20 1018 94 10000 1.34 290 19:48 24.03.2021
1091 Rain 20 1017 94 10000 2.06 290 19:28 24.03.2021
1092 Rain 21 1017 83 10000 3.09 330 18:49 24.03.2021
1093 Rain 21 1017 88 10000 3.09 310 18:23 24.03.2021
1094 Clouds 22 1017 78 10000 2.57 10 17:51 24.03.2021
1095 Clouds 22 1016 83 10000 2.57 340 17:31 24.03.2021
1096 Rain 22 1016 78 10000 2.06 340 16:52 24.03.2021
1097 Rain 23 1015 78 10000 3.6 320 16:29 24.03.2021
1098 Rain 24 1015 69 10000 4.12 330 15:50 24.03.2021
1099 Rain 26 1015 61 10000 5.66 320 15:30 24.03.2021
1100 Rain 25 1014 65 10000 4.63 330 14:47 24.03.2021
1101 Rain 24 1014 69 10000 6.17 330 14:26 24.03.2021
1102 Rain 27 1014 61 10000 5.14 320 13:53 24.03.2021
1103 Rain 27 1014 57 10000 6.17 340 13:27 24.03.2021
1104 Rain 27 1014 57 10000 7.72 310 12:42 24.03.2021
1105 Rain 27 1015 57 10000 4.12 300 12:22 24.03.2021
1106 Rain 27 1015 54 10000 5.66 300 11:43 24.03.2021
1107 Rain 27 1016 57 10000 3.6 300 10:58 24.03.2021
1108 Rain 26 1017 61 10000 4.63 240 10:38 24.03.2021
1109 Rain 26 1017 61 10000 4.63 240 10:20 24.03.2021
1110 Rain 26 1017 61 10000 5.66 310 09:51 24.03.2021
1111 Clouds 25 1018 65 10000 3.09 300 09:20 24.03.2021
1112 Clouds 25 1018 65 10000 3.09 300 08:49 24.03.2021
1113 Clouds 25 1019 65 10000 3.09 310 08:25 24.03.2021
1114 Clouds 23 1019 73 10000 4.12 310 07:37 24.03.2021
1115 Clouds 21 1019 83 10000 3.6 330 06:52 24.03.2021
1116 Clouds 19 1018 94 10000 1.03 330 03:56 24.03.2021
1117 Clouds 17 1014 93 10000 1.23 279 00:47 24.03.2021
1118 Clouds 19 1019 94 10000 1.03 310 23:56 23.03.2021
1119 Clouds 19 1019 94 10000 1.03 310 23:21 23.03.2021
1120 Clouds 19 1019 94 10000 1.19 316 22:52 23.03.2021
1121 Rain 19 1019 94 10000 1.29 319 22:28 23.03.2021
1122 Rain 19 1020 94 10000 0.51 0 21:49 23.03.2021
1123 Rain 20 1020 94 10000 0.51 0 21:31 23.03.2021
1124 Rain 20 1020 88 10000 1.26 333 20:47 23.03.2021
1125 Rain 20 1020 88 10000 2.06 40 20:26 23.03.2021
1126 Rain 20 1020 94 10000 1.54 70 19:55 23.03.2021
1127 Rain 20 1020 88 10000 1.54 20 19:27 23.03.2021
1128 Rain 20 1020 88 10000 1.54 20 18:59 23.03.2021
1129 Rain 20 1020 88 10000 1.54 310 18:37 23.03.2021
1130 Rain 20 1020 88 10000 1.54 310 18:18 23.03.2021
1131 Rain 20 1019 88 10000 3.6 350 17:42 23.03.2021
1132 Rain 20 1018 88 10000 3.6 350 17:20 23.03.2021
1133 Rain 21 1018 83 10000 6.69 350 16:25 23.03.2021
1134 Rain 24 1017 69 10000 4.12 30 15:48 23.03.2021
1135 Rain 25 1017 61 10000 4.12 40 15:22 23.03.2021
1136 Rain 26 1017 53 10000 4.12 30 14:45 23.03.2021
1137 Rain 26 1017 53 10000 4.12 30 14:45 23.03.2021
1138 Rain 25 1017 61 10000 4.12 20 14:19 23.03.2021
1139 Rain 26 1017 53 10000 4.63 40 13:45 23.03.2021
1140 Rain 27 1017 54 10000 4.12 30 13:23 23.03.2021
1141 Rain 27 1017 54 10000 4.63 30 12:44 23.03.2021
1142 Rain 26 1018 53 10000 4.12 30 12:23 23.03.2021
1143 Rain 27 1018 54 10000 4.63 30 11:47 23.03.2021
1144 Rain 25 1019 61 10000 3.09 50 10:59 23.03.2021
1145 Rain 25 1019 61 10000 3.09 50 10:41 23.03.2021
1146 Rain 26 1020 61 10000 4.63 30 10:20 23.03.2021
1147 Rain 26 1020 65 10000 4.12 60 09:47 23.03.2021
1148 Rain 26 1021 57 10000 3.6 60 09:22 23.03.2021
1149 Rain 24 1021 64 10000 3.09 30 08:40 23.03.2021
1150 Rain 23 1021 73 10000 2.57 50 08:22 23.03.2021
1151 Rain 24 1021 73 10000 2.57 70 07:59 23.03.2021
1152 Rain 22 1021 78 10000 2.06 80 07:22 23.03.2021
1153 Rain 21 1021 88 10000 1.54 0 06:41 23.03.2021
1154 Rain 19 1019 94 10000 1.03 0 03:23 23.03.2021
1155 Rain 18 1018 100 10000 0.93 108 02:21 23.03.2021
1156 Rain 19 1019 94 10000 0.51 0 23:44 22.03.2021
1157 Rain 19 1020 94 10000 0.51 0 22:56 22.03.2021
1158 Rain 19 1020 94 10000 0.51 0 22:56 22.03.2021
1159 Rain 19 1020 94 10000 1.43 90 22:38 22.03.2021
1160 Rain 19 1020 94 10000 1.16 106 22:20 22.03.2021
1161 Rain 19 1020 100 10000 1.54 40 21:42 22.03.2021
1162 Rain 19 1020 94 10000 1.2 104 21:23 22.03.2021
1163 Rain 19 1020 94 10000 1.2 104 20:42 22.03.2021
1164 Rain 19 1020 94 10000 1.03 170 20:22 22.03.2021
1165 Drizzle 20 1020 94 10000 1.03 0 19:54 22.03.2021
1166 Rain 19 1020 94 10000 1.54 70 19:34 22.03.2021
1167 Rain 19 1019 94 10000 1.03 0 18:58 22.03.2021
1168 Rain 19 1019 94 10000 2.06 60 18:39 22.03.2021
1169 Rain 19 1019 94 10000 2.06 60 18:21 22.03.2021
1170 Rain 19 1019 94 10000 1.03 0 17:42 22.03.2021
1171 Rain 19 1018 94 10000 2.57 50 17:20 22.03.2021
1172 Rain 19 1017 88 10000 3.09 40 16:45 22.03.2021
1173 Rain 19 1017 82 10000 3.6 50 16:19 22.03.2021
1174 Rain 19 1017 88 10000 4.63 40 15:38 22.03.2021
1175 Rain 23 1017 64 10000 7.72 80 15:18 22.03.2021
1176 Rain 24 1016 64 10000 5.66 90 14:52 22.03.2021
1177 Rain 24 1015 64 10000 4.63 100 14:34 22.03.2021
1178 Rain 27 1016 54 10000 5.66 100 13:48 22.03.2021
1179 Rain 27 1016 54 10000 5.66 100 13:27 22.03.2021
1180 Rain 26 1016 61 10000 5.66 100 12:54 22.03.2021
1181 Rain 26 1016 61 10000 5.66 100 12:25 22.03.2021
1182 Rain 26 1017 61 10000 6.17 110 11:49 22.03.2021
1183 Rain 26 1017 61 10000 6.17 110 11:27 22.03.2021
1184 Rain 24 1018 69 10000 5.66 100 10:45 22.03.2021
1185 Rain 24 1018 69 10000 5.14 100 10:24 22.03.2021
1186 Rain 24 1018 69 10000 4.12 120 09:46 22.03.2021
1187 Clouds 24 1019 64 10000 4.12 110 09:26 22.03.2021
1188 Clouds 23 1019 68 10000 4.12 150 08:45 22.03.2021
1189 Clouds 23 1019 68 10000 5.66 120 08:26 22.03.2021
1190 Clouds 23 1019 73 10000 3.6 120 07:47 22.03.2021
1191 Clouds 21 1019 78 10000 3.09 140 06:59 22.03.2021
1192 Clouds 20 1018 83 10000 3.6 150 06:36 22.03.2021
1193 Clouds 19 1017 88 10000 2.06 160 02:47 22.03.2021
1194 Clouds 19 1017 88 10000 1.03 0 00:43 22.03.2021
1195 Clouds 19 1017 82 10000 4.12 100 23:55 21.03.2021
1196 Clouds 19 1017 82 10000 3.6 110 23:20 21.03.2021
1197 Clouds 18 1017 88 10000 3.09 110 22:58 21.03.2021
1198 Clouds 19 1017 88 10000 3.09 90 22:29 21.03.2021
1199 Clouds 19 1018 88 10000 2.57 120 21:41 21.03.2021
1200 Clouds 19 1018 88 10000 4.12 110 21:23 21.03.2021
1201 Clouds 19 1018 88 10000 3.6 120 20:46 21.03.2021
1202 Clouds 20 1018 83 10000 3.09 130 20:27 21.03.2021
1203 Clouds 20 1018 83 10000 4.12 100 19:56 21.03.2021
1204 Clouds 20 1018 88 10000 4.63 100 19:23 21.03.2021
1205 Clouds 20 1018 88 10000 3.6 90 18:53 21.03.2021
1206 Clouds 20 1017 88 10000 3.09 90 18:31 21.03.2021
1207 Clouds 20 1017 83 10000 4.63 120 17:49 21.03.2021
1208 Rain 20 1017 83 10000 4.63 110 17:22 21.03.2021
1209 Rain 21 1016 78 10000 3.6 100 16:59 21.03.2021
1210 Rain 21 1016 78 10000 3.6 100 16:41 21.03.2021
1211 Rain 21 1016 78 10000 6.69 110 16:22 21.03.2021
1212 Rain 22 1016 78 10000 5.66 120 15:41 21.03.2021
1213 Rain 23 1015 73 10000 5.66 110 15:20 21.03.2021
1214 Rain 23 1015 68 10000 5.14 80 14:46 21.03.2021
1215 Rain 25 1015 65 10000 4.63 100 14:27 21.03.2021
1216 Rain 26 1015 57 10000 5.66 90 13:54 21.03.2021
1217 Rain 26 1015 57 10000 4.12 140 13:25 21.03.2021
1218 Rain 26 1015 57 10000 4.63 120 12:42 21.03.2021
1219 Rain 26 1016 57 10000 4.12 120 12:24 21.03.2021
1220 Rain 26 1016 57 10000 4.63 110 11:41 21.03.2021
1221 Clouds 25 1017 61 10000 4.12 130 11:20 21.03.2021
1222 Clouds 25 1017 61 10000 4.12 130 10:43 21.03.2021
1223 Clouds 25 1017 61 10000 5.14 130 10:23 21.03.2021
1224 Clouds 24 1017 64 10000 4.63 140 09:46 21.03.2021
1225 Clouds 25 1017 61 10000 4.63 140 09:28 21.03.2021
1226 Clouds 25 1018 61 10000 3.09 130 08:44 21.03.2021
1227 Clouds 24 1018 64 10000 3.09 130 08:26 21.03.2021
1228 Clouds 21 1018 78 10000 2.57 140 07:39 21.03.2021
1229 Clouds 19 1018 82 10000 3.09 140 06:56 21.03.2021
1230 Clouds 18 1018 88 10000 3.6 150 05:54 21.03.2021
1231 Clouds 16 1017 100 10000 2.06 60 02:25 21.03.2021
1232 Clouds 17 1017 94 10000 2.06 150 00:42 21.03.2021
1233 Clouds 18 1017 88 10000 2.57 130 00:22 21.03.2021
1234 Clouds 17 1017 94 10000 2.06 140 23:49 20.03.2021
1235 Clouds 18 1018 94 10000 2.57 150 23:22 20.03.2021
1236 Clouds 18 1018 94 10000 1.54 150 22:55 20.03.2021
1237 Drizzle 18 1018 94 10000 1.54 70 22:22 20.03.2021
1238 Drizzle 18 1018 94 10000 1.54 60 21:47 20.03.2021
1239 Drizzle 18 1019 94 10000 3.09 110 21:25 20.03.2021
1240 Drizzle 18 1019 94 10000 4.63 120 20:45 20.03.2021
1241 Drizzle 18 1019 94 10000 3.09 80 20:23 20.03.2021
1242 Clouds 19 1019 88 10000 4.63 100 19:51 20.03.2021
1243 Clouds 19 1019 88 10000 4.12 80 19:28 20.03.2021
1244 Clouds 19 1019 88 10000 4.63 100 18:50 20.03.2021
1245 Rain 19 1018 88 10000 4.63 100 18:27 20.03.2021
1246 Rain 20 1018 83 10000 4.63 80 17:56 20.03.2021
1247 Rain 21 1018 78 10000 6.17 110 17:33 20.03.2021
1248 Rain 21 1017 78 10000 4.63 120 16:56 20.03.2021
1249 Rain 22 1017 68 10000 3.09 140 16:37 20.03.2021
1250 Rain 22 1017 68 10000 3.09 140 16:18 20.03.2021
1251 Rain 23 1016 68 10000 3.6 110 15:39 20.03.2021
1252 Rain 23 1016 68 10000 3.6 110 15:39 20.03.2021
1253 Rain 24 1016 64 10000 3.6 90 14:53 20.03.2021
1254 Clouds 24 1016 64 10000 4.63 100 14:29 20.03.2021
1255 Clouds 25 1016 57 10000 4.12 140 13:56 20.03.2021
1256 Clouds 24 1016 60 10000 3.09 140 13:21 20.03.2021
1257 Clouds 25 1016 57 10000 3.6 130 12:28 20.03.2021
1258 Clouds 26 1017 53 10000 3.09 130 11:50 20.03.2021
1259 Clouds 25 1017 57 10000 3.09 0 11:31 20.03.2021
1260 Clouds 26 1017 53 10000 3.09 0 10:57 20.03.2021
1261 Clouds 25 1018 53 10000 2.57 130 10:38 20.03.2021
1262 Clouds 25 1018 53 10000 2.57 130 10:38 20.03.2021
1263 Clouds 25 1018 53 10000 2.57 130 10:19 20.03.2021
1264 Clouds 25 1018 57 10000 2.57 0 09:42 20.03.2021
1265 Clouds 24 1019 60 10000 3.09 170 09:21 20.03.2021
1266 Clouds 24 1019 57 10000 4.12 130 08:48 20.03.2021
1267 Clouds 21 1019 73 10000 4.12 130 07:56 20.03.2021
1268 Clouds 21 1019 68 10000 4.63 120 07:37 20.03.2021
1269 Clouds 21 1019 68 10000 4.63 120 07:19 20.03.2021
1270 Clouds 19 1019 82 10000 3.6 140 06:27 20.03.2021
1271 Clouds 17 1018 82 10000 2.57 140 04:41 20.03.2021
1272 Clouds 17 1018 82 10000 2.57 140 03:42 20.03.2021
1273 Rain 18 1018 88 10000 2.06 140 00:42 20.03.2021
1274 Rain 18 1019 94 10000 2.06 100 23:36 19.03.2021
1275 Rain 18 1019 94 10000 2.06 100 23:18 19.03.2021
1276 Rain 19 1019 88 10000 1.54 0 22:40 19.03.2021
1277 Rain 19 1019 88 10000 1.54 0 22:40 19.03.2021
1278 Rain 19 1019 88 10000 1.54 0 22:22 19.03.2021
1279 Rain 19 1020 88 10000 3.09 140 21:37 19.03.2021
1280 Rain 19 1020 88 10000 3.09 140 21:18 19.03.2021
1281 Rain 19 1020 88 10000 4.12 100 20:42 19.03.2021
1282 Rain 19 1020 94 10000 2.06 40 20:24 19.03.2021
1283 Rain 18 1020 94 10000 2.06 50 19:47 19.03.2021
1284 Rain 18 1019 94 10000 2.06 50 19:21 19.03.2021
1285 Rain 18 1019 94 10000 2.57 60 18:42 19.03.2021
1286 Rain 18 1019 94 10000 1.03 0 18:20 19.03.2021
1287 Rain 18 1019 94 8000 2.57 360 17:56 19.03.2021
1288 Rain 18 1018 94 8000 4.12 240 17:33 19.03.2021
1289 Rain 19 1018 88 8000 3.6 360 16:56 19.03.2021
1290 Rain 19 1017 88 6000 5.14 230 16:32 19.03.2021
1291 Rain 21 1016 83 10000 7.72 220 15:58 19.03.2021
1292 Rain 25 1016 57 10000 3.6 120 15:28 19.03.2021
1293 Rain 25 1016 57 10000 3.6 140 14:48 19.03.2021
1294 Rain 27 1016 54 10000 3.6 100 14:28 19.03.2021
1295 Rain 27 1016 54 10000 5.14 110 13:42 19.03.2021
1296 Rain 27 1016 57 10000 5.14 110 13:18 19.03.2021
1297 Rain 27 1016 57 10000 4.12 110 12:38 19.03.2021
1298 Rain 26 1017 57 10000 3.6 100 11:49 19.03.2021
1299 Clouds 26 1017 57 10000 3.6 110 10:57 19.03.2021
1300 Clouds 25 1018 65 10000 3.6 130 10:39 19.03.2021
1301 Clouds 25 1018 65 10000 3.6 130 10:18 19.03.2021
1302 Clouds 25 1018 65 10000 3.09 110 09:41 19.03.2021
1303 Clouds 24 1019 69 10000 2.57 160 09:22 19.03.2021
1304 Clouds 22 1019 78 10000 2.57 160 08:41 19.03.2021
1305 Clouds 21 1019 78 10000 3.6 150 08:22 19.03.2021
1306 Clouds 21 1019 78 10000 2.57 120 07:42 19.03.2021
1307 Clouds 20 1019 83 10000 2.06 130 06:56 19.03.2021
1308 Clouds 17 1018 100 10000 1.54 100 03:57 19.03.2021
1309 Clouds 18 1017 94 10000 2.57 100 00:58 19.03.2021
1310 Rain 18 1018 94 10000 2.57 80 23:49 18.03.2021
1311 Rain 18 1018 100 10000 2.57 90 23:26 18.03.2021
1312 Rain 18 1019 100 10000 2.57 160 22:41 18.03.2021
1313 Rain 18 1019 94 10000 1.54 0 22:22 18.03.2021
1314 Rain 17 1019 100 10000 1.54 160 21:39 18.03.2021
1315 Rain 17 1019 100 10000 1.54 130 20:54 18.03.2021
1316 Rain 17 1019 94 10000 3.09 110 20:35 18.03.2021
1317 Rain 17 1019 100 9000 1.03 0 19:59 18.03.2021
1318 Rain 17 1019 100 9000 1.03 0 19:41 18.03.2021
1319 Rain 17 1019 100 6000 1.03 330 19:20 18.03.2021
1320 Rain 16 1018 100 4000 1.03 0 18:38 18.03.2021
1321 Rain 16 1019 94 2500 6.69 250 17:51 18.03.2021
1322 Rain 22 1017 78 10000 2.57 50 17:26 18.03.2021
1323 Rain 22 1017 78 10000 2.57 50 16:50 18.03.2021
1324 Rain 22 1017 78 10000 2.57 40 16:30 18.03.2021
1325 Rain 23 1017 73 10000 2.06 40 15:49 18.03.2021
1326 Rain 24 1016 69 10000 1.54 0 15:29 18.03.2021
1327 Rain 24 1016 69 10000 2.57 360 14:58 18.03.2021
1328 Rain 25 1016 65 10000 2.06 50 14:40 18.03.2021
1329 Rain 25 1016 65 10000 2.06 50 14:40 18.03.2021
1330 Rain 26 1016 57 10000 3.09 70 13:54 18.03.2021
1331 Rain 27 1016 57 10000 3.09 90 13:27 18.03.2021
1332 Rain 26 1017 61 10000 1.03 0 12:46 18.03.2021
1333 Rain 26 1017 61 10000 1.03 0 12:28 18.03.2021
1334 Rain 26 1017 61 10000 1.54 0 11:55 18.03.2021
1335 Rain 27 1017 61 10000 3.09 90 11:34 18.03.2021
1336 Rain 25 1018 65 10000 2.57 110 10:49 18.03.2021
1337 Rain 25 1018 65 10000 2.57 110 10:49 18.03.2021
1338 Clouds 25 1018 65 10000 2.57 110 10:28 18.03.2021
1339 Clouds 24 1019 69 10000 2.06 100 09:58 18.03.2021
1340 Clouds 24 1019 69 10000 2.06 100 09:30 18.03.2021
1341 Clouds 23 1019 73 10000 1.03 160 08:57 18.03.2021
1342 Clouds 23 1019 73 10000 1.03 160 08:33 18.03.2021
1343 Clouds 22 1019 73 10000 2.57 70 07:57 18.03.2021
1344 Clouds 21 1019 78 10000 2.57 70 07:39 18.03.2021
1345 Clouds 20 1019 83 10000 3.6 80 06:40 18.03.2021
1346 Clouds 20 1019 83 10000 2.06 140 06:21 18.03.2021
1347 Clouds 18 1019 100 10000 2.06 140 04:42 18.03.2021
1348 Clouds 19 1018 94 10000 1.03 160 00:39 18.03.2021
1349 Rain 19 1019 94 8000 2.06 160 23:18 17.03.2021
1350 Rain 19 1019 94 6000 2.06 160 22:38 17.03.2021
1351 Rain 19 1019 94 10000 2.06 80 22:19 17.03.2021
1352 Rain 19 1019 94 10000 2.06 80 21:48 17.03.2021
1353 Clouds 19 1019 94 10000 3.09 100 21:30 17.03.2021
1354 Rain 20 1019 94 10000 3.09 120 20:45 17.03.2021
1355 Rain 20 1019 94 10000 2.06 60 20:26 17.03.2021
1356 Rain 19 1019 100 10000 2.06 140 19:57 17.03.2021
1357 Rain 19 1018 100 10000 2.06 70 19:25 17.03.2021
1358 Rain 20 1018 94 8000 2.06 80 18:59 17.03.2021
1359 Rain 20 1018 94 8000 2.06 80 18:59 17.03.2021
1360 Rain 20 1018 94 8000 2.06 80 18:40 17.03.2021
1361 Rain 20 1018 94 10000 3.09 60 17:58 17.03.2021
1362 Rain 20 1018 94 10000 3.09 40 17:27 17.03.2021
1363 Rain 21 1017 83 10000 4.12 60 16:57 17.03.2021
1364 Rain 21 1017 83 10000 4.12 60 16:37 17.03.2021
1365 Rain 22 1016 78 10000 5.14 80 16:19 17.03.2021
1366 Rain 23 1016 73 10000 6.69 110 15:40 17.03.2021
1367 Rain 26 1015 57 10000 4.12 110 14:46 17.03.2021
1368 Rain 27 1015 54 10000 3.09 110 14:28 17.03.2021
1369 Rain 27 1015 54 10000 3.6 0 13:56 17.03.2021
1370 Rain 27 1016 54 10000 2.57 130 13:38 17.03.2021
1371 Rain 26 1016 57 10000 4.12 120 12:59 17.03.2021
1372 Rain 27 1016 54 10000 3.6 110 12:34 17.03.2021
1373 Rain 28 1016 47 10000 4.12 110 11:54 17.03.2021
1374 Rain 27 1017 54 10000 3.6 110 11:27 17.03.2021
1375 Rain 26 1017 53 10000 3.6 0 10:59 17.03.2021
1376 Rain 26 1018 57 10000 3.09 120 10:40 17.03.2021
1377 Clouds 26 1018 57 10000 3.6 150 09:59 17.03.2021
1378 Clouds 26 1018 57 10000 3.6 150 09:41 17.03.2021
1379 Clouds 25 1018 61 10000 3.09 130 09:19 17.03.2021
1380 Clouds 25 1019 65 10000 3.6 120 08:43 17.03.2021
1381 Clouds 23 1019 68 10000 3.09 140 08:24 17.03.2021
1382 Clouds 21 1019 78 10000 3.09 140 07:37 17.03.2021
1383 Clouds 20 1019 83 10000 2.57 110 06:47 17.03.2021
1384 Clouds 18 1017 88 10000 2.06 140 04:27 17.03.2021
1385 Clouds 19 1017 82 10000 3.09 160 03:30 17.03.2021
1386 Clouds 18 1018 88 10000 2.06 150 00:43 17.03.2021
1387 Clouds 18 1018 88 10000 2.06 150 00:20 17.03.2021
1388 Clouds 18 1018 88 10000 2.06 150 23:22 16.03.2021
1389 Clouds 19 1018 82 10000 2.06 140 22:43 16.03.2021
1390 Clouds 19 1019 82 10000 3.09 150 22:25 16.03.2021
1391 Clouds 19 1019 82 10000 2.57 160 21:42 16.03.2021
1392 Clouds 19 1019 82 10000 3.6 140 21:24 16.03.2021
1393 Clouds 19 1019 82 10000 4.12 130 20:47 16.03.2021
1394 Rain 19 1019 82 10000 4.12 130 20:19 16.03.2021
1395 Rain 19 1019 82 10000 4.12 130 20:19 16.03.2021
1396 Rain 19 1019 82 10000 4.63 140 19:46 16.03.2021
1397 Rain 19 1019 82 10000 4.63 140 19:27 16.03.2021
1398 Rain 19 1018 82 10000 4.63 130 18:52 16.03.2021
1399 Rain 19 1018 82 10000 5.14 140 18:30 16.03.2021
1400 Rain 19 1017 82 10000 5.66 110 17:51 16.03.2021
1401 Rain 20 1017 77 10000 6.17 130 17:33 16.03.2021
1402 Rain 20 1017 83 10000 7.2 120 16:54 16.03.2021
1403 Rain 20 1017 83 10000 7.2 120 16:54 16.03.2021
1404 Rain 20 1017 83 10000 7.2 120 16:54 16.03.2021
1405 Rain 20 1017 83 10000 7.2 120 16:54 16.03.2021
1406 Rain 20 1017 83 10000 7.2 120 16:54 16.03.2021
1407 Rain 20 1017 83 10000 7.2 120 16:54 16.03.2021
1408 Rain 20 1017 83 10000 7.2 120 16:54 16.03.2021
1409 Rain 22 1017 73 10000 6.69 130 16:31 16.03.2021
1410 Rain 23 1016 68 10000 6.17 110 15:58 16.03.2021
1411 Rain 24 1015 64 10000 8.23 110 15:37 16.03.2021
1412 Rain 24 1015 64 10000 8.23 110 15:19 16.03.2021
1413 Rain 24 1015 64 10000 8.23 110 15:19 16.03.2021
1414 Rain 25 1015 53 10000 4.12 130 14:42 16.03.2021
1415 Rain 26 1015 57 10000 3.09 120 14:22 16.03.2021
1416 Rain 27 1015 50 10000 4.12 120 13:58 16.03.2021
1417 Rain 27 1016 50 10000 4.12 120 13:29 16.03.2021
1418 Rain 25 1016 57 10000 4.63 130 12:56 16.03.2021
1419 Rain 26 1016 57 10000 5.66 110 12:37 16.03.2021
1420 Rain 28 1016 47 10000 4.63 120 11:56 16.03.2021
1421 Rain 27 1017 50 10000 4.63 130 11:34 16.03.2021
1422 Rain 26 1017 53 10000 4.63 120 10:49 16.03.2021
1423 Rain 26 1018 57 10000 6.17 120 10:21 16.03.2021
1424 Rain 26 1019 57 10000 5.66 120 09:40 16.03.2021
1425 Rain 26 1019 57 10000 5.66 120 09:20 16.03.2021
1426 Rain 26 1019 57 10000 5.14 110 08:53 16.03.2021
1427 Rain 25 1019 61 10000 4.63 120 08:35 16.03.2021
1428 Clouds 22 1019 68 10000 3.6 140 07:51 16.03.2021
1429 Clouds 22 1019 68 10000 3.6 140 07:24 16.03.2021
1430 Clouds 20 1019 77 10000 3.6 140 06:38 16.03.2021
1431 Clouds 20 1018 77 10000 2.57 140 05:36 16.03.2021
1432 Clouds 18 1017 88 10000 2.06 130 02:46 16.03.2021
1433 Clouds 17 1017 94 10000 1.54 0 02:25 16.03.2021
1434 Clouds 18 1018 94 10000 2.57 110 00:38 16.03.2021
1435 Clouds 19 1018 88 10000 2.57 130 23:53 15.03.2021
1436 Clouds 18 1018 94 10000 2.06 90 23:19 15.03.2021
1437 Clouds 18 1018 94 10000 2.57 110 22:42 15.03.2021
1438 Clouds 19 1019 88 10000 1.54 40 22:24 15.03.2021
1439 Clouds 19 1019 88 10000 1.54 0 21:48 15.03.2021
1440 Clouds 19 1019 88 10000 2.57 120 21:27 15.03.2021
1441 Clouds 19 1019 88 10000 2.06 130 20:48 15.03.2021
1442 Clouds 19 1019 88 10000 2.57 150 20:28 15.03.2021
1443 Clouds 19 1019 88 10000 3.09 140 19:58 15.03.2021
1444 Clouds 19 1018 88 10000 4.12 120 19:39 15.03.2021
1445 Clouds 19 1018 88 10000 4.12 120 19:21 15.03.2021
1446 Clouds 19 1018 88 10000 3.6 100 18:42 15.03.2021
1447 Rain 20 1018 83 10000 4.12 110 18:22 15.03.2021
1448 Rain 20 1018 83 10000 4.63 100 17:52 15.03.2021
1449 Rain 21 1017 78 10000 5.14 110 17:22 15.03.2021
1450 Rain 21 1017 73 10000 6.17 110 16:44 15.03.2021
1451 Rain 22 1016 73 10000 5.66 110 16:18 15.03.2021
1452 Rain 25 1016 57 10000 6.69 80 15:39 15.03.2021
1453 Rain 25 1016 57 10000 6.69 80 15:20 15.03.2021
1454 Rain 26 1016 53 10000 4.12 70 14:41 15.03.2021
1455 Rain 26 1016 53 10000 4.12 70 14:20 15.03.2021
1456 Rain 27 1016 50 10000 5.14 100 13:45 15.03.2021
1457 Rain 27 1016 50 10000 6.17 100 13:24 15.03.2021
1458 Rain 26 1016 53 10000 5.14 100 12:46 15.03.2021
1459 Rain 26 1016 53 10000 5.66 110 12:18 15.03.2021
1460 Rain 25 1017 57 10000 4.12 150 11:46 15.03.2021
1461 Clouds 25 1017 57 10000 4.12 150 11:27 15.03.2021
1462 Clouds 26 1017 53 10000 3.09 0 10:45 15.03.2021
1463 Clouds 26 1017 53 10000 3.09 0 10:45 15.03.2021
1464 Clouds 24 1018 60 10000 4.63 130 10:26 15.03.2021
1465 Clouds 25 1018 57 10000 4.12 120 09:48 15.03.2021
1466 Clouds 25 1019 53 10000 4.12 120 09:30 15.03.2021
1467 Clouds 24 1019 57 10000 5.14 130 08:47 15.03.2021
1468 Clouds 23 1019 64 10000 4.12 140 08:27 15.03.2021
1469 Clouds 22 1019 64 10000 4.63 130 07:43 15.03.2021
1470 Clouds 21 1019 68 10000 5.14 140 07:22 15.03.2021
1471 Clouds 19 1019 77 10000 4.63 170 06:21 15.03.2021
1472 Clouds 18 1017 88 10000 3.09 150 03:36 15.03.2021
1473 Clouds 19 1017 82 10000 3.6 150 01:20 15.03.2021
1474 Clouds 19 1018 82 10000 3.6 140 23:24 14.03.2021
1475 Clouds 19 1019 82 10000 4.12 170 22:59 14.03.2021
1476 Clouds 19 1019 82 10000 3.09 160 22:38 14.03.2021
1477 Clouds 19 1019 82 10000 3.09 160 22:18 14.03.2021
1478 Clouds 19 1019 82 10000 3.09 140 21:39 14.03.2021
1479 Clouds 19 1019 82 10000 3.09 140 21:18 14.03.2021
1480 Clouds 19 1019 82 10000 2.06 150 20:42 14.03.2021
1481 Clouds 19 1019 77 10000 3.6 150 20:23 14.03.2021
1482 Clouds 19 1020 82 10000 5.66 120 19:42 14.03.2021
1483 Rain 19 1020 82 10000 4.63 130 19:19 14.03.2021
1484 Rain 20 1019 77 10000 7.72 120 18:37 14.03.2021
1485 Clouds 20 1018 77 10000 5.14 130 17:56 14.03.2021
1486 Clouds 21 1018 73 10000 6.17 120 17:37 14.03.2021
1487 Rain 21 1018 73 10000 6.17 120 17:19 14.03.2021
1488 Rain 21 1017 68 10000 5.14 120 16:40 14.03.2021
1489 Rain 22 1017 64 10000 4.63 130 16:21 14.03.2021
1490 Rain 22 1017 64 10000 4.63 130 16:21 14.03.2021
1491 Rain 24 1017 57 10000 5.14 120 15:48 14.03.2021
1492 Rain 25 1017 53 10000 5.14 140 14:58 14.03.2021
1493 Rain 25 1017 53 10000 5.14 140 14:58 14.03.2021
1494 Rain 24 1016 60 10000 7.72 110 14:32 14.03.2021
1495 Rain 26 1016 53 10000 7.72 110 13:55 14.03.2021
1496 Rain 26 1016 57 10000 5.14 110 13:36 14.03.2021
1497 Rain 24 1016 64 10000 5.66 120 12:59 14.03.2021
1498 Rain 24 1016 64 10000 5.66 120 12:41 14.03.2021
1499 Rain 27 1017 50 10000 2.57 130 12:23 14.03.2021
1500 Rain 27 1017 54 10000 3.09 90 11:40 14.03.2021
1501 Rain 26 1018 57 10000 4.12 130 11:22 14.03.2021
1502 Rain 25 1018 57 10000 4.12 140 10:38 14.03.2021
1503 Clouds 25 1018 57 10000 4.12 140 10:20 14.03.2021
1504 Clouds 24 1019 60 10000 5.66 110 09:57 14.03.2021
1505 Clouds 24 1019 57 10000 6.17 120 09:39 14.03.2021
1506 Clouds 24 1019 57 10000 6.17 120 09:20 14.03.2021
1507 Clouds 24 1019 57 10000 3.09 170 08:37 14.03.2021
1508 Clouds 22 1020 60 10000 3.09 170 07:58 14.03.2021
1509 Clouds 21 1020 64 10000 2.57 150 07:28 14.03.2021
1510 Clouds 16 1019 82 10000 3.09 150 05:34 14.03.2021
1511 Clouds 15 1018 94 10000 1.54 140 01:26 14.03.2021
1512 Clouds 15 1019 94 10000 2.06 130 00:20 14.03.2021
1513 Clouds 16 1019 88 10000 2.57 130 23:59 13.03.2021
1514 Clouds 16 1019 88 10000 3.6 140 23:39 13.03.2021
1515 Clouds 16 1019 88 10000 3.6 140 23:18 13.03.2021
1516 Clouds 16 1020 88 10000 3.09 120 22:44 13.03.2021
1517 Clouds 16 1020 94 10000 2.57 80 21:55 13.03.2021
1518 Clouds 16 1020 94 10000 2.57 80 21:55 13.03.2021
1519 Clouds 17 1021 82 10000 3.6 110 21:35 13.03.2021
1520 Clouds 18 1021 82 10000 2.57 130 20:57 13.03.2021
1521 Clouds 17 1021 88 10000 2.57 140 20:37 13.03.2021
1522 Clouds 17 1021 88 10000 2.57 140 20:19 13.03.2021
1523 Clouds 17 1020 88 10000 3.09 90 19:38 13.03.2021
1524 Clouds 17 1020 88 10000 3.09 90 19:19 13.03.2021
1525 Clouds 18 1020 82 10000 4.63 90 18:40 13.03.2021
1526 Clouds 18 1019 82 10000 3.6 90 18:19 13.03.2021
1527 Clouds 19 1019 77 10000 4.63 100 17:46 13.03.2021
1528 Clear 20 1019 68 10000 4.63 120 17:27 13.03.2021
1529 Clouds 21 1018 60 10000 5.14 100 16:51 13.03.2021
1530 Clouds 22 1018 53 10000 6.17 110 16:31 13.03.2021
1531 Clouds 23 1017 49 10000 6.17 100 15:47 13.03.2021
1532 Clouds 25 1017 44 10000 5.66 100 14:56 13.03.2021
1533 Clouds 25 1017 44 10000 4.63 120 14:38 13.03.2021
1534 Clouds 25 1017 44 10000 5.66 130 13:55 13.03.2021
1535 Clouds 25 1017 44 10000 5.66 120 13:26 13.03.2021
1536 Clouds 25 1018 44 10000 3.6 140 12:48 13.03.2021
1537 Clouds 25 1018 44 10000 5.14 130 12:28 13.03.2021
1538 Clouds 25 1018 47 10000 5.14 130 11:51 13.03.2021
1539 Clouds 25 1018 44 10000 5.66 100 11:30 13.03.2021
1540 Clouds 25 1019 44 10000 4.63 170 10:51 13.03.2021
1541 Clouds 25 1019 44 10000 5.14 140 10:30 13.03.2021
1542 Clouds 24 1019 46 10000 4.63 150 09:48 13.03.2021
1543 Clouds 23 1020 49 10000 5.14 150 09:24 13.03.2021
1544 Clouds 23 1020 49 10000 5.66 120 08:44 13.03.2021
1545 Clouds 22 1020 53 10000 5.14 140 08:19 13.03.2021
1546 Clouds 20 1020 60 10000 5.14 170 07:54 13.03.2021
1547 Clouds 19 1020 63 10000 5.66 160 06:53 13.03.2021
1548 Clouds 15 1018 82 10000 2.57 150 02:56 13.03.2021
1549 Clouds 15 1019 88 10000 2.57 140 00:57 13.03.2021
1550 Clouds 16 1020 82 10000 3.09 140 23:59 12.03.2021
1551 Clouds 16 1020 82 10000 3.6 140 23:32 12.03.2021
1552 Clouds 17 1020 82 10000 4.63 140 22:43 12.03.2021
1553 Clouds 18 1020 82 10000 4.63 140 22:23 12.03.2021
1554 Clouds 19 1020 77 10000 4.63 150 21:45 12.03.2021
1555 Clouds 19 1020 77 10000 4.63 150 21:45 12.03.2021
1556 Clouds 19 1020 82 10000 4.12 140 21:26 12.03.2021
1557 Clouds 19 1020 82 10000 4.12 140 20:56 12.03.2021
1558 Clouds 19 1020 82 10000 4.12 150 20:32 12.03.2021
1559 Clouds 20 1020 83 10000 2.57 140 19:59 12.03.2021
1560 Clouds 19 1020 82 10000 2.57 120 19:40 12.03.2021
1561 Clouds 19 1020 82 10000 2.57 120 19:40 12.03.2021
1562 Clouds 19 1020 82 10000 2.57 120 19:21 12.03.2021
1563 Clouds 20 1019 77 10000 4.63 130 18:36 12.03.2021
1564 Clouds 21 1019 68 10000 6.17 120 17:54 12.03.2021
1565 Clouds 21 1019 68 10000 6.17 120 17:36 12.03.2021
1566 Clouds 21 1019 68 10000 6.17 120 17:18 12.03.2021
1567 Clouds 17 1015 94 10000 3.09 108 16:40 12.03.2021
1568 Rain 18 1014 90 10000 3.29 106 15:52 12.03.2021
1569 Rain 18 1014 90 10000 3.29 106 15:31 12.03.2021
1570 Rain 20 1013 83 10000 3.99 103 14:48 12.03.2021
1571 Rain 22 1012 75 10000 4.08 100 14:21 12.03.2021
1572 Rain 22 1012 75 10000 4.08 100 13:44 12.03.2021
1573 Rain 26 1018 50 10000 3.09 110 13:23 12.03.2021
1574 Rain 26 1018 50 10000 3.09 110 12:57 12.03.2021
1575 Rain 26 1018 50 10000 3.09 110 12:38 12.03.2021
1576 Clouds 26 1018 50 10000 4.12 110 12:19 12.03.2021
1577 Clouds 26 1018 50 10000 4.12 110 11:49 12.03.2021
1578 Clouds 25 1019 53 10000 3.6 110 11:21 12.03.2021
1579 Clouds 26 1019 50 10000 3.6 100 10:48 12.03.2021
1580 Clouds 24 1019 57 10000 3.6 120 10:24 12.03.2021
1581 Clouds 23 1020 60 10000 4.12 110 09:49 12.03.2021
1582 Clouds 23 1020 64 10000 4.12 170 09:20 12.03.2021
1583 Clouds 23 1020 64 10000 3.6 160 08:43 12.03.2021
1584 Clouds 21 1021 73 10000 4.12 150 07:54 12.03.2021
1585 Clouds 21 1020 73 10000 3.6 150 07:31 12.03.2021
1586 Clouds 20 1020 77 10000 2.06 150 06:46 12.03.2021
1587 Clouds 19 1020 82 10000 3.6 150 05:57 12.03.2021
1588 Clouds 19 1018 82 10000 4.12 130 01:42 12.03.2021
1589 Clouds 19 1019 94 10000 2.06 80 23:59 11.03.2021
1590 Clouds 20 1020 83 10000 4.12 60 23:19 11.03.2021
1591 Clouds 20 1020 83 10000 5.14 100 22:41 11.03.2021
1592 Clouds 20 1020 83 10000 4.12 80 22:21 11.03.2021
1593 Clouds 20 1020 83 10000 4.12 80 21:46 11.03.2021
1594 Clouds 20 1020 83 10000 2.06 100 21:26 11.03.2021
1595 Clouds 20 1019 83 10000 3.6 100 20:49 11.03.2021
1596 Clouds 19 1019 88 10000 4.63 110 20:23 11.03.2021
1597 Clouds 20 1020 83 10000 4.63 120 19:56 11.03.2021
1598 Clouds 20 1020 83 10000 5.66 100 19:36 11.03.2021
1599 Clouds 20 1019 83 10000 4.63 100 18:54 11.03.2021
1600 Clouds 20 1019 83 10000 5.14 100 18:35 11.03.2021
1601 Clouds 20 1019 83 10000 3.6 100 17:54 11.03.2021
1602 Clouds 21 1018 78 10000 6.17 100 17:36 11.03.2021
1603 Rain 23 1017 68 10000 6.17 110 16:38 11.03.2021
1604 Rain 23 1017 68 10000 6.17 110 16:19 11.03.2021
1605 Rain 24 1017 64 10000 5.66 100 15:44 11.03.2021
1606 Rain 25 1016 61 10000 4.63 80 15:20 11.03.2021
1607 Rain 26 1016 53 10000 4.12 110 14:45 11.03.2021
1608 Rain 27 1016 54 10000 4.12 120 14:18 11.03.2021
1609 Rain 27 1016 50 10000 4.12 110 13:45 11.03.2021
1610 Rain 27 1016 54 10000 3.09 120 13:22 11.03.2021
1611 Rain 27 1017 50 10000 3.6 100 12:55 11.03.2021
1612 Rain 26 1018 53 10000 3.09 120 12:30 11.03.2021
1613 Rain 26 1018 53 10000 3.09 120 11:48 11.03.2021
1614 Rain 25 1018 61 10000 3.09 0 11:30 11.03.2021
1615 Rain 25 1018 57 10000 4.12 130 10:56 11.03.2021
1616 Clouds 24 1019 64 10000 4.12 110 10:27 11.03.2021
1617 Clouds 23 1019 68 10000 4.12 120 09:52 11.03.2021
1618 Clouds 23 1019 68 10000 3.6 170 09:32 11.03.2021
1619 Clouds 22 1020 73 10000 4.12 170 08:50 11.03.2021
1620 Clouds 23 1020 68 10000 3.09 140 08:32 11.03.2021
1621 Clouds 22 1020 73 10000 3.09 160 07:48 11.03.2021
1622 Clouds 20 1020 77 10000 3.09 150 07:21 11.03.2021
1623 Clouds 20 1020 77 10000 3.09 160 06:42 11.03.2021
1624 Clouds 20 1020 77 10000 2.57 170 06:22 11.03.2021
1625 Clouds 18 1018 88 10000 2.57 140 02:26 11.03.2021
1626 -273 0 0 0 0 0 00:27 11.03.2021
1627 Clouds 19 1018 82 10000 4.12 130 23:23 10.03.2021
1628 -273 0 0 0 0 0 22:42 10.03.2021
1629 Clouds 19 1018 82 10000 4.63 110 22:42 10.03.2021
1630 Clouds 19 1018 82 10000 4.63 110 22:41 10.03.2021
1631 Clouds 19 1018 82 10000 4.63 110 22:41 10.03.2021
1632 Clouds 19 1018 82 10000 4.63 110 22:41 10.03.2021
1633 Clouds 19 1018 82 10000 4.63 110 22:41 10.03.2021
1634 Clouds 19 1018 82 10000 4.63 110 22:41 10.03.2021
1635 Clouds 19 1018 82 10000 4.63 110 22:41 10.03.2021
1636 Clouds 20 1019 83 10000 6.17 110 21:58 10.03.2021
1637 Clouds 20 1019 83 10000 6.17 110 21:39 10.03.2021
1638 Clouds 20 1019 83 10000 6.17 110 21:20 10.03.2021
1639 Clouds 19 1019 88 10000 4.63 110 20:42 10.03.2021
1640 Rain 19 1019 88 10000 5.66 110 20:23 10.03.2021
1641 Rain 19 1019 88 10000 5.66 110 20:23 10.03.2021
1642 Rain 20 1019 83 10000 3.09 100 19:40 10.03.2021
1643 Rain 20 1019 83 10000 3.09 100 19:40 10.03.2021
1644 Rain 20 1019 88 10000 4.63 110 19:21 10.03.2021
1645 Rain 20 1019 88 10000 4.63 110 19:21 10.03.2021
1646 Rain 20 1019 83 10000 6.69 110 18:42 10.03.2021
1647 Rain 21 1019 83 10000 6.17 110 18:23 10.03.2021
1648 Rain 21 1018 83 10000 5.14 90 17:42 10.03.2021
1649 Rain 21 1017 78 10000 5.66 100 17:21 10.03.2021
1650 Rain 22 1017 73 10000 5.14 100 16:55 10.03.2021
1651 Rain 23 1017 68 10000 5.66 100 16:37 10.03.2021
1652 Rain 23 1017 68 10000 5.66 100 16:18 10.03.2021
1653 Rain 25 1016 61 10000 5.66 90 15:39 10.03.2021
1654 Rain 25 1016 61 10000 5.66 90 15:21 10.03.2021
1655 Rain 27 1016 50 10000 3.09 110 14:38 10.03.2021
1656 Rain 27 1016 50 10000 3.09 110 14:19 10.03.2021
1657 Rain 27 1016 50 10000 2.06 0 13:35 10.03.2021
1658 Rain 27 1017 50 10000 1.54 0 12:56 10.03.2021
1659 Rain 26 1017 53 10000 2.57 0 12:32 10.03.2021
1660 Rain 26 1017 53 10000 2.06 120 11:58 10.03.2021
1661 Rain 25 1017 57 10000 2.06 150 11:30 10.03.2021
1662 Clouds 25 1018 53 10000 2.06 90 10:56 10.03.2021
1663 Clouds 25 1018 53 10000 2.06 90 10:34 10.03.2021
1664 Clouds 25 1019 53 10000 3.09 0 09:57 10.03.2021
1665 Clouds 25 1019 57 10000 2.57 0 09:39 10.03.2021
1666 Clouds 25 1019 57 10000 2.57 0 09:19 10.03.2021
1667 Clouds 24 1020 60 10000 3.09 120 08:45 10.03.2021
1668 Clouds 24 1020 60 10000 2.57 120 08:27 10.03.2021
1669 Clouds 22 1020 68 10000 3.09 110 07:46 10.03.2021
1670 Clouds 23 1020 68 10000 3.09 130 07:25 10.03.2021
1671 Clouds 21 1020 78 10000 2.06 120 06:52 10.03.2021
1672 Clouds 18 1018 88 10000 2.06 90 02:45 10.03.2021
1673 Rain 18 1018 82 10000 2.06 30 00:42 10.03.2021
1674 Rain 18 1019 82 10000 3.6 90 23:47 09.03.2021
1675 Rain 18 1019 82 10000 4.63 110 22:58 09.03.2021
1676 Rain 19 1019 82 10000 5.66 100 22:38 09.03.2021
1677 Rain 19 1019 82 10000 5.66 100 22:18 09.03.2021
1678 Rain 19 1019 88 10000 5.14 90 21:42 09.03.2021
1679 Rain 20 1019 83 10000 5.66 100 21:22 09.03.2021
1680 Rain 20 1019 83 10000 5.14 80 20:56 09.03.2021
1681 Rain 20 1019 88 10000 3.6 70 20:37 09.03.2021
1682 Rain 20 1019 83 10000 5.14 100 20:18 09.03.2021
1683 Rain 20 1019 83 10000 3.6 100 19:43 09.03.2021
1684 Rain 20 1019 83 10000 3.6 100 19:24 09.03.2021
1685 Rain 20 1018 83 10000 4.63 110 18:42 09.03.2021
1686 Rain 21 1018 83 10000 4.63 130 18:19 09.03.2021
1687 Rain 21 1018 83 10000 5.66 120 17:46 09.03.2021
1688 Rain 22 1017 78 10000 5.14 140 17:26 09.03.2021
1689 Rain 24 1016 53 10000 1.54 260 16:41 09.03.2021
1690 Rain 27 1015 44 10000 3.09 290 16:21 09.03.2021
1691 Rain 27 1015 44 10000 3.09 290 15:56 09.03.2021
1692 Rain 28 1015 42 10000 3.6 260 15:25 09.03.2021
1693 Rain 28 1015 39 10000 3.6 230 14:52 09.03.2021
1694 Clouds 28 1015 44 10000 3.09 260 14:26 09.03.2021
1695 Clouds 28 1015 42 10000 4.12 230 13:42 09.03.2021
1696 Rain 28 1016 44 10000 2.06 240 13:21 09.03.2021
1697 Rain 29 1016 39 10000 2.57 230 12:54 09.03.2021
1698 Rain 29 1016 42 10000 2.06 200 12:35 09.03.2021
1699 Rain 28 1017 44 10000 2.06 0 11:44 09.03.2021
1700 Rain 28 1017 47 10000 2.06 200 11:22 09.03.2021
1701 Rain 27 1017 54 10000 3.6 210 10:59 09.03.2021
1702 Rain 26 1018 53 10000 2.57 220 10:39 09.03.2021
1703 Rain 26 1018 53 10000 2.57 220 10:20 09.03.2021
1704 Rain 25 1018 57 10000 1.54 260 09:46 09.03.2021
1705 Rain 25 1019 61 10000 1.03 0 09:26 09.03.2021
1706 Rain 25 1019 57 10000 1.54 0 08:49 09.03.2021
1707 Rain 25 1019 61 10000 1.54 0 08:30 09.03.2021
1708 Clouds 23 1019 68 10000 1.03 0 07:46 09.03.2021
1709 Clouds 23 1019 68 10000 1.03 0 07:23 09.03.2021
1710 Clouds 20 1019 83 10000 2.06 90 06:44 09.03.2021
1711 Clouds 19 1019 88 10000 1.03 0 05:48 09.03.2021
1712 Clouds 19 1016 88 10000 3.6 120 00:59 09.03.2021
1713 Clouds 19 1016 88 10000 3.6 120 23:45 08.03.2021
1714 Rain 19 1016 88 10000 3.09 120 23:27 08.03.2021
1715 Rain 19 1017 88 10000 2.57 90 22:58 08.03.2021
1716 Rain 19 1017 94 10000 3.09 100 22:40 08.03.2021
1717 Rain 19 1017 94 10000 3.09 100 22:21 08.03.2021
1718 Rain 19 1017 88 10000 3.6 110 21:43 08.03.2021
1719 Rain 19 1017 88 10000 4.63 110 21:24 08.03.2021
1720 Rain 20 1017 88 10000 3.6 120 20:39 08.03.2021
1721 Rain 20 1017 88 10000 3.6 120 20:19 08.03.2021
1722 Rain 21 1016 83 10000 3.09 140 19:38 08.03.2021
1723 Rain 21 1016 83 10000 3.6 90 18:48 08.03.2021
1724 Rain 21 1016 78 10000 1.54 130 18:23 08.03.2021
1725 Rain 22 1015 68 10000 3.09 350 17:59 08.03.2021
1726 Rain 23 1015 64 10000 5.14 360 17:39 08.03.2021
1727 Rain 24 1014 60 10000 3.09 350 16:59 08.03.2021
1728 Rain 25 1014 53 10000 3.6 360 16:40 08.03.2021
1729 Rain 25 1014 53 10000 3.6 360 16:21 08.03.2021
1730 Rain 27 1013 47 10000 2.57 30 15:38 08.03.2021
1731 Rain 27 1013 47 10000 2.57 30 15:18 08.03.2021
1732 Rain 28 1013 44 10000 2.57 0 14:21 08.03.2021
1733 Rain 28 1013 44 10000 1.54 0 13:47 08.03.2021
1734 Rain 26 1013 50 10000 2.06 120 13:23 08.03.2021
1735 Rain 28 1013 47 10000 2.57 40 12:55 08.03.2021
1736 Rain 28 1014 51 10000 2.57 20 12:29 08.03.2021
1737 Rain 28 1014 51 10000 2.57 20 12:29 08.03.2021
1738 Rain 27 1014 54 10000 3.09 0 11:45 08.03.2021
1739 Rain 26 1014 57 10000 2.06 50 11:20 08.03.2021
1740 Rain 26 1015 57 10000 3.09 60 10:47 08.03.2021
1741 Rain 26 1015 57 10000 3.09 40 10:28 08.03.2021
1742 Rain 26 1015 57 10000 2.06 0 09:45 08.03.2021
1743 Rain 26 1016 57 10000 2.06 0 09:25 08.03.2021
1744 Rain 23 1016 68 10000 3.09 80 08:31 08.03.2021
1745 Rain 22 1016 73 10000 1.54 90 07:49 08.03.2021
1746 Clouds 21 1016 78 10000 2.57 80 07:21 08.03.2021
1747 Clouds 19 1015 88 10000 2.06 150 05:19 08.03.2021
1748 Clouds 19 1014 88 10000 1.03 0 01:28 08.03.2021
1749 Clouds 19 1014 88 10000 1.03 0 01:28 08.03.2021
1750 Clouds 18 1014 100 10000 1.03 360 00:38 08.03.2021
1751 Clouds 18 1015 94 10000 0.51 0 23:53 07.03.2021
1752 Clouds 19 1015 88 10000 1.54 280 23:20 07.03.2021
1753 Clouds 19 1015 88 10000 1.54 270 22:45 07.03.2021
1754 Clouds 19 1015 88 10000 1.54 270 22:45 07.03.2021
1755 Rain 18 1015 94 10000 2.06 300 22:26 07.03.2021
1756 Rain 18 1016 94 10000 2.06 310 21:49 07.03.2021
1757 Rain 19 1016 88 10000 2.06 280 21:30 07.03.2021
1758 Rain 20 1016 83 10000 1.03 0 20:50 07.03.2021
1759 Rain 20 1016 83 10000 2.57 290 20:32 07.03.2021
1760 Rain 20 1015 77 10000 2.57 290 19:59 07.03.2021
1761 Rain 20 1015 83 10000 2.06 310 19:39 07.03.2021
1762 Rain 20 1015 83 10000 2.06 310 19:21 07.03.2021
1763 Rain 21 1015 83 10000 1.03 0 18:48 07.03.2021
1764 Rain 21 1015 83 10000 3.09 180 18:20 07.03.2021
1765 Rain 22 1014 68 10000 2.06 280 17:45 07.03.2021
1766 Rain 22 1014 78 8000 1.54 0 17:21 07.03.2021
1767 Rain 23 1010 68 10000 1.54 0 16:59 07.03.2021
1768 Rain 23 1010 68 10000 1.54 0 16:39 07.03.2021
1769 Rain 23 1009 68 10000 1.54 0 16:20 07.03.2021
1770 Rain 23 1009 68 10000 1.54 0 16:20 07.03.2021
1771 Rain 27 1012 50 10000 6.69 300 15:46 07.03.2021
1772 Rain 27 1012 50 10000 6.69 300 15:28 07.03.2021
1773 Rain 28 1012 47 10000 6.17 300 14:39 07.03.2021
1774 Rain 28 1012 47 10000 6.17 300 14:21 07.03.2021
1775 Rain 28 1012 51 10000 5.66 300 13:42 07.03.2021
1776 Rain 28 1012 51 10000 5.66 300 13:23 07.03.2021
1777 Rain 28 1012 44 10000 5.14 310 12:47 07.03.2021
1778 Rain 27 1013 50 10000 5.14 300 12:29 07.03.2021
1779 Rain 27 1014 50 10000 3.09 290 11:49 07.03.2021
1780 Clouds 27 1014 50 10000 3.09 290 11:22 07.03.2021
1781 Clouds 27 1014 54 10000 3.09 300 10:49 07.03.2021
1782 Clouds 27 1014 54 10000 3.09 300 10:30 07.03.2021
1783 Clouds 25 1015 61 10000 2.06 0 09:46 07.03.2021
1784 Clouds 24 1015 60 10000 3.09 270 09:25 07.03.2021
1785 Clouds 24 1015 60 10000 3.09 270 08:46 07.03.2021
1786 Clear 23 1011 65 10000 1.52 262 08:25 07.03.2021
1787 Clouds 22 1016 73 10000 3.6 240 07:51 07.03.2021
1788 Clouds 22 1016 73 10000 3.6 240 07:51 07.03.2021
1789 Clouds 17 1014 94 10000 3.09 300 02:43 07.03.2021
1790 Clouds 18 1014 94 10000 3.6 290 01:19 07.03.2021
1791 Clouds 18 1014 100 10000 3.6 300 23:50 06.03.2021
1792 Clouds 18 1014 94 10000 3.6 300 23:30 06.03.2021
1793 Clouds 19 1014 94 10000 4.12 290 22:48 06.03.2021
1794 Clouds 18 1015 100 10000 2.57 300 22:29 06.03.2021
1795 Clouds 19 1015 94 10000 1.54 0 21:58 06.03.2021
1796 Clouds 19 1015 94 10000 1.54 0 21:22 06.03.2021
1797 Clouds 19 1016 94 10000 2.57 310 20:53 06.03.2021
1798 Clouds 20 1015 88 10000 4.12 310 20:33 06.03.2021
1799 Clouds 20 1015 88 10000 4.12 310 19:50 06.03.2021
1800 Clouds 20 1015 88 10000 3.09 310 19:22 06.03.2021
1801 Clouds 20 1015 88 10000 4.63 310 18:56 06.03.2021
1802 Rain 20 1015 88 10000 4.63 310 18:37 06.03.2021
1803 Rain 20 1014 83 10000 4.12 310 18:18 06.03.2021
1804 Rain 20 1014 83 10000 4.12 310 17:44 06.03.2021
1805 Rain 24 1013 69 10000 6.69 300 17:22 06.03.2021
1806 Rain 24 1013 69 10000 6.69 300 16:43 06.03.2021
1807 Clouds 24 1013 69 10000 6.69 300 16:25 06.03.2021
1808 Clouds 24 1012 64 10000 7.72 300 15:51 06.03.2021
1809 Clouds 24 1012 64 10000 6.69 300 15:31 06.03.2021
1810 Clouds 27 1011 54 10000 6.17 290 14:53 06.03.2021
1811 Rain 27 1011 54 10000 6.17 290 14:29 06.03.2021
1812 Rain 27 1011 54 10000 6.17 290 14:29 06.03.2021
1813 Rain 26 1011 61 10000 7.2 300 13:42 06.03.2021
1814 Clouds 26 1011 61 10000 7.2 300 13:20 06.03.2021
1815 Clouds 27 1012 57 10000 8.23 300 12:44 06.03.2021
1816 Clouds 27 1012 57 10000 8.23 300 12:20 06.03.2021
1817 Clouds 27 1012 61 10000 7.72 290 11:55 06.03.2021
1818 Rain 26 1012 61 10000 6.69 300 11:22 06.03.2021
1819 Rain 26 1013 65 10000 7.72 300 10:49 06.03.2021
1820 Clouds 25 1013 65 10000 7.72 300 10:24 06.03.2021
1821 Clouds 24 1013 73 10000 5.66 300 09:46 06.03.2021
1822 Clouds 23 1013 78 10000 5.14 310 09:20 06.03.2021
1823 Clouds 23 1013 78 10000 5.14 310 08:40 06.03.2021
1824 Drizzle 22 1014 83 10000 5.14 300 07:58 06.03.2021
1825 Drizzle 21 1014 88 8000 4.63 300 07:39 06.03.2021
1826 Drizzle 21 1014 88 8000 4.63 300 07:19 06.03.2021
1827 Drizzle 19 1014 94 4000 4.12 290 05:37 06.03.2021
1828 Rain 18 1011 100 6000 6.17 300 02:38 06.03.2021
1829 Rain 19 1010 94 10000 7.72 340 00:48 06.03.2021
1830 Rain 18 1010 100 6000 5.14 20 23:53 05.03.2021
1831 Rain 18 1011 100 6000 3.6 30 23:29 05.03.2021
1832 Rain 18 1011 100 9000 4.12 50 22:48 05.03.2021
1833 Rain 18 1011 100 10000 4.12 50 22:23 05.03.2021
1834 Rain 18 1012 100 10000 3.6 50 21:54 05.03.2021
1835 Rain 19 1013 94 10000 4.12 50 21:34 05.03.2021
1836 Rain 19 1013 94 10000 5.14 50 20:55 05.03.2021
1837 Rain 19 1013 94 10000 6.69 40 20:37 05.03.2021
1838 Rain 19 1013 94 10000 6.69 40 20:19 05.03.2021
1839 Rain 19 1013 94 10000 3.6 80 19:33 05.03.2021
1840 Rain 19 1013 94 10000 3.6 80 18:59 05.03.2021
1841 Rain 19 1013 94 10000 3.6 80 18:41 05.03.2021
1842 Rain 19 1013 94 10000 4.12 90 18:23 05.03.2021
1843 Rain 19 1014 94 10000 3.09 50 17:37 05.03.2021
1844 Rain 19 1014 94 10000 3.09 50 17:37 05.03.2021
1845 Rain 19 1013 94 8000 2.06 30 16:51 05.03.2021
1846 Rain 19 1013 100 8000 4.12 20 16:26 05.03.2021
1847 Rain 19 1013 100 4500 2.57 20 15:59 05.03.2021
1848 Rain 19 1013 100 4500 2.57 20 15:41 05.03.2021
1849 Rain 20 1013 94 10000 2.57 30 15:22 05.03.2021
1850 Rain 20 1013 94 9000 3.09 350 14:39 05.03.2021
1851 Rain 20 1013 88 9000 5.14 350 13:59 05.03.2021
1852 Rain 20 1013 94 9000 2.57 330 13:22 05.03.2021
1853 Rain 21 1012 88 10000 5.14 300 12:56 05.03.2021
1854 Clouds 23 1013 78 10000 2.06 290 12:23 05.03.2021
1855 Clouds 25 1013 65 10000 3.09 360 11:37 05.03.2021
1856 Clouds 25 1013 65 10000 3.09 360 11:37 05.03.2021
1857 Rain 25 1013 65 10000 3.09 360 11:18 05.03.2021
1858 Rain 24 1014 64 10000 2.57 20 10:41 05.03.2021
1859 Rain 23 1014 73 10000 1.03 0 10:23 05.03.2021
1860 Rain 23 1015 73 10000 2.57 70 09:49 05.03.2021
1861 Clouds 23 1015 73 10000 1.03 0 09:27 05.03.2021
1862 Clouds 22 1015 78 10000 2.06 190 08:43 05.03.2021
1863 Clouds 22 1015 78 10000 1.03 0 08:24 05.03.2021
1864 Clouds 22 1015 78 10000 1.03 0 07:44 05.03.2021
1865 Clouds 21 1016 83 10000 2.06 290 07:20 05.03.2021
1866 Clouds 20 1016 88 10000 2.06 10 06:31 05.03.2021
1867 Clouds 18 1015 94 10000 1.03 0 01:59 05.03.2021
1868 Clouds 18 1015 94 10000 1.03 0 00:46 05.03.2021
1869 Clouds 18 1015 94 10000 0.51 0 23:37 04.03.2021
1870 Clouds 18 1015 94 10000 2.06 320 22:40 04.03.2021
1871 Clouds 18 1015 94 10000 2.57 300 22:22 04.03.2021
1872 Clouds 19 1016 88 10000 2.06 330 21:47 04.03.2021
1873 Clouds 19 1016 88 10000 2.57 350 21:27 04.03.2021
1874 Clouds 19 1016 94 10000 2.06 330 20:41 04.03.2021
1875 Clouds 19 1016 94 10000 2.06 310 20:22 04.03.2021
1876 Clouds 19 1016 94 10000 2.57 310 19:54 04.03.2021
1877 Clouds 19 1016 94 10000 1.03 0 19:31 04.03.2021
1878 Clouds 19 1016 94 10000 2.06 330 18:59 04.03.2021
1879 Clouds 19 1015 100 10000 1.54 320 18:38 04.03.2021
1880 Rain 19 1015 100 10000 1.54 320 18:19 04.03.2021
1881 Rain 19 1015 94 10000 2.06 310 17:42 04.03.2021
1882 Rain 19 1015 94 10000 2.06 320 17:20 04.03.2021
1883 Drizzle 19 1014 94 10000 3.09 330 16:44 04.03.2021
1884 Drizzle 19 1014 100 10000 2.57 320 16:24 04.03.2021
1885 Rain 19 1014 94 6000 3.6 310 15:48 04.03.2021
1886 Rain 20 1014 88 6000 7.2 310 15:30 04.03.2021
1887 Rain 22 1013 78 10000 5.14 320 14:45 04.03.2021
1888 Rain 23 1013 78 10000 5.66 320 14:22 04.03.2021
1889 Rain 23 1013 78 10000 5.14 340 13:45 04.03.2021
1890 Rain 22 1013 83 10000 6.69 350 13:23 04.03.2021
1891 Rain 21 1013 88 10000 6.17 350 12:44 04.03.2021
1892 Rain 20 1014 94 10000 4.63 360 12:20 04.03.2021
1893 Rain 20 1014 94 7000 7.2 320 11:42 04.03.2021
1894 Rain 23 1014 83 10000 1.54 20 11:20 04.03.2021
1895 Rain 23 1015 83 10000 2.57 40 10:37 04.03.2021
1896 Rain 23 1015 83 10000 2.57 40 10:18 04.03.2021
1897 Rain 21 1015 88 8000 5.14 30 09:32 04.03.2021
1898 Rain 21 1015 88 10000 3.6 280 08:56 04.03.2021
1899 Rain 20 1016 94 10000 3.6 310 08:32 04.03.2021
1900 Drizzle 21 1016 88 10000 3.6 350 07:49 04.03.2021
1901 Drizzle 19 1016 100 10000 0.51 0 06:52 04.03.2021
1902 Drizzle 19 1016 94 8000 1.58 346 06:23 04.03.2021
1903 Rain 18 1015 100 10000 1.54 0 02:39 04.03.2021
1904 Rain 18 1015 100 10000 2.06 80 00:41 04.03.2021
1905 Clouds 20 1016 88 10000 2.57 80 22:41 03.03.2021
1906 Drizzle 19 1016 94 10000 3.09 80 22:23 03.03.2021
1907 Drizzle 20 1016 88 10000 3.09 90 21:43 03.03.2021
1908 Clouds 20 1017 83 10000 3.09 110 21:24 03.03.2021
1909 Clouds 20 1017 83 10000 4.12 100 20:55 03.03.2021
1910 Clouds 20 1017 83 10000 4.12 100 20:36 03.03.2021
1911 Clouds 20 1017 83 10000 4.12 100 20:36 03.03.2021
1912 Clouds 21 1016 78 10000 3.6 90 19:54 03.03.2021
1913 Clouds 21 1016 78 10000 3.6 90 19:36 03.03.2021
1914 Rain 21 1016 78 10000 3.6 90 19:18 03.03.2021
1915 Rain 21 1016 73 10000 4.63 80 18:40 03.03.2021
1916 Rain 22 1015 73 10000 3.09 70 17:58 03.03.2021
1917 Rain 22 1015 73 10000 3.09 70 17:22 03.03.2021
1918 Rain 23 1015 68 10000 2.06 60 16:58 03.03.2021
1919 Rain 25 1014 53 10000 3.09 50 16:28 03.03.2021
1920 Rain 26 1014 50 10000 3.6 40 15:59 03.03.2021
1921 Rain 26 1014 53 10000 3.6 70 15:33 03.03.2021
1922 Rain 27 1014 47 10000 3.6 20 14:51 03.03.2021
1923 Rain 27 1014 47 10000 3.6 20 14:28 03.03.2021
1924 Rain 29 1014 45 10000 2.57 50 13:48 03.03.2021
1925 Clouds 29 1014 45 10000 2.57 50 13:29 03.03.2021
1926 Clouds 28 1014 47 10000 3.09 80 12:43 03.03.2021
1927 Clouds 26 1015 50 10000 2.57 110 12:23 03.03.2021
1928 Clouds 28 1015 44 10000 3.09 100 11:46 03.03.2021
1929 Clouds 27 1016 50 10000 2.57 70 11:27 03.03.2021
1930 Clouds 27 1016 50 10000 3.09 80 10:46 03.03.2021
1931 Clouds 26 1016 53 10000 3.09 90 10:23 03.03.2021
1932 Clouds 26 1017 53 10000 3.6 120 09:45 03.03.2021
1933 Clouds 24 1017 57 10000 3.09 110 08:57 03.03.2021
1934 Clouds 24 1018 57 10000 2.57 130 08:39 03.03.2021
1935 Clouds 24 1018 57 10000 2.57 130 08:18 03.03.2021
1936 Clouds 22 1018 60 10000 2.57 140 07:39 03.03.2021
1937 Clouds 21 1018 68 10000 2.57 170 06:46 03.03.2021
1938 Clouds 20 1018 73 10000 2.06 160 05:45 03.03.2021
1939 Clouds 17 1017 88 10000 2.57 130 04:50 03.03.2021
1940 Clouds 16 1017 88 10000 2.06 130 04:24 03.03.2021
1941 Clouds 17 1017 88 10000 5.66 110 00:39 03.03.2021
1942 Clouds 18 1017 82 10000 5.14 120 23:44 02.03.2021
1943 Clouds 19 1018 82 10000 3.6 120 22:54 02.03.2021
1944 Clouds 19 1018 82 10000 5.14 110 22:24 02.03.2021
1945 Clouds 19 1018 82 10000 4.63 100 21:59 02.03.2021
1946 Clouds 19 1019 82 10000 4.12 80 21:37 02.03.2021
1947 Clouds 19 1019 82 10000 4.12 80 21:18 02.03.2021
1948 Clouds 20 1019 83 10000 5.14 100 20:41 02.03.2021
1949 Clouds 19 1019 88 10000 6.69 110 20:21 02.03.2021
1950 Clouds 18 1018 88 10000 3.6 90 19:47 02.03.2021
1951 Clouds 18 1018 88 10000 2.06 90 19:28 02.03.2021
1952 Clouds 18 1018 88 10000 3.6 90 18:43 02.03.2021
1953 Clouds 19 1018 82 10000 5.14 90 18:24 02.03.2021
1954 Clouds 19 1017 82 10000 6.69 110 17:58 02.03.2021
1955 Clouds 19 1017 82 10000 6.69 110 17:58 02.03.2021
1956 Clouds 20 1017 83 10000 7.2 120 17:39 02.03.2021
1957 Clouds 20 1017 83 10000 7.2 120 17:19 02.03.2021
1958 Clouds 20 1017 83 10000 7.2 120 17:19 02.03.2021
1959 Clouds 21 1017 78 10000 6.17 130 16:45 02.03.2021
1960 Clouds 24 1016 64 10000 6.17 120 15:54 02.03.2021
1961 Clouds 26 1016 50 10000 4.63 90 15:27 02.03.2021
1962 Clouds 26 1016 47 10000 3.6 130 14:49 02.03.2021
1963 Clouds 27 1016 44 10000 3.6 110 14:19 02.03.2021
1964 Clouds 27 1016 44 10000 3.6 110 14:19 02.03.2021
1965 Clouds 27 1016 44 10000 2.57 90 13:44 02.03.2021
1966 Clouds 26 1016 47 10000 4.12 80 13:23 02.03.2021
1967 Clouds 26 1017 50 10000 3.6 60 12:45 02.03.2021
1968 Clouds 25 1017 53 10000 4.63 70 12:25 02.03.2021
1969 Clouds 25 1017 57 10000 5.66 100 11:45 02.03.2021
1970 Clouds 27 1017 50 10000 5.14 90 11:22 02.03.2021
1971 Clouds 27 1018 47 10000 5.14 110 10:49 02.03.2021
1972 Clouds 26 1018 50 10000 5.14 100 10:25 02.03.2021
1973 Clouds 26 1018 50 10000 5.14 90 09:41 02.03.2021
1974 Clouds 26 1018 53 10000 4.63 120 09:22 02.03.2021
1975 Clouds 25 1018 53 10000 4.12 120 08:43 02.03.2021
1976 Clouds 24 1018 57 10000 4.63 120 08:25 02.03.2021
1977 Clouds 23 1018 56 10000 5.14 130 07:41 02.03.2021
1978 Clouds 21 1018 73 10000 7.72 120 06:36 02.03.2021
1979 Clouds 20 1017 77 10000 6.17 120 05:46 02.03.2021
1980 Clouds 20 1017 77 10000 6.17 120 05:46 02.03.2021
1981 Clouds 19 1017 82 10000 6.17 130 05:28 02.03.2021
1982 Clouds 17 1017 94 10000 2.06 160 01:47 02.03.2021
1983 Clouds 17 1018 94 10000 2.06 150 01:28 02.03.2021
1984 Clouds 17 1018 94 10000 2.06 150 01:28 02.03.2021
1985 Clouds 17 1018 88 10000 1.54 130 00:52 02.03.2021
1986 Clouds 18 1018 88 10000 2.06 140 23:29 01.03.2021
1987 Clouds 18 1019 82 10000 3.09 150 22:43 01.03.2021
1988 Clouds 18 1019 82 10000 3.09 150 22:23 01.03.2021
1989 Clouds 18 1019 82 10000 3.09 150 21:51 01.03.2021
1990 Clouds 18 1019 88 10000 2.57 160 21:24 01.03.2021
1991 Clouds 19 1019 82 10000 4.63 130 20:49 01.03.2021
1992 Clouds 19 1019 82 10000 4.63 130 20:28 01.03.2021
1993 Clouds 19 1019 82 10000 4.63 120 19:56 01.03.2021
1994 Clouds 20 1019 83 10000 4.12 130 19:34 01.03.2021
1995 Clouds 20 1018 83 10000 5.14 110 18:59 01.03.2021
1996 Clouds 21 1018 73 10000 4.63 120 18:36 01.03.2021
1997 Clouds 21 1018 73 10000 4.63 120 18:18 01.03.2021
1998 Clouds 22 1017 68 10000 4.12 130 17:41 01.03.2021
1999 Clouds 22 1017 64 10000 4.12 110 17:19 01.03.2021
2000 Clouds 22 1016 64 10000 5.66 100 16:43 01.03.2021
2001 Clouds 24 1016 57 10000 6.17 110 16:24 01.03.2021
2002 Clouds 25 1016 57 10000 6.17 100 15:41 01.03.2021
2003 Clouds 26 1015 53 10000 5.66 120 15:20 01.03.2021
2004 Clouds 27 1015 50 10000 6.17 120 14:47 01.03.2021
2005 Clouds 26 1015 53 10000 7.2 120 14:28 01.03.2021
2006 Clouds 28 1015 47 10000 5.14 140 13:40 01.03.2021
2007 Clouds 27 1015 54 10000 4.12 110 13:22 01.03.2021
2008 Rain 26 1016 53 10000 4.12 120 12:52 01.03.2021
2009 Rain 26 1016 53 10000 3.6 120 12:32 01.03.2021
2010 Rain 26 1017 57 10000 4.12 110 11:59 01.03.2021
2011 Rain 26 1017 57 10000 5.14 120 11:39 01.03.2021
2012 Rain 26 1017 61 10000 4.12 130 10:44 01.03.2021
2013 Clouds 24 1017 64 10000 4.12 140 10:23 01.03.2021
2014 Clouds 24 1017 64 10000 4.12 140 09:57 01.03.2021
2015 Clouds 24 1017 64 10000 4.12 130 09:39 01.03.2021
2016 Clouds 24 1017 64 10000 4.12 130 09:20 01.03.2021
2017 Clouds 23 1017 68 10000 4.63 140 08:44 01.03.2021
2018 Clouds 24 1017 64 10000 5.66 120 07:50 01.03.2021
2019 Clouds 23 1017 68 10000 5.66 120 06:51 01.03.2021
2020 Clouds 19 1016 94 10000 2.06 140 02:49 01.03.2021
2021 Clouds 20 1016 88 10000 3.09 120 00:37 01.03.2021
2022 Clouds 20 1016 88 10000 3.09 80 23:26 28.02.2021
2023 Clouds 20 1017 88 10000 3.09 100 22:45 28.02.2021
2024 Clouds 20 1017 88 10000 3.09 100 22:21 28.02.2021
2025 Clouds 20 1017 88 10000 3.09 100 22:21 28.02.2021
2026 Clouds 20 1017 88 10000 4.12 110 21:48 28.02.2021
2027 Clouds 21 1017 83 10000 3.09 130 21:25 28.02.2021
2028 Clouds 21 1017 83 10000 3.6 130 20:55 28.02.2021
2029 Clouds 21 1017 83 10000 3.09 110 20:35 28.02.2021
2030 Clouds 21 1017 83 10000 4.63 130 19:47 28.02.2021
2031 Clouds 21 1017 83 10000 4.63 110 19:28 28.02.2021
2032 Clouds 21 1017 83 10000 5.66 110 18:49 28.02.2021
2033 Clouds 21 1016 83 10000 4.63 100 18:28 28.02.2021
2034 Clouds 21 1016 83 10000 4.12 100 17:59 28.02.2021
2035 Clouds 21 1016 83 10000 4.12 100 17:40 28.02.2021
2036 Clouds 22 1015 83 10000 5.14 110 17:21 28.02.2021
2037 Clouds 22 1014 78 10000 5.14 100 16:48 28.02.2021
2038 Clouds 23 1014 83 10000 6.69 110 16:30 28.02.2021
2039 Rain 24 1013 69 10000 5.66 100 15:52 28.02.2021
2040 Clouds 27 1013 54 10000 3.6 130 15:28 28.02.2021
2041 Clouds 27 1013 57 10000 3.6 130 14:58 28.02.2021
2042 Clouds 27 1013 54 10000 3.09 130 14:35 28.02.2021
2043 Clouds 28 1013 54 10000 3.6 120 13:59 28.02.2021
2044 Clouds 27 1014 54 10000 3.6 120 13:38 28.02.2021
2045 Clouds 27 1014 54 10000 3.6 120 13:19 28.02.2021
2046 Clouds 27 1014 54 10000 3.6 120 12:53 28.02.2021
2047 Clouds 26 1015 61 10000 4.12 90 12:35 28.02.2021
2048 Clouds 26 1015 57 10000 3.6 90 11:57 28.02.2021
2049 Clouds 26 1015 57 10000 4.12 110 11:39 28.02.2021
2050 Clouds 26 1015 57 10000 4.12 110 11:19 28.02.2021
2051 Clouds 27 1015 54 10000 3.09 70 10:43 28.02.2021
2052 Clouds 26 1016 57 10000 3.6 110 10:25 28.02.2021
2053 Clouds 26 1016 57 10000 3.09 110 09:40 28.02.2021
2054 Clouds 26 1016 57 10000 3.09 110 09:20 28.02.2021
2055 Clouds 25 1016 57 10000 3.6 110 08:45 28.02.2021
2056 Clouds 25 1016 57 10000 4.63 100 08:25 28.02.2021
2057 Clouds 25 1016 61 10000 4.63 90 07:46 28.02.2021
2058 Clouds 22 1016 68 10000 5.14 120 07:25 28.02.2021
2059 Clouds 22 1016 73 10000 4.63 110 06:24 28.02.2021
2060 Clouds 20 1015 83 10000 2.57 90 05:20 28.02.2021
2061 Clouds 20 1015 88 10000 2.57 100 02:29 28.02.2021
2062 Clouds 20 1015 88 10000 1.54 160 01:28 28.02.2021
2063 Clouds 20 1015 88 10000 3.09 120 00:40 28.02.2021
2064 Clouds 20 1015 88 10000 2.57 100 23:51 27.02.2021
2065 Rain 20 1015 88 10000 3.6 80 23:22 27.02.2021
2066 Rain 20 1016 88 10000 3.09 90 22:50 27.02.2021
2067 Rain 19 1016 94 10000 1.03 80 22:25 27.02.2021
2068 Rain 19 1016 94 10000 1.54 70 21:59 27.02.2021
2069 Rain 20 1016 88 10000 2.57 60 21:38 27.02.2021
2070 Rain 20 1016 94 10000 3.6 80 20:58 27.02.2021
2071 Rain 20 1016 94 10000 3.6 90 20:39 27.02.2021
2072 Clouds 20 1016 94 10000 3.6 90 20:21 27.02.2021
2073 Clouds 20 1016 94 10000 3.09 100 19:43 27.02.2021
2074 Clouds 20 1016 94 10000 3.09 100 19:43 27.02.2021
2075 Clouds 21 1016 88 10000 3.6 120 19:23 27.02.2021
2076 Rain 21 1016 88 10000 2.06 100 18:41 27.02.2021
2077 Rain 21 1015 88 10000 2.57 90 18:20 27.02.2021
2078 Rain 21 1014 88 10000 3.6 90 17:44 27.02.2021
2079 Rain 22 1015 83 10000 3.6 90 17:20 27.02.2021
2080 Rain 22 1014 83 10000 4.63 100 16:53 27.02.2021
2081 Rain 23 1014 78 10000 1.54 0 16:32 27.02.2021
2082 Rain 23 1013 73 10000 1.54 70 15:57 27.02.2021
2083 Rain 22 1013 83 10000 2.57 60 15:38 27.02.2021
2084 Rain 27 1013 57 10000 7.72 110 14:49 27.02.2021
2085 Rain 29 1013 48 10000 3.6 20 14:30 27.02.2021
2086 Rain 28 1013 51 10000 2.57 20 13:50 27.02.2021
2087 Rain 26 1013 57 10000 3.6 60 13:27 27.02.2021
2088 Rain 25 1014 65 10000 4.63 50 12:55 27.02.2021
2089 Rain 28 1014 54 10000 2.06 0 12:30 27.02.2021
2090 Rain 28 1015 57 10000 3.09 70 11:57 27.02.2021
2091 Rain 26 1015 61 10000 4.12 50 11:38 27.02.2021
2092 Rain 26 1015 61 10000 4.12 50 11:19 27.02.2021
2093 Rain 25 1016 65 10000 4.63 60 10:42 27.02.2021
2094 Clouds 26 1016 61 10000 5.14 50 10:19 27.02.2021
2095 Clouds 26 1016 61 10000 3.6 80 09:44 27.02.2021
2096 Clouds 25 1016 65 10000 4.12 60 09:25 27.02.2021
2097 Clouds 24 1017 73 10000 4.12 90 08:39 27.02.2021
2098 Clouds 24 1017 73 10000 4.12 90 08:20 27.02.2021
2099 Clouds 22 1017 78 10000 4.12 100 07:36 27.02.2021
2100 Clouds 19 1015 88 10000 2.06 110 03:28 27.02.2021
2101 Clouds 20 1015 88 10000 3.09 120 00:37 27.02.2021
2102 Clouds 20 1015 88 10000 2.57 130 23:51 26.02.2021
2103 Clouds 20 1015 88 10000 3.09 110 23:26 26.02.2021
2104 Clouds 20 1016 88 10000 3.6 110 22:44 26.02.2021
2105 Clouds 20 1016 88 10000 3.09 80 22:23 26.02.2021
2106 Clouds 20 1016 94 10000 3.09 60 21:39 26.02.2021
2107 Clouds 20 1016 88 10000 2.57 80 21:18 26.02.2021
2108 Clouds 20 1016 88 10000 4.12 90 20:43 26.02.2021
2109 Clouds 20 1016 94 10000 3.09 100 20:20 26.02.2021
2110 Rain 21 1016 88 10000 4.12 100 19:40 26.02.2021
2111 Rain 21 1016 88 10000 4.12 100 19:18 26.02.2021
2112 Clouds 21 1015 83 10000 3.6 120 18:41 26.02.2021
2113 Rain 21 1015 83 10000 4.12 90 18:21 26.02.2021
2114 Rain 23 1015 78 10000 5.14 110 17:39 26.02.2021
2115 Rain 23 1014 73 10000 5.66 100 17:20 26.02.2021
2116 Rain 23 1014 73 10000 5.66 100 16:49 26.02.2021
2117 Rain 24 1013 69 10000 5.66 100 16:30 26.02.2021
2118 Rain 25 1013 61 10000 2.06 40 15:51 26.02.2021
2119 Rain 25 1013 61 10000 3.09 140 15:30 26.02.2021
2120 Rain 27 1013 57 10000 2.57 150 14:59 26.02.2021
2121 Rain 27 1013 57 10000 2.57 150 14:41 26.02.2021
2122 Rain 27 1013 57 10000 2.57 150 14:22 26.02.2021
2123 Rain 26 1014 61 10000 4.12 110 13:39 26.02.2021
2124 Rain 26 1014 61 10000 4.12 110 13:20 26.02.2021
2125 Rain 27 1014 54 10000 2.57 0 12:33 26.02.2021
2126 Rain 25 1015 69 10000 2.06 0 11:49 26.02.2021
2127 Rain 27 1016 54 10000 2.57 0 11:28 26.02.2021
2128 Rain 27 1016 54 10000 2.57 0 10:45 26.02.2021
2129 Clouds 25 1017 61 10000 2.57 0 09:50 26.02.2021
2130 Clouds 24 1017 64 10000 4.12 90 09:30 26.02.2021
2131 Clouds 25 1017 61 10000 4.63 90 08:53 26.02.2021
2132 Clouds 23 1017 68 10000 5.14 110 08:19 26.02.2021
2133 Clouds 23 1017 68 10000 2.57 0 07:41 26.02.2021
2134 Clouds 20 1017 83 10000 3.09 90 06:35 26.02.2021
2135 Clouds 18 1017 88 10000 2.57 120 05:21 26.02.2021
2136 Clouds 17 1016 94 10000 2.57 80 02:54 26.02.2021
2137 Clouds 19 1017 88 10000 2.57 90 00:36 26.02.2021
2138 Clouds 19 1017 88 10000 1.54 80 23:41 25.02.2021
2139 Clouds 20 1017 88 10000 2.06 60 23:21 25.02.2021
2140 Clouds 20 1017 83 10000 1.54 70 22:42 25.02.2021
2141 Clouds 20 1018 83 10000 2.57 100 21:58 25.02.2021
2142 Clouds 20 1018 83 10000 3.09 90 21:35 25.02.2021
2143 Clouds 20 1017 83 10000 2.57 120 20:58 25.02.2021
2144 Clouds 20 1017 83 10000 2.57 90 20:38 25.02.2021
2145 Clouds 20 1017 83 10000 2.57 90 20:20 25.02.2021
2146 Clouds 20 1017 83 10000 2.57 100 19:49 25.02.2021
2147 Clouds 21 1017 78 10000 3.6 110 19:21 25.02.2021
2148 Clouds 21 1016 78 10000 3.6 90 18:48 25.02.2021
2149 Clouds 21 1016 78 10000 4.12 100 18:19 25.02.2021
2150 Clouds 22 1016 73 10000 4.63 100 17:42 25.02.2021
2151 Clouds 22 1016 73 10000 6.17 110 17:23 25.02.2021
2152 Clouds 23 1015 68 10000 5.14 110 16:38 25.02.2021
2153 Rain 23 1015 68 10000 5.14 110 16:20 25.02.2021
2154 Rain 26 1014 53 10000 6.69 100 15:29 25.02.2021
2155 Rain 27 1014 50 10000 5.66 80 14:41 25.02.2021
2156 Rain 27 1014 50 10000 5.14 70 14:21 25.02.2021
2157 Rain 27 1014 50 10000 5.14 100 13:49 25.02.2021
2158 Rain 27 1014 54 10000 5.66 90 13:24 25.02.2021
2159 Rain 27 1015 50 10000 6.17 90 12:46 25.02.2021
2160 Rain 27 1015 54 10000 4.12 100 12:21 25.02.2021
2161 Rain 27 1015 54 10000 4.12 100 12:21 25.02.2021
2162 Rain 27 1015 54 10000 4.63 100 11:43 25.02.2021
2163 Clouds 27 1016 54 10000 4.12 130 11:18 25.02.2021
2164 Clouds 25 1017 65 10000 6.17 100 10:38 25.02.2021
2165 Clouds 25 1018 65 10000 4.63 110 09:56 25.02.2021
2166 Clouds 24 1018 69 10000 3.6 110 09:38 25.02.2021
2167 Clouds 23 1018 73 10000 2.57 110 08:46 25.02.2021
2168 Clouds 21 1018 78 10000 2.57 140 08:22 25.02.2021
2169 Clouds 21 1018 78 10000 2.06 150 07:50 25.02.2021
2170 Clouds 21 1018 78 10000 3.6 180 07:19 25.02.2021
2171 Clouds 20 1018 83 10000 2.57 140 06:35 25.02.2021
2172 Clouds 18 1016 88 10000 3.09 130 01:52 25.02.2021
2173 Clouds 18 1016 88 10000 3.09 130 01:34 25.02.2021
2174 Clouds 18 1017 88 10000 2.06 140 00:38 25.02.2021
2175 Clouds 18 1018 88 10000 2.06 150 23:46 24.02.2021
2176 Clouds 19 1018 82 10000 2.06 110 22:59 24.02.2021
2177 Clouds 19 1018 88 10000 2.06 80 22:31 24.02.2021
2178 Clouds 19 1018 82 10000 3.6 130 21:57 24.02.2021
2179 Clouds 19 1018 82 10000 4.63 110 21:36 24.02.2021
2180 Clouds 20 1019 77 10000 5.66 120 20:52 24.02.2021
2181 Rain 20 1019 83 10000 4.63 120 20:29 24.02.2021
2182 Rain 20 1018 83 10000 4.63 120 19:52 24.02.2021
2183 Clouds 20 1018 83 10000 5.14 120 19:26 24.02.2021
2184 Clouds 21 1017 78 10000 5.14 120 18:54 24.02.2021
2185 Clouds 21 1017 78 10000 5.14 120 18:33 24.02.2021
2186 Clouds 21 1017 78 10000 6.17 110 17:45 24.02.2021
2187 Rain 21 1017 78 10000 5.14 120 17:25 24.02.2021
2188 Rain 21 1016 78 10000 6.17 110 16:49 24.02.2021
2189 Rain 22 1016 73 10000 6.69 110 16:22 24.02.2021
2190 Rain 23 1015 68 10000 7.72 100 15:56 24.02.2021
2191 Rain 25 1015 61 10000 5.14 140 15:35 24.02.2021
2192 Rain 25 1015 65 10000 5.14 140 14:52 24.02.2021
2193 Rain 25 1015 61 10000 5.66 120 14:31 24.02.2021
2194 Rain 26 1015 57 10000 4.63 140 13:55 24.02.2021
2195 Rain 26 1016 57 10000 5.14 150 13:37 24.02.2021
2196 Rain 26 1016 57 10000 5.14 150 13:19 24.02.2021
2197 Rain 24 1016 64 10000 5.66 110 12:42 24.02.2021
2198 Rain 25 1016 61 10000 5.66 130 12:23 24.02.2021
2199 Rain 26 1017 61 10000 4.12 120 11:39 24.02.2021
2200 Rain 24 1018 64 10000 5.14 140 10:47 24.02.2021
2201 Rain 25 1018 65 10000 5.66 130 10:26 24.02.2021
2202 Rain 23 1019 68 10000 6.17 130 09:30 24.02.2021
2203 Rain 24 1019 60 10000 5.14 140 08:52 24.02.2021
2204 Rain 24 1019 64 10000 5.14 160 08:33 24.02.2021
2205 Clouds 22 1019 73 10000 4.63 170 07:42 24.02.2021
2206 Clouds 21 1019 78 10000 5.66 120 07:18 24.02.2021
2207 Clouds 18 1018 94 10000 3.6 130 05:27 24.02.2021
2208 Clouds 18 1018 94 10000 1.54 70 02:35 24.02.2021
2209 Clouds 18 1018 88 10000 3.6 90 23:39 23.02.2021
2210 Clouds 18 1019 88 10000 2.57 130 22:51 23.02.2021
2211 Clouds 18 1019 88 10000 2.57 130 22:23 23.02.2021
2212 Clouds 19 1019 82 10000 5.14 120 21:49 23.02.2021
2213 Clouds 19 1019 82 10000 5.14 120 21:26 23.02.2021
2214 Clouds 20 1019 77 10000 3.6 150 20:59 23.02.2021
2215 Clouds 20 1019 83 10000 2.57 110 20:38 23.02.2021
2216 Clouds 20 1019 83 10000 2.57 110 20:20 23.02.2021
2217 Clouds 20 1019 77 10000 3.09 130 19:44 23.02.2021
2218 Clouds 20 1019 83 10000 3.09 130 19:26 23.02.2021
2219 Clouds 20 1018 83 10000 3.6 110 18:44 23.02.2021
2220 Clouds 19 1018 82 10000 4.12 110 18:25 23.02.2021
2221 Clouds 20 1018 77 10000 4.63 120 17:52 23.02.2021
2222 Clouds 20 1018 77 10000 4.63 130 17:27 23.02.2021
2223 Clouds 20 1018 77 10000 5.66 130 16:46 23.02.2021
2224 Clouds 21 1018 73 10000 5.66 130 16:23 23.02.2021
2225 Clouds 21 1017 73 10000 5.14 100 15:49 23.02.2021
2226 Clouds 22 1017 68 10000 6.17 130 15:29 23.02.2021
2227 Clouds 24 1017 60 10000 9.77 110 14:50 23.02.2021
2228 Clouds 26 1016 53 10000 6.17 130 14:28 23.02.2021
2229 Clouds 25 1017 57 10000 5.66 110 13:59 23.02.2021
2230 Clouds 26 1017 53 10000 6.17 80 13:36 23.02.2021
2231 Clouds 26 1017 57 10000 4.63 130 12:57 23.02.2021
2232 Clouds 26 1017 53 10000 5.14 110 12:28 23.02.2021
2233 Clouds 26 1017 53 10000 6.17 100 11:59 23.02.2021
2234 Clouds 25 1018 57 10000 5.14 90 11:28 23.02.2021
2235 Clouds 25 1018 57 10000 6.69 100 10:56 23.02.2021
2236 Clouds 27 1019 50 10000 8.75 100 10:38 23.02.2021
2237 Clouds 25 1018 57 10000 3.09 120 09:58 23.02.2021
2238 Clouds 24 1018 60 10000 4.12 150 09:38 23.02.2021
2239 Clouds 24 1018 60 10000 4.12 150 09:20 23.02.2021
2240 Clouds 24 1018 60 10000 4.12 150 09:20 23.02.2021
2241 Clouds 23 1019 68 10000 4.12 180 08:44 23.02.2021
2242 Clouds 24 1019 64 10000 8.23 110 08:20 23.02.2021
2243 Clouds 20 1020 77 10000 7.2 120 06:52 23.02.2021
2244 Clouds 18 1019 88 10000 4.12 140 05:25 23.02.2021
2245 Clouds 17 1018 94 10000 3.6 140 02:37 23.02.2021
2246 Clouds 17 1018 94 10000 3.6 140 01:55 23.02.2021
2247 Clouds 17 1019 94 10000 2.57 100 00:19 23.02.2021
2248 Clouds 17 1019 94 10000 2.57 90 23:28 22.02.2021
2249 Clouds 17 1020 88 10000 2.57 50 22:42 22.02.2021
2250 Clouds 18 1019 88 10000 2.57 80 22:21 22.02.2021
2251 Clouds 18 1020 88 10000 4.12 110 21:56 22.02.2021
2252 Clouds 18 1020 88 10000 2.57 120 21:37 22.02.2021
2253 Clouds 18 1020 88 10000 2.06 140 21:19 22.02.2021
2254 Clouds 18 1020 88 10000 2.06 140 20:42 22.02.2021
2255 Clouds 18 1020 88 10000 2.06 140 20:42 22.02.2021
2256 Clouds 19 1020 82 10000 3.6 140 20:22 22.02.2021
2257 Clouds 19 1020 88 10000 4.63 110 19:38 22.02.2021
2258 Clouds 20 1019 83 10000 5.14 120 19:20 22.02.2021
2259 Clouds 20 1019 83 10000 5.14 120 18:46 22.02.2021
2260 Clouds 20 1019 83 10000 6.69 100 18:22 22.02.2021
2261 Clouds 21 1018 83 10000 5.14 110 17:43 22.02.2021
2262 Clouds 21 1018 78 10000 4.12 130 17:18 22.02.2021
2263 Clouds 21 1018 78 10000 4.12 130 16:46 22.02.2021
2264 Rain 22 1018 78 10000 7.72 110 15:57 22.02.2021
2265 Rain 22 1017 78 10000 7.72 100 15:31 22.02.2021
2266 Rain 23 1017 78 10000 7.72 90 14:49 22.02.2021
2267 Rain 23 1017 78 10000 7.72 90 14:30 22.02.2021
2268 Rain 23 1017 78 10000 7.72 90 13:50 22.02.2021
2269 Rain 23 1017 73 10000 8.75 120 13:23 22.02.2021
2270 Rain 27 1017 57 10000 7.2 110 12:42 22.02.2021
2271 Rain 24 1012 74 10000 4.29 107 12:20 22.02.2021
2272 Rain 26 1018 61 10000 7.72 100 11:45 22.02.2021
2273 Rain 28 1018 54 10000 5.14 160 11:25 22.02.2021
2274 Rain 26 1018 61 10000 5.14 140 10:50 22.02.2021
2275 Rain 27 1019 57 10000 6.17 130 10:28 22.02.2021
2276 Rain 27 1019 57 10000 7.2 120 09:49 22.02.2021
2277 Rain 27 1019 57 10000 7.2 120 09:49 22.02.2021
2278 Clouds 26 1019 61 10000 6.17 130 09:29 22.02.2021
2279 Clouds 24 1020 69 10000 5.66 140 08:54 22.02.2021
2280 Clouds 24 1020 69 10000 5.14 140 08:31 22.02.2021
2281 Clouds 23 1020 73 10000 4.12 150 07:58 22.02.2021
2282 Clouds 23 1020 68 10000 5.14 160 07:26 22.02.2021
2283 Clouds 22 1020 73 10000 4.12 160 06:45 22.02.2021
2284 Clouds 20 1020 77 10000 4.63 170 05:45 22.02.2021
2285 Clouds 18 1019 94 10000 1.03 190 03:29 22.02.2021
2286 Clouds 18 1019 94 10000 1.03 190 03:29 22.02.2021
2287 Clouds 18 1019 94 10000 1.03 190 03:29 22.02.2021
2288 Clouds 18 1018 88 10000 2.06 160 02:51 22.02.2021
2289 Clouds 19 1019 88 10000 2.06 180 00:46 22.02.2021
2290 Clouds 19 1019 88 10000 2.06 180 00:23 22.02.2021
2291 Clouds 19 1019 88 10000 2.06 160 23:33 21.02.2021
2292 Clouds 19 1020 88 10000 3.6 120 22:53 21.02.2021
2293 Clouds 19 1020 88 10000 3.6 120 22:23 21.02.2021
2294 Clouds 19 1020 94 10000 3.09 130 21:45 21.02.2021
2295 Clouds 19 1020 88 10000 1.54 0 21:27 21.02.2021
2296 Clouds 20 1020 83 10000 1.54 150 20:44 21.02.2021
2297 Clouds 19 1020 88 10000 1.54 180 20:20 21.02.2021
2298 Clouds 20 1020 88 10000 1.03 0 19:53 21.02.2021
2299 Clouds 20 1019 83 10000 1.54 130 19:33 21.02.2021
2300 Clouds 20 1019 83 10000 4.12 90 18:52 21.02.2021
2301 Clouds 21 1018 78 10000 5.14 80 18:26 21.02.2021
2302 Clouds 23 1018 68 10000 5.14 90 17:30 21.02.2021
2303 Clouds 23 1018 68 10000 5.14 100 16:59 21.02.2021
2304 Clouds 24 1018 60 10000 5.66 90 16:39 21.02.2021
2305 Clouds 24 1018 60 10000 5.66 90 16:20 21.02.2021
2306 Clouds 27 1017 57 10000 5.66 80 15:23 21.02.2021
2307 Clouds 27 1016 57 10000 6.69 100 14:54 21.02.2021
2308 Clouds 27 1017 57 10000 6.69 90 14:35 21.02.2021
2309 Rain 27 1017 57 10000 6.69 100 13:48 21.02.2021
2310 Rain 28 1017 54 10000 5.66 100 13:25 21.02.2021
2311 Rain 27 1017 57 10000 5.14 100 12:32 21.02.2021
2312 Rain 27 1017 57 10000 6.17 110 11:58 21.02.2021
2313 Rain 25 1017 65 10000 2.57 90 11:40 21.02.2021
2314 Rain 25 1018 65 10000 4.63 110 10:40 21.02.2021
2315 Rain 25 1018 65 10000 4.63 110 10:21 21.02.2021
2316 Rain 24 1019 69 10000 4.63 100 09:42 21.02.2021
2317 Clouds 25 1019 61 10000 6.69 110 09:23 21.02.2021
2318 Clouds 26 1019 61 10000 5.66 110 08:33 21.02.2021
2319 Clouds 25 1019 69 10000 3.6 160 07:44 21.02.2021
2320 Clouds 24 1019 73 10000 3.6 180 07:21 21.02.2021
2321 Clouds 20 1019 88 10000 2.06 100 05:28 21.02.2021
2322 Clouds 19 1018 94 10000 3.09 110 02:40 21.02.2021
2323 Clouds 19 1019 94 10000 1.54 50 00:55 21.02.2021
2324 Clouds 19 1018 94 10000 1.54 40 00:20 21.02.2021
2325 Clouds 19 1019 94 10000 2.06 30 23:31 20.02.2021
2326 Clouds 20 1019 88 10000 2.57 80 22:54 20.02.2021
2327 Clouds 20 1019 88 10000 2.57 80 22:31 20.02.2021
2328 Clouds 20 1019 88 10000 3.09 70 21:47 20.02.2021
2329 Rain 20 1020 88 10000 1.54 0 21:27 20.02.2021
2330 Rain 20 1019 88 10000 2.57 70 20:54 20.02.2021
2331 Rain 21 1020 83 10000 2.57 40 20:35 20.02.2021
2332 Rain 21 1019 83 10000 4.12 50 19:59 20.02.2021
2333 Rain 22 1019 78 10000 4.12 70 19:36 20.02.2021
2334 Rain 19 1015 95 9594 2.11 104 18:47 20.02.2021
2335 Rain 22 1018 83 10000 4.63 90 18:27 20.02.2021
2336 Rain 23 1017 78 10000 4.12 110 17:43 20.02.2021
2337 Rain 24 1017 73 10000 6.17 100 17:25 20.02.2021
2338 Rain 26 1017 61 10000 5.66 100 16:44 20.02.2021
2339 Rain 26 1016 61 10000 6.17 110 16:22 20.02.2021
2340 Rain 28 1016 47 10000 3.6 130 15:38 20.02.2021
2341 Rain 30 1015 42 10000 1.54 0 14:50 20.02.2021
2342 Rain 30 1015 42 10000 2.57 70 14:25 20.02.2021
2343 Rain 30 1015 45 10000 2.06 50 13:53 20.02.2021
2344 Clouds 30 1016 42 10000 2.06 90 13:28 20.02.2021
2345 Clouds 29 1016 45 10000 1.03 0 12:53 20.02.2021
2346 Clouds 30 1016 42 10000 1.03 0 12:32 20.02.2021
2347 Clouds 30 1017 42 10000 2.06 90 11:48 20.02.2021
2348 Clouds 28 1017 47 10000 2.06 0 11:30 20.02.2021
2349 Clouds 29 1018 51 10000 2.06 0 10:50 20.02.2021
2350 Clouds 28 1018 54 10000 1.54 110 10:21 20.02.2021
2351 Clouds 27 1018 50 10000 1.54 0 09:41 20.02.2021
2352 Clouds 27 1019 61 10000 2.57 50 08:49 20.02.2021
2353 Clouds 26 1019 61 10000 1.54 0 08:22 20.02.2021
2354 Clouds 19 1018 94 10000 2.06 100 03:41 20.02.2021
2355 Clouds 20 1018 88 10000 2.57 120 02:31 20.02.2021
2356 Clouds 20 1018 88 10000 1.54 180 01:51 20.02.2021
2357 Clouds 21 1018 83 10000 3.09 130 00:48 20.02.2021
2358 Rain 21 1018 88 10000 3.6 130 00:24 20.02.2021
2359 Rain 21 1019 88 10000 3.09 120 23:19 19.02.2021
2360 Rain 21 1019 88 10000 4.12 110 22:37 19.02.2021
2361 Rain 21 1019 88 10000 4.12 110 22:19 19.02.2021
2362 Rain 28 1020 57 10000 2.06 100 21:36 19.02.2021
2363 Rain 22 1020 83 10000 2.57 140 20:58 19.02.2021
2364 Rain 22 1020 83 10000 2.57 140 20:40 19.02.2021
2365 Rain 22 1020 88 10000 2.57 120 20:22 19.02.2021
2366 Rain 22 1020 88 10000 2.06 130 19:41 19.02.2021
2367 Rain 23 1020 78 10000 2.57 140 19:19 19.02.2021
2368 Rain 23 1019 78 10000 3.09 140 18:42 19.02.2021
2369 Rain 23 1019 78 10000 4.63 120 18:23 19.02.2021
2370 Rain 24 1018 69 10000 6.17 110 17:24 19.02.2021
2371 Rain 26 1017 61 10000 5.14 130 16:39 19.02.2021
2372 Rain 26 1017 61 10000 5.14 130 16:20 19.02.2021
2373 Rain 28 1016 51 10000 7.72 120 15:47 19.02.2021
2374 Rain 29 1016 48 10000 4.63 140 15:27 19.02.2021
2375 Rain 29 1016 48 10000 6.69 120 14:44 19.02.2021
2376 Rain 29 1016 48 10000 5.66 130 14:26 19.02.2021
2377 Rain 30 1016 48 10000 6.17 120 13:53 19.02.2021
2378 Rain 30 1016 48 10000 6.17 110 13:25 19.02.2021
2379 Rain 30 1016 48 10000 5.14 110 12:52 19.02.2021
2380 Rain 30 1017 48 10000 4.12 160 12:24 19.02.2021
2381 Rain 31 1017 48 10000 4.63 120 11:53 19.02.2021
2382 Rain 30 1017 48 10000 3.6 130 11:26 19.02.2021
2383 Rain 30 1017 48 10000 3.09 150 10:54 19.02.2021
2384 Rain 29 1018 54 10000 2.57 0 10:30 19.02.2021
2385 Rain 28 1018 54 10000 4.12 140 09:51 19.02.2021
2386 Rain 27 1019 61 10000 3.6 120 09:26 19.02.2021
2387 Rain 27 1019 61 10000 3.09 140 08:54 19.02.2021
2388 Clouds 26 1020 65 10000 2.06 190 08:24 19.02.2021
2389 Clouds 26 1020 65 10000 1.03 0 07:49 19.02.2021
2390 Clouds 25 1020 69 10000 1.54 0 07:30 19.02.2021
2391 Clouds 23 1020 78 9000 1.03 0 06:54 19.02.2021
2392 Mist 20 1020 100 4000 1.03 0 05:30 19.02.2021
2393 Clouds 19 1020 94 10000 1.03 320 04:41 19.02.2021
2394 Clouds 19 1019 94 10000 0.51 0 01:48 19.02.2021
2395 Clouds 19 1019 94 10000 1.54 0 00:37 19.02.2021
2396 Rain 19 1019 94 10000 1.74 170 23:56 18.02.2021
2397 Rain 19 1020 94 10000 1.03 0 23:35 18.02.2021
2398 Clouds 19 1020 94 10000 1.03 0 22:50 18.02.2021
2399 Clouds 19 1020 94 10000 1.03 0 22:30 18.02.2021
2400 Rain 19 1020 88 10000 1.03 0 21:51 18.02.2021
2401 Rain 19 1020 88 10000 2.06 180 21:25 18.02.2021
2402 Rain 20 1020 83 10000 2.06 170 20:44 18.02.2021
2403 Rain 20 1020 94 10000 2.06 130 20:24 18.02.2021
2404 Rain 20 1020 88 10000 1.54 150 19:47 18.02.2021
2405 Rain 20 1019 88 10000 1.03 0 19:28 18.02.2021
2406 Rain 20 1019 88 8000 2.78 105 18:54 18.02.2021
2407 Rain 20 1019 88 6000 2.06 0 18:31 18.02.2021
2408 Rain 21 1018 78 6000 8.23 160 17:53 18.02.2021
2409 Rain 21 1018 78 6000 8.23 160 17:26 18.02.2021
2410 Rain 28 1017 54 10000 3.09 40 16:59 18.02.2021
2411 Rain 28 1017 54 10000 3.09 40 16:40 18.02.2021
2412 Rain 29 1016 54 10000 3.09 20 16:19 18.02.2021
2413 Rain 30 1016 48 10000 4.12 20 15:38 18.02.2021
2414 Rain 30 1016 48 10000 4.12 20 15:20 18.02.2021
2415 Rain 32 1016 31 10000 1.03 0 14:46 18.02.2021
2416 Clouds 32 1016 31 10000 1.03 0 14:27 18.02.2021
2417 Clouds 32 1016 33 10000 2.06 200 13:45 18.02.2021
2418 Clouds 32 1016 33 10000 2.06 200 13:45 18.02.2021
2419 Clouds 31 1016 33 10000 3.09 240 13:18 18.02.2021
2420 Clouds 32 1017 29 10000 2.06 30 12:44 18.02.2021
2421 Clouds 32 1017 29 10000 2.06 30 12:22 18.02.2021
2422 Clouds 31 1017 29 10000 1.54 200 11:46 18.02.2021
2423 Clouds 31 1017 29 10000 1.54 200 11:25 18.02.2021
2424 Clouds 29 1018 45 10000 2.57 120 10:45 18.02.2021
2425 Clouds 29 1018 45 10000 2.57 120 10:27 18.02.2021
2426 Clouds 28 1019 51 10000 2.06 0 09:46 18.02.2021
2427 Clouds 28 1019 51 10000 2.06 0 09:24 18.02.2021
2428 Clouds 26 1019 65 10000 2.57 130 08:41 18.02.2021
2429 Clouds 26 1019 65 10000 2.57 130 08:23 18.02.2021
2430 Clouds 24 1020 78 10000 1.54 0 07:32 18.02.2021
2431 Clouds 21 1020 94 10000 1.03 0 06:50 18.02.2021
2432 Clouds 18 1018 100 10000 1.06 154 02:33 18.02.2021
2433 Clouds 19 1018 94 10000 1.54 50 23:55 17.02.2021
2434 Clouds 19 1018 94 10000 1.03 0 23:22 17.02.2021
2435 Clouds 19 1018 94 10000 0.51 0 22:51 17.02.2021
2436 Clouds 20 1019 88 10000 0.1 184 22:26 17.02.2021
2437 Clouds 20 1019 94 10000 2.06 60 21:50 17.02.2021
2438 Clouds 20 1019 94 10000 1.54 330 21:22 17.02.2021
2439 Clouds 21 1020 88 10000 1.03 340 20:47 17.02.2021
2440 Clouds 21 1020 88 10000 1.03 0 20:29 17.02.2021
2441 Clouds 21 1019 88 10000 2.06 320 19:49 17.02.2021
2442 Clouds 21 1019 88 10000 2.06 320 19:30 17.02.2021
2443 Clouds 22 1019 78 10000 1.03 0 18:45 17.02.2021
2444 Clouds 22 1018 78 10000 2.57 280 18:24 17.02.2021
2445 Clouds 22 1018 78 10000 2.57 290 17:40 17.02.2021
2446 Clouds 23 1018 78 10000 2.06 300 17:19 17.02.2021
2447 Clouds 23 1018 73 10000 1.54 290 16:45 17.02.2021
2448 Rain 25 1017 65 10000 4.63 290 16:24 17.02.2021
2449 Rain 25 1016 65 10000 5.14 300 15:44 17.02.2021
2450 Rain 26 1016 61 10000 5.14 300 15:25 17.02.2021
2451 Rain 26 1016 57 10000 5.14 300 14:46 17.02.2021
2452 Rain 27 1016 57 10000 5.14 310 14:28 17.02.2021
2453 Rain 27 1016 54 10000 5.14 300 13:47 17.02.2021
2454 Rain 28 1016 54 10000 4.63 300 13:29 17.02.2021
2455 Rain 27 1016 57 10000 5.14 300 12:47 17.02.2021
2456 Rain 28 1016 51 10000 4.12 290 12:23 17.02.2021
2457 Rain 27 1016 57 10000 4.12 330 11:44 17.02.2021
2458 Clouds 27 1016 57 10000 4.12 290 11:20 17.02.2021
2459 Clouds 26 1017 57 10000 4.12 330 10:46 17.02.2021
2460 Clouds 26 1017 61 10000 5.14 310 10:26 17.02.2021
2461 Clouds 26 1018 61 10000 4.12 320 09:47 17.02.2021
2462 Clouds 25 1018 65 10000 3.6 300 09:29 17.02.2021
2463 Clouds 25 1018 61 10000 3.09 310 08:45 17.02.2021
2464 Clouds 25 1018 61 10000 3.09 330 08:22 17.02.2021
2465 Clouds 22 1019 78 10000 3.09 320 07:34 17.02.2021
2466 Clouds 21 1018 83 10000 2.57 310 06:35 17.02.2021
2467 Clouds 19 1016 94 10000 2.57 310 02:44 17.02.2021
2468 Clouds 19 1016 94 10000 1.54 340 02:22 17.02.2021
2469 Clouds 19 1016 94 10000 0.67 354 00:35 17.02.2021
2470 Clouds 19 1016 94 10000 1.03 0 23:57 16.02.2021
2471 Clouds 19 1016 94 10000 1.03 0 23:38 16.02.2021
2472 Clouds 19 1017 94 10000 0.51 0 22:45 16.02.2021
2473 Drizzle 19 1017 94 10000 2.06 20 22:26 16.02.2021
2474 Clouds 19 1017 94 10000 2.06 350 21:58 16.02.2021
2475 Clouds 19 1017 94 10000 2.06 350 21:39 16.02.2021
2476 Clouds 19 1017 94 10000 2.06 350 21:20 16.02.2021
2477 Clouds 19 1017 94 10000 2.06 350 20:45 16.02.2021
2478 Clouds 19 1017 94 10000 2.06 330 20:21 16.02.2021
2479 Rain 19 1017 94 10000 2.06 360 19:47 16.02.2021
2480 Rain 19 1017 94 10000 2.06 360 19:27 16.02.2021
2481 Clouds 17 1013 96 10000 0.73 320 18:42 16.02.2021
2482 Clouds 18 1012 96 10000 0.93 342 18:23 16.02.2021
2483 Clouds 18 1012 96 10000 0.93 342 17:53 16.02.2021
2484 Clouds 18 1012 96 10000 1.33 318 17:27 16.02.2021
2485 Clouds 18 1012 96 10000 1.33 318 16:52 16.02.2021
2486 Clouds 18 1012 96 10000 1.33 318 16:30 16.02.2021
2487 Clouds 18 1012 96 10000 1.33 318 16:30 16.02.2021
2488 Rain 21 1015 88 10000 3.6 330 15:56 16.02.2021
2489 Rain 21 1015 88 10000 3.6 330 15:33 16.02.2021
2490 Rain 21 1015 88 10000 3.6 330 14:58 16.02.2021
2491 Rain 21 1015 88 10000 3.6 320 14:38 16.02.2021
2492 Rain 21 1015 88 10000 3.6 320 14:19 16.02.2021
2493 Rain 19 1010 91 9446 3.42 298 13:40 16.02.2021
2494 Rain 26 1014 61 10000 2.57 0 12:53 16.02.2021
2495 Rain 26 1014 61 10000 2.57 0 12:30 16.02.2021
2496 Rain 25 1015 69 10000 3.09 310 11:58 16.02.2021
2497 Rain 24 1015 73 10000 3.09 20 11:39 16.02.2021
2498 Rain 24 1015 73 10000 3.09 20 11:19 16.02.2021
2499 Rain 24 1015 69 10000 3.6 330 10:45 16.02.2021
2500 Rain 24 1016 69 10000 3.6 10 10:26 16.02.2021
2501 Rain 24 1016 64 10000 4.63 10 09:50 16.02.2021
2502 Rain 23 1016 68 10000 4.12 20 09:26 16.02.2021
2503 Rain 23 1016 73 10000 3.09 10 08:51 16.02.2021
2504 Rain 23 1017 73 10000 3.6 20 08:26 16.02.2021
2505 Rain 21 1017 83 10000 4.12 20 07:42 16.02.2021
2506 Clouds 20 1016 88 10000 3.09 10 06:25 16.02.2021
2507 Rain 18 1015 100 10000 1.03 360 02:38 16.02.2021
2508 Clouds 18 1016 100 10000 0.72 19 23:52 15.02.2021
2509 Rain 18 1016 100 10000 1.03 15 23:27 15.02.2021
2510 Rain 18 1017 100 10000 0.51 80 22:47 15.02.2021
2511 Clouds 18 1017 100 10000 1.03 0 22:26 15.02.2021
2512 Rain 18 1017 100 8000 2.06 220 21:43 15.02.2021
2513 Rain 19 1017 94 10000 1.03 190 21:24 15.02.2021
2514 Rain 18 1018 100 10000 0.51 0 20:53 15.02.2021
2515 Drizzle 19 1018 94 10000 1.03 0 20:35 15.02.2021
2516 Rain 19 1017 94 7000 1.03 250 19:50 15.02.2021
2517 Rain 19 1017 94 7000 1.03 250 19:50 15.02.2021
2518 Rain 19 1017 94 7000 1.03 250 19:50 15.02.2021
2519 Rain 19 1017 94 5000 0.51 190 19:25 15.02.2021
2520 Rain 19 1017 94 5000 2.06 40 18:51 15.02.2021
2521 Rain 19 1017 94 4500 2.06 360 18:27 15.02.2021
2522 Rain 19 1017 94 8000 2.57 340 17:51 15.02.2021
2523 Rain 20 1016 88 7000 3.6 340 17:28 15.02.2021
2524 Rain 21 1015 78 10000 4.63 20 16:59 15.02.2021
2525 Rain 23 1015 73 10000 2.57 20 16:37 15.02.2021
2526 Rain 23 1015 73 10000 2.57 20 16:18 15.02.2021
2527 Rain 23 1014 68 10000 3.09 10 15:41 15.02.2021
2528 Rain 24 1014 64 10000 3.6 360 15:18 15.02.2021
2529 Rain 24 1014 64 10000 4.63 10 14:43 15.02.2021
2530 Rain 25 1014 61 10000 1.54 20 14:20 15.02.2021
2531 Rain 25 1014 57 10000 3.09 360 13:48 15.02.2021
2532 Rain 25 1014 61 10000 3.6 340 13:20 15.02.2021
2533 Rain 25 1015 61 10000 2.57 10 12:45 15.02.2021
2534 Rain 25 1015 61 10000 3.6 20 12:22 15.02.2021
2535 Rain 25 1015 61 10000 2.06 0 11:50 15.02.2021
2536 Rain 25 1015 61 10000 2.06 90 11:23 15.02.2021
2537 Rain 25 1016 57 10000 3.09 70 10:50 15.02.2021
2538 Rain 24 1016 64 10000 2.57 40 10:25 15.02.2021
2539 Rain 24 1017 64 10000 2.57 20 09:56 15.02.2021
2540 Rain 23 1017 68 10000 3.09 40 09:33 15.02.2021
2541 Rain 22 1018 68 10000 2.57 40 08:57 15.02.2021
2542 Rain 22 1018 73 10000 1.54 0 07:55 15.02.2021
2543 Clouds 20 1018 77 10000 1.54 0 06:59 15.02.2021
2544 Clouds 19 1018 82 10000 1.54 0 06:40 15.02.2021
2545 Rain 17 1017 94 10000 1.03 80 02:32 15.02.2021
2546 Rain 16 1017 100 10000 1.54 120 00:55 15.02.2021
2547 Rain 17 1017 94 10000 1.03 60 23:42 14.02.2021
2548 Rain 17 1018 94 10000 1.03 0 23:22 14.02.2021
2549 Rain 17 1019 94 10000 1.31 122 22:39 14.02.2021
2550 Rain 17 1019 94 10000 1.3 111 22:19 14.02.2021
2551 Rain 17 1019 94 10000 1.03 0 21:48 14.02.2021
2552 Rain 17 1020 94 10000 1.54 0 21:29 14.02.2021
2553 Rain 17 1020 100 10000 2.57 60 20:46 14.02.2021
2554 Rain 18 1020 94 10000 2.06 60 20:26 14.02.2021
2555 Rain 18 1020 94 10000 1.03 0 19:47 14.02.2021
2556 Rain 18 1019 94 10000 5.14 110 18:52 14.02.2021
2557 Rain 18 1019 94 10000 5.66 120 18:34 14.02.2021
2558 Rain 18 1018 94 8000 3.09 130 17:56 14.02.2021
2559 Rain 18 1018 94 10000 3.6 140 17:35 14.02.2021
2560 Rain 18 1018 94 8000 3.6 140 16:52 14.02.2021
2561 Rain 18 1017 94 8000 4.12 140 16:27 14.02.2021
2562 Rain 18 1017 88 8000 5.66 140 15:49 14.02.2021
2563 Rain 19 1017 94 8000 5.66 140 15:30 14.02.2021
2564 Rain 20 1017 94 10000 3.09 140 14:48 14.02.2021
2565 Rain 21 1016 88 10000 3.6 130 14:27 14.02.2021
2566 Rain 22 1016 83 10000 3.6 180 13:48 14.02.2021
2567 Rain 22 1016 83 10000 2.06 170 13:27 14.02.2021
2568 Rain 22 1017 83 10000 5.14 90 12:38 14.02.2021
2569 Rain 22 1017 83 10000 5.14 90 12:18 14.02.2021
2570 Rain 24 1017 69 10000 1.54 50 11:47 14.02.2021
2571 Rain 24 1017 69 10000 1.54 0 11:20 14.02.2021
2572 Rain 22 1018 78 10000 1.03 0 10:34 14.02.2021
2573 Rain 22 1019 78 10000 1.03 0 09:54 14.02.2021
2574 Rain 21 1019 78 10000 0.51 70 09:36 14.02.2021
2575 Clouds 20 1019 83 10000 0.51 0 09:18 14.02.2021
2576 Clouds 20 1019 83 10000 0.51 0 08:21 14.02.2021
2577 Drizzle 19 1020 88 10000 2.94 112 07:48 14.02.2021
2578 Clouds 19 1019 88 10000 1.54 0 06:37 14.02.2021
2579 Clouds 18 1018 88 10000 2.06 120 04:35 14.02.2021
2580 Clouds 18 1018 94 10000 1.03 0 02:50 14.02.2021
2581 Rain 18 1017 94 10000 2.06 150 01:29 14.02.2021
2582 Rain 18 1018 94 8000 2.06 150 00:42 14.02.2021
2583 Drizzle 18 1019 94 8000 3.09 100 23:58 13.02.2021
2584 Rain 18 1019 94 8000 3.09 100 23:25 13.02.2021
2585 Rain 18 1019 94 10000 2.06 90 22:59 13.02.2021
2586 Rain 18 1019 94 10000 2.57 90 22:26 13.02.2021
2587 Rain 19 1020 94 10000 2.06 90 21:49 13.02.2021
2588 Rain 19 1020 88 10000 2.57 80 21:27 13.02.2021
2589 Rain 19 1020 88 10000 4.12 110 20:45 13.02.2021
2590 Rain 19 1020 94 10000 4.63 110 20:26 13.02.2021
2591 Rain 19 1020 94 10000 3.09 120 19:48 13.02.2021
2592 Rain 19 1019 94 10000 4.12 110 19:24 13.02.2021
2593 Rain 19 1019 94 10000 5.14 100 18:50 13.02.2021
2594 Rain 19 1019 94 7000 3.6 130 18:27 13.02.2021
2595 Rain 19 1019 94 7000 3.6 130 18:27 13.02.2021
2596 Rain 19 1018 94 10000 3.6 130 17:44 13.02.2021
2597 Rain 19 1018 94 6000 5.66 110 17:25 13.02.2021
2598 Rain 20 1018 88 6000 4.63 130 16:52 13.02.2021
2599 Rain 20 1017 88 9000 5.14 100 16:31 13.02.2021
2600 Rain 21 1017 83 9000 5.66 100 15:43 13.02.2021
2601 Rain 23 1017 73 10000 5.14 130 15:24 13.02.2021
2602 Rain 24 1017 69 10000 5.14 110 14:40 13.02.2021
2603 Rain 24 1017 64 10000 4.63 100 13:49 13.02.2021
2604 Rain 24 1017 69 10000 4.63 90 13:27 13.02.2021
2605 Rain 24 1017 69 10000 4.12 100 12:52 13.02.2021
2606 Rain 24 1017 64 10000 4.63 90 12:21 13.02.2021
2607 Rain 25 1017 61 10000 3.6 120 11:55 13.02.2021
2608 Rain 25 1018 65 10000 6.17 120 11:22 13.02.2021
2609 Rain 25 1018 65 10000 5.14 100 10:58 13.02.2021
2610 Rain 24 1019 69 10000 5.66 80 10:40 13.02.2021
2611 Rain 24 1019 69 10000 5.66 80 10:21 13.02.2021
2612 Rain 23 1019 73 10000 6.17 80 09:45 13.02.2021
2613 Clouds 23 1019 73 10000 5.66 90 09:22 13.02.2021
2614 Clouds 23 1019 73 10000 4.12 120 08:42 13.02.2021
2615 Drizzle 21 1020 78 10000 4.12 80 07:56 13.02.2021
2616 Clouds 20 1020 88 10000 4.12 80 06:44 13.02.2021
2617 Clouds 19 1019 94 10000 2.57 90 06:19 13.02.2021
2618 Rain 18 1018 94 10000 2.06 130 04:26 13.02.2021
2619 Rain 18 1017 94 10000 2.57 140 01:57 13.02.2021
2620 Rain 18 1018 100 10000 2.06 130 00:52 13.02.2021
2621 Rain 19 1018 94 10000 2.57 110 23:55 12.02.2021
2622 Rain 19 1019 94 10000 2.57 130 23:32 12.02.2021
2623 Rain 18 1019 100 10000 2.06 100 22:59 12.02.2021
2624 Rain 18 1019 100 10000 2.57 90 22:30 12.02.2021
2625 Rain 18 1019 100 10000 3.6 90 21:53 12.02.2021
2626 Rain 19 1019 88 10000 5.66 90 21:34 12.02.2021
2627 Rain 19 1019 94 10000 3.09 70 20:57 12.02.2021
2628 Rain 19 1020 94 10000 5.14 80 20:38 12.02.2021
2629 Rain 19 1020 94 10000 5.14 80 20:19 12.02.2021
2630 Rain 20 1019 83 10000 6.17 100 19:47 12.02.2021
2631 Rain 20 1019 83 10000 6.17 100 19:25 12.02.2021
2632 Rain 21 1018 83 10000 5.14 100 18:30 12.02.2021
2633 Rain 21 1017 83 10000 5.66 120 17:49 12.02.2021
2634 Rain 21 1017 78 10000 3.6 130 17:29 12.02.2021
2635 Rain 22 1016 73 10000 4.63 110 16:39 12.02.2021
2636 Rain 23 1016 68 10000 4.12 140 15:47 12.02.2021
2637 Rain 23 1016 68 10000 4.63 100 15:21 12.02.2021
2638 Rain 24 1016 64 10000 5.14 110 14:53 12.02.2021
2639 Rain 24 1016 64 10000 5.14 110 14:30 12.02.2021
2640 Rain 24 1016 64 10000 5.14 110 14:30 12.02.2021
2641 Rain 24 1016 64 10000 5.14 100 13:41 12.02.2021
2642 Rain 24 1016 64 10000 4.63 100 13:22 12.02.2021
2643 Rain 24 1016 64 10000 5.14 80 12:49 12.02.2021
2644 Rain 24 1016 60 10000 5.14 90 12:31 12.02.2021
2645 Clouds 24 1016 60 10000 5.66 110 11:43 12.02.2021
2646 Clouds 26 1016 53 10000 5.66 100 11:20 12.02.2021
2647 Clouds 26 1017 53 10000 3.6 100 10:46 12.02.2021
2648 Clouds 24 1017 60 10000 3.6 100 09:52 12.02.2021
2649 Clouds 25 1017 53 10000 4.63 70 09:29 12.02.2021
2650 Clouds 24 1017 57 10000 5.66 100 08:51 12.02.2021
2651 Clouds 25 1017 53 10000 6.17 100 08:29 12.02.2021
2652 Clouds 25 1017 53 10000 6.17 100 08:29 12.02.2021
2653 Clouds 23 1017 64 10000 3.6 110 07:58 12.02.2021
2654 Clouds 22 1018 73 10000 4.12 110 07:35 12.02.2021
2655 Clouds 20 1018 77 10000 3.6 110 06:55 12.02.2021
2656 Clouds 19 1018 88 10000 2.57 100 05:49 12.02.2021
2657 Rain 17 1017 94 10000 1.54 0 05:23 12.02.2021
2658 Rain 17 1017 94 10000 1.54 0 05:23 12.02.2021
2659 Clouds 16 1018 94 10000 1.54 130 01:48 12.02.2021
2660 Rain 15 1019 100 5000 3.6 90 23:44 11.02.2021
2661 Rain 15 1019 100 5000 3.6 90 23:22 11.02.2021
2662 Rain 15 1019 100 5000 3.6 90 22:58 11.02.2021
2663 Rain 16 1019 94 7000 4.63 80 22:39 11.02.2021
2664 Rain 16 1019 94 7000 4.63 80 22:20 11.02.2021
2665 Rain 19 1018 88 10000 4.12 110 21:38 11.02.2021
2666 Drizzle 19 1018 88 10000 4.12 110 21:19 11.02.2021
2667 Rain 19 1018 88 10000 4.12 110 20:45 11.02.2021
2668 Rain 18 1019 100 8000 1.03 0 20:22 11.02.2021
2669 Rain 18 1018 94 8000 1.03 160 19:48 11.02.2021
2670 Rain 19 1018 88 10000 2.57 140 19:29 11.02.2021
2671 Rain 19 1018 88 10000 3.6 110 18:55 11.02.2021
2672 Rain 19 1018 88 10000 3.09 90 18:29 11.02.2021
2673 Rain 19 1018 88 10000 2.57 150 17:54 11.02.2021
2674 Rain 19 1017 88 10000 3.6 150 17:22 11.02.2021
2675 Rain 19 1017 88 10000 3.6 150 17:22 11.02.2021
2676 Rain 20 1017 88 10000 2.06 160 16:58 11.02.2021
2677 Rain 20 1016 88 10000 3.09 320 16:40 11.02.2021
2678 Rain 20 1016 88 10000 3.09 320 16:21 11.02.2021
2679 Rain 22 1016 73 10000 1.03 0 15:42 11.02.2021
2680 Rain 23 1016 60 10000 0.51 0 15:24 11.02.2021
2681 Rain 23 1015 64 10000 1.54 0 14:44 11.02.2021
2682 Rain 23 1015 64 10000 2.06 20 14:25 11.02.2021
2683 Rain 23 1015 64 10000 1.54 0 13:41 11.02.2021
2684 Rain 23 1015 68 10000 2.06 20 13:19 11.02.2021
2685 Rain 23 1016 68 10000 3.09 360 12:47 11.02.2021
2686 Clouds 24 1016 69 10000 3.6 360 12:23 11.02.2021
2687 Clouds 22 1016 78 10000 2.06 60 11:45 11.02.2021
2688 Drizzle 23 1016 68 10000 2.57 40 11:21 11.02.2021
2689 Clouds 23 1017 68 10000 4.12 60 10:44 11.02.2021
2690 Rain 23 1017 68 10000 3.6 40 10:25 11.02.2021
2691 Rain 23 1017 68 10000 3.6 30 09:45 11.02.2021
2692 Clouds 23 1017 64 10000 4.12 60 09:19 11.02.2021
2693 Clouds 24 1017 57 10000 4.63 50 08:50 11.02.2021
2694 Clouds 23 1017 60 10000 3.09 80 08:18 11.02.2021
2695 Clouds 21 1017 78 10000 2.57 110 06:51 11.02.2021
2696 Clouds 19 1017 88 10000 3.09 90 06:32 11.02.2021
2697 Rain 17 1017 94 9000 2.57 100 03:54 11.02.2021
2698 Rain 16 1017 94 10000 2.06 80 02:28 11.02.2021
2699 Rain 17 1017 94 10000 7.2 110 00:46 11.02.2021
2700 Rain 17 1017 100 10000 4.12 100 00:18 11.02.2021
2701 Rain 18 1018 94 10000 3.09 80 23:35 10.02.2021
2702 Rain 18 1018 94 10000 4.63 90 22:49 10.02.2021
2703 Rain 18 1018 94 10000 4.12 100 22:26 10.02.2021
2704 Rain 18 1018 94 10000 4.12 110 21:41 10.02.2021
2705 Rain 18 1019 94 10000 3.09 100 21:22 10.02.2021
2706 Rain 18 1018 94 10000 3.6 110 20:59 10.02.2021
2707 Rain 18 1018 94 10000 4.63 100 20:39 10.02.2021
2708 Rain 18 1018 94 10000 4.63 100 20:19 10.02.2021
2709 Rain 18 1018 94 8000 5.14 120 19:43 10.02.2021
2710 Rain 19 1018 94 10000 3.09 90 19:21 10.02.2021
2711 Rain 19 1017 94 10000 5.66 80 18:39 10.02.2021
2712 Rain 19 1017 94 10000 5.66 80 18:18 10.02.2021
2713 Rain 20 1017 94 10000 2.57 100 17:49 10.02.2021
2714 Rain 20 1016 88 10000 2.57 90 17:22 10.02.2021
2715 Rain 20 1016 88 10000 3.09 80 16:49 10.02.2021
2716 Rain 20 1016 88 10000 4.12 80 16:28 10.02.2021
2717 Rain 20 1015 88 10000 4.12 80 15:43 10.02.2021
2718 Rain 21 1015 83 10000 7.72 100 15:21 10.02.2021
2719 Rain 21 1015 83 10000 7.72 100 15:21 10.02.2021
2720 Rain 22 1014 78 10000 5.66 110 14:40 10.02.2021
2721 Rain 27 1014 57 10000 3.09 50 13:55 10.02.2021
2722 Rain 26 1015 57 10000 3.6 40 13:37 10.02.2021
2723 Rain 26 1015 57 10000 3.6 40 13:18 10.02.2021
2724 Rain 26 1015 57 10000 2.06 120 12:40 10.02.2021
2725 Clouds 24 1015 69 10000 2.57 130 12:21 10.02.2021
2726 Rain 25 1017 65 10000 3.09 30 11:41 10.02.2021
2727 Rain 25 1017 65 10000 3.09 30 11:23 10.02.2021
2728 Clouds 24 1017 64 10000 5.14 50 10:43 10.02.2021
2729 Clouds 24 1017 64 10000 4.63 20 10:19 10.02.2021
2730 Clouds 24 1018 64 10000 4.63 60 09:40 10.02.2021
2731 Clouds 24 1018 64 10000 4.63 60 09:21 10.02.2021
2732 Clouds 23 1018 73 10000 4.63 80 08:43 10.02.2021
2733 Clouds 22 1018 78 10000 3.6 90 07:55 10.02.2021
2734 Clouds 21 1018 83 10000 2.57 80 07:18 10.02.2021
2735 Rain 18 1018 94 10000 1.54 110 03:45 10.02.2021
2736 Rain 18 1018 100 10000 1.03 0 00:51 10.02.2021
2737 Rain 18 1019 100 10000 1.03 0 23:36 09.02.2021
2738 Rain 18 1019 100 8000 1.03 0 22:56 09.02.2021
2739 Rain 18 1019 100 5000 2.57 90 22:25 09.02.2021
2740 Rain 18 1020 100 3000 3.09 60 21:53 09.02.2021
2741 Rain 18 1020 100 4000 2.06 40 21:34 09.02.2021
2742 Rain 18 1020 100 4500 4.12 30 20:50 09.02.2021
2743 Rain 18 1019 100 6000 3.09 50 20:27 09.02.2021
2744 Rain 18 1019 100 3500 5.14 30 19:59 09.02.2021
2745 Rain 18 1019 100 3500 5.14 30 19:59 09.02.2021
2746 Rain 20 1019 88 8000 3.09 70 19:38 09.02.2021
2747 Rain 20 1019 88 10000 2.57 80 18:58 09.02.2021
2748 Rain 20 1018 88 10000 3.09 100 18:37 09.02.2021
2749 Rain 20 1018 88 10000 4.63 100 17:57 09.02.2021
2750 Rain 20 1017 88 10000 4.12 90 17:39 09.02.2021
2751 Rain 20 1017 88 10000 4.12 90 17:20 09.02.2021
2752 Rain 20 1017 88 10000 4.63 110 16:42 09.02.2021
2753 Rain 20 1016 94 10000 4.63 100 16:18 09.02.2021
2754 Rain 20 1016 88 10000 3.6 80 15:50 09.02.2021
2755 Rain 20 1016 88 10000 5.14 90 15:25 09.02.2021
2756 Rain 21 1016 88 10000 4.12 80 14:54 09.02.2021
2757 Rain 21 1015 94 9000 4.12 90 14:28 09.02.2021
2758 Rain 20 1015 94 10000 5.14 120 13:52 09.02.2021
2759 Rain 21 1016 88 8000 3.6 60 13:25 09.02.2021
2760 Rain 22 1016 78 8000 2.57 130 12:54 09.02.2021
2761 Rain 20 1016 88 10000 1.54 0 12:36 09.02.2021
2762 Rain 19 1017 94 5000 3.6 80 11:57 09.02.2021
2763 Rain 22 1017 83 5000 3.6 160 11:38 09.02.2021
2764 Rain 22 1017 83 5000 3.6 160 11:20 09.02.2021
2765 Rain 22 1017 83 5000 3.6 160 11:20 09.02.2021
2766 Rain 19 1017 94 8000 3.09 240 10:43 09.02.2021
2767 Rain 20 1018 88 3000 2.06 120 10:18 09.02.2021
2768 Rain 25 1018 61 4000 3.6 20 09:42 09.02.2021
2769 Clouds 26 1018 57 10000 4.63 60 09:24 09.02.2021
2770 Clouds 25 1018 57 10000 5.14 40 08:42 09.02.2021
2771 Clouds 26 1019 57 10000 4.63 100 08:22 09.02.2021
2772 Clouds 22 1018 78 10000 1.03 0 06:20 09.02.2021
2773 Clouds 17 1017 94 10000 1.54 0 04:18 09.02.2021
2774 Clouds 18 1017 88 10000 1.54 90 03:34 09.02.2021
2775 Rain 19 1018 88 10000 0.44 349 00:33 09.02.2021
2776 Rain 19 1018 88 10000 0.75 33 23:57 08.02.2021
2777 Rain 19 1018 88 10000 0.66 36 23:20 08.02.2021
2778 Rain 20 1019 83 10000 2.57 100 22:43 08.02.2021
2779 Rain 20 1019 83 10000 2.57 100 22:24 08.02.2021
2780 Rain 20 1019 83 10000 1.54 180 21:54 08.02.2021
2781 Rain 20 1019 83 10000 1.54 110 21:31 08.02.2021
2782 Clouds 20 1019 83 10000 1.54 0 20:59 08.02.2021
2783 Clouds 20 1018 83 10000 2.06 100 20:38 08.02.2021
2784 Clouds 20 1018 83 10000 2.06 100 20:19 08.02.2021
2785 Clouds 21 1018 73 10000 2.57 50 19:42 08.02.2021
2786 Rain 21 1018 78 10000 2.57 60 19:22 08.02.2021
2787 Rain 21 1018 83 10000 2.57 90 18:46 08.02.2021
2788 Rain 22 1018 78 10000 1.78 82 18:20 08.02.2021
2789 Rain 22 1017 73 10000 0.51 0 17:44 08.02.2021
2790 Rain 22 1016 73 10000 3.09 40 17:24 08.02.2021
2791 Rain 22 1016 73 10000 1.54 50 16:44 08.02.2021
2792 Rain 22 1015 68 10000 3.09 50 16:21 08.02.2021
2793 Rain 22 1015 68 10000 3.6 50 15:43 08.02.2021
2794 Rain 23 1015 60 10000 7.72 90 15:20 08.02.2021
2795 Rain 23 1015 60 10000 7.72 90 14:52 08.02.2021
2796 Rain 24 1014 57 10000 8.23 110 14:31 08.02.2021
2797 Rain 24 1015 60 10000 9.77 120 13:57 08.02.2021
2798 Rain 25 1015 57 10000 5.66 120 13:33 08.02.2021
2799 Rain 26 1015 61 10000 5.66 130 12:55 08.02.2021
2800 Rain 29 1015 48 10000 2.57 30 12:36 08.02.2021
2801 Rain 28 1015 47 10000 4.63 20 11:49 08.02.2021
2802 Rain 27 1016 54 10000 5.14 20 11:22 08.02.2021
2803 Rain 27 1016 50 10000 5.14 30 10:45 08.02.2021
2804 Rain 27 1017 54 10000 4.12 360 10:24 08.02.2021
2805 Rain 27 1017 54 10000 4.63 30 09:53 08.02.2021
2806 Rain 26 1017 57 10000 4.12 30 09:35 08.02.2021
2807 Clouds 26 1017 57 10000 3.09 40 08:46 08.02.2021
2808 Clouds 25 1017 61 10000 2.06 0 08:20 08.02.2021
2809 Clouds 24 1018 69 10000 2.57 30 07:22 08.02.2021
2810 Clouds 21 1017 83 10000 1.54 0 05:59 08.02.2021
2811 Clouds 19 1016 88 10000 1.03 180 02:28 08.02.2021
2812 Clouds 19 1016 88 10000 2.06 160 01:18 08.02.2021
2813 Rain 19 1016 94 10000 1.03 0 00:21 08.02.2021
2814 Rain 19 1016 88 10000 0.11 294 23:48 07.02.2021
2815 Rain 19 1016 88 10000 0.51 0 23:20 07.02.2021
2816 Rain 19 1016 88 10000 1.54 0 22:45 07.02.2021
2817 Clouds 19 1016 88 10000 2.06 100 22:26 07.02.2021
2818 Clouds 19 1017 82 10000 0.38 342 21:53 07.02.2021
2819 Clouds 20 1017 88 10000 2.06 160 21:28 07.02.2021
2820 Clouds 20 1017 88 10000 3.6 170 20:54 07.02.2021
2821 Clouds 20 1017 83 10000 1.54 0 20:34 07.02.2021
2822 Clouds 20 1017 83 10000 1.03 0 19:55 07.02.2021
2823 Clouds 20 1017 88 10000 1.54 0 19:31 07.02.2021
2824 Rain 20 1017 83 10000 1.03 0 18:56 07.02.2021
2825 Rain 21 1016 78 10000 2.57 270 18:36 07.02.2021
2826 Rain 21 1016 78 10000 2.57 270 18:36 07.02.2021
2827 Rain 21 1016 78 10000 2.57 270 18:18 07.02.2021
2828 Rain 21 1016 78 10000 3.09 310 17:44 07.02.2021
2829 Rain 21 1015 83 10000 2.57 320 17:20 07.02.2021
2830 Rain 21 1015 83 10000 2.57 320 17:20 07.02.2021
2831 Rain 21 1015 83 10000 3.6 300 16:47 07.02.2021
2832 Rain 22 1015 73 10000 4.12 300 16:27 07.02.2021
2833 Rain 22 1014 78 10000 4.63 310 15:55 07.02.2021
2834 Rain 23 1014 73 10000 1.03 0 15:37 07.02.2021
2835 Rain 23 1014 73 10000 1.03 0 15:18 07.02.2021
2836 Rain 22 1014 78 10000 2.57 20 14:39 07.02.2021
2837 Rain 22 1014 78 10000 2.57 20 14:19 07.02.2021
2838 Rain 25 1013 65 10000 2.06 350 13:36 07.02.2021
2839 Rain 25 1014 61 10000 4.12 340 12:57 07.02.2021
2840 Rain 24 1014 73 10000 7.2 300 12:37 07.02.2021
2841 Rain 24 1014 73 10000 7.2 300 12:18 07.02.2021
2842 Rain 28 1014 57 10000 4.63 300 11:28 07.02.2021
2843 Rain 27 1015 54 10000 2.06 0 10:57 07.02.2021
2844 Rain 27 1015 57 10000 1.54 0 10:27 07.02.2021
2845 Rain 26 1016 57 10000 1.54 0 09:50 07.02.2021
2846 Rain 25 1016 65 10000 1.03 0 09:24 07.02.2021
2847 Rain 24 1017 69 10000 2.06 0 08:36 07.02.2021
2848 Rain 23 1017 73 10000 2.06 30 07:44 07.02.2021
2849 Clouds 19 1016 94 10000 1.54 30 05:58 07.02.2021
2850 Clouds 18 1014 94 10000 1.03 0 03:55 07.02.2021
2851 Clouds 18 1014 100 10000 0.51 80 01:39 07.02.2021
2852 Clouds 18 1015 100 10000 1.03 0 00:36 07.02.2021
2853 Clouds 18 1015 100 10000 1.03 20 23:47 06.02.2021
2854 Clouds 19 1016 94 10000 1.03 20 22:48 06.02.2021
2855 Clouds 19 1016 94 10000 1.54 330 21:43 06.02.2021
2856 Clouds 19 1017 94 10000 1.03 0 21:23 06.02.2021
2857 Rain 19 1017 94 10000 1.54 290 20:53 06.02.2021
2858 Rain 19 1017 94 10000 1.54 0 20:26 06.02.2021
2859 Rain 19 1016 94 10000 1.54 230 19:58 06.02.2021
2860 Rain 19 1017 94 10000 0.51 0 19:34 06.02.2021
2861 Rain 19 1017 94 10000 3.09 220 18:56 06.02.2021
2862 Rain 19 1017 94 10000 2.57 220 18:35 06.02.2021
2863 Rain 20 1016 88 10000 2.57 250 17:56 06.02.2021
2864 Rain 20 1016 83 10000 3.6 250 17:38 06.02.2021
2865 Rain 20 1016 83 10000 3.6 250 17:20 06.02.2021
2866 Rain 20 1015 83 10000 5.14 290 16:42 06.02.2021
2867 Rain 22 1015 73 10000 7.72 290 16:24 06.02.2021
2868 Rain 23 1015 68 10000 5.66 330 15:48 06.02.2021
2869 Rain 24 1014 64 10000 6.17 330 15:26 06.02.2021
2870 Rain 26 1014 53 10000 3.09 350 14:46 06.02.2021
2871 Rain 26 1014 50 10000 2.06 350 14:28 06.02.2021
2872 Rain 27 1013 47 10000 2.06 20 13:51 06.02.2021
2873 Rain 27 1014 44 10000 1.03 0 13:32 06.02.2021
2874 Rain 28 1014 47 10000 2.57 340 12:23 06.02.2021
2875 Rain 27 1015 54 10000 2.57 0 11:57 06.02.2021
2876 Rain 26 1015 53 10000 3.6 350 11:38 06.02.2021
2877 Rain 26 1015 53 10000 3.6 350 11:19 06.02.2021
2878 Rain 27 1016 54 10000 3.09 330 10:42 06.02.2021
2879 Rain 27 1016 54 10000 3.09 0 10:23 06.02.2021
2880 Rain 26 1017 57 10000 2.06 0 09:37 06.02.2021
2881 Rain 26 1017 57 10000 2.06 0 09:18 06.02.2021
2882 Rain 26 1017 53 10000 2.57 30 08:49 06.02.2021
2883 Clouds 26 1017 57 10000 2.57 70 08:24 06.02.2021
2884 Clouds 22 1018 78 10000 1.54 0 06:40 06.02.2021
2885 Clouds 19 1017 88 10000 1.03 0 04:45 06.02.2021
2886 Clouds 18 1016 94 10000 2.57 80 02:39 06.02.2021
2887 Rain 18 1017 94 10000 1.54 0 00:49 06.02.2021
2888 Rain 19 1018 94 10000 3.09 330 00:21 06.02.2021
2889 Rain 19 1018 94 10000 3.09 320 23:50 05.02.2021
2890 Rain 20 1018 88 10000 1.54 0 23:27 05.02.2021
2891 Rain 20 1019 88 10000 1.03 0 22:48 05.02.2021
2892 Rain 20 1019 88 10000 1.03 0 22:23 05.02.2021
2893 Rain 20 1019 94 10000 1.03 0 21:51 05.02.2021
2894 Rain 20 1019 88 10000 2.06 90 21:29 05.02.2021
2895 Rain 20 1019 88 10000 2.57 130 20:48 05.02.2021
2896 Rain 20 1019 94 10000 4.12 110 19:53 05.02.2021
2897 Rain 20 1019 88 10000 4.63 150 19:22 05.02.2021
2898 Rain 21 1019 83 10000 5.14 90 18:54 05.02.2021
2899 Clouds 22 1018 78 10000 3.09 100 18:28 05.02.2021
2900 Clouds 21 1018 83 10000 2.06 30 17:47 05.02.2021
2901 Rain 21 1018 83 10000 2.06 30 17:27 05.02.2021
2902 Rain 21 1017 83 10000 2.57 310 16:50 05.02.2021
2903 Rain 21 1016 83 10000 3.6 310 16:28 05.02.2021
2904 Rain 21 1017 78 10000 4.63 320 15:58 05.02.2021
2905 Rain 21 1017 73 10000 7.2 310 15:27 05.02.2021
2906 Rain 25 1016 65 10000 4.63 300 14:55 05.02.2021
2907 Rain 27 1015 47 10000 2.57 110 14:36 05.02.2021
2908 Rain 27 1015 47 10000 2.57 110 14:18 05.02.2021
2909 Rain 30 1016 42 10000 2.57 70 13:38 05.02.2021
2910 Rain 30 1016 42 10000 3.09 40 12:57 05.02.2021
2911 Rain 29 1017 45 10000 5.14 100 12:38 05.02.2021
2912 Rain 28 1017 47 10000 2.57 0 11:42 05.02.2021
2913 Rain 27 1017 50 10000 2.57 90 11:22 05.02.2021
2914 Rain 28 1018 51 10000 2.57 90 10:59 05.02.2021
2915 Rain 28 1018 51 10000 2.57 110 10:28 05.02.2021
2916 Rain 28 1018 51 10000 2.57 0 09:57 05.02.2021
2917 Rain 27 1019 54 10000 1.54 0 09:39 05.02.2021
2918 Rain 27 1019 54 10000 1.54 0 09:20 05.02.2021
2919 Clouds 26 1019 61 10000 3.09 110 08:29 05.02.2021
2920 Clouds 24 1020 64 10000 2.57 0 07:39 05.02.2021
2921 Clouds 23 1020 73 10000 2.57 140 06:58 05.02.2021
2922 Clouds 20 1019 88 10000 2.06 140 05:39 05.02.2021
2923 Clouds 19 1019 94 10000 1.03 0 04:49 05.02.2021
2924 Clouds 18 1019 94 10000 1.03 0 02:25 05.02.2021
2925 Clouds 19 1020 94 10000 2.06 300 00:41 05.02.2021
2926 Clouds 19 1020 94 10000 1.03 0 00:21 05.02.2021
2927 Clouds 19 1020 94 10000 1.54 100 23:59 04.02.2021
2928 Clouds 19 1020 94 10000 1.54 100 23:59 04.02.2021
2929 Clouds 19 1020 94 7000 3.09 90 23:39 04.02.2021
2930 Clouds 19 1020 94 7000 3.09 90 23:20 04.02.2021
2931 Clouds 19 1020 94 8000 3.6 120 22:51 04.02.2021
2932 Clouds 19 1020 94 8000 3.6 120 22:51 04.02.2021
2933 Rain 20 1021 94 8000 2.06 170 22:27 04.02.2021
2934 Rain 19 1021 100 7000 2.57 140 21:42 04.02.2021
2935 Rain 20 1021 94 5000 2.06 170 21:21 04.02.2021
2936 Rain 20 1020 94 10000 2.06 150 20:53 04.02.2021
2937 Rain 20 1020 94 10000 2.06 150 20:34 04.02.2021
2938 Rain 21 1020 88 10000 3.6 140 19:47 04.02.2021
2939 Rain 20 1020 94 10000 1.54 0 18:59 04.02.2021
2940 Rain 20 1020 88 10000 2.57 300 18:36 04.02.2021
2941 Rain 20 1020 88 10000 2.57 300 18:18 04.02.2021
2942 Rain 19 1019 94 10000 1.03 0 17:41 04.02.2021
2943 Rain 20 1019 88 10000 2.06 320 17:20 04.02.2021
2944 Rain 20 1019 88 10000 1.03 0 16:41 04.02.2021
2945 Rain 20 1018 77 10000 1.03 0 16:19 04.02.2021
2946 Rain 21 1018 68 10000 3.09 270 15:40 04.02.2021
2947 Rain 22 1018 68 10000 4.63 270 15:21 04.02.2021
2948 Rain 24 1017 64 10000 5.66 120 14:48 04.02.2021
2949 Rain 25 1017 65 10000 7.72 110 14:21 04.02.2021
2950 Rain 26 1017 61 10000 5.66 100 13:48 04.02.2021
2951 Rain 28 1017 57 10000 4.12 90 13:28 04.02.2021
2952 Rain 28 1017 54 10000 4.63 110 12:54 04.02.2021
2953 Rain 28 1018 57 10000 4.63 100 11:57 04.02.2021
2954 Rain 28 1018 57 10000 4.63 110 11:37 04.02.2021
2955 Rain 28 1018 57 10000 4.63 110 11:18 04.02.2021
2956 Rain 27 1018 61 10000 5.14 110 10:35 04.02.2021
2957 Clouds 27 1019 61 10000 6.17 110 09:46 04.02.2021
2958 Clouds 27 1019 61 10000 4.12 130 09:23 04.02.2021
2959 Clouds 26 1019 61 10000 4.12 140 08:57 04.02.2021
2960 Clouds 25 1019 65 10000 3.09 130 08:26 04.02.2021
2961 Clouds 24 1019 69 10000 4.12 130 07:57 04.02.2021
2962 Clouds 23 1020 73 10000 2.57 140 07:34 04.02.2021
2963 Clouds 20 1020 77 10000 3.09 140 06:52 04.02.2021
2964 Clouds 20 1020 77 10000 3.09 140 06:34 04.02.2021
2965 Rain 17 1020 88 8000 3.09 20 02:40 04.02.2021
2966 Rain 17 1021 94 8000 3.6 60 02:21 04.02.2021
2967 Clouds 21 1020 83 10000 2.06 40 00:24 04.02.2021
2968 Clouds 21 1020 83 10000 2.06 40 23:34 03.02.2021
2969 Clouds 21 1020 83 10000 2.06 50 22:40 03.02.2021
2970 Clouds 21 1020 83 10000 2.06 50 22:21 03.02.2021
2971 Clouds 21 1020 83 10000 2.06 50 22:21 03.02.2021
2972 Clouds 20 1021 94 10000 1.54 70 21:51 03.02.2021
2973 Clouds 20 1021 94 10000 1.54 70 21:24 03.02.2021
2974 Clouds 21 1021 88 10000 2.57 90 20:54 03.02.2021
2975 Clouds 21 1021 88 10000 4.12 110 20:35 03.02.2021
2976 Clouds 22 1021 83 10000 4.63 100 19:55 03.02.2021
2977 Rain 22 1020 83 10000 4.12 100 19:27 03.02.2021
2978 Clouds 22 1020 83 10000 5.14 100 18:58 03.02.2021
2979 Clouds 22 1020 78 10000 5.66 110 18:38 03.02.2021
2980 Rain 22 1020 78 10000 5.66 110 18:19 03.02.2021
2981 Rain 23 1019 73 10000 6.17 110 17:44 03.02.2021
2982 Rain 23 1019 73 10000 5.14 120 17:24 03.02.2021
2983 Rain 24 1019 69 10000 5.66 120 16:42 03.02.2021
2984 Rain 25 1018 61 10000 5.66 120 16:22 03.02.2021
2985 Rain 26 1018 61 10000 4.63 140 15:40 03.02.2021
2986 Rain 28 1018 47 10000 5.66 120 15:22 03.02.2021
2987 Rain 29 1017 45 10000 4.12 170 14:45 03.02.2021
2988 Rain 29 1017 48 10000 5.66 110 14:22 03.02.2021
2989 Rain 29 1018 48 10000 5.14 120 13:47 03.02.2021
2990 Rain 28 1018 51 10000 6.17 120 13:21 03.02.2021
2991 Rain 29 1018 45 10000 4.63 130 12:42 03.02.2021
2992 Rain 29 1018 48 10000 6.69 110 12:20 03.02.2021
2993 Rain 29 1018 39 10000 3.09 160 11:42 03.02.2021
2994 Clouds 29 1018 39 10000 3.09 160 11:23 03.02.2021
2995 Clouds 29 1018 39 10000 2.57 0 10:41 03.02.2021
2996 Clouds 28 1019 39 10000 2.06 0 10:19 03.02.2021
2997 Clouds 28 1019 39 10000 2.57 0 09:40 03.02.2021
2998 Clouds 27 1020 41 10000 3.09 0 09:20 03.02.2021
2999 Clouds 26 1020 44 10000 5.14 100 08:46 03.02.2021
3000 Clouds 24 1021 53 10000 4.12 140 07:58 03.02.2021
3001 Clouds 21 1021 64 10000 5.66 160 06:43 03.02.2021
3002 Clouds 18 1021 82 10000 4.12 110 05:19 03.02.2021
3003 Clouds 17 1020 88 10000 2.06 100 04:42 03.02.2021
3004 Clouds 16 1019 94 10000 0.51 0 03:51 03.02.2021
3005 Clouds 17 1019 88 10000 2.57 160 02:41 03.02.2021
3006 Clouds 17 1019 88 10000 2.06 170 01:47 03.02.2021
3007 Clouds 18 1020 94 10000 3.09 100 00:24 03.02.2021
3008 Clouds 18 1020 88 10000 2.57 120 23:43 02.02.2021
3009 Clouds 18 1020 88 10000 2.57 120 23:25 02.02.2021
3010 Clouds 19 1021 82 10000 2.57 140 22:46 02.02.2021
3011 Clouds 18 1021 88 10000 3.09 120 22:20 02.02.2021
3012 Clouds 19 1021 88 10000 3.6 110 21:46 02.02.2021
3013 Clouds 19 1021 88 10000 3.6 110 21:46 02.02.2021
3014 Clouds 19 1022 88 10000 3.6 100 21:24 02.02.2021
3015 Clouds 19 1022 88 10000 3.6 100 21:24 02.02.2021
3016 Clouds 20 1022 83 10000 5.14 110 20:49 02.02.2021
3017 Clouds 20 1022 83 10000 4.63 100 20:21 02.02.2021
3018 Clouds 20 1021 88 10000 5.14 110 19:52 02.02.2021
3019 Clouds 21 1021 83 10000 4.63 110 19:34 02.02.2021
3020 Clouds 21 1020 83 10000 5.66 110 18:57 02.02.2021
3021 Clouds 22 1020 78 10000 7.2 110 18:38 02.02.2021
3022 Clouds 22 1020 78 10000 7.2 110 18:20 02.02.2021
3023 Clouds 24 1019 60 10000 6.17 110 17:38 02.02.2021
3024 Clouds 24 1019 60 10000 6.17 110 17:19 02.02.2021
3025 Clouds 25 1019 57 10000 6.69 110 16:48 02.02.2021
3026 Clouds 26 1019 53 10000 6.17 110 16:27 02.02.2021
3027 Clouds 28 1019 47 10000 6.69 110 15:56 02.02.2021
3028 Clouds 28 1018 47 10000 6.69 110 15:30 02.02.2021
3029 Clouds 29 1018 42 10000 4.63 140 14:53 02.02.2021
3030 Clouds 29 1018 45 10000 5.66 130 14:34 02.02.2021
3031 Clouds 30 1018 37 10000 6.17 120 13:58 02.02.2021
3032 Clouds 30 1018 37 10000 6.17 120 13:40 02.02.2021
3033 Clouds 30 1019 37 10000 6.17 140 13:22 02.02.2021
3034 Clouds 30 1019 37 10000 5.66 160 12:47 02.02.2021
3035 Clouds 29 1020 45 10000 4.63 150 11:46 02.02.2021
3036 Clouds 28 1020 47 10000 3.6 0 11:25 02.02.2021
3037 Clouds 28 1021 51 10000 4.63 170 10:56 02.02.2021
3038 Clouds 27 1021 57 10000 4.12 180 10:37 02.02.2021
3039 Clouds 27 1021 57 10000 4.12 180 10:19 02.02.2021
3040 Clouds 27 1022 57 10000 3.6 160 09:39 02.02.2021
3041 Clouds 27 1022 57 10000 3.6 160 09:19 02.02.2021
3042 Clouds 25 1022 61 10000 3.09 140 08:33 02.02.2021
3043 Clouds 24 1022 64 10000 3.09 130 07:41 02.02.2021
3044 Clouds 23 1022 73 10000 3.6 130 06:45 02.02.2021
3045 Clouds 24 1022 69 10000 3.6 150 06:21 02.02.2021
3046 Clouds 23 1022 73 10000 3.09 150 05:46 02.02.2021
3047 Clouds 20 1021 88 10000 2.57 130 02:45 02.02.2021
3048 Clouds 21 1021 83 10000 3.09 110 02:23 02.02.2021
3049 Clouds 21 1021 83 10000 2.57 140 00:36 02.02.2021
3050 Clouds 21 1021 83 10000 2.57 90 23:30 01.02.2021
3051 Clouds 21 1021 83 10000 3.09 140 22:51 01.02.2021
3052 Clouds 21 1022 83 10000 2.57 140 22:33 01.02.2021
3053 Clouds 21 1022 83 10000 3.09 140 21:53 01.02.2021
3054 Clouds 21 1022 83 10000 3.6 120 21:34 01.02.2021
3055 Clouds 21 1022 83 10000 4.12 100 20:57 01.02.2021
3056 Clouds 21 1022 88 10000 4.12 120 20:38 01.02.2021
3057 Clouds 21 1022 88 10000 4.12 120 20:19 01.02.2021
3058 Clouds 21 1022 88 10000 4.12 110 19:39 01.02.2021
3059 Clouds 21 1022 88 10000 4.12 110 19:20 01.02.2021
3060 Clouds 22 1021 83 10000 3.6 120 18:49 01.02.2021
3061 Clouds 22 1021 83 10000 6.17 110 18:27 01.02.2021
3062 Clouds 23 1020 73 10000 3.6 90 17:47 01.02.2021
3063 Clouds 24 1020 69 10000 4.63 100 17:24 01.02.2021
3064 Clouds 24 1020 64 10000 4.63 100 16:55 01.02.2021
3065 Clouds 25 1019 61 10000 6.17 100 16:29 01.02.2021
3066 Clouds 27 1019 50 10000 5.14 100 15:43 01.02.2021
3067 Clouds 27 1019 50 10000 5.14 100 15:43 01.02.2021
3068 Clouds 27 1019 47 10000 3.09 80 15:19 01.02.2021
3069 Clouds 28 1019 44 10000 2.57 120 14:52 01.02.2021
3070 Clouds 29 1019 42 10000 3.09 110 14:27 01.02.2021
3071 Clouds 29 1019 45 10000 5.14 100 13:47 01.02.2021
3072 Clouds 28 1019 47 10000 3.6 140 13:26 01.02.2021
3073 Clouds 28 1019 47 10000 3.6 140 13:26 01.02.2021
3074 Clouds 27 1020 54 10000 4.12 120 12:45 01.02.2021
3075 Clouds 27 1020 54 10000 4.12 120 12:45 01.02.2021
3076 Clouds 27 1020 54 10000 4.12 120 12:25 01.02.2021
3077 Clouds 28 1020 51 10000 3.09 110 11:51 01.02.2021
3078 Clouds 28 1020 51 10000 3.6 120 11:21 01.02.2021
3079 Clouds 28 1021 54 10000 2.06 0 10:53 01.02.2021
3080 Clouds 26 1021 57 10000 3.6 130 10:27 01.02.2021
3081 Clouds 25 1022 61 10000 3.09 110 09:55 01.02.2021
3082 Clouds 25 1022 61 10000 3.09 110 09:36 01.02.2021
3083 Clouds 26 1022 57 10000 3.6 130 08:56 01.02.2021
3084 Clouds 25 1022 65 10000 3.6 130 08:26 01.02.2021
3085 Clouds 23 1023 68 10000 3.6 110 07:30 01.02.2021
3086 Clouds 20 1022 83 10000 2.57 120 05:20 01.02.2021
3087 Clouds 19 1020 88 10000 1.54 160 02:40 01.02.2021
3088 Clouds 19 1020 94 10000 2.06 130 00:25 01.02.2021
3089 Clouds 19 1020 88 10000 3.09 90 23:21 31.01.2021
3090 Clouds 20 1020 88 10000 3.09 100 22:38 31.01.2021
3091 Clouds 20 1020 88 10000 3.09 100 22:19 31.01.2021
3092 Clouds 20 1021 88 10000 3.6 80 21:47 31.01.2021
3093 Clouds 20 1021 88 10000 3.6 80 21:47 31.01.2021
3094 Clouds 20 1021 83 10000 3.6 100 21:21 31.01.2021
3095 Clouds 20 1021 88 10000 3.6 100 20:43 31.01.2021
3096 Clouds 20 1021 88 10000 3.09 90 20:21 31.01.2021
3097 Clouds 20 1021 88 10000 4.12 90 19:40 31.01.2021
3098 Rain 20 1021 88 10000 4.12 100 19:22 31.01.2021
3099 Rain 21 1020 83 10000 6.17 90 18:56 31.01.2021
3100 Rain 21 1019 83 10000 3.6 100 18:38 31.01.2021
3101 Rain 21 1019 83 10000 3.6 100 18:18 31.01.2021
3102 Rain 22 1019 78 10000 3.6 90 17:39 31.01.2021
3103 Rain 22 1019 78 10000 3.6 90 17:21 31.01.2021
3104 Rain 23 1018 73 10000 3.6 90 16:42 31.01.2021
3105 Rain 24 1018 69 10000 3.6 90 16:20 31.01.2021
3106 Rain 25 1018 65 10000 5.66 90 15:49 31.01.2021
3107 Rain 27 1017 54 10000 2.06 80 15:25 31.01.2021
3108 Rain 28 1017 47 10000 1.54 0 14:36 31.01.2021
3109 Rain 28 1017 47 10000 1.54 0 14:18 31.01.2021
3110 Rain 27 1018 50 10000 1.54 0 13:44 31.01.2021
3111 Rain 26 1018 53 10000 3.09 50 13:19 31.01.2021
3112 Rain 26 1018 53 10000 3.6 40 12:46 31.01.2021
3113 Rain 25 1018 57 10000 3.09 50 12:20 31.01.2021
3114 Rain 25 1018 57 10000 3.6 80 11:40 31.01.2021
3115 Rain 25 1018 57 10000 3.6 80 11:20 31.01.2021
3116 Rain 25 1019 61 10000 2.57 90 10:46 31.01.2021
3117 Rain 25 1019 57 10000 3.6 80 10:27 31.01.2021
3118 Rain 25 1019 61 10000 3.6 70 09:41 31.01.2021
3119 Clouds 24 1020 64 10000 4.12 100 08:53 31.01.2021
3120 Clouds 24 1020 64 10000 4.63 90 08:31 31.01.2021
3121 Clouds 22 1020 73 10000 4.12 100 06:47 31.01.2021
3122 Clouds 18 1019 94 10000 2.06 140 03:53 31.01.2021
3123 Clouds 18 1019 94 10000 1.54 0 00:28 31.01.2021
3124 Clouds 19 1019 88 10000 2.06 30 00:00 31.01.2021
3125 Rain 19 1019 94 10000 1.03 0 23:28 30.01.2021
3126 Rain 19 1019 94 10000 1.03 0 22:45 30.01.2021
3127 Rain 19 1020 94 10000 1.03 0 22:23 30.01.2021
3128 Rain 19 1021 94 10000 3.6 100 21:39 30.01.2021
3129 Rain 19 1021 94 10000 3.6 100 21:20 30.01.2021
3130 Rain 19 1021 94 8000 2.57 120 20:41 30.01.2021
3131 Rain 20 1020 88 10000 3.09 50 20:23 30.01.2021
3132 Clouds 20 1020 88 10000 2.06 70 19:41 30.01.2021
3133 Rain 20 1020 88 10000 3.6 60 19:22 30.01.2021
3134 Rain 20 1019 88 10000 4.12 90 18:40 30.01.2021
3135 Rain 21 1019 83 10000 4.12 90 18:21 30.01.2021
3136 Rain 21 1018 83 10000 4.63 90 17:49 30.01.2021
3137 Rain 21 1018 78 10000 2.57 80 17:19 30.01.2021
3138 Rain 22 1018 73 10000 1.03 0 16:42 30.01.2021
3139 Rain 22 1017 73 10000 3.09 70 16:23 30.01.2021
3140 Rain 23 1017 68 10000 4.63 80 15:49 30.01.2021
3141 Rain 23 1017 68 10000 7.72 80 15:25 30.01.2021
3142 Rain 24 1017 60 10000 4.12 70 14:58 30.01.2021
3143 Rain 24 1017 60 10000 4.12 80 14:38 30.01.2021
3144 Rain 24 1017 60 10000 4.12 80 14:18 30.01.2021
3145 Rain 25 1016 61 10000 3.6 340 13:23 30.01.2021
3146 Rain 26 1017 50 10000 3.09 50 12:46 30.01.2021
3147 Rain 27 1017 47 10000 4.12 120 12:27 30.01.2021
3148 Rain 26 1018 53 10000 4.63 110 11:47 30.01.2021
3149 Rain 27 1018 50 10000 4.63 60 10:57 30.01.2021
3150 Rain 26 1019 53 10000 3.6 100 10:28 30.01.2021
3151 Rain 27 1019 50 10000 2.06 110 09:42 30.01.2021
3152 Clouds 25 1019 53 10000 2.57 0 09:24 30.01.2021
3153 Clouds 25 1019 57 10000 2.57 150 08:44 30.01.2021
3154 Clouds 23 1020 68 10000 2.06 50 07:42 30.01.2021
3155 Clouds 21 1021 73 10000 1.54 0 06:32 30.01.2021
3156 Clouds 16 1019 94 10000 1.3 144 03:51 30.01.2021
3157 Clouds 16 1019 94 10000 1.3 144 03:31 30.01.2021
3158 Clouds 16 1019 100 10000 1.03 90 02:22 30.01.2021
3159 Clouds 17 1019 94 10000 1.54 150 00:56 30.01.2021
3160 Clouds 17 1020 94 10000 0.99 88 00:26 30.01.2021
3161 Clouds 17 1020 94 10000 0.99 88 23:54 29.01.2021
3162 Clouds 17 1019 94 10000 1.34 78 23:27 29.01.2021
3163 Clouds 17 1020 94 10000 1.03 180 22:46 29.01.2021
3164 Clouds 18 1020 94 10000 1.03 0 22:28 29.01.2021
3165 Clouds 18 1020 94 10000 2.57 150 21:56 29.01.2021
3166 Rain 18 1020 94 10000 2.57 130 21:26 29.01.2021
3167 Rain 19 1021 94 10000 3.09 110 20:43 29.01.2021
3168 Rain 19 1021 94 10000 3.09 110 20:21 29.01.2021
3169 Rain 19 1021 94 10000 2.06 100 19:39 29.01.2021
3170 Rain 19 1021 94 10000 2.06 100 19:20 29.01.2021
3171 Rain 19 1020 94 10000 1.03 0 18:49 29.01.2021
3172 Rain 20 1019 77 10000 1.54 0 17:47 29.01.2021
3173 Rain 20 1018 77 10000 3.6 350 17:22 29.01.2021
3174 Rain 20 1018 77 10000 2.06 330 16:49 29.01.2021
3175 Rain 20 1017 83 10000 2.06 30 16:24 29.01.2021
3176 Rain 20 1017 83 10000 2.06 30 16:24 29.01.2021
3177 Rain 20 1017 77 10000 3.09 60 15:54 29.01.2021
3178 Rain 20 1017 77 10000 6.69 40 15:36 29.01.2021
3179 Rain 22 1016 73 10000 7.2 30 14:58 29.01.2021
3180 Rain 22 1016 78 10000 9.77 50 14:21 29.01.2021
3181 Rain 22 1016 78 10000 3.49 88 13:46 29.01.2021
3182 Rain 24 1016 64 6000 7.2 110 13:27 29.01.2021
3183 Rain 29 1017 45 10000 2.57 0 12:30 29.01.2021
3184 Rain 28 1017 51 10000 1.54 0 11:58 29.01.2021
3185 Rain 28 1017 51 10000 1.54 0 11:40 29.01.2021
3186 Rain 28 1017 51 10000 2.57 0 11:18 29.01.2021
3187 Rain 27 1018 57 10000 3.09 80 10:41 29.01.2021
3188 Rain 24 1019 64 10000 1.54 0 09:56 29.01.2021
3189 Rain 24 1019 64 10000 1.54 0 09:36 29.01.2021
3190 Clouds 26 1019 61 10000 2.57 200 08:48 29.01.2021
3191 Clouds 25 1020 65 10000 2.06 0 08:26 29.01.2021
3192 Clouds 23 1020 73 10000 1.54 0 07:44 29.01.2021
3193 Clouds 22 1019 83 10000 2.06 20 07:23 29.01.2021
3194 Clouds 20 1020 94 10000 2.06 60 06:35 29.01.2021
3195 Clouds 18 1018 100 10000 1.03 0 03:53 29.01.2021
3196 Clouds 19 1018 94 10000 0.51 0 00:51 29.01.2021
3197 Rain 19 1018 94 10000 0.51 0 00:23 29.01.2021
3198 Rain 19 1018 94 10000 2.06 260 23:47 28.01.2021
3199 Rain 19 1018 94 10000 1.54 290 23:28 28.01.2021
3200 Rain 19 1019 94 10000 1.03 0 22:59 28.01.2021
3201 Rain 19 1019 94 10000 1.03 0 22:39 28.01.2021
3202 Rain 19 1019 94 10000 1.03 0 22:21 28.01.2021
3203 Rain 19 1019 94 10000 1.03 0 22:21 28.01.2021
3204 Rain 19 1019 94 10000 1.54 190 21:42 28.01.2021
3205 Rain 19 1019 94 10000 2.06 130 21:22 28.01.2021
3206 Rain 19 1019 94 10000 3.09 100 20:45 28.01.2021
3207 Rain 19 1019 94 8000 1.03 0 20:19 28.01.2021
3208 Rain 19 1020 94 10000 3.09 160 19:52 28.01.2021
3209 Rain 19 1019 94 10000 1.54 0 19:28 28.01.2021
3210 Rain 19 1018 94 10000 1.03 0 18:50 28.01.2021
3211 Rain 19 1018 94 8000 2.06 270 18:31 28.01.2021
3212 Rain 19 1018 94 6000 6.17 60 17:54 28.01.2021
3213 Rain 19 1017 88 4000 1.54 0 17:34 28.01.2021
3214 Rain 20 1016 94 6000 6.17 50 16:58 28.01.2021
3215 Rain 23 1015 83 4500 4.12 30 16:39 28.01.2021
3216 Rain 23 1015 83 4500 4.12 30 16:20 28.01.2021
3217 Rain 28 1015 61 10000 5.66 60 15:25 28.01.2021
3218 Rain 29 1014 51 10000 5.14 290 14:48 28.01.2021
3219 Rain 31 1014 40 10000 2.57 210 14:26 28.01.2021
3220 Rain 31 1014 40 10000 1.54 0 13:58 28.01.2021
3221 Rain 30 1015 42 10000 3.09 230 13:23 28.01.2021
3222 Rain 30 1015 39 10000 2.06 250 12:50 28.01.2021
3223 Rain 30 1016 39 10000 1.54 0 12:28 28.01.2021
3224 Rain 29 1016 48 10000 2.06 200 11:55 28.01.2021
3225 Rain 29 1016 51 10000 3.09 210 11:37 28.01.2021
3226 Rain 29 1016 51 10000 3.09 210 11:18 28.01.2021
3227 Rain 29 1017 51 10000 2.06 200 10:40 28.01.2021
3228 Rain 28 1017 51 10000 2.06 0 10:22 28.01.2021
3229 Rain 27 1018 57 10000 2.57 0 09:38 28.01.2021
3230 Rain 27 1018 57 10000 2.57 0 09:19 28.01.2021
3231 Rain 26 1018 57 10000 2.06 0 08:44 28.01.2021
3232 Rain 24 1018 69 10000 2.57 280 07:50 28.01.2021
3233 Rain 24 1018 69 10000 2.57 240 07:18 28.01.2021
3234 Rain 24 1018 69 10000 2.06 300 06:46 28.01.2021
3235 Clouds 19 1018 94 10000 0.51 0 04:30 28.01.2021
3236 Clouds 19 1017 94 10000 2.57 30 02:33 28.01.2021
3237 Rain 20 1017 88 10000 2.57 100 00:29 28.01.2021
3238 Rain 20 1018 88 10000 2.06 150 23:25 27.01.2021
3239 Rain 20 1018 88 10000 2.06 160 22:44 27.01.2021
3240 Rain 20 1018 88 10000 2.06 160 22:26 27.01.2021
3241 Rain 20 1018 88 10000 2.06 160 22:26 27.01.2021
3242 Rain 20 1018 88 10000 2.06 170 21:57 27.01.2021
3243 Rain 20 1018 88 10000 2.06 140 21:39 27.01.2021
3244 Rain 20 1018 88 10000 2.06 140 21:21 27.01.2021
3245 Rain 20 1018 88 10000 3.6 130 20:40 27.01.2021
3246 Rain 20 1018 94 10000 3.09 170 19:57 27.01.2021
3247 Rain 20 1017 94 10000 1.03 0 19:38 27.01.2021
3248 Rain 20 1017 94 10000 1.03 0 19:20 27.01.2021
3249 Rain 20 1017 88 10000 1.54 0 18:41 27.01.2021
3250 Rain 20 1017 88 10000 2.21 77 18:22 27.01.2021
3251 Rain 20 1016 83 10000 0.51 0 17:45 27.01.2021
3252 Rain 21 1016 78 10000 1.54 70 17:21 27.01.2021
3253 Rain 21 1016 83 10000 5.14 60 16:47 27.01.2021
3254 Rain 23 1015 73 10000 3.09 160 16:28 27.01.2021
3255 Rain 23 1015 73 10000 3.09 160 16:28 27.01.2021
3256 Rain 24 1014 69 10000 5.14 220 15:50 27.01.2021
3257 Rain 25 1014 65 10000 4.63 220 15:30 27.01.2021
3258 Rain 26 1014 57 10000 1.54 260 14:42 27.01.2021
3259 Rain 26 1014 50 10000 3.09 280 14:21 27.01.2021
3260 Rain 28 1013 47 10000 3.09 280 13:42 27.01.2021
3261 Rain 29 1014 48 10000 2.57 320 12:47 27.01.2021
3262 Rain 29 1015 48 10000 2.06 0 12:26 27.01.2021
3263 Rain 29 1015 48 10000 2.57 0 11:53 27.01.2021
3264 Clouds 28 1016 51 10000 2.06 0 11:26 27.01.2021
3265 Clouds 28 1016 47 10000 2.06 0 11:00 27.01.2021
3266 Clouds 25 1016 61 10000 2.06 0 10:36 27.01.2021
3267 Clouds 25 1016 61 10000 2.06 0 10:18 27.01.2021
3268 Clouds 26 1017 57 10000 2.06 300 09:34 27.01.2021
3269 Clouds 26 1017 57 10000 2.06 0 08:48 27.01.2021
3270 Clouds 24 1018 69 10000 2.06 200 07:59 27.01.2021
3271 Clouds 24 1018 69 10000 1.54 0 07:40 27.01.2021
3272 Clouds 23 1018 68 10000 2.06 110 06:48 27.01.2021
3273 Clouds 21 1017 83 10000 1.54 100 05:57 27.01.2021
3274 Clouds 19 1017 94 10000 1.54 0 05:35 27.01.2021
3275 Clouds 17 1017 100 10000 2.06 110 02:46 27.01.2021
3276 Clouds 18 1017 94 10000 0.79 132 02:21 27.01.2021
3277 Clouds 18 1017 94 10000 1.54 40 01:47 27.01.2021
3278 Clouds 19 1018 94 10000 1.03 0 00:30 27.01.2021
3279 Clouds 19 1018 94 10000 1.03 0 00:30 27.01.2021
3280 Clouds 19 1018 94 10000 2.06 20 23:44 26.01.2021
3281 Clouds 19 1018 94 10000 2.57 30 23:22 26.01.2021
3282 Clouds 19 1019 94 10000 2.57 20 22:44 26.01.2021
3283 Clouds 19 1019 88 10000 2.06 20 22:20 26.01.2021
3284 Clouds 19 1019 88 10000 2.57 20 21:53 26.01.2021
3285 Clouds 18 1019 100 10000 1.54 20 21:26 26.01.2021
3286 Clouds 18 1019 100 10000 1.54 70 20:56 26.01.2021
3287 Rain 18 1019 94 8000 1.54 70 20:36 26.01.2021
3288 Rain 18 1019 94 8000 1.54 70 20:36 26.01.2021
3289 Rain 18 1019 94 8000 1.54 70 20:18 26.01.2021
3290 Rain 18 1018 94 7000 2.06 90 19:42 26.01.2021
3291 Rain 18 1018 94 7000 3.09 100 19:19 26.01.2021
3292 Rain 18 1018 94 4000 4.63 70 18:43 26.01.2021
3293 Rain 20 1019 88 4000 5.66 90 18:23 26.01.2021
3294 Rain 20 1019 88 4000 5.66 90 18:23 26.01.2021
3295 Rain 20 1017 88 10000 1.03 0 17:48 26.01.2021
3296 Rain 21 1017 83 10000 2.06 250 17:25 26.01.2021
3297 Rain 21 1017 83 10000 2.06 250 16:53 26.01.2021
3298 Rain 21 1017 78 10000 3.6 310 16:22 26.01.2021
3299 Rain 21 1016 78 10000 5.14 350 15:57 26.01.2021
3300 Rain 20 1016 73 10000 7.2 360 15:36 26.01.2021
3301 Rain 19 1016 88 10000 6.17 320 14:49 26.01.2021
3302 Rain 19 1015 82 8000 6.17 240 14:30 26.01.2021
3303 Rain 25 1015 65 10000 7.2 210 13:59 26.01.2021
3304 Rain 27 1015 54 10000 3.09 20 13:29 26.01.2021
3305 Rain 27 1016 54 10000 4.63 50 12:47 26.01.2021
3306 Rain 29 1016 51 10000 2.06 0 12:26 26.01.2021
3307 Rain 29 1016 48 10000 1.54 0 11:59 26.01.2021
3308 Rain 28 1017 51 10000 1.54 0 11:40 26.01.2021
3309 Rain 28 1017 51 10000 2.06 320 10:56 26.01.2021
3310 Rain 27 1018 54 10000 2.06 0 10:33 26.01.2021
3311 Rain 27 1018 57 10000 1.54 0 09:50 26.01.2021
3312 Rain 26 1019 57 10000 2.57 0 09:32 26.01.2021
3313 Clouds 26 1019 61 10000 2.06 210 08:55 26.01.2021
3314 Clouds 25 1019 65 10000 1.54 0 08:37 26.01.2021
3315 Clouds 23 1019 78 8000 1.54 0 07:53 26.01.2021
3316 Clouds 20 1019 88 8000 1.54 0 06:53 26.01.2021
3317 Clouds 20 1019 88 10000 1.54 180 05:45 26.01.2021
3318 Clouds 19 1019 94 8000 1.54 110 05:24 26.01.2021
3319 Clouds 17 1018 94 10000 1.54 310 02:57 26.01.2021
3320 Clouds 18 1018 94 10000 1.03 0 00:58 26.01.2021
3321 Clouds 18 1019 94 10000 0.51 0 23:40 25.01.2021
3322 Clouds 18 1019 94 10000 1.54 30 23:18 25.01.2021
3323 Clouds 18 1020 94 10000 2.06 170 22:39 25.01.2021
3324 Rain 18 1020 94 10000 2.57 180 21:58 25.01.2021
3325 Rain 18 1020 94 10000 3.6 160 21:39 25.01.2021
3326 Rain 18 1020 94 10000 2.57 170 20:53 25.01.2021
3327 Rain 18 1020 94 10000 1.65 115 20:33 25.01.2021
3328 Rain 19 1020 88 6000 3.09 90 19:52 25.01.2021
3329 Rain 19 1020 88 10000 3.09 60 19:32 25.01.2021
3330 Rain 21 1019 83 10000 2.57 20 18:59 25.01.2021
3331 Rain 21 1019 83 10000 2.57 20 18:41 25.01.2021
3332 Rain 21 1019 83 10000 3.09 330 18:21 25.01.2021
3333 Rain 21 1019 88 10000 3.09 310 17:42 25.01.2021
3334 Rain 21 1018 83 10000 1.03 0 17:23 25.01.2021
3335 Rain 21 1018 83 10000 3.09 50 16:41 25.01.2021
3336 Rain 21 1017 83 10000 2.06 290 16:23 25.01.2021
3337 Rain 21 1017 83 10000 3.6 300 15:53 25.01.2021
3338 Rain 22 1017 78 10000 3.09 280 15:32 25.01.2021
3339 Rain 22 1016 78 10000 2.57 30 14:51 25.01.2021
3340 Rain 21 1016 83 10000 2.06 360 14:20 25.01.2021
3341 Rain 19 1016 82 8000 6.69 140 13:54 25.01.2021
3342 Rain 20 1017 73 4000 10.8 160 13:35 25.01.2021
3343 Rain 30 1016 39 10000 3.09 200 12:49 25.01.2021
3344 Rain 30 1016 39 10000 3.09 250 12:24 25.01.2021
3345 Rain 30 1017 42 10000 4.12 210 11:57 25.01.2021
3346 Rain 29 1017 45 10000 2.57 260 11:20 25.01.2021
3347 Rain 28 1018 47 10000 2.06 220 10:43 25.01.2021
3348 Rain 28 1018 47 10000 2.06 0 10:20 25.01.2021
3349 Rain 27 1018 50 10000 2.06 220 09:46 25.01.2021
3350 Rain 27 1019 57 10000 2.57 210 09:28 25.01.2021
3351 Rain 25 1019 61 10000 2.06 230 08:32 25.01.2021
3352 Clouds 24 1019 69 10000 1.54 210 07:46 25.01.2021
3353 Clouds 23 1019 73 10000 2.06 180 07:26 25.01.2021
3354 Clouds 22 1019 78 10000 1.54 0 06:22 25.01.2021
3355 Clouds 17 1019 100 10000 1.54 0 01:34 25.01.2021
3356 Clouds 17 1019 100 10000 1.03 0 23:52 24.01.2021
3357 Clouds 17 1019 100 10000 1.03 0 23:20 24.01.2021
3358 Clouds 17 1020 100 10000 1.54 0 22:44 24.01.2021
3359 -273 0 0 0 0 0 22:26 24.01.2021
3360 Rain 18 1020 94 10000 2.06 10 22:25 24.01.2021
3361 Rain 17 1021 100 10000 1.03 0 21:51 24.01.2021
3362 Rain 17 1020 100 10000 1.54 200 21:24 24.01.2021
3363 Rain 18 1020 88 10000 1.03 0 20:46 24.01.2021
3364 Rain 18 1020 88 10000 1.03 0 20:22 24.01.2021
3365 Rain 18 1020 94 10000 1.03 50 19:55 24.01.2021
3366 Rain 18 1020 94 10000 1.54 20 19:28 24.01.2021
3367 Rain 18 1020 94 10000 0.51 0 18:59 24.01.2021
3368 Rain 18 1020 94 10000 2.57 360 18:40 24.01.2021
3369 Rain 18 1020 94 10000 2.57 360 18:21 24.01.2021
3370 Rain 18 1019 94 10000 2.06 160 17:51 24.01.2021
3371 Rain 18 1019 94 10000 1.54 120 17:30 24.01.2021
3372 Rain 19 1013 85 10000 1.67 84 16:59 24.01.2021
3373 Rain 17 1017 94 10000 5.14 320 16:39 24.01.2021
3374 Rain 17 1017 94 10000 5.14 320 16:19 24.01.2021
3375 Rain 17 1017 94 10000 5.14 320 15:44 24.01.2021
3376 Rain 17 1017 94 10000 5.14 320 15:19 24.01.2021
3377 Rain 17 1018 94 1000 6.69 250 14:43 24.01.2021
3378 Rain 28 1015 47 10000 5.66 20 13:52 24.01.2021
3379 Rain 31 1015 40 10000 5.66 350 13:34 24.01.2021
3380 Rain 32 1016 33 10000 2.06 0 12:50 24.01.2021
3381 Rain 31 1016 37 10000 1.54 0 12:21 24.01.2021
3382 Rain 30 1017 39 10000 2.06 0 11:54 24.01.2021
3383 Rain 30 1017 39 10000 2.06 0 11:25 24.01.2021
3384 Rain 29 1018 42 10000 2.06 220 10:50 24.01.2021
3385 Rain 29 1018 45 10000 2.57 200 10:30 24.01.2021
3386 Rain 29 1018 45 10000 2.57 200 10:30 24.01.2021
3387 Clouds 27 1019 50 10000 1.54 0 09:44 24.01.2021
3388 Clouds 27 1019 47 10000 1.54 60 09:18 24.01.2021
3389 Clouds 27 1019 54 10000 1.54 0 08:31 24.01.2021
3390 Clouds 17 1019 94 10000 0.51 180 03:48 24.01.2021
3391 Clouds 18 1018 94 10000 1.03 0 02:18 24.01.2021
3392 Clouds 19 1019 88 10000 1.54 0 00:28 24.01.2021
3393 Clouds 19 1019 88 10000 0.51 0 23:59 23.01.2021
3394 Clouds 19 1019 88 10000 0.51 0 23:59 23.01.2021
3395 Clouds 19 1019 94 10000 1.03 0 23:33 23.01.2021
3396 Clouds 19 1019 94 10000 3.6 70 22:58 23.01.2021
3397 Clouds 20 1020 88 10000 3.09 50 22:40 23.01.2021
3398 Rain 20 1020 88 10000 2.57 90 21:58 23.01.2021
3399 Rain 20 1020 88 10000 4.12 110 21:23 23.01.2021
3400 Rain 21 1020 83 10000 3.09 140 20:50 23.01.2021
3401 Rain 21 1020 83 10000 3.09 140 20:29 23.01.2021
3402 Rain 21 1019 88 10000 3.09 120 19:47 23.01.2021
3403 Rain 21 1019 83 10000 5.66 110 19:25 23.01.2021
3404 Rain 22 1019 83 10000 4.63 120 18:52 23.01.2021
3405 Rain 23 1018 78 10000 5.14 110 18:28 23.01.2021
3406 Rain 23 1018 78 10000 5.14 100 17:56 23.01.2021
3407 Rain 24 1018 69 10000 6.17 100 17:28 23.01.2021
3408 Rain 25 1017 61 10000 6.17 100 16:52 23.01.2021
3409 Rain 25 1017 61 10000 4.63 90 16:32 23.01.2021
3410 Rain 27 1017 50 10000 5.66 90 15:49 23.01.2021
3411 Rain 27 1017 50 10000 5.66 90 15:27 23.01.2021
3412 Rain 30 1016 45 10000 6.17 90 14:38 23.01.2021
3413 Rain 30 1016 45 10000 6.17 90 14:19 23.01.2021
3414 Rain 29 1016 48 10000 6.17 90 13:40 23.01.2021
3415 Rain 29 1016 48 10000 6.17 90 13:22 23.01.2021
3416 Rain 30 1017 42 10000 4.63 110 12:42 23.01.2021
3417 Rain 30 1017 45 10000 5.66 120 12:22 23.01.2021
3418 Rain 29 1018 48 10000 5.66 100 11:35 23.01.2021
3419 Clouds 28 1018 54 10000 5.66 90 10:54 23.01.2021
3420 Clouds 28 1018 51 10000 5.14 70 10:23 23.01.2021
3421 Clouds 29 1019 45 10000 5.14 130 09:51 23.01.2021
3422 Clouds 28 1019 47 10000 6.69 100 09:24 23.01.2021
3423 Clouds 27 1019 54 10000 4.12 150 08:39 23.01.2021
3424 Clouds 27 1020 54 10000 5.14 150 07:48 23.01.2021
3425 Clouds 24 1021 69 10000 4.63 140 06:48 23.01.2021
3426 Clouds 19 1019 94 10000 1.54 80 01:44 23.01.2021
3427 Clouds 20 1019 88 10000 2.57 60 00:23 23.01.2021
3428 Clouds 20 1020 94 10000 2.06 60 23:35 22.01.2021
3429 Clouds 20 1020 94 10000 2.06 70 22:41 22.01.2021
3430 Clouds 21 1021 88 10000 2.06 60 21:56 22.01.2021
3431 Clouds 22 1021 83 10000 2.06 50 21:37 22.01.2021
3432 Rain 22 1021 83 10000 2.06 50 21:19 22.01.2021
3433 Rain 22 1021 88 10000 3.09 80 20:44 22.01.2021
3434 Rain 22 1021 88 10000 3.6 100 20:25 22.01.2021
3435 Rain 21 1020 83 10000 2.06 60 19:37 22.01.2021
3436 Rain 21 1020 83 10000 2.06 60 19:18 22.01.2021
3437 Rain 21 1020 83 10000 2.06 70 18:41 22.01.2021
3438 Rain 21 1019 88 10000 2.57 310 18:23 22.01.2021
3439 Rain 22 1019 78 10000 2.06 70 17:44 22.01.2021
3440 Rain 23 1018 73 10000 1.54 0 17:24 22.01.2021
3441 Rain 23 1018 73 10000 2.06 90 16:44 22.01.2021
3442 Rain 25 1019 65 10000 3.6 40 16:23 22.01.2021
3443 Rain 26 1018 61 10000 5.14 10 15:30 22.01.2021
3444 Rain 27 1017 57 10000 3.09 30 14:59 22.01.2021
3445 Rain 27 1017 54 10000 4.12 40 14:31 22.01.2021
3446 Rain 28 1018 51 10000 5.14 20 13:50 22.01.2021
3447 Rain 30 1017 45 10000 5.14 120 13:31 22.01.2021
3448 Rain 29 1018 48 10000 5.14 120 12:48 22.01.2021
3449 Rain 30 1018 42 10000 4.12 100 12:22 22.01.2021
3450 Rain 30 1019 45 10000 4.63 80 11:46 22.01.2021
3451 Clouds 28 1019 54 10000 5.14 80 10:55 22.01.2021
3452 Clouds 29 1019 51 10000 5.14 110 10:35 22.01.2021
3453 Clouds 27 1019 54 10000 4.63 100 09:58 22.01.2021
3454 Clouds 28 1020 54 10000 4.12 100 09:29 22.01.2021
3455 Clouds 27 1020 57 10000 3.6 90 08:50 22.01.2021
3456 Clouds 25 1020 65 10000 3.09 80 08:25 22.01.2021
3457 Clouds 24 1021 73 10000 3.09 130 07:31 22.01.2021
3458 Clouds 19 1019 94 10000 1.54 110 03:21 22.01.2021
3459 Clouds 20 1018 94 10000 1.54 90 00:39 22.01.2021
3460 Clouds 20 1018 94 10000 2.06 90 23:51 21.01.2021
3461 Clouds 20 1019 94 10000 1.03 80 23:29 21.01.2021
3462 Clouds 20 1019 94 10000 0.55 100 22:50 21.01.2021
3463 Clouds 20 1019 94 10000 0.51 320 22:24 21.01.2021
3464 Clouds 20 1020 94 10000 0.51 0 21:43 21.01.2021
3465 Clouds 20 1020 94 10000 0.51 0 21:43 21.01.2021
3466 Clouds 20 1020 100 10000 2.06 210 21:20 21.01.2021
3467 Clouds 21 1020 94 10000 0.51 0 20:48 21.01.2021
3468 Clouds 21 1020 94 10000 0.51 0 20:29 21.01.2021
3469 Clouds 21 1020 94 10000 0.75 42 19:52 21.01.2021
3470 Clouds 21 1020 94 10000 1.03 360 19:30 21.01.2021
3471 Clouds 21 1019 94 10000 1.54 120 18:57 21.01.2021
3472 Clouds 21 1019 94 10000 1.03 40 18:38 21.01.2021
3473 Rain 21 1019 94 10000 1.03 40 18:19 21.01.2021
3474 Rain 21 1019 94 10000 2.03 46 17:42 21.01.2021
3475 Rain 21 1018 94 8000 2.06 10 17:19 21.01.2021
3476 Rain 21 1018 94 5000 6.69 80 16:46 21.01.2021
3477 Rain 25 1017 65 10000 3.6 350 16:24 21.01.2021
3478 Rain 26 1016 61 10000 3.09 10 15:59 21.01.2021
3479 Rain 27 1016 57 10000 3.6 10 15:33 21.01.2021
3480 Rain 27 1016 57 10000 3.6 30 14:52 21.01.2021
3481 Rain 27 1016 57 10000 4.63 20 14:34 21.01.2021
3482 Rain 28 1016 54 10000 4.63 10 13:48 21.01.2021
3483 Rain 27 1016 57 10000 4.63 30 13:27 21.01.2021
3484 Rain 28 1016 51 10000 6.69 40 12:55 21.01.2021
3485 Rain 27 1016 57 10000 7.2 40 12:37 21.01.2021
3486 Clouds 27 1016 57 10000 7.2 40 12:18 21.01.2021
3487 Clouds 27 1016 54 10000 7.2 60 11:43 21.01.2021
3488 Clouds 27 1017 57 10000 6.69 60 11:22 21.01.2021
3489 Clouds 27 1017 57 10000 6.17 40 10:43 21.01.2021
3490 Clouds 26 1017 61 10000 7.2 60 10:24 21.01.2021
3491 Clouds 26 1018 61 10000 6.17 80 09:40 21.01.2021
3492 Clouds 26 1018 61 10000 6.17 80 09:20 21.01.2021
3493 Clouds 25 1018 65 10000 7.2 70 08:35 21.01.2021
3494 Clouds 24 1018 69 10000 7.2 80 07:48 21.01.2021
3495 Clouds 23 1018 78 10000 6.69 90 07:26 21.01.2021
3496 Clouds 21 1018 88 10000 3.6 60 06:31 21.01.2021
3497 Clouds 20 1017 88 10000 4.63 110 04:56 21.01.2021
3498 Clouds 20 1016 88 10000 3.09 130 02:19 21.01.2021
3499 Clouds 20 1015 94 10000 5.14 100 00:42 21.01.2021
3500 Clouds 20 1016 94 10000 6.69 100 23:50 20.01.2021
3501 Drizzle 20 1016 94 10000 4.63 100 23:26 20.01.2021
3502 Clouds 20 1017 94 10000 5.14 110 22:53 20.01.2021
3503 Clouds 20 1017 94 10000 3.6 100 22:30 20.01.2021
3504 Clouds 20 1017 94 10000 2.57 130 21:54 20.01.2021
3505 Rain 20 1017 94 9000 6.69 100 21:23 20.01.2021
3506 Clouds 21 1017 83 10000 5.14 100 20:52 20.01.2021
3507 Clouds 21 1017 83 10000 5.14 100 20:52 20.01.2021
3508 Clouds 21 1017 83 10000 5.66 100 20:24 20.01.2021
3509 Clouds 20 1017 88 10000 5.14 100 19:49 20.01.2021
3510 Rain 20 1017 94 7000 3.6 140 19:31 20.01.2021
3511 Rain 20 1017 94 7000 3.6 140 19:31 20.01.2021
3512 Rain 20 1016 94 8000 2.57 150 18:49 20.01.2021
3513 Rain 21 1016 88 7000 3.6 150 18:30 20.01.2021
3514 Clouds 21 1016 88 10000 3.6 130 17:52 20.01.2021
3515 Clouds 21 1016 83 10000 3.6 130 17:34 20.01.2021
3516 Clouds 21 1016 94 10000 3.09 150 16:51 20.01.2021
3517 Rain 21 1015 94 10000 2.57 140 16:23 20.01.2021
3518 Rain 21 1015 88 8000 4.12 170 15:45 20.01.2021
3519 Rain 22 1015 83 10000 5.14 130 15:19 20.01.2021
3520 Rain 23 1015 78 10000 6.17 130 14:41 20.01.2021
3521 Clouds 23 1014 78 10000 7.72 140 14:20 20.01.2021
3522 Clouds 24 1014 78 10000 7.72 120 13:40 20.01.2021
3523 Rain 25 1015 73 8000 6.17 130 12:57 20.01.2021
3524 Clouds 23 1015 83 10000 6.17 130 12:24 20.01.2021
3525 Rain 23 1015 83 10000 7.72 160 11:42 20.01.2021
3526 Rain 23 1016 83 10000 5.66 140 11:21 20.01.2021
3527 Rain 22 1016 88 10000 5.66 110 10:50 20.01.2021
3528 Rain 22 1016 88 10000 5.66 110 10:50 20.01.2021
3529 Rain 21 1016 88 8000 4.63 120 10:27 20.01.2021
3530 Rain 21 1016 88 8000 4.63 120 10:27 20.01.2021
3531 Rain 20 1015 94 10000 7.72 170 09:39 20.01.2021
3532 Rain 20 1015 94 10000 7.72 170 09:19 20.01.2021
3533 Rain 20 1016 88 10000 6.17 150 08:44 20.01.2021
3534 Rain 19 1015 94 8000 6.17 190 08:23 20.01.2021
3535 Rain 19 1017 94 8000 3.6 140 07:53 20.01.2021
3536 Rain 19 1017 94 8000 4.12 170 07:24 20.01.2021
3537 Rain 20 1015 88 7000 5.14 160 04:44 20.01.2021
3538 Clouds 20 1015 88 10000 3.09 150 02:57 20.01.2021
3539 Clouds 19 1011 91 10000 3.63 130 00:58 20.01.2021
3540 Clouds 20 1015 83 10000 5.66 170 23:57 19.01.2021
3541 Clouds 20 1015 83 10000 5.66 170 23:38 19.01.2021
3542 Clouds 20 1014 83 10000 6.69 170 22:59 19.01.2021
3543 Rain 20 1015 88 10000 6.17 170 22:40 19.01.2021
3544 Rain 20 1015 88 10000 6.17 170 22:21 19.01.2021
3545 Rain 20 1015 88 10000 3.6 170 21:55 19.01.2021
3546 Clouds 20 1016 94 10000 2.57 140 21:35 19.01.2021
3547 Rain 20 1017 94 7000 2.57 160 20:50 19.01.2021
3548 Rain 20 1017 94 7000 2.57 140 20:30 19.01.2021
3549 Rain 21 1016 83 7000 4.12 140 19:56 19.01.2021
3550 Rain 21 1016 83 7000 3.6 140 19:37 19.01.2021
3551 Rain 21 1016 83 7000 3.6 140 19:18 19.01.2021
3552 Clouds 23 1015 68 10000 4.63 150 18:39 19.01.2021
3553 Clouds 23 1015 68 10000 4.63 150 18:20 19.01.2021
3554 Clouds 23 1015 68 10000 4.63 150 18:20 19.01.2021
3555 Clouds 23 1015 68 10000 4.63 150 17:42 19.01.2021
3556 Clouds 24 1015 64 10000 6.17 130 17:20 19.01.2021
3557 Clouds 26 1014 57 10000 5.66 140 16:40 19.01.2021
3558 Rain 26 1014 57 10000 5.66 140 16:20 19.01.2021
3559 Rain 28 1014 47 10000 5.66 140 15:50 19.01.2021
3560 Rain 28 1013 44 10000 6.17 140 15:30 19.01.2021
3561 Rain 29 1012 42 10000 6.17 140 14:44 19.01.2021
3562 Clouds 29 1012 42 10000 6.17 140 14:26 19.01.2021
3563 Clouds 29 1013 39 10000 5.14 170 13:49 19.01.2021
3564 Clouds 30 1013 35 10000 4.12 150 13:23 19.01.2021
3565 Clouds 30 1013 35 10000 5.66 160 12:51 19.01.2021
3566 Clouds 30 1014 35 10000 4.63 160 12:30 19.01.2021
3567 Clouds 30 1014 32 10000 6.17 130 11:52 19.01.2021
3568 Clouds 30 1014 30 10000 5.66 110 11:29 19.01.2021
3569 Clouds 30 1013 30 10000 6.17 130 10:53 19.01.2021
3570 Clouds 29 1013 30 10000 6.17 160 10:33 19.01.2021
3571 Clouds 28 1014 32 10000 5.66 140 09:59 19.01.2021
3572 Clouds 28 1014 32 10000 5.66 140 09:41 19.01.2021
3573 Clouds 29 1014 30 10000 6.69 130 09:19 19.01.2021
3574 Clouds 27 1015 41 10000 5.14 140 08:31 19.01.2021
3575 Clouds 27 1015 44 10000 6.17 140 07:51 19.01.2021
3576 Clouds 24 1015 57 10000 6.17 140 06:55 19.01.2021
3577 Clouds 18 1014 94 10000 2.57 130 03:20 19.01.2021
3578 Clouds 19 1014 88 10000 2.57 170 02:21 19.01.2021
3579 Clouds 20 1015 88 10000 2.57 140 00:18 19.01.2021
3580 Clouds 20 1015 88 10000 1.54 170 23:37 18.01.2021
3581 Clouds 20 1015 88 10000 1.54 170 23:18 18.01.2021
3582 Clouds 20 1015 88 10000 1.54 0 22:40 18.01.2021
3583 Clouds 21 1016 83 10000 2.06 150 22:19 18.01.2021
3584 Clouds 21 1016 83 10000 2.06 150 21:40 18.01.2021
3585 Clouds 21 1016 83 10000 2.57 130 21:22 18.01.2021
3586 Clouds 22 1016 78 10000 3.6 140 20:45 18.01.2021
3587 Clouds 22 1016 78 10000 3.6 140 20:27 18.01.2021
3588 Clouds 22 1016 78 10000 2.57 150 19:51 18.01.2021
3589 Clouds 22 1016 78 10000 3.6 130 19:33 18.01.2021
3590 Rain 23 1015 78 10000 6.69 110 18:48 18.01.2021
3591 Rain 23 1015 78 10000 6.17 90 18:24 18.01.2021
3592 Rain 24 1014 78 10000 7.2 100 17:46 18.01.2021
3593 Rain 26 1013 65 10000 5.66 120 17:25 18.01.2021
3594 Rain 25 1013 65 10000 1.03 0 16:48 18.01.2021
3595 Clouds 25 1012 61 10000 5.66 240 16:23 18.01.2021
3596 Clouds 27 1012 57 10000 4.63 210 15:49 18.01.2021
3597 Clouds 29 1012 48 10000 4.12 200 15:27 18.01.2021
3598 Clouds 32 1011 35 10000 2.57 220 14:46 18.01.2021
3599 Clouds 33 1011 33 10000 3.09 220 14:28 18.01.2021
3600 Clouds 32 1012 35 10000 2.57 0 13:56 18.01.2021
3601 Clouds 32 1012 35 10000 2.06 0 13:36 18.01.2021
3602 Clouds 32 1012 35 10000 2.06 0 13:18 18.01.2021
3603 Clouds 31 1013 37 10000 3.6 310 12:41 18.01.2021
3604 Clouds 31 1013 37 10000 3.6 240 12:18 18.01.2021
3605 Clouds 31 1013 42 10000 2.06 0 11:40 18.01.2021
3606 Clouds 30 1013 42 10000 2.57 0 11:21 18.01.2021
3607 Clouds 30 1013 42 10000 2.57 0 11:21 18.01.2021
3608 Clouds 30 1014 39 10000 3.09 230 10:46 18.01.2021
3609 Clouds 29 1014 45 10000 2.06 0 09:51 18.01.2021
3610 Clouds 28 1015 44 10000 3.6 220 09:32 18.01.2021
3611 Clouds 28 1015 44 10000 1.54 150 08:56 18.01.2021
3612 Clouds 27 1016 54 10000 2.06 210 08:25 18.01.2021
3613 Clouds 25 1016 61 10000 4.12 100 07:38 18.01.2021
3614 Clouds 23 1017 73 10000 3.6 120 05:49 18.01.2021
3615 Clouds 21 1017 83 10000 2.57 140 04:40 18.01.2021
3616 Clouds 20 1016 88 10000 2.57 90 04:18 18.01.2021
3617 Clouds 20 1015 88 10000 3.6 100 03:43 18.01.2021
3618 Clouds 21 1015 88 10000 2.06 150 03:20 18.01.2021
3619 Clouds 20 1015 94 10000 2.06 100 02:40 18.01.2021
3620 Clouds 21 1015 88 10000 2.06 170 01:39 18.01.2021
3621 Clouds 21 1015 88 10000 1.54 180 00:35 18.01.2021
3622 Clouds 21 1015 88 10000 2.06 140 23:49 17.01.2021
3623 Clouds 22 1016 83 10000 3.09 140 23:22 17.01.2021
3624 Clouds 21 1016 88 10000 2.57 150 22:46 17.01.2021
3625 Clouds 21 1016 94 10000 2.06 280 22:22 17.01.2021
3626 Clouds 21 1016 94 10000 2.06 320 21:42 17.01.2021
3627 Clouds 21 1017 88 10000 2.06 20 21:24 17.01.2021
3628 Clouds 21 1017 94 10000 1.54 0 20:49 17.01.2021
3629 Clouds 22 1017 83 10000 3.09 310 20:30 17.01.2021
3630 Clouds 22 1017 83 10000 1.54 0 19:43 17.01.2021
3631 Clouds 22 1016 83 10000 3.6 330 19:25 17.01.2021
3632 Clouds 22 1016 83 10000 3.6 330 19:25 17.01.2021
3633 Clouds 22 1016 83 10000 3.6 330 18:49 17.01.2021
3634 Clouds 25 1015 69 10000 5.66 350 18:27 17.01.2021
3635 Clouds 27 1015 57 10000 2.06 260 17:49 17.01.2021
3636 Clouds 27 1014 47 10000 2.57 350 17:28 17.01.2021
3637 Clouds 29 1014 37 10000 0.51 0 16:44 17.01.2021
3638 Clouds 30 1013 32 10000 2.57 310 16:24 17.01.2021
3639 Clouds 32 1013 29 10000 2.06 280 15:44 17.01.2021
3640 Clouds 32 1013 31 10000 2.57 290 15:25 17.01.2021
3641 Clouds 32 1013 31 10000 2.57 0 14:53 17.01.2021
3642 Clouds 32 1013 31 10000 2.06 280 14:27 17.01.2021
3643 Clouds 31 1013 35 10000 3.6 230 13:58 17.01.2021
3644 Clouds 32 1014 33 10000 2.57 280 13:36 17.01.2021
3645 Clouds 32 1014 33 10000 2.57 280 13:18 17.01.2021
3646 Clouds 31 1014 37 10000 2.06 0 12:37 17.01.2021
3647 Clouds 31 1014 37 10000 2.06 0 12:18 17.01.2021
3648 Clouds 31 1015 37 10000 3.09 0 11:25 17.01.2021
3649 Clouds 30 1015 37 10000 3.09 0 10:50 17.01.2021
3650 Clouds 29 1015 42 10000 2.06 0 10:24 17.01.2021
3651 Clouds 29 1015 45 10000 1.54 0 09:46 17.01.2021
3652 Clouds 27 1016 54 10000 3.6 80 08:48 17.01.2021
3653 Clouds 26 1017 61 10000 2.06 0 07:51 17.01.2021
3654 Clouds 18 1017 94 10000 2.06 300 04:29 17.01.2021
3655 Clouds 19 1015 88 10000 4.12 110 02:49 17.01.2021
3656 Clouds 20 1016 88 10000 2.57 120 00:54 17.01.2021
3657 Clouds 20 1016 88 10000 2.57 120 00:20 17.01.2021
3658 Clouds 20 1016 88 10000 2.57 90 23:52 16.01.2021
3659 Clouds 21 1016 88 10000 2.57 100 23:20 16.01.2021
3660 Clouds 21 1017 88 10000 3.6 110 22:49 16.01.2021
3661 Clouds 21 1018 88 10000 3.09 90 21:59 16.01.2021
3662 Clouds 21 1018 88 10000 2.57 100 21:40 16.01.2021
3663 Clouds 21 1017 88 10000 5.14 80 21:20 16.01.2021
3664 Clouds 21 1017 88 10000 5.14 80 20:45 16.01.2021
3665 Clouds 22 1017 83 10000 5.14 90 20:22 16.01.2021
3666 Clouds 22 1018 83 10000 3.6 100 19:48 16.01.2021
3667 Clouds 22 1017 83 10000 4.63 110 19:29 16.01.2021
3668 Clouds 23 1017 78 10000 3.6 90 18:43 16.01.2021
3669 Rain 22 1016 78 10000 1.03 0 18:25 16.01.2021
3670 Rain 23 1016 73 10000 2.06 0 17:48 16.01.2021
3671 Rain 24 1015 78 10000 3.09 100 17:29 16.01.2021
3672 Rain 23 1014 78 10000 0.51 0 16:47 16.01.2021
3673 Rain 24 1014 73 10000 1.54 270 16:27 16.01.2021
3674 Rain 24 1014 73 10000 2.57 240 15:54 16.01.2021
3675 Rain 26 1013 61 10000 1.54 0 15:22 16.01.2021
3676 Rain 30 1013 45 10000 3.09 60 14:25 16.01.2021
3677 Rain 31 1012 45 10000 3.09 30 13:49 16.01.2021
3678 Rain 30 1013 45 10000 3.09 50 13:25 16.01.2021
3679 Rain 29 1014 48 10000 3.6 30 12:46 16.01.2021
3680 Clouds 29 1014 45 10000 2.06 0 12:20 16.01.2021
3681 Clouds 30 1015 45 10000 2.57 120 11:48 16.01.2021
3682 Clouds 30 1015 45 10000 2.06 0 11:25 16.01.2021
3683 Clouds 29 1015 48 10000 2.57 0 10:47 16.01.2021
3684 Clouds 28 1016 54 10000 2.06 0 10:22 16.01.2021
3685 Clouds 28 1017 54 10000 1.54 0 09:36 16.01.2021
3686 Clouds 27 1017 57 10000 2.57 60 08:47 16.01.2021
3687 Clouds 25 1018 61 10000 2.57 60 07:48 16.01.2021
3688 Clouds 24 1018 64 10000 2.06 60 06:43 16.01.2021
3689 Clouds 19 1017 94 10000 2.57 60 04:39 16.01.2021
3690 Clouds 20 1016 88 10000 1.54 0 02:56 16.01.2021
3691 Rain 19 1015 94 10000 2.57 100 00:50 16.01.2021
3692 Rain 19 1015 94 10000 2.57 100 00:28 16.01.2021
3693 Rain 20 1016 88 10000 3.09 60 23:58 15.01.2021
3694 Rain 20 1017 88 10000 2.57 100 23:21 15.01.2021
3695 Rain 21 1017 83 10000 4.63 110 22:25 15.01.2021
3696 Rain 21 1017 83 10000 3.6 140 21:46 15.01.2021
3697 Rain 22 1018 83 10000 3.09 150 20:59 15.01.2021
3698 Rain 22 1018 83 10000 3.09 150 20:40 15.01.2021
3699 Rain 22 1018 83 10000 3.6 120 20:22 15.01.2021
3700 Rain 22 1018 83 10000 3.6 120 19:41 15.01.2021
3701 Rain 22 1018 83 10000 3.6 120 19:41 15.01.2021
3702 Rain 22 1017 83 10000 4.12 120 19:22 15.01.2021
3703 Rain 23 1017 78 10000 3.6 140 18:43 15.01.2021
3704 Rain 23 1016 78 10000 4.12 120 18:19 15.01.2021
3705 Rain 24 1016 73 10000 1.54 0 17:51 15.01.2021
3706 Rain 24 1016 73 10000 1.54 0 17:25 15.01.2021
3707 Rain 24 1016 69 10000 1.54 0 16:52 15.01.2021
3708 Rain 24 1015 69 10000 1.03 0 16:25 15.01.2021
3709 Rain 24 1015 69 10000 2.57 270 15:42 15.01.2021
3710 Rain 27 1014 57 10000 4.12 100 15:22 15.01.2021
3711 Rain 27 1014 61 10000 1.54 60 14:51 15.01.2021
3712 Rain 27 1014 57 10000 2.57 330 14:27 15.01.2021
3713 Rain 27 1014 57 10000 3.6 330 13:44 15.01.2021
3714 Rain 29 1014 48 10000 3.6 110 13:24 15.01.2021
3715 Rain 29 1014 45 10000 3.09 90 12:59 15.01.2021
3716 Rain 30 1014 48 10000 3.6 70 12:36 15.01.2021
3717 Rain 30 1014 48 10000 3.6 70 12:18 15.01.2021
3718 Rain 29 1015 51 10000 2.57 0 11:41 15.01.2021
3719 Clouds 29 1016 51 10000 3.6 60 10:58 15.01.2021
3720 Clouds 28 1016 57 10000 2.57 30 10:39 15.01.2021
3721 Clouds 28 1016 57 10000 2.57 30 10:19 15.01.2021
3722 Clouds 28 1016 57 10000 2.57 40 09:45 15.01.2021
3723 Clouds 28 1016 51 10000 2.57 0 09:27 15.01.2021
3724 Clouds 26 1016 61 10000 2.57 20 08:27 15.01.2021
3725 Clouds 26 1016 61 10000 2.57 80 07:41 15.01.2021
3726 Clouds 24 1016 69 10000 2.57 100 07:20 15.01.2021
3727 Clouds 20 1016 88 10000 1.03 0 05:36 15.01.2021
3728 Clouds 18 1016 94 10000 1.03 0 02:19 15.01.2021
3729 Rain 19 1017 88 10000 2.06 20 23:55 14.01.2021
3730 Rain 19 1018 88 10000 3.6 330 23:29 14.01.2021
3731 Rain 19 1018 82 10000 3.09 320 22:50 14.01.2021
3732 Rain 19 1018 94 10000 3.6 360 22:26 14.01.2021
3733 Rain 19 1018 94 10000 2.06 10 21:50 14.01.2021
3734 Rain 19 1018 94 10000 2.06 10 21:21 14.01.2021
3735 Rain 19 1019 94 5000 4.12 320 20:53 14.01.2021
3736 Rain 19 1018 94 5000 3.6 180 20:33 14.01.2021
3737 Rain 20 1018 94 5000 4.63 90 19:49 14.01.2021
3738 Rain 22 1016 83 10000 4.63 80 19:30 14.01.2021
3739 Rain 22 1016 83 10000 3.6 110 18:56 14.01.2021
3740 Rain 22 1016 88 10000 2.57 100 18:32 14.01.2021
3741 Rain 22 1015 83 10000 1.03 0 17:54 14.01.2021
3742 Rain 23 1015 83 10000 2.57 80 17:28 14.01.2021
3743 Rain 24 1015 78 10000 2.57 60 16:50 14.01.2021
3744 Rain 26 1015 61 10000 3.09 50 16:26 14.01.2021
3745 Rain 26 1015 61 8000 4.63 90 15:49 14.01.2021
3746 Rain 27 1014 57 8000 2.57 0 15:25 14.01.2021
3747 Rain 27 1013 61 10000 6.17 300 14:41 14.01.2021
3748 Clouds 29 1013 45 10000 4.63 270 14:21 14.01.2021
3749 Clouds 31 1013 40 10000 3.6 280 13:54 14.01.2021
3750 Clouds 31 1014 40 10000 3.09 0 13:23 14.01.2021
3751 Clouds 31 1014 35 10000 3.09 210 12:56 14.01.2021
3752 Clouds 31 1015 35 10000 2.06 0 12:21 14.01.2021
3753 Clouds 31 1015 37 10000 3.09 200 11:53 14.01.2021
3754 Clouds 30 1016 39 10000 3.09 210 11:25 14.01.2021
3755 Clouds 30 1016 39 10000 2.06 0 10:57 14.01.2021
3756 Clouds 29 1016 42 10000 3.6 210 10:38 14.01.2021
3757 Clouds 29 1016 42 10000 3.6 210 10:18 14.01.2021
3758 Clouds 29 1016 42 10000 4.12 210 09:42 14.01.2021
3759 Clouds 28 1017 47 10000 1.54 0 09:20 14.01.2021
3760 Clouds 26 1018 57 10000 4.12 230 08:30 14.01.2021
3761 Clouds 25 1018 65 10000 3.09 260 07:53 14.01.2021
3762 Clouds 24 1018 73 10000 2.06 0 07:30 14.01.2021
3763 Clouds 22 1018 78 10000 2.06 270 06:30 14.01.2021
3764 Clouds 20 1017 94 10000 1.03 0 04:24 14.01.2021
3765 Clouds 20 1017 88 10000 1.54 0 23:57 13.01.2021
3766 Clouds 20 1017 88 10000 3.6 360 23:24 13.01.2021
3767 Clouds 21 1017 88 10000 2.57 340 22:43 13.01.2021
3768 Clouds 21 1017 88 10000 1.03 0 22:20 13.01.2021
3769 Clouds 21 1018 83 10000 1.54 0 21:42 13.01.2021
3770 Clouds 21 1018 83 10000 1.54 0 21:19 13.01.2021
3771 Clouds 21 1017 83 10000 1.54 120 20:43 13.01.2021
3772 Clouds 21 1018 83 10000 2.06 60 20:21 13.01.2021
3773 Clouds 23 1018 73 10000 3.09 70 19:46 13.01.2021
3774 Rain 24 1018 64 10000 1.54 10 19:23 13.01.2021
3775 Rain 24 1017 64 10000 2.06 350 18:44 13.01.2021
3776 Rain 24 1017 64 10000 2.57 300 18:22 13.01.2021
3777 Rain 25 1016 61 10000 2.57 190 17:41 13.01.2021
3778 Rain 25 1016 57 10000 1.54 0 17:18 13.01.2021
3779 Rain 26 1015 47 10000 3.6 260 16:36 13.01.2021
3780 Rain 26 1015 47 10000 3.6 260 16:18 13.01.2021
3781 Rain 26 1015 47 10000 4.12 230 15:40 13.01.2021
3782 Rain 27 1015 44 10000 3.6 280 14:59 13.01.2021
3783 Clouds 27 1015 44 10000 4.12 280 14:27 13.01.2021
3784 Clouds 30 1015 35 10000 4.12 280 13:38 13.01.2021
3785 Clouds 30 1015 35 10000 4.12 280 13:19 13.01.2021
3786 Clouds 31 1015 33 10000 2.06 0 12:44 13.01.2021
3787 Clouds 31 1015 33 10000 2.57 200 12:22 13.01.2021
3788 Clouds 31 1016 33 10000 4.12 200 11:49 13.01.2021
3789 Clouds 31 1016 30 10000 3.6 210 11:31 13.01.2021
3790 Clouds 30 1017 32 10000 3.09 220 10:48 13.01.2021
3791 Clouds 30 1017 35 10000 3.09 0 10:26 13.01.2021
3792 Clouds 29 1018 42 10000 2.57 200 09:40 13.01.2021
3793 Clouds 28 1018 51 10000 3.09 0 08:58 13.01.2021
3794 Clouds 27 1018 54 10000 3.09 280 08:34 13.01.2021
3795 Clouds 26 1018 61 10000 3.6 240 07:57 13.01.2021
3796 Clouds 25 1018 65 10000 3.6 290 07:27 13.01.2021
3797 Clouds 20 1018 88 10000 0.51 0 05:27 13.01.2021
3798 Clouds 19 1018 94 10000 2.06 260 04:18 13.01.2021
3799 Clouds 19 1018 94 10000 1.54 270 03:41 13.01.2021
3800 Clouds 19 1017 94 10000 1.54 0 03:19 13.01.2021
3801 Rain 20 1018 83 10000 0.17 197 00:44 13.01.2021
3802 Clouds 20 1018 83 10000 3.09 100 23:37 12.01.2021
3803 Rain 20 1019 83 10000 2.57 130 22:47 12.01.2021
3804 Rain 20 1019 83 10000 2.57 130 22:26 12.01.2021
3805 Rain 20 1019 83 10000 3.09 150 21:58 12.01.2021
3806 Rain 20 1019 83 10000 3.09 150 21:40 12.01.2021
3807 Rain 20 1019 88 10000 2.06 130 21:20 12.01.2021
3808 Rain 20 1019 88 10000 2.06 130 20:44 12.01.2021
3809 Rain 21 1019 83 10000 1.03 0 20:25 12.01.2021
3810 Rain 22 1019 73 10000 0.51 0 19:39 12.01.2021
3811 Rain 22 1019 73 10000 2.06 280 18:54 12.01.2021
3812 Rain 21 1018 78 10000 2.57 300 18:25 12.01.2021
3813 Rain 22 1018 68 10000 2.57 260 17:57 12.01.2021
3814 Rain 22 1017 68 10000 3.6 310 17:33 12.01.2021
3815 Rain 23 1017 60 10000 3.09 270 16:45 12.01.2021
3816 Clouds 25 1016 57 10000 4.12 260 16:27 12.01.2021
3817 Clouds 29 1016 28 10000 3.6 290 15:50 12.01.2021
3818 Clouds 31 1015 25 10000 3.09 250 15:27 12.01.2021
3819 Clouds 32 1015 25 10000 2.06 250 14:50 12.01.2021
3820 Clouds 31 1015 27 10000 3.09 230 14:30 12.01.2021
3821 Clouds 31 1015 27 10000 2.57 270 13:56 12.01.2021
3822 Clouds 32 1015 25 10000 3.6 0 13:37 12.01.2021
3823 Clouds 31 1016 27 10000 2.06 180 12:38 12.01.2021
3824 Clouds 31 1017 25 10000 2.57 240 11:45 12.01.2021
3825 Clouds 31 1017 25 10000 2.57 240 11:45 12.01.2021
3826 Clouds 30 1017 25 10000 2.06 0 11:27 12.01.2021
3827 Clouds 30 1017 25 10000 2.57 170 10:44 12.01.2021
3828 Clouds 29 1017 24 10000 2.57 30 10:20 12.01.2021
3829 Clouds 28 1018 30 10000 2.57 0 09:52 12.01.2021
3830 Clouds 29 1018 26 10000 1.54 0 09:23 12.01.2021
3831 Clouds 27 1019 39 10000 1.54 150 08:27 12.01.2021
3832 Clouds 26 1019 44 10000 2.06 160 07:52 12.01.2021
3833 Clouds 25 1019 50 10000 3.09 180 07:32 12.01.2021
3834 Clouds 22 1019 68 10000 1.03 0 05:45 12.01.2021
3835 Clouds 16 1018 94 10000 1.54 30 03:46 12.01.2021
3836 Clouds 16 1018 94 10000 2.06 40 03:22 12.01.2021
3837 Clouds 17 1017 94 10000 2.57 80 01:51 12.01.2021
3838 Clouds 17 1017 94 10000 2.57 90 00:33 12.01.2021
3839 Clouds 18 1018 88 10000 2.06 60 23:41 11.01.2021
3840 Clouds 18 1018 88 10000 2.57 70 23:19 11.01.2021
3841 Clouds 18 1018 94 10000 2.57 70 22:45 11.01.2021
3842 Clouds 19 1019 88 10000 2.06 70 22:27 11.01.2021
3843 Clouds 19 1019 88 10000 2.06 80 21:46 11.01.2021
3844 Rain 20 1019 83 10000 2.06 60 21:25 11.01.2021
3845 Rain 20 1019 88 10000 3.09 60 20:58 11.01.2021
3846 Rain 21 1019 83 10000 5.14 110 20:37 11.01.2021
3847 Rain 21 1019 83 10000 5.14 110 20:19 11.01.2021
3848 Rain 21 1019 83 10000 3.6 120 19:42 11.01.2021
3849 Rain 22 1018 78 10000 4.63 120 19:21 11.01.2021
3850 Rain 22 1018 73 10000 4.12 130 18:42 11.01.2021
3851 Rain 23 1018 68 10000 5.14 120 18:23 11.01.2021
3852 Rain 24 1017 60 10000 5.66 110 17:42 11.01.2021
3853 Rain 24 1016 60 10000 3.09 130 17:24 11.01.2021
3854 Rain 24 1016 64 10000 1.54 70 16:48 11.01.2021
3855 Clouds 25 1015 61 10000 2.57 60 16:29 11.01.2021
3856 Clouds 26 1015 53 10000 3.09 40 15:54 11.01.2021
3857 Clouds 26 1014 53 10000 3.09 20 15:34 11.01.2021
3858 Clouds 26 1014 53 10000 5.66 350 14:51 11.01.2021
3859 Clouds 27 1014 50 10000 3.09 0 14:32 11.01.2021
3860 Clouds 29 1014 42 10000 3.09 100 13:45 11.01.2021
3861 Clouds 30 1014 39 10000 2.06 0 13:22 11.01.2021
3862 Clouds 30 1015 39 10000 1.54 0 12:42 11.01.2021
3863 Clouds 30 1015 37 10000 3.09 190 12:24 11.01.2021
3864 Clouds 29 1015 39 10000 3.09 330 11:45 11.01.2021
3865 Clouds 28 1016 47 10000 2.57 0 10:58 11.01.2021
3866 Clouds 28 1017 47 10000 2.06 0 10:38 11.01.2021
3867 Clouds 28 1017 44 10000 2.06 0 09:54 11.01.2021
3868 Clouds 27 1017 50 10000 2.06 0 09:36 11.01.2021
3869 Clouds 26 1017 53 10000 2.06 90 08:52 11.01.2021
3870 Clouds 26 1018 53 10000 1.54 0 08:33 11.01.2021
3871 Clouds 25 1018 57 10000 2.06 0 07:45 11.01.2021
3872 Clouds 24 1018 60 10000 2.57 140 07:25 11.01.2021
3873 Clouds 23 1018 64 10000 2.57 160 06:49 11.01.2021
3874 Clouds 17 1016 94 10000 1.54 50 02:30 11.01.2021
3875 Clouds 18 1016 88 10000 2.06 160 00:41 11.01.2021
3876 Clouds 19 1017 82 10000 2.06 150 23:48 10.01.2021
3877 Clouds 19 1017 88 10000 2.57 140 22:57 10.01.2021
3878 Clouds 20 1018 83 10000 2.57 70 22:38 10.01.2021
3879 Clouds 20 1018 83 10000 2.57 70 22:18 10.01.2021
3880 Clouds 20 1018 83 10000 2.57 120 21:40 10.01.2021
3881 Clouds 20 1018 83 10000 2.57 120 21:18 10.01.2021
3882 Clouds 20 1018 83 10000 3.6 130 20:44 10.01.2021
3883 Clouds 20 1018 88 10000 3.09 80 20:26 10.01.2021
3884 Clouds 20 1018 88 10000 3.09 80 20:26 10.01.2021
3885 Clouds 20 1017 83 10000 3.6 90 19:38 10.01.2021
3886 Clouds 20 1017 83 10000 3.6 90 19:20 10.01.2021
3887 Clouds 21 1016 78 10000 4.12 130 18:44 10.01.2021
3888 Clouds 22 1016 73 10000 5.66 120 18:20 10.01.2021
3889 Clouds 23 1015 60 10000 6.17 120 17:26 10.01.2021
3890 Clouds 24 1014 57 10000 5.14 130 16:49 10.01.2021
3891 Clouds 25 1014 53 10000 5.14 120 16:28 10.01.2021
3892 Clouds 28 1013 36 10000 4.63 90 15:40 10.01.2021
3893 Clouds 28 1013 36 10000 4.63 90 15:21 10.01.2021
3894 Clouds 29 1012 37 10000 4.12 110 14:40 10.01.2021
3895 Clouds 29 1012 37 10000 4.12 110 14:22 10.01.2021
3896 Clouds 30 1012 37 10000 4.63 100 13:42 10.01.2021
3897 Clouds 30 1012 37 10000 3.6 110 13:24 10.01.2021
3898 Clouds 30 1013 39 10000 2.57 130 12:51 10.01.2021
3899 Clouds 29 1013 39 10000 2.06 0 12:33 10.01.2021
3900 Clouds 29 1014 39 10000 1.54 0 11:55 10.01.2021
3901 Clouds 29 1014 42 10000 1.54 0 11:20 10.01.2021
3902 Clouds 29 1014 42 10000 1.54 0 10:51 10.01.2021
3903 Clouds 28 1014 42 10000 2.06 0 10:22 10.01.2021
3904 Clouds 27 1015 50 10000 2.06 0 09:39 10.01.2021
3905 Clouds 25 1015 57 10000 2.57 200 08:26 10.01.2021
3906 Clouds 24 1016 60 10000 2.57 190 07:38 10.01.2021
3907 Clouds 22 1016 68 10000 2.06 110 06:21 10.01.2021
3908 Clouds 21 1015 73 10000 3.09 80 05:42 10.01.2021
3909 Clouds 18 1015 88 10000 2.57 70 03:57 10.01.2021
3910 Clouds 19 1014 88 10000 3.6 60 01:30 10.01.2021
3911 Clouds 19 1014 88 10000 3.6 60 01:30 10.01.2021
3912 Clouds 19 1015 88 10000 3.09 40 23:59 09.01.2021
3913 Clouds 19 1015 88 10000 3.09 40 23:41 09.01.2021
3914 Clouds 19 1015 88 10000 3.09 80 22:57 09.01.2021
3915 Clouds 19 1015 88 10000 3.09 80 22:19 09.01.2021
3916 Clouds 19 1015 94 10000 3.09 80 21:58 09.01.2021
3917 Clouds 19 1016 88 10000 2.57 80 21:39 09.01.2021
3918 Clouds 19 1016 88 10000 2.57 80 21:20 09.01.2021
3919 Clouds 19 1016 94 10000 1.03 0 20:46 09.01.2021
3920 Clouds 19 1016 94 10000 1.03 0 20:27 09.01.2021
3921 Clouds 19 1015 94 10000 2.06 200 19:39 09.01.2021
3922 Rain 19 1015 94 10000 2.06 200 19:19 09.01.2021
3923 Rain 19 1015 94 10000 2.06 200 18:36 09.01.2021
3924 Rain 20 1015 88 10000 3.09 220 17:51 09.01.2021
3925 Rain 20 1014 88 10000 2.06 220 17:32 09.01.2021
3926 Rain 20 1014 88 10000 1.03 0 16:55 09.01.2021
3927 Rain 20 1013 88 10000 4.12 170 16:22 09.01.2021
3928 Rain 20 1013 88 10000 4.12 190 15:41 09.01.2021
3929 Rain 21 1013 83 10000 3.09 270 14:56 09.01.2021
3930 Rain 21 1012 83 10000 3.09 320 14:36 09.01.2021
3931 Rain 21 1012 83 10000 3.09 320 14:18 09.01.2021
3932 Rain 21 1012 88 10000 4.63 320 13:43 09.01.2021
3933 Rain 22 1012 78 10000 1.03 0 13:24 09.01.2021
3934 Rain 20 1013 88 4500 3.6 80 12:28 09.01.2021
3935 Rain 22 1013 78 3500 9.26 60 11:58 09.01.2021
3936 Rain 30 1012 45 6000 6.17 80 11:37 09.01.2021
3937 Rain 30 1012 45 10000 3.6 310 10:57 09.01.2021
3938 Rain 30 1013 42 10000 1.54 0 10:38 09.01.2021
3939 Rain 30 1013 42 10000 1.54 0 10:19 09.01.2021
3940 Rain 29 1013 45 10000 2.06 40 09:43 09.01.2021
3941 Clouds 29 1014 48 10000 1.54 0 09:19 09.01.2021
3942 Clouds 25 1014 61 10000 2.06 0 07:48 09.01.2021
3943 Clouds 25 1014 65 10000 2.57 60 06:42 09.01.2021
3944 Clouds 24 1014 64 10000 3.09 60 06:23 09.01.2021
3945 Rain 19 1014 88 10000 1.03 0 03:49 09.01.2021
3946 Rain 20 1013 83 10000 2.06 170 02:40 09.01.2021
3947 Rain 20 1013 83 10000 2.06 170 02:22 09.01.2021
3948 Rain 20 1013 83 10000 2.57 150 00:49 09.01.2021
3949 Rain 20 1013 88 10000 3.09 100 00:23 09.01.2021
3950 Rain 20 1014 88 10000 3.6 100 23:38 08.01.2021
3951 Rain 21 1015 83 10000 3.6 100 22:38 08.01.2021
3952 Rain 21 1015 83 10000 4.12 90 21:47 08.01.2021
3953 Rain 21 1015 83 10000 5.14 70 20:58 08.01.2021
3954 Rain 21 1015 83 10000 4.63 80 20:33 08.01.2021
3955 Rain 22 1015 78 10000 5.14 80 19:57 08.01.2021
3956 Rain 22 1015 83 10000 5.14 100 19:24 08.01.2021
3957 Rain 22 1014 83 10000 5.14 90 18:50 08.01.2021
3958 Rain 23 1014 78 10000 6.69 90 18:30 08.01.2021
3959 Rain 23 1013 78 10000 5.14 100 17:50 08.01.2021
3960 Rain 24 1013 69 10000 5.66 100 17:22 08.01.2021
3961 Rain 26 1012 61 10000 6.17 110 16:44 08.01.2021
3962 Rain 29 1011 37 10000 3.09 100 15:44 08.01.2021
3963 Rain 31 1011 30 10000 1.54 0 15:18 08.01.2021
3964 Rain 31 1011 30 10000 3.09 240 14:36 08.01.2021
3965 Rain 31 1011 30 10000 2.06 0 13:47 08.01.2021
3966 Clouds 31 1011 30 10000 3.09 200 13:18 08.01.2021
3967 Clouds 31 1012 29 10000 1.54 0 12:49 08.01.2021
3968 Clouds 31 1012 27 10000 2.57 0 12:20 08.01.2021
3969 Clouds 30 1013 32 10000 2.57 0 11:45 08.01.2021
3970 Clouds 29 1013 34 10000 2.06 0 11:27 08.01.2021
3971 Clouds 29 1013 39 10000 2.06 0 10:52 08.01.2021
3972 Clouds 29 1013 45 10000 4.63 180 10:32 08.01.2021
3973 Clouds 28 1014 42 10000 1.54 0 09:45 08.01.2021
3974 Clouds 27 1014 47 10000 2.57 230 09:27 08.01.2021
3975 Clouds 26 1015 53 10000 1.03 0 08:33 08.01.2021
3976 Clouds 23 1015 60 10000 2.06 0 07:26 08.01.2021
3977 Clouds 20 1016 77 10000 1.54 90 05:51 08.01.2021
3978 Clouds 19 1015 88 10000 2.06 80 23:47 07.01.2021
3979 Clouds 19 1016 88 10000 3.09 100 23:29 07.01.2021
3980 Clouds 19 1016 88 10000 3.09 100 22:46 07.01.2021
3981 Clouds 20 1016 83 10000 3.09 100 22:25 07.01.2021
3982 Clouds 20 1016 83 10000 5.66 110 21:44 07.01.2021
3983 Rain 21 1016 83 10000 3.6 100 21:26 07.01.2021
3984 Rain 21 1017 83 10000 3.09 100 20:47 07.01.2021
3985 Rain 21 1017 83 10000 3.09 100 20:47 07.01.2021
3986 Rain 21 1016 83 10000 2.57 90 20:28 07.01.2021
3987 Rain 21 1016 83 10000 3.6 90 19:44 07.01.2021
3988 Rain 21 1016 83 10000 4.12 110 19:21 07.01.2021
3989 Clouds 23 1016 68 10000 5.66 110 18:30 07.01.2021
3990 Clouds 24 1015 64 10000 5.14 100 17:47 07.01.2021
3991 Clouds 25 1015 57 10000 5.66 100 17:27 07.01.2021
3992 Clouds 26 1014 47 10000 4.12 100 16:53 07.01.2021
3993 Clouds 26 1014 47 10000 4.12 100 16:53 07.01.2021
3994 Clouds 27 1014 44 10000 5.66 100 16:27 07.01.2021
3995 Clouds 28 1013 39 10000 4.63 80 15:40 07.01.2021
3996 Clouds 30 1013 37 10000 3.09 70 14:55 07.01.2021
3997 Clouds 30 1013 35 10000 2.06 130 14:27 07.01.2021
3998 Clouds 31 1013 33 10000 1.54 0 13:43 07.01.2021
3999 Clouds 31 1013 30 10000 2.06 0 13:18 07.01.2021
4000 Clouds 31 1014 33 10000 2.06 0 12:42 07.01.2021
4001 Clouds 29 1015 35 10000 2.6 60 11:54 07.01.2021
4002 Clouds 30 1015 35 10000 2.1 0 11:35 07.01.2021
4003 Clouds 29 1016 37 10000 1.5 0 10:50 07.01.2021
4004 Clouds 28 1016 37 10000 3.1 70 10:20 07.01.2021
4005 Clouds 28 1016 39 10000 1.5 0 09:46 07.01.2021
4006 Clouds 27 1017 42 10000 1.5 0 09:18 07.01.2021
4007 Clouds 26 1017 39 10000 1.5 0 08:27 07.01.2021
4008 Clouds 24 1018 57 10000 2.1 80 07:46 07.01.2021
4009 Clouds 24 1018 57 10000 2.6 0 07:22 07.01.2021
4010 Clouds 17 1018 88 10000 1 0 04:30 07.01.2021
4011 Clouds 19 1017 88 10000 3.1 80 00:29 07.01.2021
4012 Clouds 19 1018 88 10000 4.1 90 23:38 06.01.2021
4013 Clouds 20 1019 88 10000 4.1 80 22:37 06.01.2021
4014 Clouds 21 1019 83 10000 3.6 100 21:44 06.01.2021
4015 Rain 21 1019 83 10000 3.6 100 21:23 06.01.2021
4016 Rain 20 1019 88 10000 4.1 100 20:51 06.01.2021
4017 Rain 21 1019 83 10000 4.1 90 20:24 06.01.2021
4018 Rain 21 1019 83 10000 4.1 100 19:49 06.01.2021
4019 Rain 21 1019 83 10000 3.6 120 19:29 06.01.2021
4020 Rain 21 1019 83 10000 4.6 110 18:55 06.01.2021
4021 Rain 22 1018 78 10000 4.6 100 18:36 06.01.2021
4022 Rain 22 1018 78 10000 4.6 100 18:18 06.01.2021
4023 Rain 23 1018 73 10000 5.7 110 17:41 06.01.2021
4024 Rain 24 1017 69 10000 5.1 110 17:21 06.01.2021
4025 Rain 26 1016 50 10000 1.5 0 16:39 06.01.2021
4026 Rain 26 1016 50 10000 1.5 0 16:18 06.01.2021
4027 Rain 26 1016 50 10000 2.1 240 15:49 06.01.2021
4028 Rain 27 1015 39 10000 2.1 240 15:24 06.01.2021
4029 Rain 30 1015 27 10000 2.1 0 14:42 06.01.2021
4030 Rain 30 1015 27 10000 2.1 0 14:19 06.01.2021
4031 Rain 30 1015 30 10000 2.1 0 13:40 06.01.2021
4032 Rain 30 1015 30 10000 2.1 0 13:18 06.01.2021
4033 Rain 30 1016 28 10000 3.1 210 12:45 06.01.2021
4034 Rain 28 1016 48 10000 3.1 210 11:50 06.01.2021
4035 Clouds 27 1017 51 10000 3.1 190 11:24 06.01.2021
4036 Clouds 26 1017 57 10000 2.6 0 10:46 06.01.2021
4037 Clouds 25 1018 61 10000 2.1 170 09:53 06.01.2021
4038 Clouds 24 1018 64 10000 2.1 220 09:34 06.01.2021
4039 Clouds 22 1019 68 10000 2.1 120 08:55 06.01.2021
4040 Clouds 23 1019 64 10000 1.5 0 08:21 06.01.2021
4041 Clouds 22 1019 73 10000 2.1 70 07:53 06.01.2021
4042 Clouds 20 1019 77 10000 1.5 0 06:44 06.01.2021
4043 Clouds 19 1019 82 10000 2.6 50 05:30 06.01.2021
4044 Clouds 18 1018 93 10000 2.6 70 04:18 06.01.2021
4045 Clouds 18 1018 88 10000 3.6 60 02:43 06.01.2021
4046 Clouds 18 1018 88 10000 3.1 70 02:21 06.01.2021
4047 Clouds 18 1017 93 10000 3.1 80 23:51 05.01.2021
4048 Clouds 19 1018 88 10000 3.6 90 22:57 05.01.2021
4049 Clouds 19 1018 88 10000 3.6 90 22:38 05.01.2021
4050 Clouds 19 1018 88 10000 3.6 90 22:19 05.01.2021
4051 Clouds 19 1018 93 10000 3.6 90 21:27 05.01.2021
4052 Clouds 19 1019 93 10000 2.1 220 20:31 05.01.2021
4053 Clouds 19 1019 93 10000 2.61 99 19:57 05.01.2021
4054 Clouds 19 1019 93 10000 2.61 99 19:38 05.01.2021
4055 Clouds 19 1019 93 10000 2.95 101 19:18 05.01.2021
4056 Thunderstorm 19 1019 93 8000 1 350 18:42 05.01.2021
4057 Rain 19 1019 93 8000 1 350 18:18 05.01.2021
4058 Rain 20 1018 82 10000 6.2 350 17:40 05.01.2021
4059 Rain 20 1018 82 10000 6.2 350 17:20 05.01.2021
4060 Rain 26 1015 54 10000 2.6 240 16:39 05.01.2021
4061 Rain 26 1015 54 10000 2.6 240 16:20 05.01.2021
4062 Rain 26 1015 54 10000 2.6 240 15:49 05.01.2021
4063 Rain 27 1014 51 10000 5.1 260 14:49 05.01.2021
4064 Clouds 28 1014 42 10000 2.6 240 14:19 05.01.2021
4065 Clouds 29 1014 42 10000 1.5 250 13:44 05.01.2021
4066 Clouds 29 1014 42 10000 1.5 250 13:44 05.01.2021
4067 Clouds 28 1015 45 10000 1.5 190 13:20 05.01.2021
4068 Clouds 28 1015 45 10000 2.1 190 12:46 05.01.2021
4069 Clouds 28 1015 45 10000 1 0 12:21 05.01.2021
4070 -273 0 0 0 0 0 11:36 05.01.2021
4071 -273 0 0 0 0 0 11:36 05.01.2021
4072 Clouds 29 1016 42 10000 2.6 0 11:34 05.01.2021
4073 -273 0 0 0 0 0 11:34 05.01.2021
4074 -273 0 0 0 0 0 11:34 05.01.2021
4075 Clouds 27 1016 47 10000 2.1 40 10:46 05.01.2021
4076 Clouds 28 1017 48 10000 2.6 310 10:25 05.01.2021
4077 Clouds 27 1017 51 10000 3.1 0 09:48 05.01.2021
4078 Clouds 27 1017 54 10000 3.1 0 09:27 05.01.2021
4079 Clouds 25 1018 57 10000 1.5 0 08:23 05.01.2021
4080 Clouds 22 1019 64 10000 2.1 20 06:46 05.01.2021
4081 Clouds 16 1018 87 10000 2.1 50 03:48 05.01.2021
4082 Clouds 16 1017 93 10000 2.6 70 00:45 05.01.2021
4083 Clouds 16 1017 93 10000 1.5 70 23:44 04.01.2021
4084 Clouds 17 1018 88 10000 2.1 90 23:24 04.01.2021
4085 Clouds 17 1018 88 10000 2.1 90 22:49 04.01.2021
4086 Clouds 18 1018 88 10000 3.1 90 22:27 04.01.2021
4087 Clouds 18 1018 88 10000 3.6 120 21:45 04.01.2021
4088 Clouds 18 1018 88 10000 3.6 120 21:25 04.01.2021
4089 Clouds 19 1019 82 10000 2.1 120 20:43 04.01.2021
4090 Clouds 19 1019 82 10000 2.6 140 20:22 04.01.2021
4091 Thunderstorm 20 1018 72 10000 3.6 140 19:48 04.01.2021
4092 Thunderstorm 20 1018 72 10000 3.6 140 19:24 04.01.2021
4093 Thunderstorm 20 1018 68 10000 5.1 110 18:48 04.01.2021
4094 Thunderstorm 21 1018 60 10000 3.6 120 18:19 04.01.2021
4095 Clouds 22 1017 56 10000 5.7 100 17:41 04.01.2021
4096 Clouds 22 1017 56 10000 5.7 100 17:22 04.01.2021
4097 Clouds 23 1017 53 10000 5.7 90 16:45 04.01.2021
4098 Clouds 24 1016 50 10000 6.2 90 16:26 04.01.2021
4099 Clouds 25 1016 44 10000 5.7 110 15:49 04.01.2021
4100 Clouds 26 1015 41 10000 4.6 100 15:25 04.01.2021
4101 Clouds 28 1015 39 10000 4.1 110 14:21 04.01.2021
4102 Clouds 28 1015 37 10000 3.6 90 13:43 04.01.2021
4103 Clouds 28 1015 34 10000 2.6 110 13:20 04.01.2021
4104 Clouds 27 1016 36 10000 2.6 0 12:32 04.01.2021
4105 Clouds 27 1016 36 10000 3.1 120 11:53 04.01.2021
4106 Clouds 27 1016 39 10000 3.1 140 11:20 04.01.2021
4107 Clouds 26 1016 44 10000 3.6 150 10:46 04.01.2021
4108 Clouds 26 1017 47 10000 3.6 160 10:23 04.01.2021
4109 Clouds 25 1017 50 10000 4.6 110 09:48 04.01.2021
4110 Clouds 24 1017 53 10000 3.6 130 09:18 04.01.2021
4111 Clouds 23 1018 56 10000 4.6 150 08:41 04.01.2021
4112 Clouds 22 1018 60 10000 3.6 150 07:48 04.01.2021
4113 Clouds 20 1019 68 10000 4.1 150 06:56 04.01.2021
4114 Clouds 18 1019 68 10000 3.6 140 05:21 04.01.2021
4115 Clouds 17 1017 82 10000 3.1 150 02:31 04.01.2021
4116 Clouds 17 1017 88 10000 4.6 110 00:29 04.01.2021
4117 Clouds 17 1018 88 10000 4.6 120 23:38 03.01.2021
4118 Clouds 18 1018 82 10000 3.6 120 22:59 03.01.2021
4119 Clouds 18 1018 82 10000 4.1 110 22:41 03.01.2021
4120 Clouds 18 1018 82 10000 4.1 110 22:22 03.01.2021
4121 Clouds 18 1019 82 10000 3.1 140 21:45 03.01.2021
4122 Thunderstorm 18 1019 82 10000 4.1 130 21:24 03.01.2021
4123 Thunderstorm 18 1019 82 10000 3.1 150 20:42 03.01.2021
4124 Thunderstorm 18 1019 82 10000 2.6 140 20:20 03.01.2021
4125 Clouds 18 1019 82 10000 2.6 140 19:47 03.01.2021
4126 Clouds 18 1019 82 10000 3.6 100 19:28 03.01.2021
4127 Clouds 18 1019 82 10000 3.1 90 18:50 03.01.2021
4128 Clouds 18 1019 82 10000 4.1 90 18:30 03.01.2021
4129 Clouds 19 1019 77 10000 4.1 90 17:53 03.01.2021
4130 Clouds 20 1018 72 10000 6.7 100 17:27 03.01.2021
4131 Clouds 21 1018 73 10000 4.6 90 16:56 03.01.2021
4132 Clouds 22 1017 64 10000 6.2 100 16:37 03.01.2021
4133 Clouds 22 1017 64 10000 6.2 100 16:18 03.01.2021
4134 Clouds 22 1017 64 10000 6.2 100 16:18 03.01.2021
4135 Clouds 24 1017 60 10000 7.2 120 15:40 03.01.2021
4136 Clouds 25 1016 57 10000 6.7 120 14:59 03.01.2021
4137 Clouds 26 1016 54 10000 6.7 100 14:40 03.01.2021
4138 Rain 25 1017 57 10000 6.2 120 13:54 03.01.2021
4139 Clouds 25 1017 57 10000 4.6 140 13:25 03.01.2021
4140 Clouds 25 1017 61 10000 5.7 150 12:55 03.01.2021
4141 Clouds 24 1018 64 10000 6.2 150 11:44 03.01.2021
4142 Clouds 26 1018 54 10000 5.1 130 11:26 03.01.2021
4143 Clouds 26 1018 54 10000 5.7 130 10:56 03.01.2021
4144 Clouds 25 1019 57 10000 4.6 130 10:31 03.01.2021
4145 Clouds 24 1019 57 10000 4.1 150 09:42 03.01.2021
4146 Clouds 23 1019 60 10000 5.1 140 09:23 03.01.2021
4147 Clouds 22 1020 64 10000 4.6 140 07:58 03.01.2021
4148 Clouds 19 1021 77 10000 4.6 130 05:59 03.01.2021
4149 Clouds 16 1019 87 10000 2.6 140 02:29 03.01.2021
4150 Clouds 17 1019 82 10000 3.1 130 01:48 03.01.2021
4151 Clouds 17 1019 88 10000 2.1 140 00:24 03.01.2021
4152 Clouds 18 1019 82 10000 4.6 130 23:30 02.01.2021
4153 Clouds 18 1020 82 10000 5.1 110 22:58 02.01.2021
4154 Clouds 18 1020 88 10000 4.1 110 22:33 02.01.2021
4155 Clouds 19 1020 82 10000 2.6 140 21:52 02.01.2021
4156 Clouds 19 1020 82 10000 3.6 140 21:32 02.01.2021
4157 Clouds 20 1021 82 10000 4.6 140 20:56 02.01.2021
4158 Clouds 19 1021 88 10000 3.1 120 20:38 02.01.2021
4159 Clouds 19 1021 88 10000 3.1 120 20:19 02.01.2021
4160 Clouds 20 1021 82 10000 4.6 130 19:21 02.01.2021
4161 Clouds 20 1020 77 10000 3.6 140 18:58 02.01.2021
4162 Thunderstorm 20 1020 82 10000 5.1 130 18:40 02.01.2021
4163 Thunderstorm 20 1020 82 10000 5.1 130 18:40 02.01.2021
4164 Thunderstorm 20 1020 82 10000 5.1 130 18:20 02.01.2021
4165 Thunderstorm 21 1019 77 10000 5.7 110 17:45 02.01.2021
4166 Rain 23 1019 69 10000 6.7 100 16:59 02.01.2021
4167 Rain 24 1019 60 10000 5.7 110 16:23 02.01.2021
4168 Rain 25 1018 53 10000 5.7 100 15:54 02.01.2021
4169 Rain 26 1018 50 10000 5.7 110 15:33 02.01.2021
4170 Rain 27 1018 51 10000 4.1 110 14:58 02.01.2021
4171 Rain 27 1018 47 10000 3.6 120 14:36 02.01.2021
4172 Clouds 27 1018 51 10000 4.6 110 13:51 02.01.2021
4173 Clouds 27 1018 47 10000 4.6 120 13:22 02.01.2021
4174 Clouds 27 1018 47 10000 4.6 90 12:48 02.01.2021
4175 Clouds 28 1018 48 10000 4.6 130 12:28 02.01.2021
4176 Clouds 27 1019 51 10000 5.1 100 11:44 02.01.2021
4177 Clouds 27 1019 51 10000 4.6 110 11:21 02.01.2021
4178 Clouds 27 1019 54 10000 4.6 100 10:42 02.01.2021
4179 Clouds 27 1019 51 10000 3.6 120 10:24 02.01.2021
4180 Clouds 26 1020 50 10000 4.1 110 09:43 02.01.2021
4181 Clouds 26 1020 50 10000 4.1 110 09:43 02.01.2021
4182 Clouds 26 1020 54 10000 4.1 120 09:22 02.01.2021
4183 Clouds 25 1020 53 10000 4.6 120 08:49 02.01.2021
4184 Clouds 24 1021 57 10000 4.1 0 08:21 02.01.2021
4185 Clouds 23 1021 56 10000 4.1 120 07:43 02.01.2021
4186 Clouds 22 1021 60 10000 4.1 130 07:19 02.01.2021
4187 Clouds 20 1022 72 10000 5.1 120 06:25 02.01.2021
4188 Clouds 18 1021 82 10000 4.6 100 04:27 02.01.2021
4189 Clouds 18 1020 88 10000 2.1 150 00:54 02.01.2021
4190 Clouds 18 1020 88 10000 3.6 150 00:35 02.01.2021
4191 Clouds 18 1020 88 10000 2.6 150 23:44 01.01.2021
4192 Clouds 18 1020 88 10000 2.6 150 23:20 01.01.2021
4193 Clouds 19 1020 82 10000 3.1 140 22:47 01.01.2021
4194 Clouds 19 1020 82 10000 2.6 140 22:22 01.01.2021
4195 Clouds 18 1021 88 10000 4.1 130 21:43 01.01.2021
4196 Clouds 18 1021 88 10000 4.1 130 21:21 01.01.2021
4197 Clouds 18 1021 88 10000 5.1 110 20:52 01.01.2021
4198 Clouds 19 1021 82 10000 5.7 110 20:20 01.01.2021
4199 Clouds 19 1021 82 10000 3.1 130 19:43 01.01.2021
4200 Clouds 19 1021 82 10000 3.1 130 19:23 01.01.2021
4201 Clouds 20 1021 82 10000 4.1 120 18:52 01.01.2021
4202 Clouds 20 1020 77 10000 6.2 100 18:34 01.01.2021
4203 Clouds 21 1020 73 10000 4.1 130 17:59 01.01.2021
4204 Clouds 21 1019 73 10000 6.2 110 17:41 01.01.2021
4205 Rain 21 1019 73 10000 6.2 110 17:18 01.01.2021
4206 Rain 23 1018 64 10000 6.2 120 16:37 01.01.2021
4207 Rain 24 1018 57 10000 4.1 110 15:45 01.01.2021
4208 Rain 26 1018 54 10000 6.7 110 14:56 01.01.2021
4209 Rain 27 1018 51 10000 4.6 120 14:37 01.01.2021
4210 Rain 27 1018 47 10000 3.1 130 13:46 01.01.2021
4211 Rain 27 1018 44 10000 3.6 0 13:25 01.01.2021
4212 Rain 26 1018 50 10000 4.1 120 12:39 01.01.2021
4213 Clouds 26 1018 50 10000 4.1 120 12:18 01.01.2021
4214 Clouds 26 1019 54 10000 5.7 110 11:39 01.01.2021
4215 Clouds 26 1019 54 10000 5.7 110 11:18 01.01.2021
4216 Clouds 24 1019 57 10000 5.1 130 10:35 01.01.2021
4217 Clouds 24 1019 60 10000 5.1 130 09:47 01.01.2021
4218 Clouds 23 1020 60 10000 5.1 140 09:20 01.01.2021
4219 Clouds 22 1020 64 10000 5.7 140 08:29 01.01.2021
4220 Clouds 17 1021 77 10000 3.1 140 04:53 01.01.2021
4221 Clouds 16 1020 87 10000 2.6 170 02:44 01.01.2021
4222 Clouds 17 1020 88 10000 3.1 160 01:35 01.01.2021
4223 Clouds 17 1020 88 10000 3.6 140 00:28 01.01.2021
4224 Clouds 17 1020 88 10000 3.6 140 23:36 31.12.2020
4225 Clouds 17 1020 88 10000 3.6 140 23:18 31.12.2020
4226 Clouds 17 1021 93 10000 4.1 150 22:38 31.12.2020
4227 Clouds 17 1021 93 10000 4.1 150 22:19 31.12.2020
4228 Clouds 17 1021 93 10000 4.1 150 21:47 31.12.2020
4229 Clouds 17 1021 93 10000 4.1 130 21:24 31.12.2020
4230 Clouds 18 1021 82 10000 4.6 100 20:49 31.12.2020
4231 Clouds 19 1022 77 10000 5.7 100 20:18 31.12.2020
4232 Clouds 19 1021 77 10000 4.6 90 19:46 31.12.2020
4233 Clouds 20 1021 77 10000 4.6 100 19:28 31.12.2020
4234 Clouds 20 1020 77 10000 3.6 100 18:49 31.12.2020
4235 Clouds 20 1020 77 10000 3.6 100 18:24 31.12.2020
4236 Clouds 20 1020 72 10000 5.7 100 17:44 31.12.2020
4237 Clouds 20 1020 72 10000 5.7 110 17:23 31.12.2020
4238 Clouds 22 1019 60 10000 7.2 110 16:43 31.12.2020
4239 Clouds 22 1019 60 10000 7.2 110 16:43 31.12.2020
4240 Clouds 22 1019 60 10000 7.2 110 16:43 31.12.2020
4241 Clouds 23 1019 53 10000 6.2 120 16:23 31.12.2020
4242 Clouds 24 1018 47 10000 5.7 140 15:49 31.12.2020
4243 Clouds 25 1018 41 10000 6.2 140 15:22 31.12.2020
4244 Clouds 25 1018 41 10000 6.2 140 15:22 31.12.2020
4245 Clouds 25 1018 41 10000 5.7 120 14:57 31.12.2020
4246 Clouds 26 1018 41 10000 5.7 140 14:38 31.12.2020
4247 Clouds 26 1018 41 10000 5.7 140 14:20 31.12.2020
4248 Clouds 26 1018 41 10000 5.7 150 13:39 31.12.2020
4249 Clouds 26 1018 41 10000 5.7 150 13:20 31.12.2020
4250 Clouds 26 1018 44 10000 5.1 170 12:53 31.12.2020
4251 Clouds 26 1018 44 10000 4.6 160 12:35 31.12.2020
4252 Clouds 25 1019 44 10000 5.7 140 11:52 31.12.2020
4253 Clouds 26 1019 41 10000 5.7 120 11:32 31.12.2020
4254 Clouds 25 1020 47 10000 5.1 140 10:49 31.12.2020
4255 Clouds 25 1020 44 10000 5.1 160 10:29 31.12.2020
4256 Clouds 24 1020 50 10000 4.1 160 09:57 31.12.2020
4257 Clouds 24 1020 47 10000 5.7 130 09:35 31.12.2020
4258 Clouds 23 1021 49 10000 5.1 130 08:51 31.12.2020
4259 Clouds 23 1021 46 10000 6.7 110 08:32 31.12.2020
4260 Clouds 22 1021 53 10000 5.1 130 07:59 31.12.2020
4261 Clouds 21 1021 52 10000 6.2 150 07:29 31.12.2020
4262 Clouds 18 1021 72 10000 4.1 150 05:31 31.12.2020
4263 Clouds 15 1020 82 10000 2.6 130 04:30 31.12.2020
4264 Clouds 16 1019 87 10000 3.1 160 02:45 31.12.2020
4265 Clouds 16 1019 87 10000 3.1 160 02:25 31.12.2020
4266 Clouds 16 1019 93 10000 2.6 160 01:44 31.12.2020
4267 Clouds 16 1019 93 10000 4.1 140 01:25 31.12.2020
4268 Clouds 17 1019 82 10000 2.6 150 00:46 31.12.2020
4269 Clouds 17 1020 88 10000 2.6 140 23:48 30.12.2020
4270 Clouds 17 1020 88 10000 3.6 170 23:19 30.12.2020
4271 Clouds 18 1020 82 10000 4.6 160 22:48 30.12.2020
4272 Clouds 17 1020 88 10000 3.6 140 22:30 30.12.2020
4273 Clouds 17 1020 82 10000 3.6 140 21:44 30.12.2020
4274 Clouds 17 1021 88 10000 4.6 150 21:22 30.12.2020
4275 Thunderstorm 18 1021 82 10000 5.1 170 20:50 30.12.2020
4276 Thunderstorm 18 1021 82 10000 4.1 150 20:20 30.12.2020
4277 Thunderstorm 18 1021 82 10000 4.6 140 19:41 30.12.2020
4278 Thunderstorm 18 1021 82 10000 4.6 140 19:22 30.12.2020
4279 Thunderstorm 19 1021 77 10000 2.6 140 18:46 30.12.2020
4280 Thunderstorm 19 1021 77 10000 2.6 140 18:46 30.12.2020
4281 Thunderstorm 19 1020 77 10000 4.1 150 18:28 30.12.2020
4282 Thunderstorm 20 1020 64 10000 4.1 150 17:51 30.12.2020
4283 Thunderstorm 20 1019 64 10000 4.6 140 17:32 30.12.2020
4284 Clouds 21 1019 64 10000 6.2 150 16:56 30.12.2020
4285 Clouds 23 1018 56 10000 6.7 150 16:31 30.12.2020
4286 Clouds 24 1018 57 10000 6.2 150 15:47 30.12.2020
4287 Clouds 24 1017 57 10000 6.7 150 15:24 30.12.2020
4288 Clouds 26 1017 50 10000 5.7 140 14:44 30.12.2020
4289 Clouds 26 1017 50 10000 5.7 140 14:22 30.12.2020
4290 Clouds 26 1017 47 10000 5.7 140 13:29 30.12.2020
4291 Clouds 27 1018 47 10000 7.2 110 12:29 30.12.2020
4292 Clouds 27 1018 47 10000 7.7 110 11:57 30.12.2020
4293 Clouds 26 1018 57 10000 6.2 120 11:36 30.12.2020
4294 Clouds 26 1018 57 10000 6.2 120 11:18 30.12.2020
4295 Clouds 26 1018 57 10000 6.7 140 10:40 30.12.2020
4296 Clouds 26 1018 57 10000 6.7 140 10:21 30.12.2020
4297 Clouds 25 1019 65 10000 6.2 140 09:48 30.12.2020
4298 Rain 24 1019 69 10000 6.2 150 09:23 30.12.2020
4299 Clouds 24 1019 64 10000 6.2 110 08:24 30.12.2020
4300 Clouds 23 1019 73 10000 4.1 140 07:29 30.12.2020
4301 Clouds 22 1019 73 10000 4.6 120 06:44 30.12.2020
4302 Clouds 21 1019 77 10000 4.6 120 05:52 30.12.2020
4303 Clouds 20 1019 82 10000 4.1 130 05:31 30.12.2020
4304 Clouds 19 1019 88 10000 2.6 160 04:29 30.12.2020
4305 Clouds 18 1018 93 10000 2.1 170 03:28 30.12.2020
4306 Clouds 18 1018 100 10000 2.1 180 02:38 30.12.2020
4307 Drizzle 18 1018 100 8000 2.6 160 01:50 30.12.2020
4308 Drizzle 18 1018 100 8000 2.6 160 01:31 30.12.2020
4309 Clouds 18 1018 93 10000 2.1 110 00:47 30.12.2020
4310 Clouds 19 1018 88 10000 2.6 90 00:27 30.12.2020
4311 Clouds 19 1019 82 10000 2.1 90 23:52 29.12.2020
4312 Clouds 19 1019 82 10000 2.1 90 23:34 29.12.2020
4313 Clouds 19 1019 82 10000 2.6 110 22:50 29.12.2020
4314 Clouds 19 1019 82 10000 2.6 110 22:32 29.12.2020
4315 Clouds 19 1020 82 10000 4.1 120 21:56 29.12.2020
4316 Clouds 19 1020 88 10000 2.6 80 21:38 29.12.2020
4317 Clouds 19 1020 88 10000 2.6 80 21:20 29.12.2020
4318 Clouds 20 1020 82 10000 3.6 120 20:43 29.12.2020
4319 Clouds 20 1020 82 10000 3.6 130 20:25 29.12.2020
4320 Clouds 20 1020 77 10000 3.6 140 19:45 29.12.2020
4321 Clouds 21 1019 73 10000 5.1 120 19:22 29.12.2020
4322 Clouds 20 1019 82 10000 5.1 110 18:53 29.12.2020
4323 Clouds 21 1018 73 10000 5.1 120 18:29 29.12.2020
4324 Clouds 21 1018 73 10000 3.6 130 17:47 29.12.2020
4325 Clouds 21 1018 73 10000 4.6 140 17:23 29.12.2020
4326 Clouds 22 1017 68 10000 5.7 140 16:55 29.12.2020
4327 Clouds 23 1017 69 10000 4.6 140 16:26 29.12.2020
4328 Clouds 23 1017 69 10000 5.1 140 15:46 29.12.2020
4329 Clouds 24 1016 64 10000 6.7 140 15:26 29.12.2020
4330 Clouds 24 1016 64 10000 5.1 130 14:45 29.12.2020
4331 Clouds 25 1016 61 10000 6.7 120 14:27 29.12.2020
4332 Clouds 26 1016 54 10000 7.7 110 13:55 29.12.2020
4333 Clouds 25 1016 57 10000 7.2 140 13:24 29.12.2020
4334 Clouds 27 1016 57 10000 6.7 140 12:45 29.12.2020
4335 Clouds 26 1017 57 10000 6.2 130 12:26 29.12.2020
4336 Clouds 25 1017 61 10000 7.2 130 11:58 29.12.2020
4337 Clouds 26 1017 57 10000 7.7 110 11:32 29.12.2020
4338 Clouds 25 1018 61 10000 7.2 100 10:40 29.12.2020
4339 Clouds 25 1018 61 10000 7.2 100 10:19 29.12.2020
4340 Clouds 23 1018 69 10000 8.7 110 09:39 29.12.2020
4341 Clouds 23 1018 69 10000 8.7 110 09:18 29.12.2020
4342 Clouds 23 1019 69 10000 7.2 110 08:45 29.12.2020
4343 Clouds 22 1019 73 10000 5.1 130 07:35 29.12.2020
4344 Rain 22 1018 73 10000 7.2 120 06:58 29.12.2020
4345 Clouds 20 1018 82 10000 5.1 120 05:33 29.12.2020
4346 Rain 19 1017 93 10000 2.1 160 01:36 29.12.2020
4347 Rain 19 1018 93 10000 1.5 0 00:24 29.12.2020
4348 Rain 19 1018 93 10000 1.5 0 00:24 29.12.2020
4349 Rain 19 1018 93 3500 2.6 160 23:37 28.12.2020
4350 Rain 20 1019 82 10000 1.5 0 22:41 28.12.2020
4351 Rain 20 1019 82 10000 1.5 0 21:47 28.12.2020
4352 Rain 20 1019 88 10000 2.6 130 21:29 28.12.2020
4353 Rain 19 1019 93 10000 2.1 110 20:47 28.12.2020
4354 Rain 20 1019 88 10000 2.1 120 20:29 28.12.2020
4355 Rain 20 1019 88 10000 2.1 120 19:59 28.12.2020
4356 Rain 20 1019 82 10000 2.1 130 19:40 28.12.2020
4357 Rain 20 1019 82 10000 2.1 130 19:20 28.12.2020
4358 Rain 20 1018 82 10000 4.6 120 18:44 28.12.2020
4359 Rain 20 1018 82 10000 4.6 120 18:23 28.12.2020
4360 Rain 21 1018 83 10000 3.6 100 17:39 28.12.2020
4361 Rain 21 1018 83 10000 3.6 100 17:18 28.12.2020
4362 Rain 22 1017 78 10000 4.1 120 16:32 28.12.2020
4363 Rain 22 1017 78 10000 4.6 100 15:58 28.12.2020
4364 Rain 22 1016 78 10000 5.7 80 15:36 28.12.2020
4365 Rain 23 1016 78 10000 5.7 110 14:35 28.12.2020
4366 Rain 22 1016 83 10000 5.1 100 13:49 28.12.2020
4367 Rain 21 1016 88 10000 6.2 90 13:22 28.12.2020
4368 Rain 20 1017 94 8000 7.7 80 12:29 28.12.2020
4369 Rain 25 1017 65 10000 6.2 120 11:58 28.12.2020
4370 Rain 26 1017 61 10000 5.1 80 11:38 28.12.2020
4371 Rain 26 1017 61 10000 5.1 80 11:18 28.12.2020
4372 Rain 26 1017 57 10000 5.1 80 10:29 28.12.2020
4373 Rain 24 1018 69 10000 6.2 100 09:59 28.12.2020
4374 Rain 25 1018 69 10000 5.7 100 09:38 28.12.2020
4375 Rain 25 1018 69 10000 5.7 100 09:18 28.12.2020
4376 Clouds 22 1019 83 10000 4.6 100 06:54 28.12.2020
4377 Clouds 20 1018 88 10000 3.1 80 05:25 28.12.2020
4378 Clouds 19 1017 93 10000 1.5 70 03:51 28.12.2020
4379 Rain 19 1016 93 10000 1.5 130 01:56 28.12.2020
4380 Rain 19 1016 93 10000 1 0 23:58 27.12.2020
4381 Rain 19 1016 93 10000 1 0 23:35 27.12.2020
4382 Rain 19 1017 93 10000 1.5 80 22:40 27.12.2020
4383 Rain 19 1018 93 10000 1.5 60 21:55 27.12.2020
4384 Rain 19 1018 93 10000 2.6 60 21:22 27.12.2020
4385 Rain 19 1018 93 10000 3.1 20 20:32 27.12.2020
4386 Rain 19 1018 93 10000 3.1 20 20:32 27.12.2020
4387 Rain 19 1017 93 8000 2.1 360 19:24 27.12.2020
4388 Rain 19 1017 93 10000 2.1 30 18:50 27.12.2020
4389 Rain 19 1017 93 10000 2.1 360 18:21 27.12.2020
4390 Rain 19 1017 93 10000 2.6 340 17:58 27.12.2020
4391 Rain 19 1016 93 10000 2.6 30 17:35 27.12.2020
4392 Rain 19 1016 93 10000 2.6 30 16:57 27.12.2020
4393 Rain 19 1015 93 10000 3.1 30 16:25 27.12.2020
4394 Rain 20 1014 88 10000 4.6 60 15:34 27.12.2020
4395 Rain 20 1014 94 10000 5.1 50 14:54 27.12.2020
4396 Rain 20 1014 94 8000 5.1 60 14:36 27.12.2020
4397 Rain 20 1013 88 8000 7.2 60 13:37 27.12.2020
4398 Rain 21 1013 83 10000 8.7 90 12:56 27.12.2020
4399 Rain 20 1013 88 8000 8.7 80 12:26 27.12.2020
4400 Rain 20 1013 88 4800 11.3 80 11:42 27.12.2020
4401 Rain 21 1013 88 7000 10.3 90 11:20 27.12.2020
4402 Rain 21 1013 88 7000 10.3 90 11:20 27.12.2020
4403 Rain 21 1013 88 8000 9.3 90 10:45 27.12.2020
4404 Rain 20 1013 94 7000 7.7 90 10:19 27.12.2020
4405 Rain 21 1013 83 10000 8.2 130 09:37 27.12.2020
4406 Rain 21 1014 83 10000 8.2 150 08:28 27.12.2020
4407 Rain 19 1014 100 10000 5.1 180 07:29 27.12.2020
4408 Rain 18 1015 100 7000 5.1 200 05:59 27.12.2020
4409 Rain 18 1014 100 10000 4.1 220 05:38 27.12.2020
4410 Rain 18 1014 93 8000 4.1 210 03:25 27.12.2020
4411 Rain 18 1015 93 8000 3.6 180 02:25 27.12.2020
4412 Rain 20 1014 82 10000 5.7 200 00:38 27.12.2020
4413 Rain 19 1015 88 10000 5.1 200 23:43 26.12.2020
4414 Rain 20 1015 82 10000 5.7 180 23:23 26.12.2020
4415 Rain 19 1015 88 10000 4.1 180 22:45 26.12.2020
4416 Clouds 20 1017 82 10000 4.1 150 22:19 26.12.2020
4417 Clouds 20 1017 82 10000 4.1 150 21:53 26.12.2020
4418 Clouds 20 1017 82 10000 4.1 150 21:53 26.12.2020
4419 Clouds 20 1017 82 10000 4.1 160 21:24 26.12.2020
4420 Clouds 20 1017 82 10000 5.1 150 20:44 26.12.2020
4421 Drizzle 20 1017 88 10000 3.1 170 20:22 26.12.2020
4422 Rain 22 1018 73 10000 5.1 150 19:31 26.12.2020
4423 Thunderstorm 22 1017 73 10000 5.1 160 18:57 26.12.2020
4424 Thunderstorm 22 1016 73 10000 6.7 160 18:33 26.12.2020
4425 Thunderstorm 23 1016 69 10000 4.6 150 17:47 26.12.2020
4426 Rain 23 1016 69 10000 4.1 140 17:28 26.12.2020
4427 Rain 26 1014 54 10000 6.2 140 16:38 26.12.2020
4428 Rain 26 1014 54 10000 6.2 140 15:59 26.12.2020
4429 Rain 27 1014 51 10000 5.7 150 15:20 26.12.2020
4430 Rain 28 1014 48 10000 6.2 140 14:38 26.12.2020
4431 Rain 28 1014 48 10000 6.2 140 14:19 26.12.2020
4432 Rain 29 1014 45 10000 6.2 120 13:37 26.12.2020
4433 Rain 29 1014 45 10000 6.7 110 12:57 26.12.2020
4434 Rain 29 1015 45 10000 5.1 130 12:39 26.12.2020
4435 Rain 29 1015 42 10000 5.1 170 11:59 26.12.2020
4436 Rain 29 1015 45 10000 5.1 140 11:41 26.12.2020
4437 Rain 29 1015 45 10000 5.1 140 11:20 26.12.2020
4438 Rain 29 1016 42 10000 4.6 150 10:45 26.12.2020
4439 Clouds 28 1016 45 10000 5.1 130 10:24 26.12.2020
4440 Clouds 28 1016 45 10000 5.1 170 09:47 26.12.2020
4441 Clouds 26 1017 50 10000 4.1 170 08:55 26.12.2020
4442 Clouds 26 1017 50 10000 4.1 180 08:19 26.12.2020
4443 Clouds 24 1018 57 10000 3.6 180 07:21 26.12.2020
4444 Clouds 19 1018 72 10000 3.6 160 05:37 26.12.2020
4445 Clouds 16 1016 93 10000 3.1 130 02:47 26.12.2020
4446 Clouds 18 1016 77 10000 3.1 150 00:36 26.12.2020
4447 Clouds 19 1016 77 10000 2.6 140 23:49 25.12.2020
4448 Clouds 19 1016 77 10000 3.1 150 23:28 25.12.2020
4449 Clouds 19 1017 82 10000 3.1 130 22:52 25.12.2020
4450 Clouds 19 1016 82 10000 4.1 110 22:26 25.12.2020
4451 Clouds 19 1017 82 10000 4.6 100 21:43 25.12.2020
4452 Clouds 19 1017 82 10000 3.6 120 21:25 25.12.2020
4453 Clouds 20 1017 82 10000 2.6 150 20:45 25.12.2020
4454 Clouds 20 1017 82 10000 3.1 140 20:26 25.12.2020
4455 Clouds 20 1017 82 10000 3.6 130 19:43 25.12.2020
4456 Clouds 21 1017 77 10000 5.7 130 18:47 25.12.2020
4457 Clouds 22 1016 73 10000 5.7 130 18:29 25.12.2020
4458 Clouds 24 1015 57 10000 7.7 100 17:35 25.12.2020
4459 Clouds 25 1015 50 10000 7.2 100 16:51 25.12.2020
4460 Clouds 26 1014 44 10000 7.2 110 16:24 25.12.2020
4461 Clouds 28 1013 30 10000 5.1 90 15:49 25.12.2020
4462 Clouds 29 1013 26 10000 5.7 110 15:26 25.12.2020
4463 Clouds 30 1013 28 10000 3.1 180 14:32 25.12.2020
4464 Clouds 30 1013 30 10000 4.1 130 13:49 25.12.2020
4465 Clouds 30 1013 28 10000 1.5 0 13:26 25.12.2020
4466 Clouds 31 1014 27 10000 1.5 0 12:58 25.12.2020
4467 Clouds 30 1014 28 10000 2.1 0 12:27 25.12.2020
4468 Clouds 29 1014 32 10000 3.6 240 11:47 25.12.2020
4469 Clouds 29 1014 35 10000 3.6 0 11:24 25.12.2020
4470 Clouds 29 1015 35 10000 2.6 0 10:43 25.12.2020
4471 Clouds 27 1016 39 10000 2.6 0 09:49 25.12.2020
4472 Clouds 26 1017 44 10000 2.6 0 08:53 25.12.2020
4473 Clouds 25 1017 47 10000 2.1 0 08:35 25.12.2020
4474 Clouds 22 1017 64 10000 2.1 150 06:51 25.12.2020
4475 Clouds 20 1017 72 10000 1 0 05:38 25.12.2020
4476 Clouds 16 1015 93 10000 2.1 50 02:21 25.12.2020
4477 Clouds 17 1016 93 10000 2.1 140 00:25 25.12.2020
4478 Clouds 18 1016 88 10000 2.1 130 23:31 24.12.2020
4479 Clouds 18 1016 88 10000 3.1 110 22:55 24.12.2020
4480 Clouds 19 1016 88 10000 3.1 90 22:25 24.12.2020
4481 Clouds 20 1017 82 10000 4.1 70 21:47 24.12.2020
4482 Clouds 20 1017 82 10000 3.6 90 20:59 24.12.2020
4483 Clouds 20 1017 82 10000 4.6 110 19:54 24.12.2020
4484 Rain 22 1016 73 10000 6.2 110 18:22 24.12.2020
4485 Rain 24 1015 60 10000 6.2 110 17:39 24.12.2020
4486 Clouds 24 1015 60 10000 6.2 110 17:21 24.12.2020
4487 Clouds 26 1014 47 10000 6.7 100 16:25 24.12.2020
4488 Clouds 28 1014 42 10000 4.1 130 15:49 24.12.2020
4489 Clouds 28 1013 42 10000 2.6 80 15:25 24.12.2020
4490 Clouds 29 1013 39 10000 4.1 90 14:56 24.12.2020
4491 Clouds 30 1013 35 10000 3.1 100 14:37 24.12.2020
4492 Clouds 30 1013 35 10000 3.1 100 14:18 24.12.2020
4493 Clouds 31 1014 31 10000 2.6 0 13:38 24.12.2020
4494 Clouds 31 1014 31 10000 2.6 0 13:18 24.12.2020
4495 Clouds 30 1014 30 10000 1.5 0 12:39 24.12.2020
4496 Clouds 30 1014 30 10000 1.5 0 12:18 24.12.2020
4497 Clouds 29 1015 32 10000 3.1 160 11:38 24.12.2020
4498 Clouds 29 1015 32 10000 3.1 160 11:19 24.12.2020
4499 Clouds 27 1016 42 10000 2.1 360 10:43 24.12.2020
4500 Clouds 27 1016 42 10000 2.1 360 10:18 24.12.2020
4501 Clouds 27 1016 42 10000 2.1 360 09:49 24.12.2020
4502 Clouds 25 1017 50 10000 1.5 230 08:50 24.12.2020
4503 Clouds 24 1017 53 10000 2.1 0 07:54 24.12.2020
4504 Clouds 24 1018 53 10000 2.6 130 07:35 24.12.2020
4505 Clouds 21 1018 68 10000 2.1 160 06:23 24.12.2020
4506 Clouds 16 1017 93 10000 0.5 0 03:29 24.12.2020
4507 Clouds 16 1016 93 10000 2.1 70 01:48 24.12.2020
4508 Clouds 17 1017 88 10000 3.6 100 01:19 24.12.2020
4509 Clouds 17 1017 93 10000 2.6 120 00:23 24.12.2020
4510 Clouds 17 1017 93 10000 2.1 140 23:57 23.12.2020
4511 Clouds 17 1017 93 10000 3.1 100 23:38 23.12.2020
4512 Clouds 17 1017 93 10000 3.1 100 23:19 23.12.2020
4513 Clouds 18 1018 88 10000 3.6 90 22:42 23.12.2020
4514 Clouds 18 1018 88 10000 3.1 140 22:21 23.12.2020
4515 Clouds 18 1019 88 10000 2.6 120 21:42 23.12.2020
4516 Clouds 18 1019 88 10000 2.6 120 21:21 23.12.2020
4517 Clouds 19 1019 82 10000 3.1 140 20:38 23.12.2020
4518 Clouds 19 1019 82 10000 3.1 140 20:19 23.12.2020
4519 Clouds 20 1019 77 10000 5.7 110 19:44 23.12.2020
4520 Clouds 20 1019 77 10000 5.7 110 19:23 23.12.2020
4521 Clouds 20 1018 77 10000 5.7 120 18:54 23.12.2020
4522 Clouds 21 1018 73 10000 6.7 110 18:35 23.12.2020
4523 Clouds 22 1017 68 10000 6.7 100 17:44 23.12.2020
4524 Clouds 22 1017 68 10000 6.7 100 17:22 23.12.2020
4525 Clouds 23 1017 60 10000 5.1 100 16:56 23.12.2020
4526 Clouds 24 1016 53 10000 5.1 100 16:36 23.12.2020
4527 Clouds 24 1016 53 10000 5.1 100 16:18 23.12.2020
4528 Clouds 27 1016 36 10000 4.1 140 15:39 23.12.2020
4529 Clouds 27 1016 36 10000 4.1 140 15:21 23.12.2020
4530 Clouds 27 1016 39 10000 3.1 110 14:46 23.12.2020
4531 Clouds 27 1016 39 10000 3.1 150 14:23 23.12.2020
4532 Clouds 27 1016 39 10000 3.6 100 13:46 23.12.2020
4533 Clouds 27 1016 39 10000 4.1 90 13:20 23.12.2020
4534 Clouds 27 1016 39 10000 4.1 90 13:20 23.12.2020
4535 Clouds 28 1016 42 10000 4.1 140 12:58 23.12.2020
4536 Clouds 28 1017 37 10000 3.6 140 12:37 23.12.2020
4537 Clouds 28 1017 37 10000 3.6 140 12:18 23.12.2020
4538 Clouds 28 1017 37 10000 3.1 130 11:43 23.12.2020
4539 Clouds 27 1018 42 10000 4.6 140 10:57 23.12.2020
4540 Clouds 27 1018 42 10000 5.7 100 10:39 23.12.2020
4541 Clouds 25 1019 50 10000 3.6 120 09:39 23.12.2020
4542 Clouds 25 1019 50 10000 3.6 150 08:58 23.12.2020
4543 Clouds 24 1019 53 10000 4.6 130 08:33 23.12.2020
4544 Clouds 24 1019 53 10000 5.1 120 07:51 23.12.2020
4545 Clouds 21 1020 68 10000 4.1 120 06:53 23.12.2020
4546 Clouds 21 1020 68 10000 3.1 130 06:35 23.12.2020
4547 Clouds 18 1019 82 10000 3.6 130 05:24 23.12.2020
4548 Clouds 16 1018 93 10000 1 0 01:59 23.12.2020
4549 Clouds 18 1018 82 10000 3.6 130 00:33 23.12.2020
4550 Clouds 18 1019 82 10000 3.6 120 23:45 22.12.2020
4551 Clouds 19 1019 77 10000 4.6 120 23:23 22.12.2020
4552 Clouds 19 1020 82 10000 3.6 140 22:43 22.12.2020
4553 Clouds 19 1020 82 10000 3.6 140 22:24 22.12.2020
4554 Clouds 19 1020 82 10000 3.1 150 21:52 22.12.2020
4555 Clouds 19 1020 82 10000 4.6 110 21:21 22.12.2020
4556 Clouds 19 1021 82 10000 4.1 100 20:54 22.12.2020
4557 Clouds 20 1020 77 10000 5.7 100 20:35 22.12.2020
4558 Clouds 19 1020 82 10000 5.7 110 19:56 22.12.2020
4559 Clouds 19 1020 82 10000 4.6 100 19:38 22.12.2020
4560 Clouds 19 1020 82 10000 4.6 100 19:19 22.12.2020
4561 Clouds 20 1020 77 10000 6.2 100 18:43 22.12.2020
4562 Clouds 20 1020 82 10000 6.2 110 18:24 22.12.2020
4563 Clouds 21 1019 77 10000 7.2 100 17:41 22.12.2020
4564 Rain 21 1019 77 10000 7.2 100 17:18 22.12.2020
4565 Rain 22 1019 68 10000 7.2 100 16:47 22.12.2020
4566 Rain 22 1018 73 10000 7.2 110 16:21 22.12.2020
4567 Rain 25 1018 57 10000 6.7 100 15:47 22.12.2020
4568 Rain 26 1017 50 10000 6.7 100 15:29 22.12.2020
4569 Rain 27 1017 44 10000 5.1 100 14:57 22.12.2020
4570 Rain 27 1017 44 10000 6.7 120 14:39 22.12.2020
4571 Rain 27 1017 44 10000 6.7 120 14:19 22.12.2020
4572 Rain 28 1017 45 10000 4.6 80 13:43 22.12.2020
4573 Rain 28 1017 42 10000 5.7 100 13:18 22.12.2020
4574 Rain 28 1018 42 10000 5.7 100 12:44 22.12.2020
4575 Clouds 28 1018 42 10000 5.7 100 12:26 22.12.2020
4576 Clouds 28 1018 45 10000 5.1 80 11:57 22.12.2020
4577 Clouds 28 1018 45 10000 5.1 150 11:39 22.12.2020
4578 Clouds 28 1018 45 10000 5.1 150 11:19 22.12.2020
4579 Clouds 27 1018 44 10000 4.6 100 10:47 22.12.2020
4580 Clouds 27 1019 44 10000 5.1 80 10:24 22.12.2020
4581 Clouds 26 1019 47 10000 4.1 90 09:55 22.12.2020
4582 Clouds 26 1020 50 10000 3.6 110 09:23 22.12.2020
4583 Clouds 26 1020 50 10000 3.1 0 08:51 22.12.2020
4584 Clouds 25 1020 50 10000 4.6 120 08:29 22.12.2020
4585 Clouds 24 1020 57 10000 3.6 100 07:47 22.12.2020
4586 Clouds 21 1020 68 10000 4.6 140 06:38 22.12.2020
4587 Clouds 20 1020 77 10000 3.1 160 05:41 22.12.2020
4588 Clouds 18 1019 88 10000 3.1 140 02:51 22.12.2020
4589 Clouds 18 1019 88 10000 3.1 90 00:44 22.12.2020
4590 Clouds 17 1020 93 10000 2.1 90 23:52 21.12.2020
4591 Clouds 17 1020 93 10000 2.1 90 23:29 21.12.2020
4592 Clouds 18 1021 88 10000 3.6 100 22:38 21.12.2020
4593 Clouds 18 1021 88 10000 3.6 100 22:19 21.12.2020
4594 Clouds 18 1021 93 10000 3.6 110 21:49 21.12.2020
4595 Clouds 19 1021 88 10000 5.1 100 21:30 21.12.2020
4596 Clouds 19 1021 88 10000 4.6 90 20:46 21.12.2020
4597 Rain 19 1021 88 10000 4.6 90 20:25 21.12.2020
4598 Rain 19 1021 88 10000 5.1 90 19:55 21.12.2020
4599 Rain 20 1021 88 10000 3.1 70 19:37 21.12.2020
4600 Rain 20 1021 88 10000 3.1 70 19:18 21.12.2020
4601 Rain 20 1021 88 10000 3.1 70 19:18 21.12.2020
4602 Rain 19 1021 93 10000 2.1 60 18:49 21.12.2020
4603 Rain 19 1020 93 10000 3.1 90 18:31 21.12.2020
4604 Rain 19 1019 88 8000 2.1 110 17:43 21.12.2020
4605 Rain 19 1019 88 8000 3.1 100 17:24 21.12.2020
4606 Rain 19 1019 93 8000 2.6 70 16:46 21.12.2020
4607 Rain 20 1019 82 10000 1.5 0 16:25 21.12.2020
4608 Rain 19 1018 88 10000 2.1 60 15:45 21.12.2020
4609 Rain 19 1018 82 10000 4.6 40 15:26 21.12.2020
4610 Rain 21 1017 77 4500 3.1 0 14:56 21.12.2020
4611 Rain 21 1017 77 4500 3.1 0 14:56 21.12.2020
4612 Rain 25 1016 53 10000 8.2 180 14:20 21.12.2020
4613 Rain 28 1017 42 10000 4.1 150 13:42 21.12.2020
4614 Rain 28 1017 42 10000 4.1 150 13:22 21.12.2020
4615 Rain 29 1017 42 10000 3.1 120 12:43 21.12.2020
4616 Rain 29 1017 42 10000 3.1 120 12:24 21.12.2020
4617 Rain 29 1018 42 10000 2.6 50 11:43 21.12.2020
4618 Rain 28 1018 45 10000 3.6 110 11:23 21.12.2020
4619 Rain 28 1019 45 10000 3.1 0 10:58 21.12.2020
4620 Rain 27 1019 47 10000 2.6 130 10:40 21.12.2020
4621 Clouds 27 1019 47 10000 2.6 130 10:18 21.12.2020
4622 Clouds 26 1020 54 10000 3.1 110 09:42 21.12.2020
4623 Clouds 26 1020 54 10000 3.1 110 09:24 21.12.2020
4624 Clouds 25 1020 57 10000 3.1 130 08:47 21.12.2020
4625 Clouds 23 1021 64 10000 3.1 150 07:37 21.12.2020
4626 Clouds 22 1021 73 10000 2.6 150 05:50 21.12.2020
4627 Clouds 18 1020 88 10000 2.1 120 04:31 21.12.2020
4628 Rain 19 1019 88 10000 2.1 70 00:38 21.12.2020
4629 Rain 19 1020 88 10000 2.6 90 23:52 20.12.2020
4630 Rain 19 1020 88 10000 2.6 90 23:21 20.12.2020
4631 Rain 19 1020 88 10000 3.6 80 22:55 20.12.2020
4632 Rain 20 1020 82 10000 2.1 70 22:37 20.12.2020
4633 Rain 20 1020 82 10000 2.1 70 22:37 20.12.2020
4634 Rain 20 1020 82 10000 2.1 70 22:19 20.12.2020
4635 Rain 20 1021 82 10000 2.6 90 21:38 20.12.2020
4636 Rain 20 1021 82 10000 2.6 90 21:19 20.12.2020
4637 Rain 20 1021 82 10000 4.6 90 20:45 20.12.2020
4638 Rain 20 1021 82 10000 5.1 90 20:22 20.12.2020
4639 Rain 21 1021 77 10000 4.1 90 19:44 20.12.2020
4640 Rain 21 1021 77 10000 5.1 100 19:24 20.12.2020
4641 Thunderstorm 21 1020 83 10000 3.6 120 18:54 20.12.2020
4642 Rain 21 1020 83 10000 2.6 140 18:36 20.12.2020
4643 Rain 21 1020 83 10000 2.6 140 18:36 20.12.2020
4644 Thunderstorm 21 1020 77 10000 2.6 150 17:55 20.12.2020
4645 Rain 21 1019 77 10000 4.6 160 17:36 20.12.2020
4646 Rain 21 1019 77 10000 4.6 160 17:18 20.12.2020
4647 Rain 22 1018 73 10000 8.7 110 16:43 20.12.2020
4648 Rain 24 1017 69 10000 8.2 120 16:23 20.12.2020
4649 Rain 27 1016 39 10000 3.1 140 15:40 20.12.2020
4650 Clouds 27 1016 39 10000 3.1 140 15:22 20.12.2020
4651 Rain 27 1016 39 10000 1.5 160 14:45 20.12.2020
4652 Rain 27 1016 39 10000 1.5 160 14:27 20.12.2020
4653 Clouds 28 1017 42 10000 2.6 160 13:44 20.12.2020
4654 Clouds 29 1017 42 10000 2.1 0 13:23 20.12.2020
4655 Clouds 28 1017 39 10000 2.6 60 12:51 20.12.2020
4656 Clouds 29 1017 37 10000 1.5 0 12:23 20.12.2020
4657 Clouds 28 1018 45 10000 2.6 0 11:51 20.12.2020
4658 Clouds 28 1018 48 10000 3.6 120 11:26 20.12.2020
4659 Clouds 27 1019 57 10000 2.1 0 10:49 20.12.2020
4660 Clouds 26 1019 54 10000 1.5 0 10:22 20.12.2020
4661 Clouds 25 1019 61 10000 2.1 0 09:56 20.12.2020
4662 Clouds 25 1020 61 10000 2.1 70 09:37 20.12.2020
4663 Clouds 25 1020 61 10000 2.1 70 09:18 20.12.2020
4664 Clouds 24 1020 64 10000 1.5 0 08:47 20.12.2020
4665 Clouds 23 1020 64 10000 1.5 40 08:28 20.12.2020
4666 Clouds 21 1020 77 10000 1 0 07:21 20.12.2020
4667 Clouds 18 1019 88 10000 2.6 130 03:44 20.12.2020
4668 Clouds 19 1019 88 10000 1.5 130 01:30 20.12.2020
4669 Clouds 19 1019 88 10000 2.6 130 23:58 19.12.2020
4670 Clouds 19 1019 88 10000 4.1 100 23:18 19.12.2020
4671 Clouds 19 1019 88 10000 3.1 110 22:44 19.12.2020
4672 Thunderstorm 19 1020 88 10000 2.1 130 22:25 19.12.2020
4673 Thunderstorm 18 1020 100 10000 1.5 60 21:58 19.12.2020
4674 Thunderstorm 18 1020 93 10000 2.1 50 21:38 19.12.2020
4675 Thunderstorm 18 1020 93 10000 2.1 50 21:20 19.12.2020
4676 Thunderstorm 19 1020 88 5000 4.6 80 20:37 19.12.2020
4677 Thunderstorm 19 1020 88 5000 4.6 80 20:18 19.12.2020
4678 Thunderstorm 21 1020 83 4500 1.5 0 19:46 19.12.2020
4679 Thunderstorm 21 1020 77 10000 3.1 300 19:24 19.12.2020
4680 Thunderstorm 22 1019 68 10000 2.1 290 18:34 19.12.2020
4681 Rain 21 1018 73 10000 3.1 300 17:58 19.12.2020
4682 Rain 22 1018 64 10000 2.1 290 17:37 19.12.2020
4683 Rain 22 1018 64 10000 2.1 290 17:19 19.12.2020
4684 Rain 22 1017 68 10000 4.6 290 16:40 19.12.2020
4685 Rain 22 1017 68 10000 4.6 290 16:22 19.12.2020
4686 Rain 23 1017 64 10000 5.1 260 15:54 19.12.2020
4687 Thunderstorm 25 1016 57 10000 5.7 250 15:26 19.12.2020
4688 Thunderstorm 28 1015 37 10000 1 0 14:39 19.12.2020
4689 Clouds 30 1015 35 10000 2.1 0 13:59 19.12.2020
4690 Clouds 31 1016 31 10000 3.1 0 13:40 19.12.2020
4691 Clouds 31 1016 31 10000 3.1 0 13:18 19.12.2020
4692 Clouds 29 1016 35 10000 3.1 220 12:42 19.12.2020
4693 Clouds 29 1016 35 10000 3.1 220 12:24 19.12.2020
4694 Clouds 29 1017 39 10000 3.6 260 11:53 19.12.2020
4695 Clouds 30 1017 37 10000 3.6 210 11:33 19.12.2020
4696 Clouds 28 1017 42 10000 3.6 0 10:42 19.12.2020
4697 Clouds 28 1018 48 10000 3.1 230 10:19 19.12.2020
4698 Clouds 28 1018 42 10000 3.1 190 09:42 19.12.2020
4699 Clouds 27 1019 44 10000 3.1 210 08:59 19.12.2020
4700 Clouds 27 1019 42 10000 2.1 0 08:23 19.12.2020
4701 Clouds 25 1019 50 10000 2.1 60 07:22 19.12.2020
4702 Clouds 24 1019 60 10000 1 0 06:51 19.12.2020
4703 Clouds 20 1019 82 10000 1.5 130 05:24 19.12.2020
4704 Clouds 17 1018 93 10000 1 0 03:50 19.12.2020
4705 Rain 19 1017 88 10000 3.1 90 00:42 19.12.2020
4706 Rain 19 1017 88 10000 3.1 90 00:22 19.12.2020
4707 Rain 19 1017 88 10000 2.6 90 23:52 18.12.2020
4708 Rain 20 1017 82 10000 3.6 60 23:33 18.12.2020
4709 Thunderstorm 21 1018 77 10000 2.1 50 22:59 18.12.2020
4710 Rain 21 1019 77 10000 2.6 80 22:41 18.12.2020
4711 Rain 21 1019 77 10000 2.6 80 22:19 18.12.2020
4712 Rain 21 1019 77 10000 2.1 100 21:46 18.12.2020
4713 Rain 20 1019 82 10000 2.1 0 21:25 18.12.2020
4714 Rain 22 1020 78 10000 4.1 90 20:26 18.12.2020
4715 Thunderstorm 22 1019 78 10000 4.6 90 19:51 18.12.2020
4716 Rain 22 1019 78 10000 4.1 90 19:27 18.12.2020
4717 Rain 22 1019 78 10000 4.1 60 18:48 18.12.2020
4718 Rain 22 1019 78 10000 5.1 80 18:28 18.12.2020
4719 Rain 23 1018 73 10000 5.7 90 17:59 18.12.2020
4720 Rain 24 1018 69 10000 4.6 110 17:21 18.12.2020
4721 Rain 25 1017 61 10000 5.1 80 16:48 18.12.2020
4722 Rain 26 1016 54 10000 5.1 90 16:26 18.12.2020
4723 Rain 26 1016 54 10000 7.2 110 15:54 18.12.2020
4724 Rain 27 1016 51 10000 5.7 100 15:36 18.12.2020
4725 Rain 27 1016 51 10000 5.7 100 15:18 18.12.2020
4726 Rain 28 1015 45 10000 4.1 50 14:51 18.12.2020
4727 Rain 28 1015 48 10000 4.1 350 14:19 18.12.2020
4728 Rain 30 1015 37 10000 4.6 80 13:45 18.12.2020
4729 Rain 30 1016 37 10000 2.6 110 13:23 18.12.2020
4730 Rain 29 1016 39 10000 3.1 20 12:46 18.12.2020
4731 Rain 29 1016 39 10000 3.1 20 12:46 18.12.2020
4732 Rain 28 1017 45 10000 4.1 70 11:38 18.12.2020
4733 Rain 28 1017 45 10000 4.1 70 11:19 18.12.2020
4734 Rain 29 1018 42 10000 2.6 0 10:38 18.12.2020
4735 Clouds 29 1018 42 10000 2.6 0 10:20 18.12.2020
4736 Clouds 29 1018 42 10000 2.6 0 10:20 18.12.2020
4737 Clouds 29 1018 45 10000 2.1 0 09:38 18.12.2020
4738 Clouds 29 1018 45 10000 2.1 0 09:20 18.12.2020
4739 Clouds 27 1019 51 10000 2.1 0 08:52 18.12.2020
4740 Clouds 26 1019 54 10000 2.1 0 08:26 18.12.2020
4741 Clouds 25 1020 61 10000 2.1 130 07:20 18.12.2020
4742 Clouds 20 1020 77 10000 1.5 0 06:59 18.12.2020
4743 Clouds 20 1020 77 10000 1.5 0 06:22 18.12.2020
4744 Clouds 20 1020 77 10000 1.5 0 05:33 18.12.2020
4745 Clouds 19 1020 82 10000 3.1 80 04:50 18.12.2020
4746 Clouds 19 1019 82 10000 3.1 60 01:49 18.12.2020
4747 Clouds 19 1019 82 10000 2.6 70 01:22 18.12.2020
4748 Clouds 16 1015 95 10000 1.42 113 23:57 17.12.2020
4749 Clouds 16 1015 94 10000 1.42 94 23:25 17.12.2020
4750 Clouds 16 1015 94 10000 1.42 94 22:49 17.12.2020
4751 Clouds 17 1016 92 10000 1.96 88 22:28 17.12.2020
4752 Clouds 17 1016 92 10000 1.96 88 21:47 17.12.2020
4753 Rain 18 1016 91 10000 2.63 95 21:25 17.12.2020
4754 Rain 18 1016 91 10000 2.63 95 20:56 17.12.2020
4755 Rain 21 1020 83 10000 6.2 110 20:37 17.12.2020
4756 Rain 21 1020 83 10000 6.2 110 20:18 17.12.2020
4757 Rain 21 1020 83 10000 6.2 110 19:44 17.12.2020
4758 Rain 21 1020 83 10000 6.2 110 19:23 17.12.2020
4759 Rain 22 1020 78 10000 5.7 110 18:41 17.12.2020
4760 Rain 22 1020 78 10000 5.7 110 18:23 17.12.2020
4761 Rain 23 1019 69 10000 6.2 100 17:53 17.12.2020
4762 Rain 23 1018 64 10000 6.2 100 17:32 17.12.2020
4763 Rain 25 1018 50 10000 4.6 100 16:44 17.12.2020
4764 Rain 25 1018 50 10000 4.6 100 16:24 17.12.2020
4765 Rain 26 1017 47 10000 5.1 90 15:52 17.12.2020
4766 Rain 28 1017 42 10000 6.2 80 15:31 17.12.2020
4767 Rain 28 1017 39 10000 6.7 100 14:55 17.12.2020
4768 Rain 29 1017 39 10000 7.2 80 14:31 17.12.2020
4769 Clouds 29 1017 37 10000 5.7 120 13:52 17.12.2020
4770 Clouds 30 1017 35 10000 4.6 110 13:33 17.12.2020
4771 Clouds 30 1018 37 10000 4.1 120 12:47 17.12.2020
4772 Clouds 29 1018 39 10000 4.6 110 12:25 17.12.2020
4773 Clouds 29 1018 39 10000 4.1 100 11:45 17.12.2020
4774 Clouds 29 1018 42 10000 4.1 140 11:25 17.12.2020
4775 Clouds 29 1019 42 10000 4.6 130 10:55 17.12.2020
4776 Clouds 29 1019 42 10000 3.6 120 10:19 17.12.2020
4777 Clouds 28 1020 42 10000 4.6 110 09:28 17.12.2020
4778 Clouds 26 1020 47 10000 3.6 130 07:54 17.12.2020
4779 Clouds 25 1021 57 10000 3.1 110 07:35 17.12.2020
4780 Clouds 24 1021 60 10000 2.6 130 06:54 17.12.2020
4781 Clouds 23 1021 64 10000 3.6 150 06:32 17.12.2020
4782 Clouds 22 1021 68 10000 3.6 130 05:58 17.12.2020
4783 Clouds 19 1020 82 10000 5.7 100 00:38 17.12.2020
4784 Clouds 20 1020 77 10000 4.1 130 23:52 16.12.2020
4785 Clouds 20 1020 77 10000 4.1 120 23:21 16.12.2020
4786 Clouds 20 1020 77 10000 4.1 120 22:55 16.12.2020
4787 Clouds 20 1020 82 10000 4.1 110 22:35 16.12.2020
4788 Clouds 20 1021 82 10000 4.6 110 21:52 16.12.2020
4789 Clouds 19 1021 88 10000 4.1 110 21:34 16.12.2020
4790 Clouds 20 1021 82 10000 4.1 130 20:55 16.12.2020
4791 Clouds 20 1021 82 10000 3.6 120 20:37 16.12.2020
4792 Clouds 20 1021 82 10000 3.6 120 20:37 16.12.2020
4793 Clouds 20 1021 82 10000 3.6 120 20:18 16.12.2020
4794 Rain 21 1020 77 10000 4.1 130 19:20 16.12.2020
4795 Rain 21 1020 77 10000 6.2 110 18:54 16.12.2020
4796 Rain 22 1019 73 10000 6.2 110 18:29 16.12.2020
4797 Rain 23 1019 69 10000 5.1 100 17:47 16.12.2020
4798 Clouds 23 1019 64 10000 6.2 100 17:28 16.12.2020
4799 Clouds 25 1018 57 10000 6.7 90 16:39 16.12.2020
4800 Clouds 27 1017 47 10000 5.7 90 16:21 16.12.2020
4801 Clouds 27 1017 47 10000 5.7 90 15:50 16.12.2020
4802 Clouds 27 1017 44 10000 4.1 130 15:26 16.12.2020
4803 Clouds 27 1017 44 10000 4.6 120 14:47 16.12.2020
4804 Clouds 28 1017 42 10000 5.7 130 14:28 16.12.2020
4805 Clouds 30 1017 37 10000 5.1 120 13:49 16.12.2020
4806 Clouds 30 1017 37 10000 4.1 110 13:28 16.12.2020
4807 Clouds 30 1017 37 10000 4.1 100 12:55 16.12.2020
4808 Clouds 28 1018 39 10000 5.1 100 12:34 16.12.2020
4809 Clouds 30 1018 33 10000 2.1 0 11:40 16.12.2020
4810 Clouds 30 1018 33 10000 2.1 0 11:22 16.12.2020
4811 Clouds 29 1018 32 10000 2.1 0 10:46 16.12.2020
4812 Clouds 28 1019 34 10000 2.1 0 10:22 16.12.2020
4813 Clouds 27 1019 32 10000 2.6 210 09:42 16.12.2020
4814 Clouds 26 1020 44 10000 2.6 0 08:36 16.12.2020
4815 Clouds 25 1020 47 10000 2.6 120 07:52 16.12.2020
4816 Clouds 23 1021 56 10000 2.6 110 07:33 16.12.2020
4817 Clouds 23 1021 60 10000 1.5 180 06:41 16.12.2020
4818 Clouds 16 1019 82 10000 1.5 80 02:26 16.12.2020
4819 Clouds 17 1019 77 10000 4.6 100 00:23 16.12.2020
4820 Clouds 18 1019 77 10000 5.7 100 23:44 15.12.2020
4821 Clouds 18 1019 82 10000 6.2 90 22:46 15.12.2020
4822 Clouds 18 1019 82 10000 5.1 110 22:24 15.12.2020
4823 Clouds 18 1020 88 10000 3.6 120 21:51 15.12.2020
4824 Clouds 18 1020 88 10000 3.6 110 21:25 15.12.2020
4825 Clouds 19 1020 82 10000 5.7 110 20:58 15.12.2020
4826 Clouds 19 1020 82 10000 5.7 110 20:39 15.12.2020
4827 Clouds 19 1020 82 10000 5.7 110 20:21 15.12.2020
4828 Clouds 19 1020 82 10000 6.7 100 19:41 15.12.2020
4829 Clouds 19 1019 82 10000 5.7 110 19:23 15.12.2020
4830 Clouds 20 1018 77 10000 6.2 110 18:39 15.12.2020
4831 Clouds 20 1018 77 10000 6.2 110 18:20 15.12.2020
4832 Clouds 21 1018 77 10000 6.2 100 17:43 15.12.2020
4833 Clouds 23 1018 69 10000 5.7 100 17:43 15.12.2020
4834 Clouds 23 1018 69 10000 5.7 100 17:22 15.12.2020
4835 Clouds 25 1016 47 10000 5.7 110 16:38 15.12.2020
4836 Clouds 25 1016 47 10000 5.7 110 16:19 15.12.2020
4837 Clouds 30 1016 30 10000 1.5 0 15:37 15.12.2020
4838 Clouds 30 1016 30 10000 1.5 0 14:59 15.12.2020
4839 Clouds 29 1016 32 10000 3.1 80 14:41 15.12.2020
4840 Clouds 29 1016 32 10000 3.1 80 14:19 15.12.2020
4841 Clouds 30 1016 28 10000 2.1 0 13:47 15.12.2020
4842 Clouds 30 1016 28 10000 2.1 0 13:22 15.12.2020
4843 Clouds 29 1016 30 10000 2.6 210 12:44 15.12.2020
4844 Clouds 29 1016 30 10000 2.6 0 12:19 15.12.2020
4845 Clouds 29 1017 30 10000 2.1 0 11:49 15.12.2020
4846 Clouds 28 1017 32 10000 2.1 0 11:21 15.12.2020
4847 Clouds 28 1017 32 10000 1.5 0 10:45 15.12.2020
4848 Clouds 28 1018 32 10000 3.1 0 10:19 15.12.2020
4849 Clouds 26 1018 34 10000 1.5 0 09:41 15.12.2020
4850 Clouds 26 1018 34 10000 1.5 0 09:22 15.12.2020
4851 Clouds 26 1019 47 10000 2.1 0 08:39 15.12.2020
4852 Clouds 26 1019 47 10000 2.1 0 08:20 15.12.2020
4853 Clouds 22 1020 53 10000 1.5 0 07:41 15.12.2020
4854 Clouds 20 1020 64 10000 1.5 130 06:51 15.12.2020
4855 Clouds 17 1020 72 10000 3.1 130 05:27 15.12.2020
4856 Clouds 15 1018 87 10000 4.1 120 00:39 15.12.2020
4857 Clouds 16 1018 87 10000 3.6 120 23:48 14.12.2020
4858 Clouds 16 1019 87 10000 5.1 110 23:19 14.12.2020
4859 Clouds 18 1019 82 10000 4.6 120 22:39 14.12.2020
4860 Clouds 18 1019 82 10000 4.6 120 21:56 14.12.2020
4861 Clouds 18 1019 82 10000 4.6 120 21:36 14.12.2020
4862 Clouds 18 1019 82 10000 4.6 140 20:57 14.12.2020
4863 Clouds 18 1020 82 10000 4.6 120 20:39 14.12.2020
4864 Clouds 18 1020 82 10000 4.6 120 20:18 14.12.2020
4865 Clouds 18 1019 82 10000 4.6 130 19:34 14.12.2020
4866 Clouds 19 1019 77 10000 4.6 130 18:57 14.12.2020
4867 Clouds 19 1019 77 10000 4.6 120 18:38 14.12.2020
4868 Clouds 19 1019 77 10000 4.6 120 18:18 14.12.2020
4869 Clouds 20 1018 68 10000 5.1 120 17:33 14.12.2020
4870 Clouds 21 1018 64 10000 5.7 130 16:56 14.12.2020
4871 Clouds 22 1018 60 10000 6.2 120 16:36 14.12.2020
4872 Clouds 22 1018 60 10000 6.2 120 16:18 14.12.2020
4873 Clouds 24 1017 50 10000 4.6 150 15:32 14.12.2020
4874 Clouds 25 1017 44 10000 4.6 140 14:46 14.12.2020
4875 Clouds 26 1017 41 10000 4.1 150 14:27 14.12.2020
4876 Clouds 27 1017 42 10000 4.1 170 13:55 14.12.2020
4877 Clouds 27 1017 39 10000 3.6 190 13:33 14.12.2020
4878 Clouds 27 1017 39 10000 3.1 100 12:55 14.12.2020
4879 Clouds 26 1017 41 10000 3.1 130 12:31 14.12.2020
4880 Clouds 26 1018 44 10000 3.1 140 11:39 14.12.2020
4881 Clouds 26 1018 44 10000 3.1 140 11:21 14.12.2020
4882 Clouds 26 1019 47 10000 3.1 160 10:27 14.12.2020
4883 Clouds 25 1019 50 10000 3.6 150 09:51 14.12.2020
4884 Clouds 22 1020 60 10000 2.6 160 08:52 14.12.2020
4885 Clouds 22 1021 60 10000 4.1 190 08:33 14.12.2020
4886 Clouds 21 1021 60 10000 3.6 170 07:52 14.12.2020
4887 Clouds 20 1021 64 10000 4.1 140 06:59 14.12.2020
4888 Clouds 18 1021 72 10000 5.1 140 05:55 14.12.2020
4889 Clouds 16 1019 87 10000 2.6 140 03:49 14.12.2020
4890 Clouds 17 1018 82 10000 2.1 130 00:57 14.12.2020
4891 Clouds 16 1019 87 10000 2.6 140 00:35 14.12.2020
4892 Clouds 17 1019 82 10000 4.6 130 23:59 13.12.2020
4893 Clouds 17 1019 82 10000 2.6 140 23:41 13.12.2020
4894 Clouds 17 1019 82 10000 3.6 140 22:51 13.12.2020
4895 Clouds 17 1020 88 10000 4.6 140 22:21 13.12.2020
4896 Clouds 17 1020 88 10000 4.1 130 21:56 13.12.2020
4897 Clouds 18 1020 82 10000 4.1 130 21:35 13.12.2020
4898 Clouds 18 1021 82 10000 4.6 130 20:49 13.12.2020
4899 Clouds 18 1021 82 10000 5.1 120 20:25 13.12.2020
4900 Clouds 18 1021 88 10000 5.1 120 19:45 13.12.2020
4901 Clouds 19 1020 82 10000 5.1 120 19:23 13.12.2020
4902 Clouds 19 1020 77 10000 5.1 130 18:44 13.12.2020
4903 Clouds 19 1020 77 10000 3.6 120 18:22 13.12.2020
4904 Clouds 19 1020 77 10000 4.1 140 17:59 13.12.2020
4905 Clouds 20 1019 77 10000 4.6 140 17:41 13.12.2020
4906 Clouds 20 1019 77 10000 4.6 140 17:18 13.12.2020
4907 Clouds 21 1018 68 10000 5.7 100 16:42 13.12.2020
4908 Clouds 21 1018 68 10000 5.7 100 16:21 13.12.2020
4909 Clouds 23 1018 60 10000 6.2 120 15:45 13.12.2020
4910 Clouds 23 1018 60 10000 6.2 120 15:45 13.12.2020
4911 Clouds 23 1018 60 10000 6.2 120 15:45 13.12.2020
4912 Clouds 23 1018 60 10000 6.2 120 15:45 13.12.2020
4913 Clouds 23 1018 60 10000 6.2 120 15:45 13.12.2020
4914 Clouds 23 1018 60 10000 6.2 120 15:24 13.12.2020
4915 Clouds 23 1018 60 10000 6.2 100 14:45 13.12.2020
4916 Clouds 26 1018 50 10000 4.6 120 14:27 13.12.2020
4917 Clouds 25 1018 53 10000 3.1 130 13:45 13.12.2020
4918 Clouds 25 1018 50 10000 2.6 0 13:27 13.12.2020
4919 Clouds 25 1018 53 10000 2.6 130 12:55 13.12.2020
4920 Clouds 25 1019 53 10000 3.1 140 12:24 13.12.2020
4921 Clouds 25 1019 53 10000 4.1 120 11:51 13.12.2020
4922 Clouds 25 1019 50 10000 4.1 100 11:23 13.12.2020
4923 Clouds 25 1020 57 10000 3.6 120 10:41 13.12.2020
4924 Clouds 23 1021 56 10000 4.6 100 09:59 13.12.2020
4925 Clouds 23 1021 60 10000 5.1 110 09:31 13.12.2020
4926 Clouds 21 1022 68 10000 3.6 150 08:35 13.12.2020
4927 Clouds 20 1022 68 10000 4.1 150 07:52 13.12.2020
4928 Clouds 17 1021 82 10000 4.1 170 05:36 13.12.2020
4929 Clouds 15 1020 93 10000 2.1 100 02:42 13.12.2020
4930 Clouds 15 1020 93 10000 2.1 150 01:58 13.12.2020
4931 Clouds 15 1020 93 10000 3.6 150 01:19 13.12.2020
4932 Clouds 16 1021 87 10000 4.6 120 00:33 13.12.2020
4933 Clouds 17 1021 88 10000 3.1 130 23:33 12.12.2020
4934 Clouds 17 1021 93 10000 2.6 130 22:57 12.12.2020
4935 Drizzle 17 1022 88 9000 4.1 100 22:25 12.12.2020
4936 Clouds 18 1022 82 10000 5.1 110 21:44 12.12.2020
4937 Clouds 18 1022 82 10000 3.1 130 21:18 12.12.2020
4938 Clouds 18 1022 88 10000 3.6 110 20:41 12.12.2020
4939 Clouds 18 1022 88 10000 3.6 110 20:19 12.12.2020
4940 Clouds 18 1022 88 10000 3.6 110 20:19 12.12.2020
4941 Clouds 18 1022 88 10000 4.1 110 19:46 12.12.2020
4942 Clouds 18 1022 88 10000 5.1 110 19:28 12.12.2020
4943 Clouds 18 1022 88 10000 5.1 110 18:47 12.12.2020
4944 Clouds 19 1021 82 10000 3.6 140 18:29 12.12.2020
4945 Clouds 19 1021 82 10000 5.7 110 17:47 12.12.2020
4946 Rain 19 1021 82 10000 5.7 110 17:28 12.12.2020
4947 Rain 21 1020 73 10000 5.7 120 16:24 12.12.2020
4948 Rain 22 1019 68 10000 5.1 140 15:52 12.12.2020
4949 Rain 23 1019 69 10000 6.2 120 15:34 12.12.2020
4950 Rain 22 1019 68 10000 5.7 120 14:50 12.12.2020
4951 Rain 23 1019 69 10000 5.1 170 13:58 12.12.2020
4952 Rain 23 1019 64 10000 5.1 110 13:38 12.12.2020
4953 Rain 23 1019 64 10000 5.1 110 13:19 12.12.2020
4954 Rain 22 1020 68 10000 5.7 110 12:29 12.12.2020
4955 Rain 20 1021 82 10000 3.1 140 10:55 12.12.2020
4956 Rain 21 1022 68 10000 4.6 130 09:50 12.12.2020
4957 Rain 23 1022 60 10000 5.7 90 08:57 12.12.2020
4958 Clouds 16 1020 93 10000 2.1 160 03:31 12.12.2020
4959 Clouds 16 1020 93 10000 4.1 120 23:58 11.12.2020
4960 Clouds 17 1021 93 10000 3.6 100 22:39 11.12.2020
4961 Clouds 17 1022 100 10000 3.1 90 20:50 11.12.2020
4962 Drizzle 18 1021 93 10000 1 0 18:27 11.12.2020
4963 Rain 19 1020 88 10000 3.1 110 16:27 11.12.2020
4964 Rain 21 1018 73 10000 5.1 90 14:18 11.12.2020
4965 Rain 21 1018 73 10000 5.1 90 13:25 11.12.2020
4966 Rain 21 1019 77 10000 4.6 80 12:19 11.12.2020
4967 Rain 21 1020 73 10000 4.1 100 11:51 11.12.2020
4968 Rain 21 1020 83 10000 4.1 90 10:46 11.12.2020
4969 Rain 20 1021 88 10000 4.6 130 08:53 11.12.2020
4970 Clouds 19 1021 88 10000 3.1 100 05:43 11.12.2020
4971 Clouds 19 1021 88 10000 2.6 110 05:18 11.12.2020
4972 Clouds 18 1019 93 10000 2.1 160 02:18 11.12.2020
4973 Drizzle 17 1019 100 10000 2.6 160 00:23 11.12.2020
4974 Drizzle 18 1020 93 10000 1.5 140 22:52 10.12.2020
4975 Drizzle 18 1021 93 10000 2.1 100 21:36 10.12.2020
4976 Drizzle 18 1021 93 10000 2.1 90 20:42 10.12.2020
4977 Clouds 18 1021 93 10000 3.6 80 19:43 10.12.2020
4978 Clouds 18 1021 93 10000 2.1 60 18:56 10.12.2020
4979 Rain 18 1021 93 10000 2.6 60 18:21 10.12.2020
4980 Rain 19 1019 88 8000 4.1 90 16:32 10.12.2020
4981 Clouds 20 1018 82 10000 3.6 120 15:27 10.12.2020
4982 Clouds 20 1018 82 10000 4.1 110 14:51 10.12.2020
4983 Rain 19 1018 93 5000 3.1 170 14:27 10.12.2020
4984 Rain 22 1018 78 10000 5.1 140 12:47 10.12.2020
4985 Rain 22 1019 73 10000 7.2 110 11:39 10.12.2020
4986 Clouds 23 1021 69 10000 5.7 140 08:52 10.12.2020
4987 Clouds 22 1021 68 10000 5.7 130 07:48 10.12.2020
4988 Clouds 20 1021 77 10000 3.6 130 06:41 10.12.2020
4989 Clouds 18 1019 88 10000 2.6 150 02:56 10.12.2020
4990 Clouds 18 1019 88 10000 2.6 140 01:59 10.12.2020
4991 Clouds 18 1018 88 10000 2.6 160 23:52 09.12.2020
4992 Rain 18 1021 93 10000 2.1 160 20:59 09.12.2020
4993 Clouds 18 1021 93 10000 2.1 160 20:28 09.12.2020
4994 Clouds 18 1020 93 10000 2.1 130 19:21 09.12.2020
4995 Rain 18 1019 93 8000 2.6 140 17:43 09.12.2020
4996 Clouds 20 1019 77 10000 3.6 120 16:41 09.12.2020
4997 Clouds 20 1019 77 10000 3.6 120 16:20 09.12.2020
4998 Clouds 20 1019 77 10000 3.6 120 16:20 09.12.2020
4999 Clouds 21 1017 73 10000 5.7 130 14:58 09.12.2020
5000 Clouds 21 1017 73 10000 6.7 120 14:27 09.12.2020
5001 Rain 21 1017 77 10000 4.6 140 13:58 09.12.2020
5002 Clouds 22 1017 73 10000 5.1 120 13:19 09.12.2020
5003 Clouds 21 1018 77 10000 4.1 120 12:43 09.12.2020
5004 Clouds 23 1018 64 10000 5.7 110 11:48 09.12.2020
5005 Rain 24 1019 60 10000 5.7 120 10:31 09.12.2020
5006 Rain 23 1020 64 10000 4.1 150 08:46 09.12.2020
5007 Rain 20 1020 72 10000 5.1 140 07:43 09.12.2020
5008 Clouds 18 1020 82 10000 6.2 130 05:48 09.12.2020
5009 Clouds 17 1019 82 10000 2.6 150 03:21 09.12.2020
5010 Clouds 16 1019 93 10000 3.1 160 01:21 09.12.2020
5011 Clouds 17 1019 88 10000 3.1 140 23:41 08.12.2020
5012 Clouds 17 1019 88 10000 3.6 130 22:43 08.12.2020
5013 Clouds 17 1021 93 10000 3.1 130 20:50 08.12.2020
5014 Clouds 18 1021 88 10000 3.6 150 19:32 08.12.2020
5015 Clouds 18 1021 88 10000 3.6 160 18:57 08.12.2020
5016 Rain 19 1020 88 10000 4.1 150 17:31 08.12.2020
5017 Rain 19 1019 93 8000 5.7 150 15:43 08.12.2020
5018 Rain 26 1017 57 10000 5.7 110 13:59 08.12.2020
5019 Rain 27 1017 51 10000 4.6 110 13:24 08.12.2020
5020 Rain 28 1018 48 10000 2.1 0 12:23 08.12.2020
5021 Rain 28 1018 51 10000 4.1 170 11:28 08.12.2020
5022 Rain 27 1019 51 10000 5.7 120 10:42 08.12.2020
5023 Rain 27 1020 54 10000 4.6 140 09:46 08.12.2020
5024 Rain 24 1021 64 10000 4.1 170 07:47 08.12.2020
5025 Clouds 22 1021 73 10000 4.1 150 05:43 08.12.2020
5026 Clouds 19 1019 82 10000 2.6 130 02:59 08.12.2020
5027 Rain 20 1019 82 10000 1 170 00:45 08.12.2020
5028 Rain 20 1019 77 10000 1 0 23:50 07.12.2020
5029 Rain 20 1021 88 10000 1 170 22:32 07.12.2020
5030 Rain 20 1021 94 10000 0.5 190 21:48 07.12.2020
5031 Rain 21 1021 83 10000 3.6 280 19:45 07.12.2020
5032 Rain 21 1021 88 10000 3.1 300 18:19 07.12.2020
5033 Rain 21 1020 88 10000 1.5 310 17:23 07.12.2020
5034 Rain 21 1019 88 10000 1 0 16:47 07.12.2020
5035 Rain 24 1018 64 10000 5.7 300 15:25 07.12.2020
5036 Rain 27 1018 51 10000 4.6 240 14:36 07.12.2020
5037 Rain 27 1018 54 10000 5.1 310 13:37 07.12.2020
5038 Rain 26 1019 61 10000 7.2 300 12:31 07.12.2020
5039 Rain 26 1019 61 10000 8.2 300 11:42 07.12.2020
5040 Rain 28 1019 51 10000 4.1 240 10:36 07.12.2020
5041 Clouds 28 1020 51 10000 3.1 0 09:24 07.12.2020
5042 Clouds 26 1021 57 10000 1 0 07:49 07.12.2020
5043 Clouds 22 1021 73 10000 2.1 50 05:29 07.12.2020
5044 Clouds 20 1020 82 10000 1.5 80 04:35 07.12.2020
5045 Rain 20 1019 82 10000 3.1 80 01:23 07.12.2020
5046 Rain 20 1020 88 10000 3.1 90 22:53 06.12.2020
5047 Rain 20 1020 82 10000 3.6 80 21:53 06.12.2020
5048 Rain 21 1021 83 10000 4.1 120 20:47 06.12.2020
5049 Rain 21 1021 83 10000 5.1 110 20:26 06.12.2020
5050 Rain 21 1021 83 10000 5.1 110 20:26 06.12.2020
5051 Rain 21 1021 83 10000 5.1 110 19:39 06.12.2020
5052 Rain 23 1020 73 10000 5.7 110 17:45 06.12.2020
5053 Rain 22 1019 68 10000 3.6 210 16:34 06.12.2020
5054 Rain 27 1017 51 10000 6.7 90 14:49 06.12.2020
5055 Rain 29 1017 48 10000 4.6 100 13:23 06.12.2020
5056 Rain 27 1018 54 10000 3.1 130 12:33 06.12.2020
5057 Rain 28 1018 48 10000 3.1 90 11:53 06.12.2020
5058 Rain 27 1019 51 10000 2.6 160 11:25 06.12.2020
5059 Rain 27 1020 54 10000 3.6 100 10:35 06.12.2020
5060 Clouds 26 1021 57 10000 3.6 100 09:23 06.12.2020
5061 Clouds 22 1022 73 10000 2.6 110 07:29 06.12.2020
5062 Clouds 19 1021 88 10000 3.1 140 04:47 06.12.2020
5063 Clouds 19 1021 93 10000 2.1 150 00:45 06.12.2020
5064 Clouds 19 1021 88 10000 3.1 140 00:26 06.12.2020
5065 Clouds 19 1021 93 10000 3.6 110 23:55 05.12.2020
5066 Clouds 20 1021 82 10000 4.1 110 22:24 05.12.2020
5067 Clouds 20 1022 82 10000 5.1 130 21:55 05.12.2020
5068 Clouds 21 1021 77 10000 4.1 140 21:28 05.12.2020
5069 Clouds 21 1021 83 10000 4.1 130 19:54 05.12.2020
5070 Thunderstorm 22 1020 78 10000 4.1 140 18:46 05.12.2020
5071 Rain 23 1019 69 10000 4.6 140 17:39 05.12.2020
5072 Rain 23 1019 69 10000 4.6 140 16:44 05.12.2020
5073 Rain 24 1018 64 10000 5.7 130 16:24 05.12.2020
5074 Rain 28 1017 51 10000 6.7 120 14:30 05.12.2020
5075 Rain 28 1018 54 10000 6.7 100 12:32 05.12.2020
5076 Rain 29 1018 45 10000 5.7 100 11:49 05.12.2020
5077 Rain 27 1019 54 10000 4.1 120 10:34 05.12.2020
5078 Clouds 26 1020 65 10000 3.1 160 07:50 05.12.2020
5079 Clouds 25 1020 65 10000 3.6 150 07:26 05.12.2020
5080 Clouds 21 1020 83 10000 2.6 190 05:22 05.12.2020
5081 Clouds 21 1019 88 10000 0.5 0 23:57 04.12.2020
5082 Rain 21 1019 88 10000 2.6 150 22:47 04.12.2020
5083 Rain 21 1020 88 10000 2.6 80 20:35 04.12.2020
5084 Rain 21 1020 88 9000 1.5 120 18:54 04.12.2020
5085 Rain 21 1020 88 9000 1.5 120 18:21 04.12.2020
5086 Rain 22 1020 78 10000 1.5 150 17:41 04.12.2020
5087 Rain 23 1018 69 10000 3.6 230 15:54 04.12.2020
5088 Rain 24 1018 73 10000 4.1 250 15:18 04.12.2020
5089 Rain 31 1017 38 10000 3.6 310 13:35 04.12.2020
5090 Rain 31 1017 40 10000 3.1 250 12:55 04.12.2020
5091 Rain 29 1018 45 10000 3.1 0 11:41 04.12.2020
5092 Rain 28 1019 48 10000 2.6 350 10:30 04.12.2020
5093 Clouds 25 1021 61 10000 1.5 0 07:53 04.12.2020
5094 Clouds 22 1022 68 10000 2.6 110 06:40 04.12.2020
5095 Clouds 20 1021 82 10000 1.5 90 04:50 04.12.2020
5096 Clouds 20 1020 88 10000 3.1 100 23:51 03.12.2020
5097 Clouds 20 1020 88 10000 3.1 90 22:47 03.12.2020
5098 Rain 21 1021 83 10000 3.6 100 21:20 03.12.2020
5099 Rain 22 1021 78 10000 3.6 90 19:49 03.12.2020
5100 Rain 22 1021 78 10000 3.6 50 19:20 03.12.2020
5101 Rain 24 1019 73 10000 4.1 110 18:39 03.12.2020
5102 Rain 24 1019 69 10000 2.6 300 17:20 03.12.2020
5103 Rain 27 1018 57 10000 3.1 270 15:59 03.12.2020
5104 Rain 28 1017 42 10000 2.1 90 15:31 03.12.2020
5105 Rain 29 1017 39 10000 1 0 14:48 03.12.2020
5106 Clouds 29 1017 39 10000 1 0 13:50 03.12.2020
5107 Clouds 30 1018 40 10000 3.6 0 12:33 03.12.2020
5108 Clouds 30 1018 37 10000 3.6 110 11:55 03.12.2020
5109 Clouds 30 1020 40 10000 3.6 130 10:36 03.12.2020
5110 Clouds 27 1021 51 10000 3.6 140 08:21 03.12.2020
5111 Clouds 20 1020 88 10000 1.5 70 03:41 03.12.2020
5112 Clouds 20 1019 88 10000 2.1 270 01:39 03.12.2020
5113 Clouds 20 1019 88 10000 2.1 260 23:41 02.12.2020
5114 Clouds 19 1019 100 10000 3.6 310 22:29 02.12.2020
5115 Clouds 19 1020 93 10000 2.1 310 21:29 02.12.2020
5116 Clouds 20 1020 88 10000 2.1 330 20:48 02.12.2020
5117 Clouds 20 1019 88 10000 2.6 280 20:29 02.12.2020
5118 Clouds 21 1019 88 10000 2.1 250 19:22 02.12.2020
5119 Rain 22 1019 83 10000 2.6 300 17:48 02.12.2020
5120 Rain 22 1018 83 10000 3.1 300 17:29 02.12.2020
5121 Rain 23 1016 73 10000 6.7 300 15:37 02.12.2020
5122 Rain 25 1016 69 10000 8.7 300 13:19 02.12.2020
5123 Rain 29 1017 45 10000 2.6 350 10:47 02.12.2020
5124 Rain 30 1018 45 10000 5.1 300 10:21 02.12.2020
5125 Clouds 24 1019 73 10000 2.1 0 06:53 02.12.2020
5126 Clouds 18 1017 93 10000 1.7 46 23:20 01.12.2020
5127 Rain 18 1018 100 10000 1 0 22:20 01.12.2020
5128 Rain 19 1018 93 10000 1.5 0 19:36 01.12.2020
5129 Rain 19 1018 93 10000 1.5 0 18:45 01.12.2020
5130 Rain 20 1017 88 10000 1 0 16:47 01.12.2020
5131 Thunderstorm 20 1017 94 10000 2.6 60 14:21 01.12.2020
5132 Thunderstorm 21 1016 77 10000 7.2 300 12:28 01.12.2020
5133 Thunderstorm 27 1016 51 8000 3.6 10 11:28 01.12.2020
5134 Clouds 27 1016 57 10000 3.6 190 10:44 01.12.2020
5135 Clouds 28 1016 51 10000 2.1 190 10:25 01.12.2020
5136 Clouds 25 1018 61 10000 1.5 30 07:19 01.12.2020
5137 Clouds 19 1017 93 10000 0.5 0 01:56 01.12.2020
5138 Clouds 19 1017 88 10000 2.6 90 00:57 01.12.2020
5139 Clouds 18 1017 93 10000 0.5 0 23:22 30.11.2020
5140 Clouds 18 1018 93 10000 0.5 0 22:45 30.11.2020
5141 Rain 18 1019 93 10000 1 0 22:26 30.11.2020
5142 Rain 18 1019 93 10000 1.5 0 21:56 30.11.2020
5143 Thunderstorm 19 1019 88 8000 2.1 270 19:45 30.11.2020
5144 Rain 20 1018 82 10000 3.6 240 18:40 30.11.2020
5145 Thunderstorm 20 1018 82 10000 3.6 240 18:20 30.11.2020
5146 Rain 21 1018 77 10000 4.6 250 17:42 30.11.2020
5147 Rain 21 1016 77 10000 5.1 260 16:44 30.11.2020
5148 Rain 26 1015 57 9000 8.7 300 14:47 30.11.2020
5149 Clouds 31 1013 33 10000 5.7 40 13:54 30.11.2020
5150 Clouds 32 1015 29 10000 2.6 0 12:35 30.11.2020
5151 Clouds 32 1015 29 10000 2.6 0 11:59 30.11.2020
5152 Clouds 30 1016 33 10000 2.1 40 10:31 30.11.2020
5153 Clouds 29 1017 32 10000 2.6 70 09:52 30.11.2020
5154 Clouds 27 1018 51 10000 2.1 130 07:44 30.11.2020
5155 Clouds 17 1016 93 10000 1 0 01:21 30.11.2020
5156 Clouds 19 1017 82 10000 1 0 22:20 29.11.2020
5157 Clouds 20 1018 77 10000 2.1 100 21:43 29.11.2020
5158 Clouds 20 1018 77 10000 2.6 150 21:25 29.11.2020
5159 Clouds 24 1017 50 10000 3.1 70 17:48 29.11.2020
5160 Clouds 26 1016 41 10000 4.6 90 16:59 29.11.2020
5161 Clouds 31 1016 29 10000 2.1 0 13:35 29.11.2020
5162 Clouds 30 1017 33 10000 3.6 170 12:34 29.11.2020
5163 Clouds 29 1018 35 10000 3.6 110 11:22 29.11.2020
5164 Clouds 25 1020 50 10000 4.1 160 08:52 29.11.2020
5165 Clouds 25 1020 47 10000 3.1 0 08:34 29.11.2020
5166 Clouds 17 1018 93 10000 1 0 01:43 29.11.2020
5167 Clouds 18 1019 88 10000 3.1 140 22:57 28.11.2020
5168 Clouds 20 1020 82 10000 5.1 90 20:56 28.11.2020
5169 Clouds 20 1019 82 10000 4.6 110 19:53 28.11.2020
5170 Clouds 21 1019 77 10000 6.2 110 19:25 28.11.2020
5171 Clouds 21 1015 77 10000 5.1 110 18:52 28.11.2020
5172 Clouds 23 1018 73 10000 6.2 120 17:48 28.11.2020
5173 Clouds 25 1017 47 10000 5.7 110 16:45 28.11.2020
5174 Clouds 29 1016 35 10000 4.1 150 14:58 28.11.2020
5175 Clouds 31 1016 31 10000 4.1 180 13:30 28.11.2020
5176 Clouds 29 1018 37 10000 4.1 160 11:23 28.11.2020
5177 Clouds 26 1020 47 10000 2.6 0 07:55 28.11.2020
5178 Clouds 18 1019 88 10000 3.1 140 03:33 28.11.2020
5179 Clouds 18 1019 93 10000 1.5 120 01:51 28.11.2020
5180 Clouds 19 1020 88 10000 1.5 70 23:18 27.11.2020
5181 Clouds 20 1022 82 10000 2.6 120 21:51 27.11.2020
5182 Clouds 20 1022 82 10000 4.1 100 20:37 27.11.2020
5183 Thunderstorm 21 1021 83 10000 5.7 100 19:30 27.11.2020
5184 Thunderstorm 22 1021 73 10000 5.1 100 18:51 27.11.2020
5185 Clouds 29 1017 37 10000 2.6 220 15:19 27.11.2020
5186 Clouds 31 1017 31 10000 2.6 160 13:44 27.11.2020
5187 Clouds 31 1018 33 10000 2.1 0 12:48 27.11.2020
5188 Clouds 30 1018 35 10000 5.1 200 11:50 27.11.2020
5189 Clouds 29 1019 35 10000 3.1 190 10:51 27.11.2020
5190 Clouds 28 1020 42 10000 2.1 0 10:22 27.11.2020
5191 Clear 28 1016 38 10000 1.45 132 07:30 27.11.2020
5192 Clear 28 1016 38 10000 1.45 132 07:30 27.11.2020
5193 Clouds 17 1016 87 10000 1.81 67 22:42 26.11.2020
5194 Clouds 18 1017 82 10000 2.23 68 22:22 26.11.2020
5195 Thunderstorm 18 1021 88 10000 3.1 90 21:25 26.11.2020
5196 Thunderstorm 19 1021 82 10000 5.1 100 19:24 26.11.2020
5197 Thunderstorm 20 1020 77 10000 5.1 100 18:30 26.11.2020
5198 Clouds 25 1018 44 10000 5.7 100 16:20 26.11.2020
5199 Clouds 28 1018 34 10000 2.6 110 13:43 26.11.2020
5200 Clouds 28 1018 34 10000 3.1 120 12:44 26.11.2020
5201 Clouds 28 1018 37 10000 2.6 0 12:23 26.11.2020
5202 Clouds 27 1019 42 10000 3.1 0 10:38 26.11.2020
5203 Clouds 27 1020 42 10000 3.1 100 09:48 26.11.2020
5204 Clouds 26 1020 44 10000 3.1 110 09:30 26.11.2020
5205 Clouds 25 1020 47 10000 3.1 90 08:40 26.11.2020
5206 Clouds 22 1021 53 10000 2.6 90 06:55 26.11.2020
5207 Clouds 15 1019 87 10000 3.6 100 23:54 25.11.2020
5208 Clouds 17 1021 88 10000 4.1 120 21:26 25.11.2020
5209 Clouds 19 1021 77 10000 4.1 130 19:56 25.11.2020
5210 Clouds 20 1020 72 10000 7.2 110 18:28 25.11.2020
5211 Thunderstorm 22 1019 60 10000 6.2 120 17:23 25.11.2020
5212 Clouds 27 1017 42 10000 6.7 100 15:41 25.11.2020
5213 Clouds 29 1017 28 10000 5.1 110 13:58 25.11.2020
5214 Clouds 30 1017 25 10000 3.6 140 13:38 25.11.2020
5215 Clouds 29 1018 28 10000 2.1 0 11:58 25.11.2020
5216 Clouds 29 1018 28 10000 3.6 170 11:18 25.11.2020
5217 Clouds 26 1019 41 10000 3.6 110 09:19 25.11.2020
5218 Clouds 26 1019 41 10000 3.6 150 08:44 25.11.2020
5219 Clouds 19 1021 68 10000 3.6 120 05:18 25.11.2020
5220 Clouds 16 1019 87 10000 4.6 100 02:53 25.11.2020
5221 Clouds 18 1019 82 10000 2.6 70 00:28 25.11.2020
5222 Clouds 18 1019 82 10000 3.1 70 23:52 24.11.2020
5223 Clouds 18 1020 82 10000 3.1 60 23:34 24.11.2020
5224 Clouds 18 1021 82 10000 4.6 80 21:51 24.11.2020
5225 Clouds 19 1021 77 10000 5.1 80 21:30 24.11.2020
5226 Clouds 19 1021 77 10000 4.1 80 20:42 24.11.2020
5227 Clouds 20 1021 77 10000 6.2 90 18:56 24.11.2020
5228 Thunderstorm 22 1020 68 10000 5.7 100 17:31 24.11.2020
5229 Clouds 23 1019 64 10000 7.2 110 16:50 24.11.2020
5230 Clouds 23 1019 64 10000 7.2 110 16:50 24.11.2020
5231 Clouds 24 1018 60 10000 8.2 100 16:31 24.11.2020
5232 Clouds 26 1018 47 10000 7.2 100 15:54 24.11.2020
5233 Clouds 27 1017 44 10000 6.2 120 15:18 24.11.2020
5234 Clouds 29 1017 39 10000 5.7 110 14:34 24.11.2020
5235 Clouds 30 1017 37 10000 3.6 150 12:50 24.11.2020
5236 Clouds 30 1018 37 10000 3.6 140 12:22 24.11.2020
5237 Clouds 30 1018 40 10000 3.6 160 11:39 24.11.2020
5238 Clouds 29 1019 39 10000 1.5 0 10:41 24.11.2020
5239 Clouds 29 1019 39 10000 1.5 0 10:22 24.11.2020
5240 Clouds 27 1020 47 10000 3.6 170 09:35 24.11.2020
5241 Clouds 25 1021 50 10000 3.1 0 07:57 24.11.2020
5242 Clouds 18 1021 77 10000 3.6 100 04:21 24.11.2020
5243 Clouds 19 1022 82 10000 4.6 100 22:34 23.11.2020
5244 Clouds 20 1023 82 10000 4.1 80 21:36 23.11.2020
5245 Clouds 20 1023 82 10000 5.1 90 20:50 23.11.2020
5246 Clouds 20 1023 82 10000 5.1 90 20:26 23.11.2020
5247 Clouds 21 1022 77 10000 5.7 100 19:20 23.11.2020
5248 Clouds 23 1021 60 10000 5.7 130 17:25 23.11.2020
5249 Clouds 24 1020 57 10000 6.2 120 16:22 23.11.2020
5250 Clouds 27 1019 44 10000 4.1 90 14:47 23.11.2020
5251 Clouds 29 1019 45 10000 4.1 100 13:19 23.11.2020
5252 Clouds 29 1019 45 10000 3.6 120 12:36 23.11.2020
5253 Clouds 28 1020 48 10000 3.6 170 11:48 23.11.2020
5254 Clouds 28 1020 51 10000 2.1 0 10:50 23.11.2020
5255 Clouds 26 1022 57 10000 3.1 0 09:31 23.11.2020
5256 Clouds 24 1022 69 10000 2.6 160 08:40 23.11.2020
5257 Clouds 23 1023 69 10000 3.1 110 07:25 23.11.2020
5258 Clouds 19 1020 88 10000 3.1 90 00:32 23.11.2020
5259 Clouds 20 1021 82 10000 2.6 140 23:28 22.11.2020
5260 Clouds 20 1022 82 10000 3.6 100 21:59 22.11.2020
5261 Clouds 20 1022 82 10000 4.1 110 20:53 22.11.2020
5262 Clouds 20 1022 82 10000 4.1 100 19:53 22.11.2020
5263 Clouds 21 1021 77 10000 4.1 90 18:40 22.11.2020
5264 Clouds 23 1020 53 10000 3.6 30 16:52 22.11.2020
5265 Clouds 25 1019 44 10000 6.2 30 15:44 22.11.2020
5266 Clouds 27 1018 42 10000 5.7 30 14:29 22.11.2020
5267 Clouds 27 1019 44 10000 5.1 30 12:49 22.11.2020
5268 Clouds 27 1020 54 10000 3.1 30 11:56 22.11.2020
5269 Clouds 27 1020 54 10000 3.1 30 11:20 22.11.2020
5270 Clouds 25 1021 57 10000 2.1 90 10:39 22.11.2020
5271 Clouds 23 1022 64 10000 1.5 30 08:51 22.11.2020
5272 Drizzle 16 1019 93 10000 3.1 150 01:48 22.11.2020
5273 Rain 18 1019 93 6000 4.1 130 23:35 21.11.2020
5274 Rain 19 1019 93 6000 5.1 120 21:57 21.11.2020
5275 Rain 19 1019 93 6000 3.1 150 21:19 21.11.2020
5276 Rain 19 1019 93 6000 4.6 120 20:33 21.11.2020
5277 Rain 19 1019 93 6000 4.6 140 19:53 21.11.2020
5278 Rain 20 1019 88 6000 4.6 140 19:26 21.11.2020
5279 Thunderstorm 22 1017 78 8000 5.1 120 17:57 21.11.2020
5280 Thunderstorm 22 1017 78 8000 4.6 150 16:48 21.11.2020
5281 Thunderstorm 22 1017 78 8000 4.6 150 16:48 21.11.2020
5282 Rain 23 1016 73 10000 7.2 100 15:51 21.11.2020
5283 Rain 24 1016 69 10000 5.1 150 15:21 21.11.2020
5284 Clouds 27 1015 54 10000 4.6 100 14:43 21.11.2020
5285 Clouds 27 1015 54 10000 6.7 100 13:48 21.11.2020
5286 Clouds 31 1015 38 10000 5.1 20 12:26 21.11.2020
5287 Clouds 30 1015 40 10000 3.1 0 11:56 21.11.2020
5288 Clouds 30 1016 40 10000 2.6 110 10:39 21.11.2020
5289 Clouds 29 1017 42 10000 2.6 0 09:32 21.11.2020
5290 Clouds 29 1017 42 10000 2.6 0 08:51 21.11.2020
5291 Clouds 24 1018 64 10000 2.1 200 05:43 21.11.2020
5292 Clouds 18 1017 93 10000 1 0 04:27 21.11.2020
5293 Clouds 19 1016 88 10000 1.5 60 00:27 21.11.2020
5294 Clouds 20 1016 82 10000 1 0 23:25 20.11.2020
5295 Clouds 21 1017 77 10000 1 0 21:48 20.11.2020
5296 Clouds 21 1017 77 10000 1 0 21:26 20.11.2020
5297 Clouds 21 1018 77 10000 4.6 110 20:55 20.11.2020
5298 Clouds 23 1018 64 10000 4.1 150 19:43 20.11.2020
5299 Clouds 23 1017 60 10000 8.2 190 18:29 20.11.2020
5300 Clouds 26 1015 50 10000 3.6 260 17:34 20.11.2020
5301 Clouds 26 1015 47 10000 3.6 250 16:57 20.11.2020
5302 Clouds 26 1015 50 10000 5.7 250 16:37 20.11.2020
5303 Clouds 27 1014 47 10000 6.2 240 15:48 20.11.2020
5304 Clouds 30 1014 33 10000 5.7 300 14:23 20.11.2020
5305 Clouds 31 1014 29 10000 2.6 340 13:29 20.11.2020
5306 Clouds 31 1014 29 10000 3.6 260 12:59 20.11.2020
5307 Clouds 29 1015 30 10000 2.6 0 12:25 20.11.2020
5308 Clouds 30 1015 27 10000 3.6 100 11:35 20.11.2020
5309 Clouds 29 1016 30 10000 2.6 100 09:56 20.11.2020
5310 Clouds 28 1017 28 10000 1.5 0 08:32 20.11.2020
5311 Clouds 28 1017 28 10000 2.1 200 07:52 20.11.2020
5312 Clouds 20 1018 56 10000 1 0 05:19 20.11.2020
5313 Clouds 16 1016 77 10000 1.5 100 00:21 20.11.2020
5314 Clouds 19 1017 59 10000 1 40 22:30 19.11.2020
5315 Clouds 19 1017 59 10000 2.1 30 21:53 19.11.2020
5316 Clouds 19 1018 63 10000 1.5 80 20:57 19.11.2020
5317 Clouds 21 1018 52 10000 3.1 160 20:20 19.11.2020
5318 Clouds 20 1017 60 10000 3.6 110 19:27 19.11.2020
5319 Clouds 21 1017 56 10000 2.1 80 18:54 19.11.2020
5320 Clouds 24 1016 41 10000 4.6 100 17:27 19.11.2020
5321 Clouds 25 1015 38 10000 5.7 90 16:32 19.11.2020
5322 Clouds 29 1015 26 10000 3.1 120 15:29 19.11.2020
5323 Clouds 30 1015 22 10000 2.6 50 13:51 19.11.2020
5324 Clouds 30 1015 23 10000 2.1 120 13:33 19.11.2020
5325 Clouds 30 1015 22 10000 2.1 0 12:52 19.11.2020
5326 Clouds 30 1015 22 10000 2.1 0 12:33 19.11.2020
5327 Clouds 29 1016 25 10000 2.6 80 11:40 19.11.2020
5328 Clouds 29 1016 25 10000 2.6 80 11:21 19.11.2020
5329 Clear 28 1017 24 10000 3.6 120 10:31 19.11.2020
5330 Clear 28 1017 23 10000 2.1 0 09:47 19.11.2020
5331 Clear 28 1017 20 10000 3.6 120 09:27 19.11.2020
5332 Clear 26 1018 31 10000 2.6 180 08:21 19.11.2020
5333 Clouds 24 1018 44 10000 2.1 0 07:35 19.11.2020
5334 Clouds 14 1016 87 10000 1 0 01:46 19.11.2020
5335 Clouds 15 1016 82 10000 0.44 126 00:32 19.11.2020
5336 Clouds 15 1016 82 10000 0.57 145 23:31 18.11.2020
5337 Clouds 16 1016 77 10000 1 0 22:58 18.11.2020
5338 Clouds 17 1017 72 10000 1.5 60 22:27 18.11.2020
5339 Clouds 17 1017 72 10000 1.5 0 21:43 18.11.2020
5340 Clouds 17 1017 67 10000 1.5 70 21:24 18.11.2020
5341 Clouds 18 1018 59 10000 2.6 80 20:31 18.11.2020
5342 Clouds 19 1018 52 10000 3.1 80 19:37 18.11.2020
5343 Clouds 20 1017 52 10000 2.6 60 18:57 18.11.2020
5344 Clouds 20 1017 56 10000 3.1 90 18:38 18.11.2020
5345 Clouds 22 1016 46 10000 4.6 80 17:38 18.11.2020
5346 Clouds 25 1015 38 10000 4.1 140 16:25 18.11.2020
5347 Clouds 26 1015 34 10000 3.6 150 15:57 18.11.2020
5348 Clouds 29 1015 26 10000 2.6 130 14:41 18.11.2020
5349 Clouds 29 1015 26 10000 3.6 140 13:46 18.11.2020
5350 Clouds 29 1015 26 10000 3.6 90 13:20 18.11.2020
5351 Clouds 29 1015 26 10000 4.1 110 12:42 18.11.2020
5352 Clouds 29 1016 26 10000 2.1 0 11:41 18.11.2020
5353 Clouds 27 1017 36 10000 2.6 0 10:36 18.11.2020
5354 Clouds 27 1017 36 10000 2.6 0 10:18 18.11.2020
5355 Clear 23 1019 49 10000 3.1 140 07:58 18.11.2020
5356 Clouds 20 1019 60 10000 2.1 160 06:35 18.11.2020
5357 Clouds 17 1017 88 10000 0.86 90 00:33 18.11.2020
5358 Clouds 17 1017 88 10000 1 0 23:37 17.11.2020
5359 Clouds 18 1018 88 10000 1.5 70 22:49 17.11.2020
5360 Clouds 18 1018 88 10000 1.5 70 22:29 17.11.2020
5361 Clouds 18 1018 88 10000 2.6 110 21:50 17.11.2020
5362 Clouds 19 1018 82 10000 1 90 21:30 17.11.2020
5363 Clouds 19 1018 82 10000 1 90 21:30 17.11.2020
5364 Clouds 19 1018 82 10000 1.5 70 20:50 17.11.2020
5365 Clouds 19 1018 82 10000 1.5 70 20:25 17.11.2020
5366 Clouds 19 1018 82 10000 2.6 70 19:54 17.11.2020
5367 Thunderstorm 21 1018 68 10000 4.1 90 18:25 17.11.2020
5368 Thunderstorm 22 1017 64 10000 5.7 110 17:40 17.11.2020
5369 Rain 23 1017 56 10000 5.1 120 16:53 17.11.2020
5370 Thunderstorm 24 1016 53 10000 4.6 130 16:18 17.11.2020
5371 Thunderstorm 24 1016 53 10000 4.6 130 16:18 17.11.2020
5372 Clouds 25 1015 50 10000 6.7 120 15:40 17.11.2020
5373 Clouds 25 1015 50 10000 6.7 120 15:22 17.11.2020
5374 Clouds 27 1015 42 10000 5.1 110 14:54 17.11.2020
5375 Clouds 29 1015 35 10000 1.5 0 14:21 17.11.2020
5376 Clouds 29 1015 35 10000 2.1 0 13:34 17.11.2020
5377 Clouds 29 1015 35 10000 2.1 220 12:46 17.11.2020
5378 Clouds 29 1016 35 10000 3.6 200 11:59 17.11.2020
5379 Clouds 27 1017 39 10000 2.6 180 11:40 17.11.2020
5380 Clouds 27 1018 39 10000 3.6 180 10:39 17.11.2020
5381 Clouds 27 1018 39 10000 3.6 180 10:20 17.11.2020
5382 Clouds 26 1018 41 10000 2.6 150 09:48 17.11.2020
5383 Clouds 25 1019 53 10000 1 0 08:46 17.11.2020
5384 Clouds 22 1020 68 10000 1.5 0 07:59 17.11.2020
5385 Clouds 21 1020 68 10000 1 0 07:34 17.11.2020
5386 Clouds 16 1019 87 10000 2.6 130 04:31 17.11.2020
5387 Clouds 15 1019 93 10000 2.6 110 03:28 17.11.2020
5388 Clouds 15 1018 93 10000 2.1 90 02:29 17.11.2020
5389 Clouds 16 1018 87 10000 2.1 120 00:56 17.11.2020
5390 Clouds 17 1018 88 10000 2.1 60 23:54 16.11.2020
5391 Clouds 17 1018 88 10000 2.1 60 23:32 16.11.2020
5392 Clouds 17 1019 88 10000 3.1 60 22:58 16.11.2020
5393 Clouds 17 1019 88 10000 2.6 80 22:24 16.11.2020
5394 Clouds 18 1019 82 10000 3.6 100 21:56 16.11.2020
5395 Clouds 18 1020 82 10000 3.6 90 21:37 16.11.2020
5396 Clouds 18 1020 82 10000 3.6 90 21:19 16.11.2020
5397 Clouds 19 1020 77 10000 3.6 110 20:26 16.11.2020
5398 Clouds 19 1019 82 10000 4.6 100 19:51 16.11.2020
5399 Clouds 19 1019 82 10000 4.6 90 19:29 16.11.2020
5400 Clouds 20 1019 77 10000 4.1 120 18:50 16.11.2020
5401 Clouds 20 1018 77 10000 4.1 100 18:18 16.11.2020
5402 Clouds 22 1017 64 10000 4.1 100 17:27 16.11.2020
5403 Clouds 22 1017 64 10000 4.6 90 16:57 16.11.2020
5404 Clouds 23 1016 60 10000 5.7 110 16:39 16.11.2020
5405 Clouds 23 1016 60 10000 5.7 110 16:19 16.11.2020
5406 Clouds 23 1016 60 10000 5.7 130 15:43 16.11.2020
5407 Clouds 24 1016 50 10000 3.1 200 15:22 16.11.2020
5408 Clouds 25 1016 44 10000 3.6 220 14:47 16.11.2020
5409 Clouds 29 1016 35 10000 2.1 0 13:37 16.11.2020
5410 Clouds 28 1016 37 10000 2.1 0 12:45 16.11.2020
5411 Clouds 28 1016 37 10000 2.1 0 12:45 16.11.2020
5412 Clouds 28 1017 37 10000 2.1 0 12:23 16.11.2020
5413 Clouds 27 1018 39 10000 2.6 0 11:38 16.11.2020
5414 Clouds 27 1018 39 10000 2.6 0 11:19 16.11.2020
5415 Clouds 26 1018 44 10000 2.1 0 10:41 16.11.2020
5416 Clouds 26 1019 44 10000 1.5 0 10:22 16.11.2020
5417 Clouds 24 1020 53 10000 2.6 120 09:43 16.11.2020
5418 Clouds 24 1020 53 10000 2.6 120 09:19 16.11.2020
5419 Clouds 22 1020 60 10000 3.1 100 08:38 16.11.2020
5420 Clouds 22 1021 60 10000 2.6 120 07:44 16.11.2020
5421 Clouds 21 1021 60 10000 3.1 110 06:49 16.11.2020
5422 Clouds 18 1021 72 10000 3.6 110 05:55 16.11.2020
5423 Clouds 16 1020 82 10000 4.1 120 04:37 16.11.2020
5424 Clouds 16 1018 87 10000 4.1 120 01:57 16.11.2020
5425 Clouds 16 1018 87 10000 3.1 130 01:39 16.11.2020
5426 Clouds 17 1018 82 10000 4.6 110 23:53 15.11.2020
5427 Clouds 17 1018 88 10000 4.1 110 23:22 15.11.2020
5428 Clouds 17 1019 88 10000 4.1 90 22:45 15.11.2020
5429 Clouds 17 1019 88 10000 4.1 90 22:20 15.11.2020
5430 Clouds 17 1019 88 10000 5.7 100 21:43 15.11.2020
5431 Clouds 17 1019 88 10000 4.6 100 21:24 15.11.2020
5432 Clouds 17 1019 88 10000 5.1 110 20:41 15.11.2020
5433 Clouds 18 1020 88 10000 4.1 120 20:18 15.11.2020
5434 Clouds 18 1020 88 10000 4.1 120 19:48 15.11.2020
5435 Thunderstorm 18 1019 88 10000 4.1 140 19:22 15.11.2020
5436 Thunderstorm 18 1019 88 10000 4.1 140 18:56 15.11.2020
5437 Thunderstorm 18 1019 88 10000 4.6 110 18:38 15.11.2020
5438 Thunderstorm 18 1019 88 10000 4.6 110 18:19 15.11.2020
5439 Thunderstorm 19 1019 82 10000 4.6 110 17:44 15.11.2020
5440 Thunderstorm 19 1019 82 10000 4.6 110 17:23 15.11.2020
5441 Thunderstorm 20 1018 77 10000 5.7 100 16:45 15.11.2020
5442 Clouds 21 1017 68 10000 6.7 110 16:20 15.11.2020
5443 Clouds 22 1017 64 10000 5.1 140 15:50 15.11.2020
5444 Clouds 23 1017 60 10000 5.1 110 15:26 15.11.2020
5445 Clouds 25 1016 53 10000 3.1 120 14:56 15.11.2020
5446 Clouds 25 1016 50 10000 3.1 150 14:30 15.11.2020
5447 Clouds 25 1016 50 10000 4.1 160 13:56 15.11.2020
5448 Clouds 25 1017 50 10000 4.1 140 13:36 15.11.2020
5449 Clouds 25 1017 50 10000 3.6 130 12:50 15.11.2020
5450 Clouds 25 1017 50 10000 3.6 100 12:22 15.11.2020
5451 Clouds 25 1018 53 10000 3.6 120 11:46 15.11.2020
5452 Clouds 25 1018 50 10000 4.6 100 11:19 15.11.2020
5453 Clouds 24 1018 53 10000 3.6 130 10:53 15.11.2020
5454 Clouds 24 1019 53 10000 4.1 120 10:32 15.11.2020
5455 Clouds 23 1019 56 10000 3.1 120 09:57 15.11.2020
5456 Clouds 23 1019 56 10000 3.1 160 09:37 15.11.2020
5457 Clouds 23 1019 56 10000 3.1 160 09:18 15.11.2020
5458 Clouds 21 1020 64 10000 3.1 120 08:45 15.11.2020
5459 Clouds 20 1020 68 10000 4.1 140 07:47 15.11.2020
5460 Clouds 20 1020 68 10000 5.1 120 06:49 15.11.2020
5461 Clouds 17 1019 82 10000 2.1 150 04:56 15.11.2020
5462 Clouds 16 1018 87 8000 3.6 140 02:27 15.11.2020
5463 Clouds 17 1018 88 10000 3.6 100 00:36 15.11.2020
5464 Clouds 17 1018 88 10000 3.6 100 00:18 15.11.2020
5465 Clouds 17 1018 88 10000 3.1 140 23:20 14.11.2020
5466 Clouds 17 1019 88 10000 3.1 150 22:45 14.11.2020
5467 Clouds 17 1019 88 10000 3.6 120 22:20 14.11.2020
5468 Clouds 17 1020 88 10000 3.1 140 21:39 14.11.2020
5469 Clouds 17 1020 88 10000 3.1 140 21:21 14.11.2020
5470 Thunderstorm 17 1019 88 10000 3.6 150 20:48 14.11.2020
5471 Thunderstorm 17 1019 88 10000 3.1 150 20:24 14.11.2020
5472 Thunderstorm 17 1019 93 10000 4.1 140 19:39 14.11.2020
5473 Thunderstorm 17 1019 93 10000 4.1 140 19:19 14.11.2020
5474 Thunderstorm 17 1018 93 10000 4.1 150 18:41 14.11.2020
5475 Thunderstorm 18 1018 88 8000 3.6 110 18:22 14.11.2020
5476 Thunderstorm 18 1018 88 8000 4.1 140 17:46 14.11.2020
5477 Rain 17 1017 93 8000 2.6 150 17:28 14.11.2020
5478 Thunderstorm 17 1017 93 8000 3.6 80 16:52 14.11.2020
5479 Thunderstorm 16 1017 100 4500 9.8 60 16:34 14.11.2020
5480 Clouds 20 1018 72 10000 9.3 210 15:56 14.11.2020
5481 Rain 22 1016 68 10000 8.2 90 15:33 14.11.2020
5482 Clouds 24 1015 60 10000 8.2 110 14:57 14.11.2020
5483 Clouds 26 1015 50 10000 5.1 120 14:30 14.11.2020
5484 Clouds 27 1015 47 10000 4.6 100 13:55 14.11.2020
5485 Clouds 26 1015 50 10000 4.1 80 13:37 14.11.2020
5486 Clouds 26 1015 50 10000 4.1 80 13:19 14.11.2020
5487 Clouds 26 1016 47 10000 4.1 90 12:39 14.11.2020
5488 Clouds 26 1016 47 10000 4.1 90 12:18 14.11.2020
5489 Clouds 26 1017 54 10000 3.6 140 11:39 14.11.2020
5490 Clouds 26 1017 54 10000 3.6 140 11:18 14.11.2020
5491 Clouds 25 1018 53 10000 4.1 100 10:40 14.11.2020
5492 Clouds 25 1018 53 10000 4.1 100 10:22 14.11.2020
5493 Clouds 24 1018 57 10000 3.1 120 09:45 14.11.2020
5494 Clouds 24 1018 57 10000 3.1 130 09:27 14.11.2020
5495 Clouds 23 1019 56 10000 2.6 140 08:42 14.11.2020
5496 Clouds 21 1019 68 10000 4.6 130 08:22 14.11.2020
5497 Clouds 21 1019 68 10000 7.2 110 07:42 14.11.2020
5498 Clouds 21 1019 68 10000 7.2 110 07:42 14.11.2020
5499 Clouds 21 1019 68 10000 3.1 130 06:58 14.11.2020
5500 Clouds 20 1019 77 10000 3.1 160 06:21 14.11.2020
5501 Clouds 19 1018 82 10000 2.1 130 05:18 14.11.2020
5502 Clouds 17 1017 88 10000 2.1 160 01:59 14.11.2020
5503 Clouds 18 1017 88 10000 2.6 150 00:25 14.11.2020
5504 Clouds 18 1017 88 10000 3.1 110 23:38 13.11.2020
5505 Clouds 18 1018 88 10000 3.1 70 22:59 13.11.2020
5506 Clouds 18 1018 88 10000 3.1 100 22:41 13.11.2020
5507 Clouds 18 1018 88 10000 3.1 100 22:21 13.11.2020
5508 Clouds 18 1018 88 10000 5.1 90 21:49 13.11.2020
5509 Clouds 19 1019 82 10000 3.1 150 21:27 13.11.2020
5510 Clouds 18 1019 88 10000 4.6 110 20:51 13.11.2020
5511 Clouds 18 1019 88 10000 4.6 110 20:32 13.11.2020
5512 Clouds 18 1019 88 10000 6.2 110 19:56 13.11.2020
5513 Clouds 18 1019 88 10000 5.1 110 19:37 13.11.2020
5514 Clouds 18 1019 88 10000 5.1 110 19:19 13.11.2020
5515 Thunderstorm 19 1018 88 10000 5.7 100 18:32 13.11.2020
5516 Thunderstorm 21 1018 77 10000 5.1 100 17:47 13.11.2020
5517 Thunderstorm 23 1017 46 10000 2.1 240 17:23 13.11.2020
5518 Clouds 25 1016 38 10000 2.1 280 16:57 13.11.2020
5519 Clouds 26 1016 34 10000 3.1 280 16:39 13.11.2020
5520 Clouds 26 1016 34 10000 3.1 280 16:20 13.11.2020
5521 Clouds 28 1015 32 10000 5.1 280 15:39 13.11.2020
5522 Clouds 28 1015 32 10000 5.1 280 15:21 13.11.2020
5523 Clouds 29 1015 26 10000 5.1 320 14:37 13.11.2020
5524 Clouds 29 1015 26 10000 5.1 320 14:18 13.11.2020
5525 Clouds 29 1015 26 10000 5.1 320 14:18 13.11.2020
5526 Clouds 30 1015 30 10000 7.2 310 13:32 13.11.2020
5527 Clouds 30 1015 30 10000 7.2 310 12:57 13.11.2020
5528 Clouds 30 1015 33 10000 5.1 290 12:39 13.11.2020
5529 Clouds 30 1015 33 10000 5.1 290 12:20 13.11.2020
5530 Clouds 30 1016 33 10000 6.2 310 11:46 13.11.2020
5531 Clouds 30 1016 33 10000 6.2 310 11:46 13.11.2020
5532 Clouds 29 1016 35 10000 5.1 250 11:21 13.11.2020
5533 Clouds 29 1017 37 10000 3.1 0 10:50 13.11.2020
5534 Clouds 28 1017 39 10000 3.1 320 10:32 13.11.2020
5535 Clouds 27 1018 42 10000 2.6 0 09:48 13.11.2020
5536 Clouds 27 1018 44 10000 2.6 0 09:29 13.11.2020
5537 Clouds 26 1018 44 10000 2.1 0 08:53 13.11.2020
5538 Clouds 25 1019 53 10000 1.5 0 08:27 13.11.2020
5539 Clouds 24 1019 64 10000 1 0 07:50 13.11.2020
5540 Clouds 23 1019 69 10000 1.5 0 07:27 13.11.2020
5541 Clouds 21 1019 77 10000 1.5 0 06:55 13.11.2020
5542 Clouds 21 1019 77 10000 2.1 170 06:36 13.11.2020
5543 Clouds 19 1019 88 10000 1 0 05:41 13.11.2020
5544 Clouds 16 1018 100 6000 1 0 03:41 13.11.2020
5545 Clouds 16 1017 100 10000 2.6 310 01:42 13.11.2020
5546 Clouds 16 1017 93 10000 2.1 310 00:36 13.11.2020
5547 Clouds 17 1018 93 10000 2.1 310 23:50 12.11.2020
5548 Clouds 17 1018 100 10000 0.5 0 23:21 12.11.2020
5549 Clouds 17 1018 93 10000 0.5 0 22:55 12.11.2020
5550 Clouds 17 1019 100 10000 0.5 0 22:37 12.11.2020
5551 Rain 17 1019 100 10000 2.6 330 21:58 12.11.2020
5552 Thunderstorm 17 1020 100 10000 1.5 330 21:39 12.11.2020
5553 Thunderstorm 17 1020 100 10000 1.5 330 21:21 12.11.2020
5554 Thunderstorm 18 1020 93 10000 2.1 250 20:41 12.11.2020
5555 Thunderstorm 18 1020 93 10000 2.1 250 20:23 12.11.2020
5556 Thunderstorm 18 1020 93 8000 1 270 19:52 12.11.2020
5557 Thunderstorm 17 1020 100 8000 1 0 19:34 12.11.2020
5558 Thunderstorm 17 1019 100 8000 1 0 18:56 12.11.2020
5559 Thunderstorm 17 1019 93 8000 2.6 70 18:37 12.11.2020
5560 Thunderstorm 17 1019 93 8000 2.6 70 18:18 12.11.2020
5561 Thunderstorm 18 1019 93 10000 5.1 340 17:39 12.11.2020
5562 Thunderstorm 18 1019 93 10000 5.1 340 17:21 12.11.2020
5563 Thunderstorm 18 1018 88 10000 4.6 330 16:44 12.11.2020
5564 Thunderstorm 21 1018 73 10000 6.2 270 16:23 12.11.2020
5565 Thunderstorm 22 1017 73 10000 1.5 0 15:47 12.11.2020
5566 Thunderstorm 22 1017 73 10000 1.5 0 15:47 12.11.2020
5567 Thunderstorm 23 1016 64 10000 3.6 320 15:27 12.11.2020
5568 Thunderstorm 23 1016 69 10000 5.7 340 14:47 12.11.2020
5569 Thunderstorm 23 1016 69 10000 5.7 340 14:47 12.11.2020
5570 Thunderstorm 24 1015 64 10000 8.7 310 14:27 12.11.2020
5571 Thunderstorm 23 1015 73 10000 5.1 360 13:58 12.11.2020
5572 Thunderstorm 22 1015 73 10000 3.1 250 13:39 12.11.2020
5573 Thunderstorm 22 1015 73 10000 3.1 250 13:19 12.11.2020
5574 Clouds 26 1015 54 10000 5.7 350 12:44 12.11.2020
5575 Thunderstorm 26 1016 57 10000 3.1 10 12:24 12.11.2020
5576 Thunderstorm 24 1017 69 10000 4.1 20 11:53 12.11.2020
5577 Thunderstorm 23 1017 83 9000 5.1 10 11:30 12.11.2020
5578 Thunderstorm 19 1017 77 3000 10.8 10 10:49 12.11.2020
5579 Clouds 27 1017 51 10000 3.1 350 10:29 12.11.2020
5580 Clouds 26 1018 61 10000 3.6 20 09:50 12.11.2020
5581 Clouds 25 1018 65 10000 2.6 70 09:25 12.11.2020
5582 Rain 22 1019 73 8000 3.1 340 08:58 12.11.2020
5583 Clouds 24 1019 69 10000 2.1 10 08:39 12.11.2020
5584 Clouds 24 1019 69 10000 2.1 10 08:20 12.11.2020
5585 Clouds 24 1019 69 10000 2.1 10 08:20 12.11.2020
5586 Rain 20 1020 88 10000 3.1 310 07:53 12.11.2020
5587 Rain 24 1020 64 10000 3.6 20 07:25 12.11.2020
5588 Clouds 22 1020 73 10000 2.1 30 06:51 12.11.2020
5589 Clouds 20 1020 82 10000 2.1 70 05:45 12.11.2020
5590 Clouds 18 1018 93 8000 2.6 60 03:43 12.11.2020
5591 Clouds 19 1018 82 8000 1.5 0 03:18 12.11.2020
5592 Clouds 19 1018 82 10000 1.5 0 00:23 12.11.2020
5593 Clouds 19 1018 82 10000 1 0 23:26 11.11.2020
5594 Clouds 19 1018 82 10000 2.1 100 23:00 11.11.2020
5595 Clouds 19 1019 82 10000 2.1 140 22:41 11.11.2020
5596 Clouds 19 1019 82 10000 2.1 140 22:21 11.11.2020
5597 Clouds 19 1019 82 10000 2.1 140 21:56 11.11.2020
5598 Clouds 19 1019 82 10000 1.5 160 21:38 11.11.2020
5599 Clouds 19 1019 82 10000 1.5 160 21:18 11.11.2020
5600 Thunderstorm 19 1019 82 10000 3.6 100 20:42 11.11.2020
5601 Thunderstorm 19 1019 82 10000 3.6 100 20:21 11.11.2020
5602 Clouds 19 1019 82 10000 3.6 90 19:51 11.11.2020
5603 Thunderstorm 20 1019 77 10000 4.1 90 19:32 11.11.2020
5604 Clouds 20 1019 77 10000 4.1 100 18:58 11.11.2020
5605 Clouds 20 1019 82 10000 4.1 100 18:40 11.11.2020
5606 Clouds 21 1018 77 10000 6.2 100 17:46 11.11.2020
5607 Clouds 22 1018 68 10000 6.2 100 17:27 11.11.2020
5608 Clouds 23 1017 64 8000 6.7 100 16:59 11.11.2020
5609 Clouds 24 1017 60 8000 8.2 110 16:37 11.11.2020
5610 Clouds 24 1017 60 8000 8.2 110 16:19 11.11.2020
5611 Clouds 29 1016 32 10000 1.5 0 15:39 11.11.2020
5612 Clouds 29 1016 32 10000 1.5 0 15:39 11.11.2020
5613 Clouds 29 1016 32 10000 1.5 0 15:21 11.11.2020
5614 Clouds 30 1015 30 10000 2.6 30 14:43 11.11.2020
5615 Clouds 30 1015 30 10000 2.6 30 14:23 11.11.2020
5616 Clouds 30 1016 30 10000 1.5 0 13:48 11.11.2020
5617 Clouds 30 1016 30 10000 2.1 0 13:24 11.11.2020
5618 Clouds 29 1017 35 10000 2.1 10 12:21 11.11.2020
5619 Clouds 28 1017 37 10000 3.1 90 11:51 11.11.2020
5620 Clouds 28 1018 37 10000 3.6 160 11:33 11.11.2020
5621 Clouds 27 1018 42 10000 2.6 0 10:46 11.11.2020
5622 Clouds 26 1019 50 10000 3.1 120 10:28 11.11.2020
5623 Clouds 25 1019 53 10000 1.5 0 09:59 11.11.2020
5624 Clouds 25 1020 53 10000 1 0 09:39 11.11.2020
5625 Clouds 25 1020 53 10000 1 0 09:21 11.11.2020
5626 Clouds 24 1021 57 10000 2.6 170 08:43 11.11.2020
5627 Clouds 24 1021 57 10000 2.6 170 08:24 11.11.2020
5628 Clouds 22 1021 64 10000 2.1 0 07:44 11.11.2020
5629 Clouds 18 1021 82 10000 3.1 120 06:32 11.11.2020
5630 Clouds 17 1021 88 9000 3.1 80 05:44 11.11.2020
5631 Clouds 15 1019 93 10000 2.1 100 01:47 11.11.2020
5632 Clouds 16 1019 87 10000 1.5 150 00:57 11.11.2020
5633 Clouds 16 1019 87 10000 1.5 150 00:24 11.11.2020
5634 Clouds 16 1020 87 10000 2.1 150 23:38 10.11.2020
5635 Clouds 16 1020 87 10000 2.1 150 23:20 10.11.2020
5636 Clouds 16 1020 87 10000 3.1 110 22:45 10.11.2020
5637 Clouds 16 1021 87 10000 2.6 100 22:26 10.11.2020
5638 Clouds 16 1021 87 10000 2.6 90 21:41 10.11.2020
5639 Clouds 17 1021 82 10000 2.1 70 21:23 10.11.2020
5640 Clouds 17 1022 88 10000 3.1 100 20:56 10.11.2020
5641 Clouds 17 1022 88 10000 4.6 110 20:38 10.11.2020
5642 Clouds 17 1022 88 10000 4.6 110 20:19 10.11.2020
5643 Clouds 18 1022 82 10000 2.6 120 19:44 10.11.2020
5644 Clouds 18 1021 82 10000 3.6 120 19:24 10.11.2020
5645 Clouds 19 1021 77 10000 5.7 100 18:55 10.11.2020
5646 Clouds 19 1021 77 10000 5.7 100 18:36 10.11.2020
5647 Clouds 19 1021 77 10000 5.7 100 18:18 10.11.2020
5648 Clouds 21 1019 60 10000 5.1 80 17:41 10.11.2020
5649 Clouds 21 1019 60 10000 5.1 80 17:22 10.11.2020
5650 Clouds 23 1019 49 10000 5.7 90 16:41 10.11.2020
5651 Clouds 24 1019 47 10000 5.1 90 16:22 10.11.2020
5652 Clouds 26 1018 36 10000 3.6 100 15:54 10.11.2020
5653 Clouds 27 1018 34 10000 2.1 0 15:36 10.11.2020
5654 Clouds 27 1018 34 10000 2.1 0 15:18 10.11.2020
5655 Clouds 28 1018 30 10000 2.6 140 14:37 10.11.2020
5656 Clouds 28 1018 30 10000 2.6 140 14:37 10.11.2020
5657 Clouds 28 1018 30 10000 2.6 140 14:18 10.11.2020
5658 Clouds 28 1018 30 10000 2.6 150 13:38 10.11.2020
5659 Clouds 28 1018 30 10000 2.6 150 13:19 10.11.2020
5660 Clouds 28 1018 32 10000 4.1 160 12:46 10.11.2020
5661 Clouds 27 1019 34 10000 3.1 170 12:25 10.11.2020
5662 Clouds 27 1020 32 10000 3.1 0 11:43 10.11.2020
5663 Clouds 27 1020 32 10000 3.1 0 11:21 10.11.2020
5664 Clouds 26 1020 34 10000 4.1 0 10:57 10.11.2020
5665 Clouds 26 1021 36 10000 3.6 0 10:38 10.11.2020
5666 Clouds 26 1021 36 10000 3.6 0 10:19 10.11.2020
5667 Clouds 26 1021 36 10000 3.1 0 09:43 10.11.2020
5668 Clouds 24 1022 44 10000 3.6 130 09:24 10.11.2020
5669 Clouds 23 1022 49 10000 5.1 100 08:53 10.11.2020
5670 Clouds 23 1023 49 10000 4.1 120 08:27 10.11.2020
5671 Clouds 21 1023 60 10000 3.6 140 07:44 10.11.2020
5672 Clouds 21 1023 60 10000 3.6 140 07:24 10.11.2020
5673 Clouds 18 1023 72 10000 3.1 140 06:40 10.11.2020
5674 Clouds 17 1023 77 10000 4.1 120 05:43 10.11.2020
5675 Clouds 16 1023 77 10000 5.1 110 04:59 10.11.2020
5676 Clouds 16 1022 87 10000 5.1 120 02:29 10.11.2020
5677 Clouds 16 1022 87 10000 3.6 90 01:30 10.11.2020
5678 Clouds 16 1023 87 10000 3.6 120 23:55 09.11.2020
5679 Clouds 16 1023 87 10000 5.1 120 23:33 09.11.2020
5680 Clouds 16 1023 87 10000 3.6 130 22:48 09.11.2020
5681 Clouds 16 1024 87 10000 4.1 100 22:25 09.11.2020
5682 Clouds 16 1024 87 10000 4.1 100 21:54 09.11.2020
5683 Clouds 16 1024 87 10000 4.1 90 21:36 09.11.2020
5684 Clouds 16 1024 87 10000 4.1 90 21:18 09.11.2020
5685 Clouds 16 1025 87 10000 3.1 90 20:37 09.11.2020
5686 Clouds 16 1025 87 10000 3.1 90 20:18 09.11.2020
5687 Clouds 17 1025 77 10000 3.1 90 19:41 09.11.2020
5688 Clouds 17 1025 77 10000 3.1 90 19:22 09.11.2020
5689 Clouds 17 1025 77 10000 3.1 90 18:42 09.11.2020
5690 Clouds 17 1025 77 10000 3.1 70 18:20 09.11.2020
5691 Clouds 18 1024 77 10000 4.6 80 17:53 09.11.2020
5692 Clouds 18 1024 77 10000 4.6 90 17:33 09.11.2020
5693 Clouds 19 1024 72 10000 5.1 100 16:46 09.11.2020
5694 Clouds 19 1023 72 10000 4.6 110 16:28 09.11.2020
5695 Clouds 20 1023 68 10000 5.7 120 15:58 09.11.2020
5696 Clouds 21 1023 60 10000 5.7 120 15:40 09.11.2020
5697 Clouds 21 1023 60 10000 5.7 120 15:20 09.11.2020
5698 Clouds 21 1022 60 10000 5.7 100 14:41 09.11.2020
5699 Clouds 22 1022 56 10000 6.2 110 14:23 09.11.2020
5700 Clouds 23 1022 49 10000 5.7 110 13:43 09.11.2020
5701 Clouds 23 1022 49 10000 5.7 110 13:20 09.11.2020
5702 Clouds 23 1022 49 10000 6.2 110 12:47 09.11.2020
5703 Clouds 23 1022 49 10000 5.7 140 12:21 09.11.2020
5704 Clouds 25 1022 44 10000 6.7 110 11:55 09.11.2020
5705 Clouds 26 1022 41 10000 6.7 120 11:36 09.11.2020
5706 Clouds 26 1022 41 10000 6.7 120 11:18 09.11.2020
5707 Clouds 25 1023 41 10000 8.2 100 10:41 09.11.2020
5708 Clouds 25 1023 41 10000 8.2 100 10:22 09.11.2020
5709 Clouds 24 1023 44 10000 7.2 120 09:41 09.11.2020
5710 Clouds 24 1024 44 10000 6.2 120 09:23 09.11.2020
5711 Clouds 22 1024 46 10000 7.2 110 08:38 09.11.2020
5712 Clouds 22 1024 46 10000 7.2 110 08:19 09.11.2020
5713 Clouds 21 1025 46 10000 6.2 120 07:38 09.11.2020
5714 Clouds 21 1025 46 10000 6.2 120 07:18 09.11.2020
5715 Clouds 19 1025 55 10000 6.2 120 06:22 09.11.2020
5716 Clouds 15 1024 82 10000 2.1 140 02:58 09.11.2020
5717 Clouds 16 1023 82 10000 3.6 140 01:42 09.11.2020
5718 Clouds 16 1023 82 10000 3.6 140 00:57 09.11.2020
5719 Clouds 16 1024 82 10000 5.1 110 23:50 08.11.2020
5720 Clouds 16 1023 82 10000 5.7 120 23:28 08.11.2020
5721 Clouds 17 1024 77 10000 5.1 120 22:45 08.11.2020
5722 Clouds 17 1024 77 10000 6.2 110 22:22 08.11.2020
5723 Clouds 18 1025 77 10000 4.6 110 21:52 08.11.2020
5724 Clouds 18 1025 77 10000 5.7 110 21:25 08.11.2020
5725 Clouds 19 1025 72 10000 3.1 140 20:59 08.11.2020
5726 Clouds 19 1025 72 10000 4.6 110 20:39 08.11.2020
5727 Clouds 19 1025 72 10000 4.6 110 20:20 08.11.2020
5728 Clouds 19 1025 77 10000 5.7 100 19:46 08.11.2020
5729 Clouds 20 1025 68 10000 4.1 130 19:24 08.11.2020
5730 Clouds 19 1024 82 10000 5.1 90 18:59 08.11.2020
5731 Clouds 20 1024 77 10000 5.7 80 18:41 08.11.2020
5732 Clouds 20 1024 77 10000 5.7 80 18:21 08.11.2020
5733 Clouds 20 1024 77 10000 5.1 90 17:56 08.11.2020
5734 Clouds 21 1024 73 10000 5.7 120 17:36 08.11.2020
5735 Clouds 21 1024 73 10000 5.7 120 17:18 08.11.2020
5736 Clouds 23 1022 56 10000 6.7 100 16:38 08.11.2020
5737 Clouds 23 1022 56 10000 6.7 100 16:20 08.11.2020
5738 Clouds 25 1022 47 10000 7.2 100 15:46 08.11.2020
5739 Clouds 26 1022 44 10000 8.2 100 15:28 08.11.2020
5740 Clouds 26 1021 47 10000 7.7 100 14:44 08.11.2020
5741 Clouds 28 1021 42 10000 8.2 120 14:24 08.11.2020
5742 Clouds 28 1021 42 10000 8.2 120 14:24 08.11.2020
5743 Clouds 29 1021 35 10000 6.2 120 13:57 08.11.2020
5744 Clouds 30 1021 30 10000 5.7 130 13:38 08.11.2020
5745 Clouds 30 1021 30 10000 5.7 130 13:18 08.11.2020
5746 Clouds 30 1022 28 10000 5.1 110 12:40 08.11.2020
5747 Clouds 30 1022 28 10000 5.1 110 12:22 08.11.2020
5748 Clouds 30 1022 27 10000 5.7 100 11:56 08.11.2020
5749 Clouds 31 1022 22 10000 5.1 110 11:38 08.11.2020
5750 Clouds 31 1022 22 10000 5.7 100 11:19 08.11.2020
5751 Clouds 31 1022 22 10000 5.7 100 10:42 08.11.2020
5752 Clouds 31 1022 23 10000 5.7 90 10:18 08.11.2020
5753 Clouds 30 1022 20 10000 3.6 0 09:42 08.11.2020
5754 Clouds 29 1023 23 10000 3.1 160 09:23 08.11.2020
5755 Clouds 28 1023 24 10000 2.6 0 08:47 08.11.2020
5756 Clouds 28 1023 24 10000 3.6 0 08:27 08.11.2020
5757 Clouds 26 1024 29 10000 2.1 0 07:53 08.11.2020
5758 Clouds 25 1024 36 10000 2.6 120 07:32 08.11.2020
5759 Clouds 22 1025 56 8000 2.1 140 06:45 08.11.2020
5760 Clouds 20 1025 72 8000 2.1 100 05:54 08.11.2020
5761 Clouds 17 1024 88 8000 2.1 100 04:51 08.11.2020
5762 Clouds 14 1023 93 8000 1.5 170 03:25 08.11.2020
5763 Clouds 15 1023 93 8000 2.6 100 01:19 08.11.2020
5764 Clouds 16 1023 87 8000 1.5 0 00:33 08.11.2020
5765 Clouds 16 1024 93 8000 2.6 60 23:57 07.11.2020
5766 Clouds 16 1024 93 8000 2.6 60 23:38 07.11.2020
5767 Clouds 16 1024 93 8000 2.6 60 23:19 07.11.2020
5768 Clouds 16 1024 93 8000 2.1 110 22:40 07.11.2020
5769 Clouds 16 1024 93 8000 2.1 110 22:20 07.11.2020
5770 Clouds 17 1024 88 8000 2.1 100 21:43 07.11.2020
5771 Clouds 17 1024 88 8000 3.6 70 21:19 07.11.2020
5772 Clouds 18 1024 82 8000 4.1 100 20:47 07.11.2020
5773 Clouds 18 1025 82 8000 5.1 100 20:29 07.11.2020
5774 Clouds 18 1025 88 10000 3.1 100 19:50 07.11.2020
5775 Clouds 19 1024 82 9000 4.6 100 19:28 07.11.2020
5776 Clouds 19 1024 77 8000 5.1 80 18:45 07.11.2020
5777 Clouds 20 1023 72 8000 6.2 100 18:27 07.11.2020
5778 Clouds 21 1023 64 8000 7.2 110 17:59 07.11.2020
5779 Clouds 22 1022 60 8000 5.7 110 17:37 07.11.2020
5780 Clouds 23 1022 53 8000 7.2 110 16:57 07.11.2020
5781 Clouds 24 1021 53 8000 6.7 110 16:39 07.11.2020
5782 Clouds 24 1021 53 8000 6.7 110 16:20 07.11.2020
5783 Clouds 25 1021 44 8000 5.7 100 15:42 07.11.2020
5784 Clouds 26 1021 41 10000 5.7 110 15:22 07.11.2020
5785 Clouds 28 1020 34 10000 6.2 110 14:48 07.11.2020
5786 Clouds 29 1019 32 10000 6.7 110 14:29 07.11.2020
5787 Clouds 30 1019 28 10000 6.7 110 13:56 07.11.2020
5788 Clouds 31 1019 25 10000 5.1 80 13:31 07.11.2020
5789 Clouds 31 1020 22 10000 3.6 70 12:52 07.11.2020
5790 Clouds 31 1020 22 10000 4.1 120 12:26 07.11.2020
5791 Clouds 31 1021 23 10000 3.6 130 11:45 07.11.2020
5792 Clouds 31 1021 23 10000 3.6 130 11:23 07.11.2020
5793 Clouds 30 1021 25 10000 4.1 80 10:46 07.11.2020
5794 Clouds 29 1021 42 10000 3.1 0 10:27 07.11.2020
5795 Clouds 29 1021 42 10000 3.1 0 09:54 07.11.2020
5796 Clouds 27 1022 47 10000 3.1 0 09:36 07.11.2020
5797 Clouds 26 1022 54 10000 2.6 0 08:55 07.11.2020
5798 Clouds 25 1023 57 9000 2.1 120 08:36 07.11.2020
5799 Clouds 25 1023 57 9000 2.1 120 08:36 07.11.2020
5800 Clouds 23 1023 64 9000 3.1 100 07:55 07.11.2020
5801 Clouds 22 1023 68 9000 3.6 110 07:31 07.11.2020
5802 Clouds 21 1023 73 8000 3.6 180 06:47 07.11.2020
5803 Clouds 19 1023 82 7000 1.5 0 05:34 07.11.2020
5804 Clouds 18 1022 88 10000 3.6 110 03:24 07.11.2020
5805 Clouds 18 1021 88 10000 4.1 70 01:29 07.11.2020
5806 Clouds 17 1022 93 10000 3.1 80 00:59 07.11.2020
5807 Clouds 17 1022 93 10000 2.6 70 23:56 06.11.2020
5808 Clouds 17 1023 93 10000 2.6 90 23:22 06.11.2020
5809 Clouds 17 1023 93 9000 3.1 110 22:42 06.11.2020
5810 Clouds 18 1023 88 9000 3.6 110 22:19 06.11.2020
5811 Clouds 18 1023 88 7000 4.1 100 21:46 06.11.2020
5812 Clouds 18 1024 88 7000 3.1 110 21:22 06.11.2020
5813 Clouds 18 1024 88 5000 2.1 90 20:56 06.11.2020
5814 Clouds 18 1024 88 6000 2.6 120 20:38 06.11.2020
5815 Clouds 18 1024 88 6000 2.6 120 20:18 06.11.2020
5816 Clouds 20 1022 77 10000 4.6 100 19:44 06.11.2020
5817 Clouds 20 1022 77 10000 4.6 100 19:26 06.11.2020
5818 Clouds 20 1022 77 10000 4.6 100 18:45 06.11.2020
5819 Clouds 20 1022 77 10000 4.1 90 18:23 06.11.2020
5820 Clouds 21 1022 73 10000 4.6 100 17:51 06.11.2020
5821 Clouds 22 1021 68 10000 4.6 100 17:27 06.11.2020
5822 Clouds 23 1021 64 10000 6.2 90 16:50 06.11.2020
5823 Clouds 23 1020 64 10000 6.2 100 16:32 06.11.2020
5824 Clouds 23 1020 64 10000 6.2 100 16:32 06.11.2020
5825 Clouds 25 1020 53 10000 5.7 100 15:54 06.11.2020
5826 Clouds 26 1019 50 10000 5.7 100 15:33 06.11.2020
5827 Clouds 29 1019 37 10000 3.1 110 14:54 06.11.2020
5828 Clouds 29 1019 37 10000 3.1 110 14:28 06.11.2020
5829 Clouds 29 1019 37 10000 3.6 140 13:49 06.11.2020
5830 Clouds 29 1019 37 10000 3.6 140 13:49 06.11.2020
5831 Clouds 29 1019 37 10000 4.6 100 13:25 06.11.2020
5832 Clouds 29 1019 37 10000 3.1 110 12:47 06.11.2020
5833 Clear 29 1020 37 10000 4.1 140 12:27 06.11.2020
5834 Clear 29 1020 37 10000 3.1 130 11:59 06.11.2020
5835 Clear 29 1020 37 10000 4.6 140 11:36 06.11.2020
5836 Clear 28 1020 39 10000 5.1 100 10:51 06.11.2020
5837 Clouds 28 1021 39 10000 3.6 130 10:30 06.11.2020
5838 Clouds 27 1021 39 10000 3.6 140 09:50 06.11.2020
5839 Clouds 26 1021 44 10000 3.6 120 09:27 06.11.2020
5840 Clouds 25 1022 50 10000 3.1 130 08:53 06.11.2020
5841 Clouds 24 1022 53 10000 3.6 160 08:31 06.11.2020
5842 Clouds 23 1022 53 10000 3.1 140 07:56 06.11.2020
5843 Clouds 22 1022 56 7000 2.1 140 07:37 06.11.2020
5844 Clouds 22 1022 56 7000 2.1 140 07:18 06.11.2020
5845 Clouds 20 1022 64 6000 3.6 120 06:32 06.11.2020
5846 Clouds 18 1022 72 6000 4.1 120 05:36 06.11.2020
5847 Clouds 16 1019 87 8000 4.6 90 01:23 06.11.2020
5848 Clouds 16 1020 87 10000 2.6 60 00:23 06.11.2020
5849 Clouds 17 1020 88 8000 3.1 120 23:39 05.11.2020
5850 Clouds 18 1020 88 10000 3.1 110 22:59 05.11.2020
5851 Clouds 18 1021 88 10000 5.1 120 22:41 05.11.2020
5852 Clouds 18 1021 88 10000 5.1 120 22:22 05.11.2020
5853 Clouds 19 1021 82 8000 3.1 90 21:44 05.11.2020
5854 Clouds 19 1021 82 8000 4.6 80 21:23 05.11.2020
5855 Clouds 20 1022 72 10000 4.6 80 20:58 05.11.2020
5856 Clouds 20 1022 72 10000 4.6 80 20:39 05.11.2020
5857 Clouds 20 1022 72 10000 4.6 80 20:21 05.11.2020
5858 Thunderstorm 21 1022 68 7000 4.6 110 19:43 05.11.2020
5859 Thunderstorm 21 1022 68 7000 4.6 110 19:23 05.11.2020
5860 Thunderstorm 21 1022 68 7000 3.1 130 18:49 05.11.2020
5861 Thunderstorm 22 1022 64 7000 3.6 160 18:30 05.11.2020
5862 Clouds 22 1022 64 7000 4.1 140 17:54 05.11.2020
5863 Clouds 23 1021 60 8000 5.1 130 17:36 05.11.2020
5864 Clouds 23 1021 60 8000 5.1 130 17:18 05.11.2020
5865 Clouds 24 1019 53 8000 6.2 110 16:41 05.11.2020
5866 Clouds 24 1019 53 8000 6.2 110 16:21 05.11.2020
5867 Clouds 27 1019 51 10000 5.1 100 15:49 05.11.2020
5868 Clouds 27 1018 51 7000 4.1 100 15:24 05.11.2020
5869 Clouds 27 1018 39 7000 5.7 100 14:47 05.11.2020
5870 Clouds 28 1018 39 7000 4.1 90 14:29 05.11.2020
5871 Clouds 28 1018 39 8000 4.6 100 13:49 05.11.2020
5872 Clouds 29 1018 39 10000 4.1 130 13:30 05.11.2020
5873 Clouds 31 1018 35 9000 2.6 0 12:53 05.11.2020
5874 Clouds 31 1018 33 9000 2.6 140 12:29 05.11.2020
5875 Clouds 30 1018 35 10000 3.1 90 11:55 05.11.2020
5876 Clouds 30 1019 33 10000 2.6 0 11:37 05.11.2020
5877 Clouds 30 1019 33 10000 2.6 0 11:18 05.11.2020
5878 Clouds 28 1019 42 10000 3.1 120 10:41 05.11.2020
5879 Clouds 28 1020 42 10000 3.1 140 10:22 05.11.2020
5880 Clouds 27 1020 51 10000 4.1 100 09:45 05.11.2020
5881 Clouds 27 1020 51 8000 4.1 160 09:22 05.11.2020
5882 Clouds 25 1021 57 8000 1 0 08:44 05.11.2020
5883 Clouds 25 1021 57 8000 1 0 08:26 05.11.2020
5884 Clouds 22 1022 64 7000 2.1 90 07:40 05.11.2020
5885 Clouds 22 1022 64 7000 2.1 90 07:20 05.11.2020
5886 Clouds 19 1022 77 7000 4.1 70 06:34 05.11.2020
5887 Smoke 15 1022 93 4500 3.6 60 05:23 05.11.2020
5888 Clouds 14 1020 93 10000 2.1 80 01:24 05.11.2020
5889 Clouds 15 1020 87 10000 1.5 100 00:32 05.11.2020
5890 Clouds 15 1020 87 10000 1.5 90 23:44 04.11.2020
5891 Clouds 16 1020 87 10000 2.1 70 23:26 04.11.2020
5892 Clouds 15 1021 87 10000 1.5 100 22:52 04.11.2020
5893 Clouds 16 1021 82 10000 2.1 70 22:26 04.11.2020
5894 Clouds 16 1021 82 10000 3.1 90 21:57 04.11.2020
5895 Clouds 17 1021 77 9000 3.1 100 21:37 04.11.2020
5896 Clouds 17 1021 77 9000 3.1 100 21:18 04.11.2020
5897 Clouds 17 1022 77 9000 1 70 20:42 04.11.2020
5898 Clear 16 1018 83 10000 1.18 53 20:24 04.11.2020
5899 Clouds 18 1022 72 10000 2.1 100 19:48 04.11.2020
5900 Clouds 18 1022 72 10000 2.6 90 19:29 04.11.2020
5901 Clouds 20 1021 64 10000 4.6 110 18:44 04.11.2020
5902 Clouds 20 1021 64 10000 4.6 110 18:25 04.11.2020
5903 Clouds 20 1021 64 10000 4.6 110 18:25 04.11.2020
5904 Clouds 21 1021 60 10000 4.6 130 17:57 04.11.2020
5905 Clouds 22 1021 53 10000 6.2 110 17:38 04.11.2020
5906 Clouds 22 1021 53 10000 6.2 110 17:19 04.11.2020
5907 Clouds 24 1019 41 10000 4.6 90 16:38 04.11.2020
5908 Clouds 24 1019 41 10000 4.6 90 16:20 04.11.2020
5909 Clouds 26 1019 34 10000 5.1 90 15:46 04.11.2020
5910 Clouds 27 1018 32 10000 4.6 90 15:24 04.11.2020
5911 Clouds 28 1018 30 10000 4.1 110 14:48 04.11.2020
5912 Clouds 30 1018 25 10000 2.1 0 14:27 04.11.2020
5913 Clouds 29 1018 25 10000 1.5 0 13:57 04.11.2020
5914 Clouds 30 1018 25 10000 3.1 200 13:39 04.11.2020
5915 Clouds 30 1018 25 10000 3.1 200 13:19 04.11.2020
5916 Clouds 29 1019 26 10000 2.1 0 12:48 04.11.2020
5917 Clouds 29 1019 28 10000 2.6 140 12:25 04.11.2020
5918 Clouds 29 1019 28 10000 2.1 0 11:55 04.11.2020
5919 Clouds 28 1020 32 10000 3.1 150 11:31 04.11.2020
5920 Clouds 28 1020 32 10000 3.6 110 10:58 04.11.2020
5921 Clouds 27 1021 32 10000 3.1 0 10:39 04.11.2020
5922 Clouds 27 1021 32 10000 3.1 0 10:21 04.11.2020
5923 Clouds 25 1021 41 10000 3.1 0 09:44 04.11.2020
5924 Clouds 25 1021 41 10000 3.1 0 09:20 04.11.2020
5925 Clouds 25 1022 41 10000 2.6 150 08:43 04.11.2020
5926 Clouds 23 1022 46 10000 2.6 110 08:18 04.11.2020
5927 Clouds 22 1022 49 10000 2.1 140 07:44 04.11.2020
5928 Clouds 20 1022 56 9000 2.6 100 07:25 04.11.2020
5929 Clouds 18 1023 68 9000 2.6 140 06:41 04.11.2020
5930 Clouds 17 1022 72 9000 2.1 120 05:54 04.11.2020
5931 Clouds 13 1021 93 10000 2.6 80 02:31 04.11.2020
5932 Clouds 13 1022 93 10000 3.1 90 01:40 04.11.2020
5933 Clouds 14 1022 87 10000 3.1 80 00:27 04.11.2020
5934 Clouds 14 1022 93 8000 3.6 80 23:33 03.11.2020
5935 Clouds 14 1023 93 8000 3.6 90 22:59 03.11.2020
5936 Clouds 15 1023 87 9000 2.6 80 22:40 03.11.2020
5937 Clouds 15 1023 87 9000 2.6 80 22:20 03.11.2020
5938 Clouds 15 1023 87 9000 2.1 60 21:43 03.11.2020
5939 Clouds 15 1023 87 9000 2.1 60 21:43 03.11.2020
5940 Clouds 15 1023 87 10000 1.5 70 21:25 03.11.2020
5941 Clouds 16 1023 82 10000 4.1 110 20:56 03.11.2020
5942 Clouds 17 1023 77 10000 4.6 120 20:38 03.11.2020
5943 Clouds 17 1023 77 10000 4.6 120 20:18 03.11.2020
5944 Clouds 17 1023 77 10000 4.6 110 19:42 03.11.2020
5945 Clouds 18 1023 72 10000 4.1 100 19:19 03.11.2020
5946 Clouds 18 1023 72 10000 4.1 110 18:41 03.11.2020
5947 Clouds 19 1023 68 10000 4.6 100 18:19 03.11.2020
5948 Clouds 20 1023 64 10000 5.1 110 17:53 03.11.2020
5949 Clouds 21 1022 56 10000 5.1 100 17:34 03.11.2020
5950 Clouds 22 1022 49 10000 5.7 100 16:52 03.11.2020
5951 Clouds 23 1022 46 10000 5.7 100 16:31 03.11.2020
5952 Clouds 24 1021 41 10000 5.7 100 15:58 03.11.2020
5953 Clouds 26 1021 31 10000 5.1 80 15:40 03.11.2020
5954 Clouds 26 1021 31 10000 5.1 80 15:19 03.11.2020
5955 Clouds 27 1020 30 10000 4.6 90 14:43 03.11.2020
5956 Clouds 27 1020 30 10000 4.6 90 14:25 03.11.2020
5957 Clouds 28 1021 30 10000 4.1 80 13:42 03.11.2020
5958 Clouds 28 1021 28 10000 4.6 100 13:21 03.11.2020
5959 Clouds 28 1021 26 10000 3.6 110 12:47 03.11.2020
5960 Clouds 28 1021 26 10000 3.6 170 12:26 03.11.2020
5961 Clouds 28 1021 24 10000 3.6 100 11:47 03.11.2020
5962 Clouds 27 1021 28 10000 4.1 170 11:26 03.11.2020
5963 Clouds 26 1022 29 10000 4.1 110 10:59 03.11.2020
5964 Clouds 25 1022 33 10000 3.1 160 10:38 03.11.2020
5965 Clouds 25 1022 33 10000 3.1 160 10:18 03.11.2020
5966 Clouds 25 1023 36 10000 3.1 0 09:45 03.11.2020
5967 Clouds 24 1023 44 10000 3.1 110 09:24 03.11.2020
5968 Clouds 23 1023 46 10000 3.1 0 08:49 03.11.2020
5969 Clouds 22 1024 46 10000 3.6 130 08:30 03.11.2020
5970 Clouds 22 1024 43 10000 3.6 140 07:41 03.11.2020
5971 Clouds 21 1024 49 10000 3.6 120 07:19 03.11.2020
5972 Clouds 17 1024 67 10000 3.6 80 06:22 03.11.2020
5973 Clouds 14 1023 87 10000 2.1 50 04:34 03.11.2020
5974 Clouds 15 1022 87 10000 2.6 60 00:45 03.11.2020
5975 Clouds 15 1022 87 10000 2.1 60 00:24 03.11.2020
5976 Clouds 15 1022 87 10000 2.6 70 23:43 02.11.2020
5977 Clouds 15 1023 87 10000 2.1 70 23:22 02.11.2020
5978 Clouds 15 1023 87 10000 2.1 80 22:43 02.11.2020
5979 Clouds 15 1023 87 10000 3.1 90 22:24 02.11.2020
5980 Clouds 16 1023 82 10000 5.1 110 21:39 02.11.2020
5981 Clouds 16 1023 82 10000 5.1 110 21:21 02.11.2020
5982 Clouds 16 1023 82 10000 4.1 110 20:56 02.11.2020
5983 Clouds 16 1024 82 10000 4.1 110 20:38 02.11.2020
5984 Clouds 16 1024 82 10000 4.1 110 20:18 02.11.2020
5985 Clouds 16 1024 82 10000 4.1 110 20:18 02.11.2020
5986 Clouds 17 1024 77 10000 4.1 130 19:43 02.11.2020
5987 Clouds 18 1024 68 10000 4.1 130 19:25 02.11.2020
5988 Clouds 18 1024 68 10000 2.6 130 18:43 02.11.2020
5989 Clouds 19 1023 63 10000 3.6 130 18:22 02.11.2020
5990 Clouds 20 1023 60 10000 4.6 130 17:58 02.11.2020
5991 Clouds 21 1022 52 10000 5.7 100 17:40 02.11.2020
5992 Clouds 21 1022 52 10000 5.7 100 17:20 02.11.2020
5993 Clouds 21 1022 52 10000 5.7 100 17:20 02.11.2020
5994 Clouds 22 1022 49 10000 5.1 100 16:41 02.11.2020
5995 Clouds 22 1022 49 10000 5.1 100 16:23 02.11.2020
5996 Clouds 24 1021 41 10000 4.6 110 15:41 02.11.2020
5997 Clouds 25 1021 33 10000 3.6 120 15:22 02.11.2020
5998 Clouds 25 1021 36 10000 3.1 130 14:53 02.11.2020
5999 Clouds 25 1021 36 10000 3.1 130 14:53 02.11.2020
6000 Clouds 26 1020 31 10000 4.1 130 14:20 02.11.2020
6001 Clouds 26 1020 31 10000 4.6 110 13:54 02.11.2020
6002 Clouds 26 1020 34 10000 4.6 160 13:23 02.11.2020
6003 Clouds 26 1020 34 10000 4.6 160 13:23 02.11.2020
6004 Clouds 25 1020 36 10000 5.1 100 12:59 02.11.2020
6005 Clouds 24 1021 36 10000 3.6 160 12:31 02.11.2020
6006 Clouds 24 1021 36 10000 3.6 160 11:58 02.11.2020
6007 Clouds 25 1021 38 10000 3.1 140 11:38 02.11.2020
6008 Clouds 25 1021 38 10000 3.1 140 11:19 02.11.2020
6009 Clouds 25 1022 41 10000 4.1 180 10:42 02.11.2020
6010 Clouds 25 1022 41 10000 4.1 180 10:21 02.11.2020
6011 Clouds 24 1022 44 10000 4.1 140 09:49 02.11.2020
6012 Clouds 23 1022 43 10000 5.7 180 09:24 02.11.2020
6013 Clouds 22 1022 46 10000 4.6 120 08:42 02.11.2020
6014 Clouds 22 1022 46 10000 4.6 120 08:22 02.11.2020
6015 Clouds 21 1023 49 10000 4.1 130 07:50 02.11.2020
6016 Clouds 18 1023 68 10000 3.1 130 06:52 02.11.2020
6017 Clouds 18 1023 63 10000 4.1 120 06:34 02.11.2020
6018 Clouds 12 1021 93 10000 4.1 60 03:23 02.11.2020
6019 Clouds 13 1020 93 10000 1 70 01:22 02.11.2020
6020 Clouds 13 1020 93 10000 2.6 90 00:33 02.11.2020
6021 Clouds 14 1020 87 10000 2.1 80 23:41 01.11.2020
6022 Clouds 14 1021 93 10000 2.6 60 23:23 01.11.2020
6023 Clouds 14 1021 93 10000 2.6 60 22:46 01.11.2020
6024 Clouds 15 1021 87 10000 2.1 60 22:25 01.11.2020
6025 Clouds 15 1022 87 10000 2.6 60 21:58 01.11.2020
6026 Clouds 15 1022 87 10000 2.1 50 21:38 01.11.2020
6027 Clouds 15 1022 87 10000 2.1 50 21:38 01.11.2020
6028 Clouds 15 1022 87 10000 2.1 50 21:20 01.11.2020
6029 Clouds 16 1022 82 10000 3.1 80 20:40 01.11.2020
6030 Clouds 16 1022 82 10000 3.1 80 20:20 01.11.2020
6031 Clouds 17 1021 77 10000 3.6 100 19:41 01.11.2020
6032 Clouds 17 1021 72 10000 4.1 90 19:23 01.11.2020
6033 Clouds 18 1021 68 10000 4.6 100 18:43 01.11.2020
6034 Clouds 18 1021 68 10000 4.6 110 18:20 01.11.2020
6035 Clouds 20 1020 60 10000 5.1 110 17:58 01.11.2020
6036 Clouds 20 1020 60 10000 5.1 110 17:40 01.11.2020
6037 Clouds 20 1020 60 10000 5.1 110 17:21 01.11.2020
6038 Clouds 20 1020 60 10000 5.1 110 17:21 01.11.2020
6039 Clouds 22 1020 46 10000 5.7 100 16:40 01.11.2020
6040 Clouds 22 1020 46 10000 5.7 100 16:19 01.11.2020
6041 Clouds 23 1019 43 10000 6.2 100 15:41 01.11.2020
6042 Clouds 25 1018 36 10000 6.7 90 15:22 01.11.2020
6043 Clouds 27 1018 28 10000 6.7 110 14:58 01.11.2020
6044 Clouds 27 1017 28 10000 6.7 110 14:39 01.11.2020
6045 Clouds 27 1017 28 10000 6.7 110 14:18 01.11.2020
6046 Clouds 28 1017 24 10000 7.2 110 13:46 01.11.2020
6047 Clouds 29 1017 26 10000 5.1 120 13:28 01.11.2020
6048 Clouds 29 1018 26 10000 2.6 0 12:43 01.11.2020
6049 Clouds 29 1018 30 10000 2.1 0 12:22 01.11.2020
6050 Clouds 29 1018 30 10000 2.6 120 11:51 01.11.2020
6051 Clouds 29 1018 30 10000 3.1 90 11:19 01.11.2020
6052 Clouds 28 1019 30 10000 2.6 220 10:43 01.11.2020
6053 Clouds 27 1019 32 10000 2.1 0 10:24 01.11.2020
6054 Clouds 26 1020 36 10000 2.6 0 09:53 01.11.2020
6055 Clouds 25 1020 38 10000 2.1 0 09:34 01.11.2020
6056 Clouds 23 1020 43 10000 2.1 0 08:46 01.11.2020
6057 Clouds 22 1020 49 10000 2.6 140 08:19 01.11.2020
6058 Clouds 20 1021 64 10000 1.5 0 07:39 01.11.2020
6059 Clouds 12 1021 100 10000 0.5 70 03:54 01.11.2020
6060 Clouds 13 1020 93 10000 2.1 50 01:47 01.11.2020
6061 Clouds 13 1020 93 10000 1 0 00:23 01.11.2020
6062 Clouds 12 1021 93 10000 1 0 23:25 31.10.2020
6063 Clouds 12 1021 93 10000 1.5 90 22:56 31.10.2020
6064 Clouds 12 1022 93 10000 2.1 100 22:36 31.10.2020
6065 Clouds 12 1022 93 10000 2.1 100 22:18 31.10.2020
6066 Clouds 13 1022 87 10000 2.1 120 21:43 31.10.2020
6067 Clouds 13 1022 87 10000 2.6 130 21:18 31.10.2020
6068 Clouds 13 1022 93 10000 2.6 130 20:38 31.10.2020
6069 Clouds 13 1022 93 10000 2.6 130 20:18 31.10.2020
6070 Clouds 13 1022 93 10000 2.6 130 20:18 31.10.2020
6071 Clouds 14 1022 87 10000 3.6 100 19:39 31.10.2020
6072 Clouds 14 1022 87 10000 3.6 100 19:20 31.10.2020
6073 Clouds 15 1022 77 10000 4.1 120 18:46 31.10.2020
6074 Clouds 15 1022 77 10000 5.1 100 17:58 31.10.2020
6075 Clouds 16 1022 72 10000 4.6 100 17:40 31.10.2020
6076 Clouds 16 1022 72 10000 4.6 100 17:19 31.10.2020
6077 Clouds 17 1021 67 10000 5.1 110 16:42 31.10.2020
6078 Clouds 17 1021 67 10000 5.1 110 16:42 31.10.2020
6079 Clouds 18 1021 63 10000 5.1 110 16:20 31.10.2020
6080 Clouds 19 1021 55 10000 4.1 100 15:43 31.10.2020
6081 Clouds 20 1020 56 10000 5.1 100 15:23 31.10.2020
6082 Clouds 21 1020 49 10000 4.1 110 14:47 31.10.2020
6083 Clouds 21 1020 49 10000 3.6 120 14:28 31.10.2020
6084 Clouds 22 1020 46 10000 4.1 110 13:50 31.10.2020
6085 Clouds 22 1021 46 10000 4.1 120 13:26 31.10.2020
6086 Clouds 22 1021 46 10000 5.1 120 12:42 31.10.2020
6087 Clouds 21 1021 52 10000 5.1 100 11:48 31.10.2020
6088 Clouds 21 1022 49 10000 5.1 110 11:29 31.10.2020
6089 Clouds 21 1022 46 10000 5.1 150 10:58 31.10.2020
6090 Clouds 21 1022 46 10000 5.1 120 10:36 31.10.2020
6091 Clouds 20 1023 49 10000 4.6 140 09:45 31.10.2020
6092 Clouds 19 1023 55 10000 6.2 130 09:27 31.10.2020
6093 Clouds 17 1024 63 10000 5.7 110 08:40 31.10.2020
6094 Clouds 16 1024 63 10000 5.7 160 07:59 31.10.2020
6095 Clouds 17 1024 59 10000 6.2 130 07:27 31.10.2020
6096 Clouds 15 1024 62 10000 5.7 140 06:42 31.10.2020
6097 Clouds 14 1024 71 10000 5.1 160 06:19 31.10.2020
6098 Clouds 14 1023 71 10000 5.7 170 03:46 31.10.2020
6099 Clouds 13 1023 71 10000 4.6 170 01:30 31.10.2020
6100 Clouds 13 1023 71 10000 4.6 170 01:30 31.10.2020
6101 Clouds 13 1023 71 10000 4.6 170 00:47 31.10.2020
6102 Clouds 14 1024 67 10000 6.2 170 23:53 30.10.2020
6103 Clouds 14 1024 71 10000 3.6 140 23:26 30.10.2020
6104 Clouds 14 1025 67 10000 5.7 170 22:53 30.10.2020
6105 Clouds 14 1025 71 10000 4.6 150 22:27 30.10.2020
6106 Clouds 14 1025 71 10000 4.6 150 21:58 30.10.2020
6107 Clouds 14 1025 67 10000 5.1 160 21:39 30.10.2020
6108 Clouds 14 1025 67 10000 5.1 160 21:20 30.10.2020
6109 Clouds 14 1026 67 10000 5.1 150 20:42 30.10.2020
6110 Clouds 14 1026 71 10000 5.1 150 20:23 30.10.2020
6111 Clouds 15 1026 67 10000 5.7 140 19:49 30.10.2020
6112 Clouds 14 1026 76 10000 4.6 140 19:19 30.10.2020
6113 Clouds 14 1026 76 10000 3.1 140 18:50 30.10.2020
6114 Clouds 14 1026 76 10000 4.6 130 18:28 30.10.2020
6115 Rain 14 1026 76 10000 6.7 130 17:54 30.10.2020
6116 Rain 15 1025 77 10000 6.7 140 17:36 30.10.2020
6117 Rain 15 1025 77 10000 6.7 140 17:18 30.10.2020
6118 Clouds 16 1025 72 10000 5.1 150 16:48 30.10.2020
6119 Clouds 17 1025 67 10000 5.1 140 16:19 30.10.2020
6120 Clouds 19 1025 55 10000 6.2 140 15:40 30.10.2020
6121 Clouds 19 1025 55 10000 6.2 140 15:20 30.10.2020
6122 Clouds 20 1024 56 10000 8.2 120 14:45 30.10.2020
6123 Clouds 20 1024 56 10000 8.2 120 14:25 30.10.2020
6124 Clouds 20 1024 64 10000 7.2 140 13:47 30.10.2020
6125 Clouds 20 1024 64 10000 7.2 140 13:23 30.10.2020
6126 Clouds 20 1024 60 10000 7.2 160 12:56 30.10.2020
6127 Clouds 20 1024 60 10000 7.2 160 12:23 30.10.2020
6128 Clouds 21 1024 56 10000 6.7 140 11:57 30.10.2020
6129 Clouds 21 1024 56 10000 6.7 140 11:57 30.10.2020
6130 Clouds 21 1024 56 10000 6.7 140 11:36 30.10.2020
6131 Clouds 21 1024 56 10000 6.7 140 11:18 30.10.2020
6132 Clouds 21 1020 56 10000 7.7 150 10:40 30.10.2020
6133 Clouds 21 1021 56 10000 7.7 150 10:21 30.10.2020
6134 Clouds 21 1025 60 10000 8.2 110 09:43 30.10.2020
6135 Clouds 21 1025 60 10000 8.2 110 09:21 30.10.2020
6136 Clouds 18 1026 72 10000 8.2 130 08:39 30.10.2020
6137 Clouds 18 1026 72 10000 8.2 130 08:21 30.10.2020
6138 Clouds 19 1026 68 10000 7.2 130 07:47 30.10.2020
6139 Clouds 19 1026 68 10000 7.2 130 07:27 30.10.2020
6140 Clouds 18 1026 77 10000 7.2 130 06:34 30.10.2020
6141 Clouds 15 1024 100 8000 3.1 160 04:28 30.10.2020
6142 Clouds 16 1023 82 10000 4.1 150 01:43 30.10.2020
6143 Clouds 16 1024 82 10000 4.1 160 00:38 30.10.2020
6144 Clouds 16 1024 82 10000 3.6 140 23:48 29.10.2020
6145 Clouds 16 1024 82 10000 4.6 140 23:30 29.10.2020
6146 Clouds 16 1025 82 10000 4.1 130 22:49 29.10.2020
6147 Clouds 16 1025 82 10000 4.1 130 22:27 29.10.2020
6148 Clouds 16 1026 82 10000 5.7 120 21:51 29.10.2020
6149 Clouds 16 1026 82 10000 5.7 120 21:28 29.10.2020
6150 Clouds 17 1026 82 10000 3.6 140 20:59 29.10.2020
6151 Clouds 17 1026 82 10000 3.6 140 20:40 29.10.2020
6152 Clouds 17 1026 82 10000 3.6 140 20:40 29.10.2020
6153 Clouds 17 1026 82 10000 3.6 140 20:18 29.10.2020
6154 Clouds 16 1026 82 10000 5.1 140 19:39 29.10.2020
6155 Clouds 16 1026 82 10000 5.1 140 19:21 29.10.2020
6156 Clouds 17 1025 82 10000 6.7 120 18:47 29.10.2020
6157 Clouds 17 1025 82 10000 6.7 120 18:27 29.10.2020
6158 Clouds 17 1025 82 10000 5.7 130 17:43 29.10.2020
6159 Clouds 17 1025 82 10000 5.7 130 17:24 29.10.2020
6160 Clouds 18 1025 77 10000 6.2 140 16:58 29.10.2020
6161 Clouds 19 1024 72 10000 5.7 130 16:37 29.10.2020
6162 Clouds 19 1024 72 10000 5.7 130 16:18 29.10.2020
6163 Clouds 20 1024 68 10000 6.2 120 15:41 29.10.2020
6164 Clouds 20 1024 68 10000 6.2 120 15:22 29.10.2020
6165 Clouds 21 1023 60 10000 5.7 130 14:59 29.10.2020
6166 Clouds 22 1023 56 10000 6.2 130 14:40 29.10.2020
6167 Clouds 22 1023 56 10000 6.2 130 14:19 29.10.2020
6168 Clouds 23 1023 53 10000 5.7 140 13:45 29.10.2020
6169 Clouds 24 1023 53 10000 5.7 140 13:24 29.10.2020
6170 Clouds 23 1023 53 10000 6.2 160 12:43 29.10.2020
6171 Clouds 23 1023 53 10000 6.2 160 12:19 29.10.2020
6172 Clouds 23 1023 56 10000 5.7 140 11:48 29.10.2020
6173 Clouds 24 1023 53 10000 6.7 130 11:26 29.10.2020
6174 Clouds 24 1024 50 10000 6.2 120 10:57 29.10.2020
6175 Clouds 24 1024 50 10000 6.2 120 10:36 29.10.2020
6176 Clouds 24 1024 50 10000 6.2 120 10:18 29.10.2020
6177 Clouds 23 1024 53 10000 6.7 100 09:42 29.10.2020
6178 Clouds 23 1024 53 10000 6.7 100 09:19 29.10.2020
6179 Clouds 22 1025 49 10000 6.2 170 08:40 29.10.2020
6180 Clouds 22 1025 49 10000 6.2 170 08:19 29.10.2020
6181 Clouds 21 1025 49 10000 6.7 170 07:48 29.10.2020
6182 Clouds 20 1025 60 10000 5.7 180 06:58 29.10.2020
6183 Clouds 19 1025 63 10000 5.7 150 06:22 29.10.2020
6184 Clouds 15 1024 82 10000 3.6 140 04:46 29.10.2020
6185 Clear 13 1020 86 10000 3.43 142 01:37 29.10.2020
6186 Clouds 15 1019 78 10000 3.85 140 00:31 29.10.2020
6187 Clouds 16 1019 77 10000 4.54 132 23:59 28.10.2020
6188 Clouds 16 1019 82 10000 4.41 127 23:22 28.10.2020
6189 Clouds 16 1019 82 10000 4.41 127 22:46 28.10.2020
6190 Clouds 16 1024 87 10000 4.1 100 22:28 28.10.2020
6191 Clouds 16 1024 87 10000 4.1 100 22:00 28.10.2020
6192 Clouds 17 1024 82 10000 4.6 110 21:41 28.10.2020
6193 Clouds 17 1024 82 10000 4.6 110 21:23 28.10.2020
6194 Clouds 17 1024 82 10000 4.6 110 20:42 28.10.2020
6195 Clouds 17 1024 82 10000 4.6 110 20:22 28.10.2020
6196 Clouds 18 1024 77 8000 4.1 120 19:51 28.10.2020
6197 Clouds 18 1024 77 8000 4.1 120 19:30 28.10.2020
6198 Clouds 18 1023 82 8000 5.7 100 18:50 28.10.2020
6199 Clouds 18 1023 82 8000 5.7 100 18:22 28.10.2020
6200 Clouds 18 1023 82 8000 5.7 100 18:22 28.10.2020
6201 Clouds 20 1022 64 8000 5.7 100 17:57 28.10.2020
6202 Clouds 20 1022 64 8000 5.7 100 17:39 28.10.2020
6203 Clouds 20 1022 64 8000 5.7 100 17:18 28.10.2020
6204 Clouds 20 1022 64 8000 5.7 100 17:18 28.10.2020
6205 Clouds 21 1021 56 7000 5.7 110 16:44 28.10.2020
6206 Clouds 21 1021 56 7000 5.7 110 16:22 28.10.2020
6207 Clouds 25 1020 41 10000 6.2 100 15:38 28.10.2020
6208 Clouds 25 1020 41 10000 6.2 100 15:19 28.10.2020
6209 Clouds 23 1015 41 10000 5.34 116 14:43 28.10.2020
6210 Clear 25 1015 33 10000 5.53 115 14:24 28.10.2020
6211 Clear 26 1014 29 10000 5.4 113 12:49 28.10.2020
6212 Clear 27 1014 27 10000 5.01 118 12:27 28.10.2020
6213 Clear 27 1014 27 10000 5.01 118 11:58 28.10.2020
6214 Clear 27 1014 27 10000 5.01 118 11:39 28.10.2020
6215 Clear 27 1015 25 10000 4.67 119 11:19 28.10.2020
6216 Clouds 24 1022 47 10000 4.6 110 10:48 28.10.2020
6217 Clouds 24 1022 47 10000 4.6 110 10:29 28.10.2020
6218 Clouds 23 1022 49 10000 3.6 110 09:45 28.10.2020
6219 Clouds 23 1022 49 10000 3.6 110 09:24 28.10.2020
6220 Clouds 22 1023 49 7000 3.6 110 08:51 28.10.2020
6221 Clouds 22 1023 49 7000 3.6 110 08:31 28.10.2020
6222 Clouds 20 1022 68 7000 4.1 130 07:54 28.10.2020
6223 Clouds 20 1022 68 7000 4.1 130 07:31 28.10.2020
6224 Clouds 19 1022 72 6000 2.6 140 06:56 28.10.2020
6225 Clouds 18 1022 82 6000 3.6 160 06:37 28.10.2020
6226 Clouds 18 1022 82 10000 2.6 130 05:23 28.10.2020
6227 Clouds 17 1021 88 10000 2.6 120 04:50 28.10.2020
6228 Clouds 16 1020 93 6000 2.1 120 03:31 28.10.2020
6229 Clouds 16 1019 93 10000 1 0 01:55 28.10.2020
6230 Clouds 16 1020 93 10000 0.84 144 00:33 28.10.2020
6231 Clouds 16 1020 93 10000 1.5 50 23:47 27.10.2020
6232 Clouds 16 1021 93 10000 1 0 23:21 27.10.2020
6233 Clouds 16 1021 93 10000 1 0 22:44 27.10.2020
6234 Clouds 16 1021 93 10000 1 0 22:19 27.10.2020
6235 Clouds 16 1022 87 10000 1.5 30 21:57 27.10.2020
6236 Clouds 16 1022 87 10000 1.5 30 21:57 27.10.2020
6237 Clouds 16 1022 87 10000 1.5 30 21:37 27.10.2020
6238 Clouds 16 1022 87 10000 1.5 30 21:19 27.10.2020
6239 Clouds 16 1022 93 10000 2.6 30 20:50 27.10.2020
6240 Clouds 16 1022 93 10000 2.6 30 20:24 27.10.2020
6241 Clouds 16 1023 93 10000 3.1 300 19:55 27.10.2020
6242 Clouds 16 1023 93 10000 3.1 300 19:37 27.10.2020
6243 Clouds 16 1023 93 10000 3.1 300 19:18 27.10.2020
6244 Drizzle 16 1022 93 8000 5.1 210 18:44 27.10.2020
6245 Drizzle 16 1022 93 8000 5.1 210 18:22 27.10.2020
6246 Drizzle 15 1021 87 8000 3.6 30 17:57 27.10.2020
6247 Rain 15 1021 93 8000 3.6 30 17:38 27.10.2020
6248 Rain 15 1021 93 8000 3.6 30 17:18 27.10.2020
6249 Thunderstorm 16 1021 93 8000 3.6 60 16:42 27.10.2020
6250 Thunderstorm 16 1021 93 8000 3.6 60 16:23 27.10.2020
6251 Thunderstorm 16 1020 93 8000 3.1 110 15:42 27.10.2020
6252 Thunderstorm 16 1020 93 7000 2.1 70 15:23 27.10.2020
6253 Thunderstorm 16 1019 93 5000 3.6 120 14:49 27.10.2020
6254 Thunderstorm 16 1019 93 3000 6.7 130 14:29 27.10.2020
6255 Thunderstorm 20 1018 60 8000 7.7 190 13:58 27.10.2020
6256 Clouds 23 1017 46 10000 11.3 210 13:28 27.10.2020
6257 Clouds 29 1017 28 10000 3.1 0 12:44 27.10.2020
6258 Clouds 29 1017 28 10000 3.1 0 12:25 27.10.2020
6259 Clouds 29 1017 26 10000 2.1 0 11:59 27.10.2020
6260 Clouds 29 1018 30 10000 2.6 0 11:41 27.10.2020
6261 Clouds 29 1018 30 10000 2.6 0 11:21 27.10.2020
6262 Clouds 28 1019 32 10000 3.6 180 10:43 27.10.2020
6263 Clouds 28 1019 34 10000 2.6 190 10:20 27.10.2020
6264 Clouds 26 1020 41 8000 2.6 230 09:28 27.10.2020
6265 Clouds 25 1021 47 8000 1.5 0 08:58 27.10.2020
6266 Clouds 23 1021 56 8000 2.1 260 08:30 27.10.2020
6267 Clouds 24 1021 53 8000 1.5 0 07:53 27.10.2020
6268 Clouds 23 1021 56 8000 1 0 07:35 27.10.2020
6269 Clouds 21 1021 64 8000 1.5 0 06:54 27.10.2020
6270 Clouds 20 1021 68 8000 1.5 80 06:20 27.10.2020
6271 Clouds 18 1021 77 8000 2.1 80 05:45 27.10.2020
6272 Clouds 17 1021 82 8000 3.1 60 05:23 27.10.2020
6273 Clouds 16 1019 87 10000 1 0 02:51 27.10.2020
6274 Clouds 16 1019 87 10000 2.1 140 01:20 27.10.2020
6275 Clouds 17 1019 82 10000 2.6 160 00:38 27.10.2020
6276 Clouds 17 1019 82 10000 1.5 0 23:37 26.10.2020
6277 Clouds 17 1019 82 10000 1.5 70 22:58 26.10.2020
6278 Clouds 17 1020 82 10000 3.1 40 22:39 26.10.2020
6279 Clouds 17 1020 82 10000 3.1 40 22:18 26.10.2020
6280 Clouds 17 1021 82 10000 2.6 80 21:37 26.10.2020
6281 Clouds 17 1021 82 10000 2.6 80 21:18 26.10.2020
6282 Clouds 18 1021 77 10000 3.6 120 20:49 26.10.2020
6283 Clouds 18 1021 77 10000 3.1 110 20:27 26.10.2020
6284 Clouds 18 1021 77 10000 4.1 130 19:49 26.10.2020
6285 Clouds 18 1021 77 10000 5.1 120 19:29 26.10.2020
6286 Clouds 19 1021 72 10000 5.7 110 18:59 26.10.2020
6287 Clouds 19 1020 72 10000 5.1 100 18:39 26.10.2020
6288 Clouds 19 1020 72 10000 5.1 100 18:20 26.10.2020
6289 Clouds 20 1020 64 10000 5.7 110 17:41 26.10.2020
6290 Clouds 20 1020 64 10000 5.7 110 17:23 26.10.2020
6291 Clouds 21 1019 56 10000 5.1 110 16:45 26.10.2020
6292 Clouds 22 1019 49 10000 5.1 100 16:22 26.10.2020
6293 Clouds 23 1018 40 10000 3.1 130 15:55 26.10.2020
6294 Clouds 23 1018 40 10000 3.1 130 15:55 26.10.2020
6295 Clouds 23 1018 40 10000 3.6 190 15:36 26.10.2020
6296 Clouds 23 1018 40 10000 3.6 190 15:18 26.10.2020
6297 Thunderstorm 24 1018 36 10000 5.1 190 14:44 26.10.2020
6298 Thunderstorm 25 1018 33 10000 5.7 180 14:18 26.10.2020
6299 Clouds 26 1018 24 10000 4.1 180 13:38 26.10.2020
6300 Clouds 26 1018 24 10000 4.1 180 13:20 26.10.2020
6301 Clouds 27 1018 24 10000 4.1 170 12:44 26.10.2020
6302 Clouds 27 1018 28 10000 3.6 170 12:23 26.10.2020
6303 Clouds 27 1018 28 10000 2.6 130 11:48 26.10.2020
6304 Clouds 25 1020 38 10000 3.6 110 11:27 26.10.2020
6305 Clouds 25 1020 38 10000 3.6 110 10:58 26.10.2020
6306 Clouds 25 1020 38 10000 3.6 110 10:58 26.10.2020
6307 Clouds 25 1020 38 10000 3.6 110 10:40 26.10.2020
6308 Clouds 25 1020 38 10000 3.6 110 10:19 26.10.2020
6309 Clouds 23 1021 43 10000 3.6 140 09:42 26.10.2020
6310 Clouds 25 1021 41 10000 3.6 0 09:19 26.10.2020
6311 Clouds 23 1021 46 10000 3.1 0 08:28 26.10.2020
6312 Clouds 22 1022 49 10000 3.6 100 07:52 26.10.2020
6313 Clouds 21 1022 56 10000 3.6 100 07:33 26.10.2020
6314 Clouds 19 1022 63 10000 3.1 130 06:19 26.10.2020
6315 Clouds 14 1021 87 10000 2.6 120 04:21 26.10.2020
6316 Clouds 14 1020 87 10000 3.6 120 03:21 26.10.2020
6317 Clouds 14 1020 87 10000 3.6 120 03:21 26.10.2020
6318 Clouds 16 1020 82 10000 3.1 90 01:37 26.10.2020
6319 Clouds 16 1020 82 10000 2.6 140 00:44 26.10.2020
6320 Clouds 16 1020 82 10000 3.1 90 00:25 26.10.2020
6321 Clouds 16 1021 82 10000 2.1 80 23:38 25.10.2020
6322 Clouds 16 1021 82 10000 2.1 80 23:18 25.10.2020
6323 Clouds 16 1021 82 10000 1.5 0 22:39 25.10.2020
6324 Clouds 16 1021 82 10000 1.5 0 22:20 25.10.2020
6325 Clouds 15 1022 87 10000 2.6 70 21:40 25.10.2020
6326 Clouds 15 1022 87 10000 2.6 70 21:20 25.10.2020
6327 Clouds 16 1022 82 10000 5.1 90 20:45 25.10.2020
6328 Clouds 16 1022 82 10000 5.1 90 20:25 25.10.2020
6329 Clouds 16 1022 82 10000 6.2 100 19:58 25.10.2020
6330 Clouds 17 1022 77 10000 6.2 90 19:39 25.10.2020
6331 Clouds 17 1022 77 10000 6.2 90 19:20 25.10.2020
6332 Clouds 18 1022 72 10000 5.7 100 18:41 25.10.2020
6333 Clouds 20 1022 72 10000 7.2 120 18:23 25.10.2020
6334 Clouds 19 1022 72 10000 6.7 120 17:58 25.10.2020
6335 Clouds 19 1021 72 8000 5.1 140 17:38 25.10.2020
6336 Clouds 19 1021 72 8000 5.1 140 17:20 25.10.2020
6337 Clouds 20 1020 64 8000 7.7 100 16:47 25.10.2020
6338 Clouds 21 1020 56 8000 8.2 110 16:28 25.10.2020
6339 Clouds 22 1019 46 10000 5.7 120 15:52 25.10.2020
6340 Clouds 23 1019 43 10000 6.7 120 15:31 25.10.2020
6341 Clouds 24 1018 38 10000 6.2 110 14:58 25.10.2020
6342 Clouds 24 1018 36 8000 7.2 110 14:32 25.10.2020
6343 Clouds 26 1018 29 10000 7.7 100 13:59 25.10.2020
6344 Clouds 27 1018 24 10000 6.7 90 13:40 25.10.2020
6345 Clouds 27 1018 24 10000 6.7 90 13:19 25.10.2020
6346 Clouds 27 1018 24 10000 6.7 90 13:19 25.10.2020
6347 Clouds 26 1018 26 10000 4.1 0 12:46 25.10.2020
6348 Clouds 26 1018 29 10000 4.6 160 12:25 25.10.2020
6349 Clouds 25 1019 29 10000 4.1 140 11:44 25.10.2020
6350 Clouds 26 1019 31 10000 5.7 180 11:21 25.10.2020
6351 Clouds 26 1019 31 10000 5.7 180 11:21 25.10.2020
6352 Clouds 26 1020 31 10000 3.6 130 10:57 25.10.2020
6353 Clouds 26 1020 27 10000 3.6 0 10:38 25.10.2020
6354 Clouds 26 1020 27 10000 3.6 0 10:19 25.10.2020
6355 Clouds 25 1021 29 10000 4.1 120 09:40 25.10.2020
6356 Clouds 25 1021 29 10000 4.1 120 09:19 25.10.2020
6357 Clouds 25 1021 29 10000 4.1 120 09:19 25.10.2020
6358 Clouds 25 1021 29 10000 4.1 120 09:19 25.10.2020
6359 Clouds 22 1022 43 10000 3.6 150 08:41 25.10.2020
6360 Clouds 22 1022 43 10000 3.6 150 08:41 25.10.2020
6361 Clouds 22 1022 43 10000 3.6 150 08:22 25.10.2020
6362 Clouds 21 1022 46 10000 3.1 140 07:46 25.10.2020
6363 Clouds 20 1022 52 10000 3.6 0 07:24 25.10.2020
6364 Clouds 19 1023 59 10000 2.6 110 06:36 25.10.2020
6365 Clouds 16 1022 77 10000 2.6 140 05:34 25.10.2020
6366 Clouds 15 1022 82 10000 2.1 150 04:51 25.10.2020
6367 Clouds 15 1021 87 10000 2.6 130 02:42 25.10.2020
6368 Clouds 14 1021 87 10000 3.6 90 00:54 25.10.2020
6369 Clouds 14 1021 87 10000 3.6 120 00:31 25.10.2020
6370 Clouds 15 1021 82 10000 2.6 140 23:59 24.10.2020
6371 Clouds 15 1022 87 10000 3.1 140 23:40 24.10.2020
6372 Clouds 15 1022 87 10000 3.1 140 23:20 24.10.2020
6373 Clouds 15 1022 87 10000 3.1 140 22:41 24.10.2020
6374 Clouds 15 1022 87 10000 4.6 100 22:23 24.10.2020
6375 Clouds 16 1022 82 10000 5.1 110 21:56 24.10.2020
6376 Clouds 16 1022 82 10000 3.6 90 21:37 24.10.2020
6377 Clouds 16 1022 82 10000 3.6 90 21:19 24.10.2020
6378 Clouds 16 1022 87 10000 4.1 90 20:44 24.10.2020
6379 Clouds 17 1022 82 10000 4.1 90 20:20 24.10.2020
6380 Clouds 17 1022 82 10000 5.7 110 19:44 24.10.2020
6381 Clouds 18 1022 77 10000 5.1 100 19:25 24.10.2020
6382 Clouds 19 1022 68 10000 6.2 100 18:54 24.10.2020
6383 Clouds 19 1021 68 10000 5.1 100 18:31 24.10.2020
6384 Clouds 20 1021 64 10000 6.2 80 17:54 24.10.2020
6385 Clouds 21 1021 56 10000 6.2 90 17:27 24.10.2020
6386 Clouds 23 1020 43 10000 6.7 100 16:57 24.10.2020
6387 Clouds 24 1020 44 10000 5.7 110 16:39 24.10.2020
6388 Clouds 24 1020 41 10000 7.7 100 15:58 24.10.2020
6389 Clouds 25 1020 41 10000 6.7 110 15:38 24.10.2020
6390 Clouds 25 1020 41 10000 6.7 110 15:18 24.10.2020
6391 Clouds 26 1020 36 10000 6.7 100 14:39 24.10.2020
6392 Clouds 26 1020 36 10000 6.7 100 14:21 24.10.2020
6393 Clouds 26 1020 36 10000 6.7 110 13:44 24.10.2020
6394 Clouds 26 1020 36 10000 7.2 120 13:20 24.10.2020
6395 Clouds 26 1020 39 10000 7.2 110 12:37 24.10.2020
6396 Clouds 26 1020 39 10000 7.2 110 12:19 24.10.2020
6397 Clouds 26 1021 39 10000 6.2 90 11:50 24.10.2020
6398 Clouds 25 1021 41 10000 6.2 100 11:23 24.10.2020
6399 Clouds 25 1022 41 10000 6.7 100 10:44 24.10.2020
6400 Clouds 24 1022 47 10000 6.2 120 10:26 24.10.2020
6401 Clouds 23 1022 49 10000 5.7 120 09:46 24.10.2020
6402 Clouds 22 1023 53 10000 4.1 170 09:26 24.10.2020
6403 Clouds 20 1023 60 10000 5.1 150 08:56 24.10.2020
6404 Clouds 21 1023 60 10000 5.7 120 08:19 24.10.2020
6405 Clouds 18 1023 68 10000 4.6 150 07:51 24.10.2020
6406 Clouds 17 1023 72 10000 4.6 140 07:20 24.10.2020
6407 Clouds 16 1023 77 10000 5.1 160 06:50 24.10.2020
6408 Clouds 15 1022 82 9000 4.1 130 05:43 24.10.2020
6409 Clouds 14 1021 87 10000 2.6 130 02:20 24.10.2020
6410 Clouds 14 1022 93 10000 3.1 90 00:55 24.10.2020
6411 Clouds 14 1022 93 10000 3.1 90 00:37 24.10.2020
6412 Clouds 14 1022 93 10000 3.1 90 00:19 24.10.2020
6413 Clouds 15 1023 87 10000 3.6 90 23:40 23.10.2020
6414 Clouds 15 1023 87 10000 3.6 90 23:22 23.10.2020
6415 Clouds 15 1023 87 10000 3.1 90 22:42 23.10.2020
6416 Clouds 16 1024 82 10000 4.1 100 22:22 23.10.2020
6417 Clouds 16 1024 82 10000 5.1 110 21:56 23.10.2020
6418 Clouds 16 1024 87 10000 4.6 100 21:38 23.10.2020
6419 Clouds 16 1024 87 10000 4.6 100 21:20 23.10.2020
6420 Clouds 17 1024 82 10000 5.1 110 20:39 23.10.2020
6421 Clouds 17 1024 82 10000 5.1 110 20:19 23.10.2020
6422 Clouds 18 1023 77 10000 4.6 130 19:45 23.10.2020
6423 Clouds 18 1023 77 10000 4.6 130 19:26 23.10.2020
6424 Clouds 19 1023 72 10000 4.6 130 18:47 23.10.2020
6425 Clouds 19 1023 68 10000 5.1 100 18:29 23.10.2020
6426 Clouds 20 1023 64 10000 7.2 110 17:47 23.10.2020
6427 Clouds 21 1022 56 10000 6.2 110 17:22 23.10.2020
6428 Clouds 22 1022 56 10000 5.7 100 16:51 23.10.2020
6429 Clouds 23 1022 49 10000 6.7 110 16:33 23.10.2020
6430 Clouds 24 1021 47 10000 6.2 90 15:58 23.10.2020
6431 Clouds 25 1021 44 10000 6.2 100 15:39 23.10.2020
6432 Clouds 25 1021 44 10000 6.2 100 15:19 23.10.2020
6433 Clouds 25 1021 41 10000 7.7 90 14:45 23.10.2020
6434 Clouds 25 1021 41 10000 7.7 90 14:45 23.10.2020
6435 Clouds 25 1021 41 10000 7.7 90 14:45 23.10.2020
6436 Clouds 25 1021 44 10000 7.2 100 14:27 23.10.2020
6437 Clouds 25 1021 41 10000 7.2 100 13:41 23.10.2020
6438 Clouds 25 1021 41 10000 7.2 100 13:23 23.10.2020
6439 Clouds 26 1022 39 10000 9.3 90 12:50 23.10.2020
6440 Clouds 25 1022 41 10000 7.7 110 12:30 23.10.2020
6441 Clouds 25 1022 41 10000 8.2 110 11:50 23.10.2020
6442 Clouds 24 1023 44 10000 7.7 110 11:26 23.10.2020
6443 Clouds 23 1023 46 10000 7.7 120 10:52 23.10.2020
6444 Clouds 23 1023 46 10000 7.7 120 10:26 23.10.2020
6445 Clouds 23 1023 46 10000 8.7 100 09:57 23.10.2020
6446 Clouds 22 1024 49 10000 7.7 110 09:38 23.10.2020
6447 Clouds 22 1024 49 10000 7.7 110 09:19 23.10.2020
6448 Clouds 21 1024 52 10000 6.2 110 08:49 23.10.2020
6449 Clouds 19 1024 59 10000 6.2 130 08:23 23.10.2020
6450 Clouds 18 1024 68 10000 6.2 110 07:26 23.10.2020
6451 Clouds 18 1023 68 10000 3.6 140 06:48 23.10.2020
6452 Clouds 16 1023 77 10000 5.1 120 06:19 23.10.2020
6453 Clouds 14 1022 82 8000 3.6 140 03:37 23.10.2020
6454 Clouds 14 1022 82 8000 3.1 140 02:26 23.10.2020
6455 Clouds 14 1023 82 8000 2.6 140 00:49 23.10.2020
6456 Clouds 14 1023 82 8000 2.6 140 00:21 23.10.2020
6457 Clouds 14 1024 87 7000 5.1 110 23:37 22.10.2020
6458 Clouds 14 1024 87 7000 5.1 110 23:18 22.10.2020
6459 Clouds 15 1024 82 7000 5.1 120 22:42 22.10.2020
6460 Clouds 15 1025 82 7000 5.1 120 22:21 22.10.2020
6461 Clouds 16 1025 77 7000 4.6 120 21:47 22.10.2020
6462 Clouds 16 1024 82 7000 3.6 120 21:28 22.10.2020
6463 Clouds 16 1024 77 7000 2.6 140 20:58 22.10.2020
6464 Clouds 16 1024 77 7000 5.1 110 20:40 22.10.2020
6465 Clouds 16 1024 77 7000 5.1 110 20:20 22.10.2020
6466 Smoke 18 1023 68 5000 4.1 130 19:41 22.10.2020
6467 Smoke 18 1023 68 5000 4.1 130 19:19 22.10.2020
6468 Smoke 18 1023 68 5000 6.7 110 18:43 22.10.2020
6469 Smoke 19 1023 63 5000 6.2 120 18:21 22.10.2020
6470 Smoke 20 1022 64 5000 6.7 120 17:47 22.10.2020
6471 Smoke 20 1022 60 5000 7.2 110 17:26 22.10.2020
6472 Clouds 22 1022 53 7000 6.7 120 16:57 22.10.2020
6473 Clouds 23 1021 49 8000 6.2 120 16:39 22.10.2020
6474 Clouds 23 1021 49 8000 6.2 120 16:20 22.10.2020
6475 Clouds 24 1021 44 10000 5.7 130 15:44 22.10.2020
6476 Clouds 26 1021 39 10000 6.2 120 15:25 22.10.2020
6477 Clouds 27 1020 34 10000 5.1 160 14:47 22.10.2020
6478 Clouds 27 1020 34 10000 5.1 160 14:25 22.10.2020
6479 Clouds 26 1020 36 10000 4.1 140 13:49 22.10.2020
6480 Clouds 26 1021 39 10000 4.6 150 13:24 22.10.2020
6481 Clouds 26 1021 39 10000 6.2 160 12:53 22.10.2020
6482 Clouds 26 1021 41 10000 3.6 150 12:24 22.10.2020
6483 Clouds 25 1022 44 10000 5.7 170 11:50 22.10.2020
6484 Clouds 24 1022 50 10000 5.1 160 11:20 22.10.2020
6485 Clouds 23 1023 46 10000 5.7 170 10:51 22.10.2020
6486 Clouds 23 1023 46 10000 5.1 120 10:28 22.10.2020
6487 Clouds 21 1024 49 10000 5.7 140 09:52 22.10.2020
6488 Clouds 21 1024 52 10000 5.1 160 09:33 22.10.2020
6489 Clouds 20 1024 52 10000 6.7 120 08:51 22.10.2020
6490 Clouds 20 1024 52 10000 5.7 130 08:30 22.10.2020
6491 Clouds 19 1024 55 10000 5.7 130 07:57 22.10.2020
6492 Clouds 17 1024 63 10000 5.7 130 07:34 22.10.2020
6493 Clouds 16 1024 67 10000 5.7 140 06:58 22.10.2020
6494 Clouds 15 1024 72 10000 5.1 130 06:26 22.10.2020
6495 Clouds 14 1023 76 10000 3.6 150 05:40 22.10.2020
6496 Clouds 13 1023 82 10000 3.6 160 04:40 22.10.2020
6497 Clouds 14 1022 76 10000 4.6 140 01:45 22.10.2020
6498 Clouds 15 1023 82 10000 4.1 140 00:26 22.10.2020
6499 Clouds 15 1023 82 10000 4.1 130 23:50 21.10.2020
6500 Clouds 15 1023 82 10000 3.1 140 23:31 21.10.2020
6501 Clouds 15 1024 87 10000 5.7 110 22:41 21.10.2020
6502 Clouds 15 1024 87 10000 5.7 110 22:19 21.10.2020
6503 Clouds 15 1024 87 10000 5.7 110 22:19 21.10.2020
6504 Clouds 16 1024 87 10000 4.6 110 21:56 21.10.2020
6505 Clouds 16 1024 87 10000 4.6 110 21:37 21.10.2020
6506 Clouds 16 1024 87 10000 4.6 110 21:18 21.10.2020
6507 Clouds 16 1024 87 10000 4.6 110 21:18 21.10.2020
6508 Clouds 17 1023 82 10000 4.6 100 20:47 21.10.2020
6509 Clouds 17 1023 82 10000 4.6 100 20:19 21.10.2020
6510 Clouds 18 1022 82 10000 5.7 100 19:44 21.10.2020
6511 Clouds 18 1022 82 10000 5.7 100 19:26 21.10.2020
6512 Clouds 18 1022 82 10000 5.7 100 19:26 21.10.2020
6513 Clouds 20 1022 68 10000 5.7 110 18:54 21.10.2020
6514 Clouds 21 1022 64 10000 5.7 100 18:33 21.10.2020
6515 Clouds 21 1022 64 10000 5.7 100 18:33 21.10.2020
6516 Clouds 23 1021 46 10000 3.6 130 17:55 21.10.2020
6517 Clouds 23 1021 46 10000 3.6 130 17:37 21.10.2020
6518 Clouds 23 1021 46 10000 3.6 130 17:18 21.10.2020
6519 Clouds 25 1020 41 10000 3.6 100 16:40 21.10.2020
6520 Clouds 25 1020 41 10000 3.6 100 16:21 21.10.2020
6521 Clouds 26 1020 39 10000 3.6 140 15:49 21.10.2020
6522 Clouds 26 1020 39 10000 3.1 160 15:29 21.10.2020
6523 Clear 25 1015 38 10000 4.3 95 14:58 21.10.2020
6524 Clear 25 1015 38 10000 4.3 95 14:40 21.10.2020
6525 Clear 25 1015 38 10000 4.3 95 14:40 21.10.2020
6526 Clouds 26 1014 34 10000 4.02 96 14:21 21.10.2020
6527 Clear 26 1015 33 10000 4 99 13:42 21.10.2020
6528 Clouds 26 1021 41 10000 5.7 170 13:23 21.10.2020
6529 Clouds 26 1021 41 10000 5.7 170 12:42 21.10.2020
6530 Clouds 25 1022 44 10000 3.1 150 12:23 21.10.2020
6531 Clouds 25 1022 44 10000 3.1 150 11:48 21.10.2020
6532 Clouds 25 1022 44 10000 3.1 150 11:23 21.10.2020
6533 Clouds 24 1022 44 10000 5.7 120 10:59 21.10.2020
6534 Clouds 24 1023 44 10000 4.1 140 10:40 21.10.2020
6535 Clouds 24 1023 44 10000 4.1 140 10:21 21.10.2020
6536 Clouds 24 1023 44 10000 5.7 110 09:44 21.10.2020
6537 Clouds 24 1023 44 10000 5.7 110 09:25 21.10.2020
6538 Clouds 22 1023 53 10000 5.7 160 08:42 21.10.2020
6539 Clouds 22 1023 53 10000 5.7 160 08:23 21.10.2020
6540 Clouds 21 1023 56 10000 3.6 140 07:55 21.10.2020
6541 Clouds 20 1023 64 10000 4.6 120 07:20 21.10.2020
6542 Clouds 17 1023 82 8000 2.6 130 06:37 21.10.2020
6543 Clouds 17 1023 82 8000 2.6 130 06:19 21.10.2020
6544 Clouds 15 1022 93 10000 1.5 0 03:38 21.10.2020
6545 Clouds 16 1022 87 10000 2.6 140 00:31 21.10.2020
6546 Clouds 16 1022 87 10000 3.1 140 23:35 20.10.2020
6547 Clouds 16 1023 87 10000 3.1 150 22:47 20.10.2020
6548 Clouds 17 1023 82 10000 2.6 130 22:25 20.10.2020
6549 Clouds 17 1023 82 10000 2.6 130 21:47 20.10.2020
6550 Clouds 17 1023 82 10000 3.1 120 21:19 20.10.2020
6551 Clouds 17 1023 82 10000 4.6 100 20:43 20.10.2020
6552 Clouds 17 1023 82 10000 4.6 100 20:24 20.10.2020
6553 Clouds 18 1023 82 10000 6.2 100 19:55 20.10.2020
6554 Clouds 18 1022 82 10000 5.1 90 19:37 20.10.2020
6555 Clouds 18 1022 82 10000 5.1 90 19:19 20.10.2020
6556 Clouds 19 1022 72 10000 5.1 110 18:38 20.10.2020
6557 Clouds 21 1021 52 10000 5.7 100 17:59 20.10.2020
6558 Clouds 22 1021 53 10000 5.7 100 17:40 20.10.2020
6559 Clouds 22 1021 53 10000 5.7 100 17:22 20.10.2020
6560 Clouds 24 1020 41 10000 4.6 100 16:42 20.10.2020
6561 Clouds 24 1020 41 10000 4.6 100 16:24 20.10.2020
6562 Clouds 25 1020 38 10000 3.1 130 15:49 20.10.2020
6563 Clouds 26 1019 34 10000 3.1 110 15:29 20.10.2020
6564 Clouds 26 1019 36 10000 3.6 100 14:47 20.10.2020
6565 Clouds 26 1019 36 10000 4.1 140 14:26 20.10.2020
6566 Clouds 27 1019 36 10000 3.6 140 13:59 20.10.2020
6567 Clouds 26 1019 36 10000 4.6 140 13:41 20.10.2020
6568 Clouds 26 1019 36 10000 4.6 140 13:20 20.10.2020
6569 Clouds 26 1020 34 10000 4.1 120 12:51 20.10.2020
6570 Clouds 26 1020 31 10000 5.1 100 12:31 20.10.2020
6571 Clouds 25 1020 31 10000 5.7 110 11:48 20.10.2020
6572 Clouds 25 1021 36 10000 5.1 110 11:29 20.10.2020
6573 Clouds 24 1021 41 10000 4.1 120 10:49 20.10.2020
6574 Clouds 24 1021 44 10000 5.7 80 10:26 20.10.2020
6575 Clouds 24 1021 44 10000 5.7 100 09:46 20.10.2020
6576 Clouds 22 1022 49 10000 4.6 120 09:20 20.10.2020
6577 Clouds 21 1022 56 10000 3.6 130 08:40 20.10.2020
6578 Clouds 21 1022 56 10000 3.6 130 08:22 20.10.2020
6579 Clouds 19 1022 63 10000 4.6 120 07:44 20.10.2020
6580 Clouds 17 1022 72 10000 4.1 150 07:22 20.10.2020
6581 Clouds 16 1021 77 10000 3.1 140 06:20 20.10.2020
6582 Clouds 14 1021 82 10000 2.6 140 04:51 20.10.2020
6583 Clouds 14 1020 87 10000 4.1 130 02:31 20.10.2020
6584 Clouds 15 1020 82 10000 3.1 140 01:27 20.10.2020
6585 Clouds 14 1021 87 10000 4.1 110 00:51 20.10.2020
6586 Clouds 14 1021 87 10000 4.1 110 00:27 20.10.2020
6587 Clouds 15 1021 87 10000 3.6 120 23:51 19.10.2020
6588 Clouds 15 1022 87 4500 3.6 120 23:26 19.10.2020
6589 Clouds 15 1022 87 4500 3.6 120 22:54 19.10.2020
6590 Clouds 16 1022 82 10000 3.1 120 22:26 19.10.2020
6591 Clouds 16 1022 87 10000 2.1 150 21:57 19.10.2020
6592 Clouds 16 1022 87 10000 2.6 100 21:39 19.10.2020
6593 Clouds 16 1022 87 10000 2.6 100 21:18 19.10.2020
6594 Clouds 17 1022 82 10000 4.1 90 20:42 19.10.2020
6595 Clouds 17 1022 82 10000 4.1 90 20:24 19.10.2020
6596 Clouds 18 1022 77 9000 5.7 100 19:45 19.10.2020
6597 Clouds 18 1022 77 9000 5.7 110 19:19 19.10.2020
6598 Clouds 19 1022 72 9000 5.7 110 18:50 19.10.2020
6599 Clouds 20 1021 68 9000 6.2 120 18:28 19.10.2020
6600 Clouds 22 1020 49 10000 6.2 110 17:47 19.10.2020
6601 Clouds 22 1020 49 10000 6.2 110 17:27 19.10.2020
6602 Clouds 22 1020 49 10000 6.2 100 16:54 19.10.2020
6603 Clouds 24 1019 44 10000 6.7 110 16:30 19.10.2020
6604 Clouds 22 1015 53 10000 4.93 95 15:50 19.10.2020
6605 Clouds 24 1015 47 10000 4.25 100 15:26 19.10.2020
6606 Clouds 24 1015 47 10000 4.25 100 14:58 19.10.2020
6607 Clouds 24 1015 47 10000 4.25 100 14:38 19.10.2020
6608 Clouds 25 1014 42 10000 4.14 103 14:19 19.10.2020
6609 Clouds 25 1014 44 10000 3.99 100 13:42 19.10.2020
6610 Clouds 25 1015 41 10000 4 102 13:22 19.10.2020
6611 Clouds 25 1015 41 10000 4 102 12:45 19.10.2020
6612 Clouds 25 1016 41 10000 4.08 101 12:25 19.10.2020
6613 Clouds 25 1016 41 10000 4.08 101 11:49 19.10.2020
6614 Clouds 24 1022 47 10000 5.1 150 11:22 19.10.2020
6615 Clouds 24 1022 47 10000 5.1 150 10:45 19.10.2020
6616 Clouds 24 1022 47 10000 5.1 150 10:24 19.10.2020
6617 Clouds 24 1022 44 10000 6.7 120 09:57 19.10.2020
6618 Clouds 23 1022 46 10000 5.7 140 09:36 19.10.2020
6619 Clouds 23 1022 46 10000 5.7 140 09:18 19.10.2020
6620 Clouds 22 1022 53 10000 5.1 140 08:41 19.10.2020
6621 Clouds 22 1022 53 10000 4.6 140 08:20 19.10.2020
6622 Clouds 19 1022 63 10000 5.7 140 07:21 19.10.2020
6623 Clouds 17 1022 72 10000 5.1 140 06:40 19.10.2020
6624 Clouds 16 1021 77 10000 4.1 130 05:20 19.10.2020
6625 Clouds 16 1020 82 7000 2.6 120 03:45 19.10.2020
6626 Clouds 17 1020 77 7000 3.1 130 01:42 19.10.2020
6627 Clouds 17 1021 77 7000 4.1 140 00:38 19.10.2020
6628 Clouds 17 1021 82 7000 4.6 110 23:56 18.10.2020
6629 Clouds 17 1021 82 7000 5.7 120 23:37 18.10.2020
6630 Clouds 17 1021 82 7000 5.7 120 23:18 18.10.2020
6631 Clouds 17 1021 82 7000 5.7 120 23:18 18.10.2020
6632 Clouds 18 1021 77 7000 5.1 110 22:43 18.10.2020
6633 Clouds 18 1022 82 6000 2.6 140 22:18 18.10.2020
6634 Clouds 18 1022 82 6000 5.1 120 21:41 18.10.2020
6635 Clouds 18 1022 82 6000 4.1 120 21:21 18.10.2020
6636 Clouds 18 1022 77 6000 4.1 130 20:44 18.10.2020
6637 Clouds 19 1022 72 6000 5.1 130 20:23 18.10.2020
6638 Clouds 19 1022 72 6000 5.1 140 19:50 18.10.2020
6639 Clouds 18 1021 77 6000 4.1 130 19:27 18.10.2020
6640 Clouds 19 1021 77 6000 6.7 110 18:51 18.10.2020
6641 Clouds 19 1021 72 6000 6.7 110 18:30 18.10.2020
6642 Smoke 20 1020 68 5000 6.2 100 17:59 18.10.2020
6643 Clouds 20 1020 68 8000 6.2 120 17:40 18.10.2020
6644 Clouds 20 1020 68 8000 6.2 120 17:21 18.10.2020
6645 Clouds 20 1020 68 8000 6.2 120 17:21 18.10.2020
6646 Clouds 21 1019 64 10000 6.2 110 16:41 18.10.2020
6647 Clouds 22 1019 60 10000 5.1 140 16:21 18.10.2020
6648 Clouds 23 1019 53 10000 5.7 140 15:42 18.10.2020
6649 Clouds 24 1018 50 10000 5.7 120 15:19 18.10.2020
6650 Clouds 25 1018 47 10000 6.2 110 14:57 18.10.2020
6651 Clouds 25 1018 47 10000 6.2 110 14:31 18.10.2020
6652 Clouds 25 1019 47 10000 6.2 120 13:58 18.10.2020
6653 Clouds 24 1019 47 10000 6.7 130 13:40 18.10.2020
6654 Clouds 24 1019 47 10000 6.7 130 13:21 18.10.2020